# Wetter Temperatur Luftdruck Luftfeuchtigkeit Sichtweite Windgeschwindigkeit Windrichtung Zeit
1 Clear 8 1011 37 10000 2.68 312 11:49 22.04.2021
2 Clear 8 1011 37 10000 2.68 154 11:25 22.04.2021
3 Clear 7 1011 37 10000 2.68 154 10:46 22.04.2021
4 Clear 7 1011 37 10000 2.68 154 10:27 22.04.2021
5 Clear 6 1011 37 10000 0.89 154 09:58 22.04.2021
6 Clear 6 1011 29 10000 0.89 89 09:33 22.04.2021
7 Clear 5 989 41 10000 4.47 337 08:47 22.04.2021
8 Clear 5 989 42 10000 0.45 226 08:23 22.04.2021
9 Clear 4 989 43 10000 3.91 343 07:47 22.04.2021
10 Clear 3 1009 33 10000 0.45 90 07:29 22.04.2021
11 Clear 3 989 50 10000 2.31 337 06:41 22.04.2021
12 Clear 2 988 51 10000 2.43 340 05:53 22.04.2021
13 Clear 2 988 51 10000 3.58 343 05:20 22.04.2021
14 Clouds 4 987 47 10000 0.45 269 01:58 22.04.2021
15 Clouds 5 986 47 10000 0.45 225 23:55 21.04.2021
16 Clouds 5 986 45 10000 6.66 348 23:37 21.04.2021
17 Clouds 6 985 45 10000 7.05 353 22:48 21.04.2021
18 Clouds 6 985 44 10000 0.45 267 22:25 21.04.2021
19 Clouds 6 985 47 10000 0.89 270 21:59 21.04.2021
20 Clouds 6 1002 32 10000 2.68 321 21:40 21.04.2021
21 Clouds 7 984 45 10000 7.03 351 21:19 21.04.2021
22 Clouds 7 983 34 10000 0.45 225 20:27 21.04.2021
23 Clouds 7 1002 32 10000 2.68 321 19:46 21.04.2021
24 Clouds 7 1002 32 10000 2.68 321 19:27 21.04.2021
25 Clouds 6 1002 32 10000 2.68 321 18:51 21.04.2021
26 Clouds 7 1002 63 10000 2.68 321 18:33 21.04.2021
27 Clouds 7 1002 63 10000 2.68 321 17:59 21.04.2021
28 Rain 6 1002 63 10000 2.68 321 17:39 21.04.2021
29 Clouds 7 1002 63 10000 2.68 321 17:20 21.04.2021
30 Rain 6 1002 63 10000 3.58 156 16:38 21.04.2021
31 Clouds 8 1002 63 10000 3.58 156 15:47 21.04.2021
32 Clouds 8 981 50 10000 0.45 90 15:21 21.04.2021
33 Clouds 6 1002 63 10000 3.58 156 14:44 21.04.2021
34 Clouds 8 981 52 10000 0.45 225 14:25 21.04.2021
35 Clouds 6 1002 63 10000 3.58 156 13:50 21.04.2021
36 Clouds 6 1002 87 10000 2.68 285 13:21 21.04.2021
37 Clouds 6 1002 87 10000 2.68 285 12:46 21.04.2021
38 Clouds 6 1002 87 6801 2.68 285 12:20 21.04.2021
39 Clouds 5 1002 87 6801 2.68 285 11:43 21.04.2021
40 Clouds 4 1002 87 2542 2.68 285 11:23 21.04.2021
41 Rain 4 1002 87 2542 4.04 316 10:39 21.04.2021
42 Clouds 7 983 52 10000 2.24 12 09:57 21.04.2021
43 Clouds 9 979 49 10000 4.99 325 09:21 21.04.2021
44 Clouds 8 980 57 10000 4.99 325 08:46 21.04.2021
45 Clouds 7 980 60 10000 2.47 308 08:24 21.04.2021
46 Clouds 7 980 57 10000 2.45 308 07:54 21.04.2021
47 Clouds 6 980 63 10000 1.2 277 07:28 21.04.2021
48 Clouds 6 1000 42 10000 1.06 236 06:21 21.04.2021
49 Clouds 6 983 79 10000 1.85 180 02:28 21.04.2021
50 Clouds 7 985 60 10000 2.32 169 00:20 21.04.2021
51 Clouds 8 986 56 10000 2.32 169 23:40 20.04.2021
52 Clouds 9 1006 44 10000 2.24 170 22:49 20.04.2021
53 Clouds 9 987 50 10000 2.25 171 22:24 20.04.2021
54 Clouds 9 1007 39 10000 2.25 171 21:57 20.04.2021
55 Clouds 9 1006 39 10000 2.27 171 21:39 20.04.2021
56 Clouds 9 1006 37 10000 2.8 177 21:21 20.04.2021
57 Clouds 11 1007 33 10000 2.8 177 20:38 20.04.2021
58 Clouds 12 989 36 10000 0.89 115 20:20 20.04.2021
59 Clouds 12 1008 30 10000 3.26 174 19:47 20.04.2021
60 Clear 13 989 31 10000 3.85 177 19:28 20.04.2021
61 Clear 14 1009 24 10000 3.85 178 18:46 20.04.2021
62 Clear 14 990 28 10000 0.89 258 18:28 20.04.2021
63 Clear 15 991 26 10000 1.79 136 17:41 20.04.2021
64 Clear 16 1011 24 10000 4.78 187 16:51 20.04.2021
65 Clear 16 1010 24 10000 4.76 190 16:28 20.04.2021
66 Clear 16 996 37 10000 4.02 144 15:36 20.04.2021
67 Clear 16 996 34 10000 2.24 171 15:18 20.04.2021
68 Clear 16 997 35 10000 2.24 182 14:45 20.04.2021
69 Clear 16 997 35 10000 2.24 263 14:22 20.04.2021
70 Clear 15 998 35 10000 2.68 193 13:28 20.04.2021
71 Clear 15 998 36 10000 2.24 175 12:55 20.04.2021
72 Clear 14 999 46 10000 1.34 110 12:24 20.04.2021
73 Clear 14 1017 30 10000 4.03 192 11:46 20.04.2021
74 Clear 14 1016 33 10000 3.23 191 11:25 20.04.2021
75 Clear 12 1017 36 10000 3.24 190 10:48 20.04.2021
76 Clear 11 1017 38 10000 2.36 187 10:24 20.04.2021
77 Clear 9 1018 40 10000 2.36 187 09:47 20.04.2021
78 Clear 8 1018 44 10000 1.63 186 09:18 20.04.2021
79 Clear 7 1020 65 10000 0.51 0 08:42 20.04.2021
80 Clear 5 1020 75 10000 1.03 340 07:58 20.04.2021
81 Clear 5 1001 1 10000 0.68 159 07:31 20.04.2021
82 Clear 4 1021 80 10000 1.54 20 05:42 20.04.2021
83 Clear 2 1022 74 10000 1.54 330 04:43 20.04.2021
84 Clear 4 1022 69 10000 0.51 0 03:34 20.04.2021
85 Clear 6 1021 39 10000 0.63 181 00:51 20.04.2021
86 Clear 6 1020 38 10000 0.72 174 23:53 19.04.2021
87 Clear 7 1020 38 10000 0.45 68 23:29 19.04.2021
88 Clear 9 1022 31 10000 0.9 168 22:39 19.04.2021
89 Clear 9 1022 31 10000 1.22 162 22:19 19.04.2021
90 Clear 10 1022 31 10000 1.22 162 21:38 19.04.2021
91 Clear 10 1021 21 10000 1.51 154 21:20 19.04.2021
92 Clear 12 1020 15 10000 1.51 154 20:41 19.04.2021
93 Clear 13 1021 15 10000 1.66 150 20:20 19.04.2021
94 Clear 14 1021 12 10000 1.72 145 19:46 19.04.2021
95 Clear 15 1020 12 10000 1.92 148 19:25 19.04.2021
96 Clear 17 1023 23 10000 1.92 148 18:48 19.04.2021
97 Clear 17 1001 21 10000 2 146 18:24 19.04.2021
98 Clear 17 1023 23 10000 2 146 17:58 19.04.2021
99 Clear 17 1023 23 10000 2 146 17:39 19.04.2021
100 Clear 17 1023 23 10000 1.87 141 17:20 19.04.2021
101 Clear 18 1023 23 10000 1.87 141 16:41 19.04.2021
102 Clear 18 1025 27 10000 1.79 137 16:21 19.04.2021
103 Clear 17 1025 27 10000 1.79 137 15:40 19.04.2021
104 Clear 17 1003 20 10000 1.79 125 15:22 19.04.2021
105 Clear 17 1004 21 10000 0.45 225 14:38 19.04.2021
106 Clouds 16 1025 27 10000 1.75 115 14:19 19.04.2021
107 Clouds 17 1004 21 10000 1.55 122 13:44 19.04.2021
108 Clouds 16 1008 32 10000 1.43 117 13:25 19.04.2021
109 Clouds 14 1008 32 10000 1.43 117 12:43 19.04.2021
110 Clouds 13 1008 42 10000 1.32 115 12:23 19.04.2021
111 Clouds 13 1008 45 10000 0.45 124 11:54 19.04.2021
112 Clear 14 1027 26 10000 1.05 115 11:26 19.04.2021
113 Clear 13 1027 32 10000 1.05 115 10:47 19.04.2021
114 Clear 12 1027 35 10000 0.78 108 10:25 19.04.2021
115 Clear 10 1027 38 10000 0.78 108 09:50 19.04.2021
116 Clear 8 1027 41 10000 0.49 79 09:30 19.04.2021
117 Clear 9 1005 47 10000 0.49 79 08:59 19.04.2021
118 Clouds 7 1006 48 10000 0.5 29 08:28 19.04.2021
119 Clouds 6 1005 48 10000 0.39 67 07:48 19.04.2021
120 Clouds 6 1005 46 10000 0.77 33 07:19 19.04.2021
121 Clouds 5 1005 52 10000 0.77 33 06:36 19.04.2021
122 Clouds 6 1027 42 10000 1.09 29 02:35 19.04.2021
123 Clouds 6 1009 53 10000 1.3 25 01:26 19.04.2021
124 Clouds 7 1026 37 10000 0.45 68 23:55 18.04.2021
125 Clouds 7 1026 32 10000 1.71 22 23:18 18.04.2021
126 Clouds 9 1026 29 10000 1.71 22 22:48 18.04.2021
127 Clouds 9 1026 28 10000 1.97 13 22:29 18.04.2021
128 Clouds 9 1026 26 10000 1.97 13 21:40 18.04.2021
129 Clouds 10 1025 23 10000 2.03 7 21:18 18.04.2021
130 Clouds 12 1025 17 10000 1.94 2 20:40 18.04.2021
131 Clouds 14 1025 29 10000 1.75 359 20:20 18.04.2021
132 Clear 14 1027 23 10000 3.09 10 19:49 18.04.2021
133 Clouds 16 1024 11 10000 0.45 68 19:29 18.04.2021
134 Clouds 15 1008 31 10000 1.31 7 18:54 18.04.2021
135 Clouds 17 1008 29 10000 0.45 350 18:31 18.04.2021
136 Clouds 16 1008 29 10000 1.33 41 17:55 18.04.2021
137 Clouds 16 1008 29 10000 1.33 41 17:37 18.04.2021
138 Clouds 17 1029 23 10000 1.45 49 17:18 18.04.2021
139 Clouds 17 1029 23 10000 1.45 49 16:41 18.04.2021
140 Clouds 17 1029 23 10000 1.64 50 15:59 18.04.2021
141 Clouds 17 1029 23 10000 1.64 50 15:39 18.04.2021
142 Clouds 17 1029 23 10000 1.79 50 15:19 18.04.2021
143 Clouds 17 1029 23 10000 1.79 51 14:42 18.04.2021
144 Clouds 17 1029 23 10000 1.9 51 14:19 18.04.2021
145 Clouds 16 1029 23 10000 1.9 51 13:50 18.04.2021
146 Clouds 15 1010 30 10000 0.89 36 13:30 18.04.2021
147 Clouds 15 1010 30 10000 0.89 36 13:30 18.04.2021
148 Clouds 13 1029 33 10000 1.92 47 12:43 18.04.2021
149 Clouds 12 1029 33 10000 2.06 47 12:20 18.04.2021
150 Clouds 12 1029 33 10000 2.06 47 11:41 18.04.2021
151 Clouds 11 1029 33 10000 1.96 43 11:20 18.04.2021
152 Clouds 11 1029 28 10000 1.96 43 10:45 18.04.2021
153 Clouds 10 1029 36 10000 1.72 32 10:21 18.04.2021
154 Clouds 8 1029 36 10000 1.72 32 09:44 18.04.2021
155 Clouds 7 1029 36 10000 1.56 25 09:26 18.04.2021
156 Clouds 6 1007 45 10000 1.47 28 08:48 18.04.2021
157 Clouds 6 1007 46 10000 1.36 17 08:29 18.04.2021
158 Clouds 4 1007 50 10000 0.45 45 07:41 18.04.2021
159 Clouds 3 1007 50 10000 1.59 12 06:56 18.04.2021
160 Clear 1 1031 80 10000 2.06 10 05:39 18.04.2021
161 Clouds 4 1011 36 10000 1.68 13 05:21 18.04.2021
162 Clouds 4 1011 53 10000 1.88 19 02:24 18.04.2021
163 Clouds 5 1011 53 10000 2.03 13 01:31 18.04.2021
164 Clouds 6 1011 54 10000 2.22 8 00:28 18.04.2021
165 Clouds 8 1011 53 10000 2.23 6 23:27 17.04.2021
166 Clear 7 1030 52 10000 2.57 30 22:49 17.04.2021
167 Clear 7 1030 52 10000 2.57 30 22:49 17.04.2021
168 Clouds 8 1010 53 10000 2.35 6 22:29 17.04.2021
169 Clouds 9 1010 52 10000 2.35 6 21:45 17.04.2021
170 Clouds 9 1010 52 10000 2.33 7 21:24 17.04.2021
171 Clouds 10 1010 51 10000 2.33 7 20:43 17.04.2021
172 Clouds 11 1010 49 10000 2.35 14 20:23 17.04.2021
173 Clear 12 1029 30 10000 3.09 360 19:43 17.04.2021
174 Clouds 13 1010 39 10000 2.86 24 19:20 17.04.2021
175 Clouds 13 1010 36 10000 0.45 21 18:51 17.04.2021
176 Clouds 15 1028 32 10000 3.2 32 18:25 17.04.2021
177 Clouds 14 1030 32 10000 3.2 32 17:43 17.04.2021
178 Clouds 15 1030 32 10000 3.29 32 17:21 17.04.2021
179 Clouds 15 1030 32 10000 3.29 32 16:40 17.04.2021
180 Clouds 15 1030 32 10000 3.3 30 16:22 17.04.2021
181 Clouds 14 1030 32 10000 3.28 30 15:22 17.04.2021
182 Clouds 13 1030 32 10000 3.27 30 14:44 17.04.2021
183 Clouds 13 1030 32 10000 3.45 32 14:20 17.04.2021
184 Clouds 13 1030 32 10000 3.45 32 13:43 17.04.2021
185 Clouds 12 1030 43 10000 3.37 35 12:55 17.04.2021
186 Clouds 12 1030 43 10000 3.37 35 12:32 17.04.2021
187 Clouds 11 1030 43 10000 3.31 33 11:51 17.04.2021
188 Clouds 11 1030 43 10000 3.31 33 11:32 17.04.2021
189 Clouds 11 1031 28 10000 3.21 28 10:51 17.04.2021
190 Clouds 9 1013 50 10000 0.45 15 10:33 17.04.2021
191 Clouds 9 1031 34 10000 2.86 28 09:47 17.04.2021
192 Clouds 8 1009 48 10000 0.45 225 08:54 17.04.2021
193 Clouds 7 1009 53 10000 1.84 13 08:29 17.04.2021
194 Clouds 6 1009 53 10000 1.84 13 07:45 17.04.2021
195 Clouds 4 1030 43 10000 1.94 2 05:42 17.04.2021
196 Clouds 6 1013 41 10000 1.89 9 03:43 17.04.2021
197 Clouds 7 1031 36 10000 2.3 1 00:56 17.04.2021
198 Clear 6 1031 56 10000 4.12 30 00:30 17.04.2021
199 Clear 6 1031 56 10000 4.12 30 23:59 16.04.2021
200 Clear 6 1031 56 10000 4.12 30 23:34 16.04.2021
201 Clear 6 1031 60 10000 3.6 20 22:51 16.04.2021
202 Clouds 7 1012 51 10000 2.71 355 22:23 16.04.2021
203 Clouds 7 1012 52 10000 2.71 355 21:57 16.04.2021
204 Clouds 7 1029 34 10000 2.71 355 21:39 16.04.2021
205 Clouds 7 1028 30 10000 2.69 359 20:56 16.04.2021
206 Clouds 8 1029 29 10000 2.76 2 20:37 16.04.2021
207 Clouds 9 1029 32 10000 3.26 10 19:58 16.04.2021
208 Clouds 9 1029 32 10000 3.26 10 19:40 16.04.2021
209 Clouds 10 1029 32 10000 3.5 5 19:18 16.04.2021
210 Clouds 11 1011 44 10000 0.45 351 18:25 16.04.2021
211 Clouds 12 1011 44 10000 3.44 7 17:49 16.04.2021
212 Clouds 12 1011 44 10000 0.89 339 17:19 16.04.2021
213 Clouds 12 1012 43 10000 0.45 79 16:45 16.04.2021
214 Clouds 12 1012 43 10000 0.89 66 16:26 16.04.2021
215 Clouds 11 1033 41 10000 3.54 11 15:55 16.04.2021
216 Clouds 11 1033 41 10000 3.36 14 15:29 16.04.2021
217 Clouds 11 1033 41 10000 3.36 14 14:44 16.04.2021
218 Clouds 11 1033 41 10000 3.24 20 14:23 16.04.2021
219 Clouds 11 1033 54 10000 3.12 22 13:55 16.04.2021
220 Clouds 11 1033 54 10000 3.29 32 13:22 16.04.2021
221 Clouds 10 1033 54 10000 3.29 32 12:53 16.04.2021
222 Clouds 10 1033 54 10000 3.55 35 12:34 16.04.2021
223 Clouds 8 1033 54 10000 3.55 35 11:59 16.04.2021
224 Clouds 7 1033 54 10000 3.55 35 11:39 16.04.2021
225 Clouds 7 1033 54 10000 3.76 31 11:20 16.04.2021
226 Clouds 8 1033 54 10000 3.76 31 10:41 16.04.2021
227 Clouds 7 1034 38 10000 0.45 68 10:20 16.04.2021
228 Clouds 7 1011 44 10000 0.45 225 09:44 16.04.2021
229 Clouds 5 1034 42 10000 2.57 24 09:21 16.04.2021
230 Clouds 5 1011 53 10000 2.51 28 08:44 16.04.2021
231 Clear 4 1034 48 10000 2.11 14 08:19 16.04.2021
232 Clear 3 1010 53 10000 0.45 270 07:42 16.04.2021
233 Clear 2 1033 49 10000 1.9 4 07:18 16.04.2021
234 Clear 2 1033 49 10000 1.9 4 06:39 16.04.2021
235 Clear 1 1033 47 10000 2.05 2 05:32 16.04.2021
236 Clear 2 1014 53 10000 1.85 12 01:41 16.04.2021
237 Clear 2 1033 40 10000 1.9 8 00:44 16.04.2021
238 Clear 2 1033 37 10000 1.98 359 00:21 16.04.2021
239 Clear 2 1032 35 10000 1.98 359 23:52 15.04.2021
240 Clear 2 1014 54 10000 1.98 359 23:32 15.04.2021
241 Clear 4 1032 33 10000 1.9 355 22:49 15.04.2021
242 Clear 4 1032 32 10000 1.86 358 22:23 15.04.2021
243 Clear 5 1032 30 10000 1.87 358 21:43 15.04.2021
244 Clear 6 1032 28 10000 1.87 5 21:25 15.04.2021
245 Clear 7 1031 27 10000 1.87 5 20:49 15.04.2021
246 Clouds 8 1031 27 10000 1.99 18 20:25 15.04.2021
247 Clouds 9 1030 24 10000 1.99 18 19:47 15.04.2021
248 Clouds 10 1030 29 10000 2.72 28 19:28 15.04.2021
249 Clouds 10 1030 29 10000 2.71 28 18:59 15.04.2021
250 Clouds 11 1033 34 10000 2.71 28 18:37 15.04.2021
251 Clouds 10 1033 34 10000 3 31 18:18 15.04.2021
252 Clouds 11 1033 34 10000 3 30 17:51 15.04.2021
253 Clouds 11 1033 34 10000 2.84 31 17:29 15.04.2021
254 Clouds 11 1033 34 10000 2.84 31 16:44 15.04.2021
255 Clouds 11 1033 34 10000 2.59 33 16:24 15.04.2021
256 Clouds 10 1033 34 10000 2.59 33 15:47 15.04.2021
257 Clouds 10 1033 30 10000 2.37 36 15:27 15.04.2021
258 Clouds 10 1033 30 10000 2.37 36 14:44 15.04.2021
259 Clear 10 1033 30 10000 2.02 32 14:25 15.04.2021
260 Clear 10 1033 30 10000 2.01 32 13:49 15.04.2021
261 Clear 10 1033 30 10000 1.96 33 13:25 15.04.2021
262 Clear 9 1033 32 10000 0.89 56 12:50 15.04.2021
263 Clear 9 1033 32 10000 0.89 56 12:27 15.04.2021
264 Clear 9 1033 32 10000 0.89 56 11:48 15.04.2021
265 Clear 7 1016 42 10000 0.45 28 11:27 15.04.2021
266 Clear 7 1016 43 10000 1.9 38 10:58 15.04.2021
267 Clear 7 1016 43 10000 1.9 38 10:58 15.04.2021
268 Clear 7 1016 45 10000 0.45 5 10:40 15.04.2021
269 Clear 6 1016 47 10000 1.77 32 10:21 15.04.2021
270 Clear 6 1035 33 10000 1.64 21 09:30 15.04.2021
271 Clear 6 1034 38 10000 1.64 21 08:53 15.04.2021
272 Clear 5 1034 39 10000 1.61 9 08:30 15.04.2021
273 Clear 4 1034 40 10000 1.61 9 07:36 15.04.2021
274 Clear 4 1033 39 10000 1.57 357 06:56 15.04.2021
275 Clear 4 1014 53 10000 1.57 357 06:36 15.04.2021
276 Clear 3 1032 64 10000 3.6 10 04:55 15.04.2021
277 Clear 3 1032 39 10000 1.62 356 03:59 15.04.2021
278 Clear 4 1031 33 10000 1.77 2 00:18 15.04.2021
279 Clear 4 1012 50 10000 1.77 2 23:34 14.04.2021
280 Clear 5 1030 30 10000 1.78 359 22:57 14.04.2021
281 Clear 5 1029 29 10000 1.71 357 22:37 14.04.2021
282 Clear 5 1011 52 10000 1.78 359 22:37 14.04.2021
283 Clear 5 1011 51 10000 1.71 357 22:19 14.04.2021
284 Clear 5 1029 28 10000 1.71 357 21:41 14.04.2021
285 Clear 6 1029 28 10000 1.61 4 21:22 14.04.2021
286 Clear 6 1010 54 10000 1.78 360 20:45 14.04.2021
287 Clouds 7 1028 24 10000 0.45 68 20:27 14.04.2021
288 Clouds 9 1026 32 10000 0.89 18 19:46 14.04.2021
289 Clouds 9 1026 32 10000 0.89 18 19:19 14.04.2021
290 Clouds 9 1026 32 10000 0.89 18 18:54 14.04.2021
291 Clouds 9 1026 32 10000 0.89 18 18:20 14.04.2021
292 Clouds 10 1026 32 10000 0.89 18 17:57 14.04.2021
293 Clouds 10 1025 40 10000 1.79 32 17:24 14.04.2021
294 Clouds 10 1025 40 10000 1.79 32 16:48 14.04.2021
295 Clouds 10 1025 40 10000 1.79 32 16:24 14.04.2021
296 Clouds 8 1025 40 10000 2.36 8 15:41 14.04.2021
297 Clouds 8 1025 40 10000 2.01 2 15:22 14.04.2021
298 Clouds 7 1025 40 10000 1.98 8 14:44 14.04.2021
299 Clouds 8 1025 40 10000 1.69 353 14:23 14.04.2021
300 Clouds 8 1025 40 10000 1.67 359 13:53 14.04.2021
301 Clouds 7 1025 47 10000 1.48 350 13:00 14.04.2021
302 Clouds 7 1025 47 10000 1.32 342 12:36 14.04.2021
303 Clouds 7 1025 47 10000 1.48 350 12:36 14.04.2021
304 Clouds 5 1008 53 10000 0.45 85 11:43 14.04.2021
305 Clouds 5 1025 47 10000 1.23 326 11:24 14.04.2021
306 Clouds 6 1008 54 10000 0.45 82 10:38 14.04.2021
307 Clouds 4 1027 43 10000 1.08 317 09:59 14.04.2021
308 Clouds 4 1026 47 10000 1.08 317 09:41 14.04.2021
309 Clouds 3 1004 65 10000 0.98 301 09:20 14.04.2021
310 Clouds 2 1004 70 10000 0.98 301 08:43 14.04.2021
311 Clouds 1 1003 76 10000 0.64 279 08:20 14.04.2021
312 Clouds -2 1003 70 10000 0.86 303 06:55 14.04.2021
313 Clouds -2 1003 68 10000 0.87 314 06:24 14.04.2021
314 Clouds -2 1002 69 10000 0.71 325 04:34 14.04.2021
315 Clouds -1 1005 1 10000 0.94 336 01:42 14.04.2021
316 Clouds 0 1001 68 10000 0.86 324 00:37 14.04.2021
317 Clouds 0 1004 1 10000 0.86 332 23:47 13.04.2021
318 Clouds 0 1004 1 10000 0.74 353 23:27 13.04.2021
319 Clouds 1 1004 1 10000 0.74 353 22:42 13.04.2021
320 Clouds 1 1004 1 10000 0.82 1 22:19 13.04.2021
321 Clouds 3 1019 47 10000 0.82 1 21:45 13.04.2021
322 Clouds 3 1019 47 10000 1.07 331 21:27 13.04.2021
323 Clouds 4 1019 47 10000 0.83 333 20:42 13.04.2021
324 Clouds 4 1019 47 10000 0.85 325 20:21 13.04.2021
325 Rain 4 1019 47 10000 0.86 324 19:48 13.04.2021
326 Clouds 5 998 56 10000 1.03 336 19:24 13.04.2021
327 Clouds 5 998 56 10000 1.03 336 18:40 13.04.2021
328 Clouds 5 998 55 10000 1.89 342 17:56 13.04.2021
329 Clouds 5 997 51 10000 1.89 342 17:36 13.04.2021
330 Rain 5 1018 47 10000 2.53 344 17:18 13.04.2021
331 Clouds 5 1018 47 10000 2.53 344 16:43 13.04.2021
332 Clouds 5 1018 47 10000 3.11 350 16:20 13.04.2021
333 Clouds 4 1017 52 10000 3.12 350 15:44 13.04.2021
334 Clouds 4 1017 52 10000 3.11 350 15:44 13.04.2021
335 Clouds 4 1017 52 10000 3.7 352 15:22 13.04.2021
336 Clouds 5 1017 52 10000 3.7 352 14:46 13.04.2021
337 Clouds 5 1017 52 10000 3.7 352 14:46 13.04.2021
338 Clouds 5 1017 52 10000 3.69 353 14:19 13.04.2021
339 Rain 5 1017 52 10000 3.69 353 13:45 13.04.2021
340 Clouds 5 1017 52 10000 3.97 358 13:24 13.04.2021
341 Clouds 4 1017 78 10000 3.97 358 12:56 13.04.2021
342 Clouds 4 1017 78 10000 4.61 359 12:27 13.04.2021
343 Clouds 4 1017 78 10000 4.6 359 11:55 13.04.2021
344 Clouds 4 1017 78 10000 4.46 354 11:29 13.04.2021
345 Clouds 4 1017 78 10000 4.46 354 10:47 13.04.2021
346 Clouds 4 1017 40 10000 0.45 40 10:21 13.04.2021
347 Clouds 3 1017 41 10000 0.45 106 09:56 13.04.2021
348 Clouds 3 1017 42 10000 0.45 93 09:36 13.04.2021
349 Clouds 3 994 70 10000 3.65 348 08:54 13.04.2021
350 Clouds 2 994 71 10000 3.65 348 08:36 13.04.2021
351 Clouds 2 994 73 10000 3.65 346 08:18 13.04.2021
352 Clouds 1 993 76 10000 3.85 343 07:35 13.04.2021
353 Clouds 1 993 79 10000 4.1 344 06:31 13.04.2021
354 Clouds 1 992 81 10000 4.25 345 04:45 13.04.2021
355 Snow 1 991 84 1367 4.74 351 01:38 13.04.2021
356 Snow 1 991 86 552 4.79 351 00:18 13.04.2021
357 Snow 2 990 86 478 4.46 346 23:42 12.04.2021
358 Snow 2 991 85 478 4.46 346 23:20 12.04.2021
359 Snow 2 990 86 389 4.46 346 22:38 12.04.2021
360 Snow 2 991 85 186 4.06 344 21:57 12.04.2021
361 Snow 2 991 85 186 4.06 344 21:38 12.04.2021
362 Snow 2 990 84 216 3.56 343 21:19 12.04.2021
363 Snow 2 990 83 131 3.21 339 20:38 12.04.2021
364 Rain 2 990 82 93 3.19 342 20:20 12.04.2021
365 Clouds 2 990 81 93 3.19 342 19:43 12.04.2021
366 Rain 2 990 81 94 3.23 345 19:23 12.04.2021
367 Rain 3 990 81 94 3.23 345 18:56 12.04.2021
368 Rain 3 989 80 94 3.23 345 18:37 12.04.2021
369 Rain 4 989 80 77 2.68 343 18:18 12.04.2021
370 Rain 4 989 78 80 2.69 343 17:42 12.04.2021
371 Rain 3 989 77 97 2.57 354 17:21 12.04.2021
372 Rain 4 989 77 107 2.58 354 16:44 12.04.2021
373 Rain 4 989 77 401 2.96 10 16:26 12.04.2021
374 Rain 4 989 77 401 2.96 10 15:48 12.04.2021
375 Rain 4 989 79 848 3.25 15 15:21 12.04.2021
376 Rain 4 988 79 848 3.25 15 14:49 12.04.2021
377 Rain 4 988 78 31 2.1 24 14:29 12.04.2021
378 Rain 4 988 79 31 2.1 24 13:45 12.04.2021
379 Rain 4 988 80 37 2.75 26 13:22 12.04.2021
380 Rain 3 987 81 37 2.75 26 12:44 12.04.2021
381 Rain 2 987 81 47 3.17 22 12:24 12.04.2021
382 Rain 2 987 83 47 3.17 22 11:53 12.04.2021
383 Snow 2 987 86 82 3.78 21 10:56 12.04.2021
384 Rain 2 986 87 82 3.78 21 10:38 12.04.2021
385 Rain 2 986 87 124 4.11 20 10:20 12.04.2021
386 Snow 2 987 87 124 4.11 20 09:40 12.04.2021
387 Snow 1 986 87 200 4.54 21 08:59 12.04.2021
388 Snow 1 986 87 264 5.1 20 08:35 12.04.2021
389 Snow 1 987 87 262 5.11 20 07:32 12.04.2021
390 Snow 1 987 87 238 4.99 20 06:57 12.04.2021
391 Snow 1 987 87 193 4.85 23 05:51 12.04.2021
392 Snow 2 988 85 168 4.5 30 03:58 12.04.2021
393 Rain 2 991 83 231 4.95 38 00:51 12.04.2021
394 Rain 2 991 82 221 4.56 34 00:24 12.04.2021
395 Rain 2 991 82 221 4.56 34 00:24 12.04.2021
396 Rain 2 991 82 221 4.56 34 23:46 11.04.2021
397 Rain 2 991 81 106 3.35 41 23:23 11.04.2021
398 Rain 2 992 80 107 3.37 42 22:45 11.04.2021
399 Rain 2 992 77 1206 3.15 49 22:22 11.04.2021
400 Rain 3 993 74 1174 3.15 49 21:46 11.04.2021
401 Rain 3 993 73 10000 2.91 70 21:27 11.04.2021
402 Rain 3 993 69 10000 2.42 85 20:55 11.04.2021
403 Rain 5 993 59 10000 1.73 66 20:29 11.04.2021
404 Rain 5 993 53 10000 1.73 66 19:54 11.04.2021
405 Rain 5 993 53 10000 1.73 66 19:36 11.04.2021
406 Clouds 6 993 52 10000 2.44 117 19:18 11.04.2021
407 Clouds 6 993 49 10000 0.45 135 18:42 11.04.2021
408 Clouds 6 993 45 10000 1.34 90 18:24 11.04.2021
409 Clouds 7 993 36 10000 0.45 180 17:46 11.04.2021
410 Clouds 7 993 36 10000 0.45 320 17:27 11.04.2021
411 Clouds 8 992 38 10000 0.45 184 16:50 11.04.2021
412 Clouds 8 993 30 10000 0.89 187 16:23 11.04.2021
413 Clouds 9 993 30 10000 0.45 270 15:54 11.04.2021
414 Clouds 9 1015 38 10000 0.89 72 15:27 11.04.2021
415 Clouds 9 993 30 10000 2.79 77 15:27 11.04.2021
416 Clouds 8 1015 38 10000 0.89 72 14:59 11.04.2021
417 Clouds 7 997 39 10000 1.34 360 14:41 11.04.2021
418 Clouds 7 1015 38 10000 2.43 78 13:52 11.04.2021
419 Clouds 7 1015 38 10000 2.23 81 13:31 11.04.2021
420 Clouds 6 997 42 10000 0.45 341 12:54 11.04.2021
421 Clouds 6 1015 45 10000 2.24 76 12:22 11.04.2021
422 Clouds 5 1015 45 10000 2.24 76 11:52 11.04.2021
423 Clouds 5 1015 45 10000 2.13 73 11:27 11.04.2021
424 Clouds 5 1014 32 10000 2.13 73 10:50 11.04.2021
425 Clouds 4 1015 33 10000 1.82 66 10:31 11.04.2021
426 Clouds 4 1015 35 10000 1.82 66 09:57 11.04.2021
427 Clouds 2 1015 40 10000 1.27 46 09:33 11.04.2021
428 Clouds 2 994 46 10000 1.27 46 08:54 11.04.2021
429 Clear 1 993 50 10000 1.28 19 08:25 11.04.2021
430 Clear -1 993 52 10000 1.18 18 07:22 11.04.2021
431 Clear -2 993 52 10000 1.19 17 06:51 11.04.2021
432 Clear -2 992 53 10000 1.04 9 05:43 11.04.2021
433 Clear -2 992 54 10000 0.93 2 05:21 11.04.2021
434 Clear -2 992 54 10000 0.93 2 04:34 11.04.2021
435 Clear 0 991 51 10000 0.78 333 01:56 11.04.2021
436 Clear 1 991 50 10000 0.66 309 00:39 11.04.2021
437 Clear 2 990 45 10000 0.77 300 23:48 10.04.2021
438 Clear 1 1010 32 10000 1 285 23:26 10.04.2021
439 Clear 2 1010 31 10000 1 285 22:43 10.04.2021
440 Clear 2 1009 31 10000 1.26 275 22:21 10.04.2021
441 Clear 3 1009 29 10000 0.45 68 21:41 10.04.2021
442 Clear 4 1009 29 10000 1.65 264 21:21 10.04.2021
443 Clear 4 1008 26 10000 1.65 264 20:46 10.04.2021
444 Clouds 5 988 36 10000 2.75 258 20:24 10.04.2021
445 Clouds 6 1007 20 10000 2.75 258 19:45 10.04.2021
446 Clouds 7 987 30 10000 3.79 258 19:26 10.04.2021
447 Clouds 7 986 30 10000 3.79 258 18:52 10.04.2021
448 Clouds 8 986 26 10000 0.45 265 18:31 10.04.2021
449 Clouds 8 1005 34 10000 1.79 243 18:30 10.04.2021
450 Clouds 8 1005 34 10000 1.79 243 17:40 10.04.2021
451 Clouds 8 1005 34 10000 1.79 243 17:21 10.04.2021
452 Clear 9 1005 34 10000 1.79 243 16:31 10.04.2021
453 Clear 9 1005 34 10000 1.79 243 15:55 10.04.2021
454 Clouds 8 1005 34 10000 1.79 243 15:32 10.04.2021
455 Clouds 8 1005 34 10000 1.79 243 14:47 10.04.2021
456 Clouds 7 1003 38 10000 1.79 209 14:21 10.04.2021
457 Clouds 7 1003 38 10000 1.79 209 13:43 10.04.2021
458 Clouds 7 1003 38 10000 1.79 209 12:55 10.04.2021
459 Clouds 7 1003 38 10000 1.79 209 12:35 10.04.2021
460 Clear 7 1003 38 10000 1.79 209 11:52 10.04.2021
461 Clear 6 1003 44 10000 1.79 209 11:26 10.04.2021
462 Clear 7 1002 28 10000 4.2 282 10:54 10.04.2021
463 Clear 6 1001 29 10000 4.37 285 10:32 10.04.2021
464 Clear 6 1000 31 10000 4.38 285 09:59 10.04.2021
465 Clear 5 1001 33 10000 4.14 280 09:28 10.04.2021
466 Clear 4 981 46 10000 4.14 286 08:54 10.04.2021
467 Clouds 2 980 50 10000 2.87 278 08:30 10.04.2021
468 Clouds 2 980 50 10000 2.87 278 08:29 10.04.2021
469 Clouds 1 980 51 10000 2.87 278 07:52 10.04.2021
470 Clouds 0 979 51 10000 1.79 269 07:21 10.04.2021
471 Clouds -1 997 43 10000 1.76 265 06:27 10.04.2021
472 Clouds -1 997 42 10000 1.73 258 04:42 10.04.2021
473 Clouds -1 995 39 10000 1.85 261 02:54 10.04.2021
474 Clouds -1 995 39 10000 1.63 274 02:35 10.04.2021
475 Clouds 1 975 45 10000 2.03 290 00:53 10.04.2021
476 Clouds 1 975 45 10000 2.12 285 00:29 10.04.2021
477 Clouds 2 975 44 10000 2.13 285 23:44 09.04.2021
478 Clouds 2 975 42 10000 2.48 278 23:19 09.04.2021
479 Clouds 2 975 42 10000 2.47 277 22:42 09.04.2021
480 Clouds 3 975 43 10000 3.35 272 22:24 09.04.2021
481 Clouds 4 974 41 10000 3.35 272 21:39 09.04.2021
482 Clouds 4 974 40 10000 4.29 274 21:19 09.04.2021
483 Clouds 5 973 40 10000 0.45 139 20:45 09.04.2021
484 Clouds 5 973 36 10000 4.9 282 20:23 09.04.2021
485 Clouds 6 973 33 10000 0.89 269 19:57 09.04.2021
486 Clouds 6 992 32 10000 6.26 271 19:39 09.04.2021
487 Clouds 6 972 26 10000 0.45 44 19:20 09.04.2021
488 Clouds 7 987 45 10000 1.79 238 18:41 09.04.2021
489 Clouds 8 971 26 10000 0.45 45 18:21 09.04.2021
490 Clouds 9 970 30 10000 0.89 270 17:43 09.04.2021
491 Clouds 8 987 45 10000 1.79 238 17:21 09.04.2021
492 Clouds 9 969 31 10000 1.34 274 16:39 09.04.2021
493 Clouds 10 967 31 10000 3.49 298 15:59 09.04.2021
494 Clouds 9 967 31 10000 0.45 315 15:40 09.04.2021
495 Clouds 8 966 32 10000 3.72 301 15:19 09.04.2021
496 Clouds 9 983 45 10000 3.58 154 14:42 09.04.2021
497 Clouds 8 983 45 10000 3.58 154 13:57 09.04.2021
498 Clouds 8 983 45 10000 3.58 154 13:38 09.04.2021
499 Clouds 8 983 45 10000 3.58 154 13:19 09.04.2021
500 Clouds 9 963 38 10000 1.34 207 12:39 09.04.2021
501 Rain 6 963 57 10000 0.45 135 11:48 09.04.2021
502 Clouds 8 962 48 10000 0.45 227 11:23 09.04.2021
503 Clouds 7 979 43 10000 4.34 251 10:50 09.04.2021
504 Clouds 5 983 63 10000 4.89 221 10:30 09.04.2021
505 Clouds 5 962 69 10000 4.89 221 09:51 09.04.2021
506 Clouds 4 963 71 10000 5.28 210 09:26 09.04.2021
507 Clouds 3 963 77 10000 0.45 48 08:54 09.04.2021
508 Clouds 2 963 80 10000 1.34 177 08:22 09.04.2021
509 Clouds 2 964 81 10000 0.45 2 07:21 09.04.2021
510 Clouds 2 964 82 10000 0.45 136 06:21 09.04.2021
511 Clouds 4 964 86 10000 6.61 222 03:54 09.04.2021
512 Clouds 4 965 88 10000 0.45 111 03:30 09.04.2021
513 Clouds 5 968 99 10000 0.45 265 00:38 09.04.2021
514 Clouds 5 968 99 10000 6.15 193 00:20 09.04.2021
515 Clouds 4 970 97 6610 5.72 196 23:30 08.04.2021
516 Clouds 3 971 94 6610 5.72 196 22:47 08.04.2021
517 Clouds 3 972 92 1214 0.45 228 22:27 08.04.2021
518 Clouds 3 973 91 1289 0.45 219 21:58 08.04.2021
519 Clouds 3 973 90 1214 0.45 290 21:38 08.04.2021
520 Clouds 3 974 88 59 6.77 190 21:20 08.04.2021
521 Clouds 3 975 85 59 0.45 267 20:53 08.04.2021
522 Clouds 3 976 83 59 6.77 190 20:34 08.04.2021
523 Clouds 3 976 80 10000 0.45 225 19:57 08.04.2021
524 Clouds 3 977 73 10000 6 187 19:24 08.04.2021
525 Clouds 3 978 71 10000 0.89 177 18:56 08.04.2021
526 Rain 4 979 61 10000 0.45 179 18:24 08.04.2021
527 Rain 4 980 51 10000 4.9 188 17:52 08.04.2021
528 Rain 4 980 50 6239 0.89 358 17:26 08.04.2021
529 Clouds 4 981 48 6285 0.45 227 16:57 08.04.2021
530 Clouds 4 981 46 6285 0.89 269 16:36 08.04.2021
531 Clouds 5 981 41 10000 0.45 268 15:55 08.04.2021
532 Clouds 5 982 36 10000 0.45 205 15:36 08.04.2021
533 Clouds 5 982 33 10000 4.27 198 15:18 08.04.2021
534 Clouds 5 1004 43 10000 4.27 198 14:39 08.04.2021
535 Clouds 5 1004 43 10000 3.24 213 14:19 08.04.2021
536 Clouds 4 1004 43 10000 3.24 213 13:43 08.04.2021
537 Clouds 5 1004 43 10000 2.91 224 13:23 08.04.2021
538 Clouds 4 1004 43 10000 2.91 224 12:49 08.04.2021
539 Clouds 4 1004 43 10000 2.51 228 12:30 08.04.2021
540 Clouds 5 1006 43 10000 2.5 228 11:56 08.04.2021
541 Clouds 4 1006 43 10000 1.96 213 11:21 08.04.2021
542 Clouds 4 1006 43 10000 1.94 214 10:43 08.04.2021
543 Clouds 4 1006 43 10000 1.42 203 10:24 08.04.2021
544 Clouds 3 1006 54 10000 1.4 203 09:43 08.04.2021
545 Clouds 1 984 47 10000 0.75 214 08:53 08.04.2021
546 Clouds 1 984 46 10000 0.75 214 08:35 08.04.2021
547 Clouds 0 984 50 10000 0.26 234 07:59 08.04.2021
548 Clouds 0 984 51 10000 0.32 254 07:40 08.04.2021
549 Clouds 0 984 50 10000 0.33 259 04:51 08.04.2021
550 Clouds 1 983 55 10000 1.09 32 01:25 08.04.2021
551 Clouds 1 983 53 10000 1.09 32 00:30 08.04.2021
552 Clouds 0 1003 48 10000 0.81 51 23:45 07.04.2021
553 Clouds 1 1002 45 10000 0.43 92 23:22 07.04.2021
554 Clouds 1 1002 43 10000 0.42 90 22:55 07.04.2021
555 Clouds 2 1001 42 10000 0.42 90 22:35 07.04.2021
556 Clouds 3 1001 39 10000 0.52 193 21:53 07.04.2021
557 Clouds 3 986 55 10000 0.52 193 21:32 07.04.2021
558 Clouds 4 1001 37 10000 0.45 64 20:49 07.04.2021
559 Clouds 4 1001 36 8663 1.68 3 20:28 07.04.2021
560 Clouds 3 985 55 8735 0.45 30 19:50 07.04.2021
561 Clouds 4 1000 35 9218 1.34 22 19:31 07.04.2021
562 Clouds 4 984 54 9218 0.89 5 18:56 07.04.2021
563 Clouds 5 984 49 10000 2.83 325 18:22 07.04.2021
564 Clouds 6 984 46 10000 2.83 325 17:59 07.04.2021
565 Clouds 6 984 40 10000 0.45 342 17:40 07.04.2021
566 Clouds 7 1000 30 9756 2.84 313 16:59 07.04.2021
567 Clouds 7 1000 30 9756 2.84 313 16:40 07.04.2021
568 Clouds 7 1000 30 10000 1.61 337 16:20 07.04.2021
569 Clouds 8 1000 32 10000 1.6 338 15:51 07.04.2021
570 Clouds 8 1000 32 10000 1.96 16 15:25 07.04.2021
571 Clouds 7 1000 32 10000 2.04 23 14:37 07.04.2021
572 Clouds 7 1000 32 10000 2.8 31 14:18 07.04.2021
573 Clouds 8 1000 32 10000 2.78 31 13:37 07.04.2021
574 Clouds 7 1000 32 10000 3.5 31 13:19 07.04.2021
575 Clouds 6 1000 32 10000 3.5 31 12:39 07.04.2021
576 Clouds 6 1000 32 10000 3.76 27 12:18 07.04.2021
577 Clouds 5 1000 32 10000 3.76 27 11:41 07.04.2021
578 Clouds 5 1000 32 10000 3.19 20 11:21 07.04.2021
579 Clouds 5 1000 32 10000 3.19 20 10:46 07.04.2021
580 Clouds 4 997 46 10000 2.06 3 09:47 07.04.2021
581 Clouds 3 997 48 10000 1.73 342 09:28 07.04.2021
582 Clouds 3 977 51 10000 1.73 342 08:51 07.04.2021
583 Clouds 2 977 54 10000 1.63 336 08:30 07.04.2021
584 Clouds 0 976 60 10000 1.63 336 07:48 07.04.2021
585 Clouds 0 976 60 10000 1.63 326 07:28 07.04.2021
586 Clouds 0 975 59 10000 1.63 326 06:39 07.04.2021
587 Clouds 0 975 60 10000 1.45 299 05:22 07.04.2021
588 Clouds 1 972 56 10000 2.02 293 01:23 07.04.2021
589 Clouds 2 975 53 10000 2.11 295 23:47 06.04.2021
590 Clouds 2 989 43 10000 2 298 23:22 06.04.2021
591 Clouds 2 989 42 10000 0.45 168 22:55 06.04.2021
592 Clouds 3 970 57 10000 2.13 298 22:21 06.04.2021
593 Clouds 3 970 61 10000 2.13 298 21:44 06.04.2021
594 Clouds 2 970 64 10000 2.31 295 21:24 06.04.2021
595 Clouds 3 970 69 10000 2.31 295 20:58 06.04.2021
596 Clouds 2 970 68 10000 2.31 295 20:39 06.04.2021
597 Clouds 3 970 69 10000 1.85 293 20:19 06.04.2021
598 Clouds 2 970 66 10000 1.85 293 19:42 06.04.2021
599 Clouds 3 970 62 9686 2.73 300 19:24 06.04.2021
600 Rain 6 969 42 9776 0.45 90 18:43 06.04.2021
601 Rain 7 987 32 10000 0.89 54 18:20 06.04.2021
602 Clouds 8 987 32 10000 0.89 54 17:45 06.04.2021
603 Clouds 8 987 32 10000 0.89 54 17:20 06.04.2021
604 Clouds 8 987 32 10000 0.89 54 16:49 06.04.2021
605 Clouds 8 987 32 10000 0.89 54 16:27 06.04.2021
606 Clouds 7 987 32 10000 2.68 132 15:27 06.04.2021
607 Clouds 6 987 32 10000 2.68 132 14:50 06.04.2021
608 Clouds 7 967 30 10000 5.13 293 14:31 06.04.2021
609 Clouds 7 967 30 10000 4.74 299 13:55 06.04.2021
610 Clouds 7 967 30 10000 4.74 299 13:37 06.04.2021
611 Clouds 7 967 33 10000 4.29 305 13:18 06.04.2021
612 Clouds 7 967 33 10000 4.29 305 12:38 06.04.2021
613 Clouds 7 967 33 10000 4.17 310 12:19 06.04.2021
614 Clouds 7 966 33 10000 4.17 310 11:45 06.04.2021
615 Clouds 6 984 22 10000 0.89 71 11:20 06.04.2021
616 Clouds 6 983 23 10000 1.34 272 10:46 06.04.2021
617 Clouds 5 982 26 10000 1.34 219 10:22 06.04.2021
618 Clouds 4 983 27 10000 1.34 337 09:47 06.04.2021
619 Clouds 4 982 26 10000 1.34 274 09:26 06.04.2021
620 Clouds 3 966 40 10000 3.77 286 08:34 06.04.2021
621 Clouds 2 966 41 10000 3.69 285 07:47 06.04.2021
622 Clouds 1 983 30 10000 1.34 42 06:55 06.04.2021
623 Clouds 1 983 30 10000 1.98 284 05:18 06.04.2021
624 Clouds 1 983 30 10000 1.79 139 01:54 06.04.2021
625 Clouds 1 983 30 10000 1.34 113 00:43 06.04.2021
626 Clouds 2 983 30 10000 1.79 243 00:20 06.04.2021
627 Clouds 2 983 29 10000 2.24 165 23:42 05.04.2021
628 Clouds 2 984 29 10000 1.79 217 23:19 05.04.2021
629 Clouds 2 984 29 10000 1.34 15 22:43 05.04.2021
630 Clouds 2 970 48 10000 0.89 316 22:24 05.04.2021
631 Clouds 3 984 26 10000 1.79 265 21:39 05.04.2021
632 Clouds 3 984 25 10000 1.79 219 21:20 05.04.2021
633 Clouds 3 983 21 10000 4.05 292 20:42 05.04.2021
634 Clouds 4 983 21 10000 0.89 0 20:23 05.04.2021
635 Clouds 5 984 32 10000 2.68 242 19:40 05.04.2021
636 Clouds 5 984 32 10000 2.68 242 19:20 05.04.2021
637 Clouds 6 984 32 10000 2.68 242 18:43 05.04.2021
638 Clouds 6 984 32 10000 2.68 242 18:25 05.04.2021
639 Clouds 7 984 32 10000 2.68 231 17:55 05.04.2021
640 Clouds 7 984 32 10000 2.68 231 17:36 05.04.2021
641 Clouds 7 984 32 10000 2.68 231 17:18 05.04.2021
642 Clouds 7 984 32 10000 2.68 132 16:39 05.04.2021
643 Clouds 7 963 26 10000 5.23 312 16:19 05.04.2021
644 Clouds 7 983 32 10000 3.58 187 15:48 05.04.2021
645 Clouds 6 983 32 10000 3.58 187 15:27 05.04.2021
646 Clouds 5 983 32 10000 6.26 134 14:36 05.04.2021
647 Clouds 4 983 32 10000 6.26 134 13:59 05.04.2021
648 Clouds 6 962 35 10000 5.36 322 13:31 05.04.2021
649 Clouds 5 983 62 10000 5.87 328 12:48 05.04.2021
650 Clouds 5 979 30 10000 1.34 50 12:26 05.04.2021
651 Clouds 5 979 30 10000 1.34 50 12:26 05.04.2021
652 Clouds 4 979 30 10000 2.24 107 11:53 05.04.2021
653 Clouds 2 966 53 10000 2.24 17 11:32 05.04.2021
654 Clouds 1 966 57 10000 1.79 22 10:57 05.04.2021
655 Clouds 1 961 50 10000 5.15 332 10:36 05.04.2021
656 Snow 0 979 35 10000 1.34 105 09:49 05.04.2021
657 Snow 0 979 32 10000 0.89 88 09:26 05.04.2021
658 Clouds 0 961 40 10000 2.81 306 08:59 05.04.2021
659 Snow -1 961 40 10000 2.81 306 08:37 05.04.2021
660 Clouds -1 960 40 5380 2.51 289 08:19 05.04.2021
661 Clouds -2 960 41 5385 2.51 289 07:33 05.04.2021
662 Snow 0 965 53 638 0.45 5 03:58 05.04.2021
663 Snow 1 978 31 2298 2.68 130 01:34 05.04.2021
664 Clouds 4 959 52 10000 0.45 45 00:20 05.04.2021
665 Clouds 4 964 24 10000 1.34 295 23:37 04.04.2021
666 Clouds 5 959 63 10000 5.78 258 23:18 04.04.2021
667 Clouds 5 960 72 10000 5.78 258 22:45 04.04.2021
668 Rain 6 960 78 10000 5.91 249 22:26 04.04.2021
669 Clouds 6 961 78 10000 0.45 184 21:23 04.04.2021
670 Clouds 7 962 74 10000 0.45 87 20:51 04.04.2021
671 Clouds 8 963 55 10000 0.45 137 20:23 04.04.2021
672 Clouds 9 964 50 10000 0.45 181 19:42 04.04.2021
673 Clouds 10 988 43 10000 6.97 206 19:20 04.04.2021
674 Clouds 10 966 44 10000 1.34 293 18:56 04.04.2021
675 Clouds 10 988 43 10000 6.97 206 18:37 04.04.2021
676 Clouds 10 967 50 10000 0.45 227 18:19 04.04.2021
677 Clouds 11 969 48 10000 1.34 141 17:25 04.04.2021
678 Clouds 11 970 44 10000 1.79 313 16:58 04.04.2021
679 Clouds 11 971 45 10000 0.45 227 16:40 04.04.2021
680 Clouds 10 973 46 10000 0.45 269 15:56 04.04.2021
681 Clouds 10 974 45 10000 0.45 226 15:32 04.04.2021
682 Clouds 10 975 43 10000 5.41 232 14:42 04.04.2021
683 Clouds 10 976 41 10000 0.45 163 14:24 04.04.2021
684 Clouds 10 976 41 10000 0.45 163 14:24 04.04.2021
685 Clouds 11 978 40 10000 0.45 267 13:28 04.04.2021
686 Clouds 11 978 40 10000 0.45 70 13:28 04.04.2021
687 Clouds 10 979 40 10000 3.85 225 12:52 04.04.2021
688 Clouds 10 980 40 10000 2.95 219 12:28 04.04.2021
689 Clouds 10 1001 48 10000 2.92 219 11:51 04.04.2021
690 Clouds 10 986 53 10000 3.13 223 11:31 04.04.2021
691 Clouds 7 1003 75 10000 2.31 214 10:56 04.04.2021
692 Clouds 5 1006 60 10000 1.91 210 10:32 04.04.2021
693 Clouds 4 1006 60 10000 1.91 210 09:52 04.04.2021
694 Clouds 3 989 1 10000 1.79 149 09:24 04.04.2021
695 Clouds 2 986 81 10000 1.38 219 08:50 04.04.2021
696 Clouds 2 986 81 10000 1.56 212 08:32 04.04.2021
697 Clouds 0 987 82 10000 1.16 223 07:22 04.04.2021
698 Clouds 0 987 85 10000 1.13 221 06:34 04.04.2021
699 Clouds 1 989 85 10000 1.21 214 04:34 04.04.2021
700 Clouds 1 993 76 10000 1.45 196 01:21 04.04.2021
701 Clouds 1 993 74 10000 1.52 184 00:19 04.04.2021
702 Clouds 2 994 72 10000 1.52 184 23:47 03.04.2021
703 Clouds 2 994 70 10000 1.32 183 23:23 03.04.2021
704 Clouds 3 995 65 10000 1.32 183 22:50 03.04.2021
705 Clear 3 1016 45 10000 1.65 186 22:20 03.04.2021
706 Clear 3 995 63 10000 1.65 186 22:20 03.04.2021
707 Clear 4 1017 43 10000 1.65 186 21:47 03.04.2021
708 Clear 4 1017 44 10000 1.65 186 21:47 03.04.2021
709 Clear 4 1017 43 10000 1.98 178 21:23 03.04.2021
710 Clear 5 1017 41 10000 1.98 178 20:49 03.04.2021
711 Clouds 6 1017 39 10000 1.97 176 20:27 03.04.2021
712 Clouds 7 1017 32 10000 1.96 176 19:50 03.04.2021
713 Clouds 9 997 31 10000 0.45 90 19:24 03.04.2021
714 Clouds 8 1020 34 10000 1.79 108 18:48 03.04.2021
715 Clouds 9 997 30 10000 2.29 217 18:30 03.04.2021
716 Clouds 10 998 30 10000 0.45 90 17:51 03.04.2021
717 Clouds 10 1020 34 10000 1.79 108 17:25 03.04.2021
718 Clouds 10 1020 34 10000 1.79 108 16:51 03.04.2021
719 Clouds 9 1020 34 10000 1.79 108 16:22 03.04.2021
720 Clouds 8 1021 41 10000 1.79 221 15:50 03.04.2021
721 Clouds 8 1021 41 10000 1.79 221 15:22 03.04.2021
722 Clouds 8 1021 41 10000 1.79 221 14:44 03.04.2021
723 Clouds 8 1021 41 10000 1.79 221 14:24 03.04.2021
724 Clouds 7 1021 41 10000 1.87 231 13:51 03.04.2021
725 Clouds 7 1021 41 10000 1.55 228 13:24 03.04.2021
726 Clouds 7 1021 41 10000 1.55 228 12:57 03.04.2021
727 Clouds 6 1023 49 10000 1.15 223 12:32 03.04.2021
728 Clouds 7 1023 49 10000 1.15 223 11:40 03.04.2021
729 Clouds 6 1023 49 10000 0.87 223 11:19 03.04.2021
730 Clouds 4 1024 41 10000 0.88 222 10:43 03.04.2021
731 Clouds 4 1024 40 10000 0.83 224 10:25 03.04.2021
732 Clouds 3 1002 49 10000 0.68 215 09:29 03.04.2021
733 Clouds 2 1001 51 10000 0.69 214 08:59 03.04.2021
734 Clouds 1 1001 55 10000 0.61 228 08:31 03.04.2021
735 Clouds -1 1001 57 10000 0.71 264 07:30 03.04.2021
736 Clouds -1 1001 56 10000 0.71 264 06:50 03.04.2021
737 Clouds 0 1001 51 10000 0.64 311 03:53 03.04.2021
738 Clouds 1 1001 51 10000 0.77 341 02:54 03.04.2021
739 Clouds 1 1000 50 10000 0.88 356 02:27 03.04.2021
740 Clouds 1 1022 40 10000 1.74 11 00:31 03.04.2021
741 Clouds 2 1022 40 10000 1.75 11 23:55 02.04.2021
742 Clouds 3 1000 46 10000 2.5 26 23:29 02.04.2021
743 Clouds 3 1004 56 10000 0.45 35 22:56 02.04.2021
744 Clouds 3 1020 31 10000 2.5 26 22:37 02.04.2021
745 Clouds 4 1021 30 10000 0.45 48 21:56 02.04.2021
746 Clouds 4 1003 56 10000 0.89 44 21:38 02.04.2021
747 Clouds 4 1021 29 10000 0.45 65 21:18 02.04.2021
748 Clear 4 1021 44 10000 3.09 340 20:38 02.04.2021
749 Clear 4 1021 44 10000 3.09 340 20:38 02.04.2021
750 Clouds 6 1002 49 10000 1.34 303 20:18 02.04.2021
751 Clouds 7 1016 38 10000 1.79 34 19:40 02.04.2021
752 Clouds 8 997 32 10000 3.3 40 19:22 02.04.2021
753 Clouds 8 1016 38 10000 1.79 34 18:43 02.04.2021
754 Clouds 9 996 32 10000 3.74 16 18:23 02.04.2021
755 Clouds 9 1016 38 10000 1.79 34 17:54 02.04.2021
756 Clouds 9 1016 38 10000 1.79 34 17:24 02.04.2021
757 Clear 9 1016 38 10000 1.79 34 16:24 02.04.2021
758 Clear 9 1016 38 10000 1.79 34 15:43 02.04.2021
759 Clear 9 1016 38 10000 1.79 34 15:19 02.04.2021
760 Clear 9 1016 38 10000 1.79 34 14:33 02.04.2021
761 Clouds 8 1014 40 10000 2.68 143 13:50 02.04.2021
762 Clouds 9 1014 40 10000 2.68 143 13:27 02.04.2021
763 Clouds 8 1014 40 10000 2.68 143 12:53 02.04.2021
764 Clouds 9 1014 40 10000 2.68 143 12:20 02.04.2021
765 Clouds 8 1014 40 10000 4.06 356 11:58 02.04.2021
766 Clouds 7 998 48 10000 2.24 351 11:21 02.04.2021
767 Clouds 7 998 51 10000 1.79 333 10:51 02.04.2021
768 Clear 6 1016 45 10000 7.72 30 10:33 02.04.2021
769 Clouds 5 998 53 10000 2.39 341 09:57 02.04.2021
770 Clouds 5 998 52 10000 2.39 341 09:37 02.04.2021
771 Clouds 5 998 49 10000 2.25 326 09:18 02.04.2021
772 Clouds 4 994 60 10000 2.25 326 08:37 02.04.2021
773 Clouds 2 994 62 10000 1.84 332 07:52 02.04.2021
774 Clouds 2 994 62 10000 1.82 330 07:19 02.04.2021
775 Clouds 2 1015 49 10000 1.6 319 06:22 02.04.2021
776 Clouds 3 995 61 10000 1.5 322 02:59 02.04.2021
777 Clouds 3 1017 46 10000 0.89 315 00:54 02.04.2021
778 Clouds 2 1017 51 10000 0.29 349 00:33 02.04.2021
779 Clouds 3 1018 52 10000 0.3 349 23:42 01.04.2021
780 Clouds 3 1018 51 10000 0.28 128 23:24 01.04.2021
781 Clouds 3 1018 52 10000 0.56 144 22:22 01.04.2021
782 Clouds 3 1017 53 10000 0.45 73 21:52 01.04.2021
783 Clouds 4 1017 51 10000 0.45 74 21:29 01.04.2021
784 Clouds 4 1016 49 10000 1.11 171 21:00 01.04.2021
785 Clouds 5 1000 37 10000 0.45 206 20:33 01.04.2021
786 Clouds 6 1017 44 10000 0.5 158 19:57 01.04.2021
787 Clouds 6 1017 43 10000 0.5 158 19:39 01.04.2021
788 Clouds 7 1017 38 10000 0.78 241 18:51 01.04.2021
789 Clouds 9 1017 41 10000 1.64 270 18:19 01.04.2021
790 Clouds 10 1017 41 10000 1.64 270 17:58 01.04.2021
791 Clouds 9 1020 41 10000 1.63 270 17:38 01.04.2021
792 Clouds 9 1020 41 10000 2.09 269 17:19 01.04.2021
793 Clouds 10 1020 41 10000 2.09 269 16:41 01.04.2021
794 Clouds 9 1020 60 10000 2.22 252 15:49 01.04.2021
795 Clear 9 1020 60 10000 2.42 239 15:23 01.04.2021
796 Clear 9 1020 60 10000 2.42 239 14:51 01.04.2021
797 Clouds 9 1020 60 10000 1.97 237 14:29 01.04.2021
798 Clouds 9 1020 60 10000 1.97 237 13:58 01.04.2021
799 Clouds 9 1020 60 10000 1.35 227 13:32 01.04.2021
800 Clouds 8 1020 61 10000 1.35 227 12:58 01.04.2021
801 Clouds 8 1020 61 10000 1.35 227 12:37 01.04.2021
802 Clouds 8 1020 61 10000 0.66 256 12:18 01.04.2021
803 Clouds 5 1020 61 10000 0.66 256 11:42 01.04.2021
804 Clouds 5 1020 61 10000 0.64 302 11:18 01.04.2021
805 Clouds 5 999 56 10000 0.64 302 10:46 01.04.2021
806 Clouds 5 999 55 10000 0.34 239 10:25 01.04.2021
807 Clouds 3 1021 49 10000 1.38 337 09:32 01.04.2021
808 Clouds 3 999 64 10000 1.38 337 08:54 01.04.2021
809 Clouds 1 999 64 10000 1.32 337 08:32 01.04.2021
810 Clouds 0 999 62 10000 1.48 340 07:22 01.04.2021
811 Clouds 1 998 61 10000 1.48 340 06:56 01.04.2021
812 Clear 0 998 61 10000 1.77 337 06:20 01.04.2021
813 Clear 1 998 62 10000 2.04 338 03:20 01.04.2021
814 Clouds 2 997 68 10000 2.25 341 00:23 01.04.2021
815 Clouds 2 997 69 10000 2.25 341 23:44 31.03.2021
816 Clouds 3 996 72 10000 2.34 341 22:56 31.03.2021
817 Clouds 3 996 72 10000 2.34 341 22:37 31.03.2021
818 Clouds 3 996 71 10000 2.15 345 22:18 31.03.2021
819 Clouds 4 996 70 10000 2.15 344 21:40 31.03.2021
820 Clouds 4 995 70 10000 1.76 331 21:19 31.03.2021
821 Clouds 5 995 70 10000 1.76 331 21:19 31.03.2021
822 Clouds 4 1017 64 10000 1.76 331 20:41 31.03.2021
823 Clouds 6 1016 74 10000 1.5 340 20:22 31.03.2021
824 Clouds 6 1016 74 10000 1.5 340 19:42 31.03.2021
825 Clouds 6 995 67 10000 1.96 11 19:21 31.03.2021
826 Clouds 6 1016 74 10000 1.96 11 18:57 31.03.2021
827 Clouds 6 1016 74 10000 1.95 11 18:38 31.03.2021
828 Clouds 6 1016 74 10000 2.47 22 17:44 31.03.2021
829 Rain 7 1016 74 10000 2.52 25 17:25 31.03.2021
830 Clouds 6 999 13 10000 2.52 25 16:55 31.03.2021
831 Rain 6 999 7 10000 2.51 24 16:36 31.03.2021
832 Clouds 7 999 1 10000 2.93 29 15:58 31.03.2021
833 Clouds 7 999 2 10000 2.93 29 15:40 31.03.2021
834 Clouds 7 999 20 10000 0.45 59 15:18 31.03.2021
835 Clouds 7 999 19 10000 0.89 25 14:41 31.03.2021
836 Clouds 6 999 10 8552 0.45 360 14:18 31.03.2021
837 Clouds 7 995 65 10000 3.38 25 13:24 31.03.2021
838 Clouds 7 995 72 10000 3.38 25 12:41 31.03.2021
839 Clouds 6 995 74 10000 3.54 29 12:19 31.03.2021
840 Clouds 6 994 76 10000 3.55 29 11:39 31.03.2021
841 Clouds 6 994 75 10000 3.47 32 11:19 31.03.2021
842 Clouds 7 994 72 10000 3.45 32 10:44 31.03.2021
843 Clouds 7 994 72 10000 3.32 27 10:22 31.03.2021
844 Clouds 7 993 71 10000 3.32 27 09:33 31.03.2021
845 Clouds 7 993 70 10000 2.65 34 08:48 31.03.2021
846 Clouds 7 993 72 10000 2.01 30 08:30 31.03.2021
847 Clouds 7 992 82 10000 2.01 30 07:42 31.03.2021
848 Clouds 7 991 82 10000 1.5 336 05:55 31.03.2021
849 Clouds 9 991 74 10000 2.57 214 02:44 31.03.2021
850 Clouds 9 991 71 10000 3.01 218 00:54 31.03.2021
851 Clouds 10 991 71 10000 3.56 221 00:26 31.03.2021
852 Clouds 10 991 70 10000 3.56 221 23:58 30.03.2021
853 Clouds 10 991 70 10000 3.79 226 23:27 30.03.2021
854 Clouds 11 991 70 10000 3.81 226 22:55 30.03.2021
855 Clouds 11 991 70 10000 0.45 266 22:37 30.03.2021
856 Clouds 11 991 70 10000 0.45 225 22:19 30.03.2021
857 Clouds 12 991 65 10000 3.89 222 21:38 30.03.2021
858 Clouds 12 991 62 10000 3.71 221 21:18 30.03.2021
859 Clear 13 1013 58 10000 4.12 180 20:45 30.03.2021
860 Clear 14 1013 54 10000 4.12 210 20:26 30.03.2021
861 Clear 14 1013 54 10000 4.12 220 19:43 30.03.2021
862 Clear 15 1013 51 10000 3.6 220 19:18 30.03.2021
863 Clouds 16 991 50 10000 0.89 270 18:33 30.03.2021
864 Clouds 16 991 50 10000 3.97 236 17:49 30.03.2021
865 Clouds 16 991 50 10000 3.97 236 17:49 30.03.2021
866 Clouds 16 991 50 10000 3.97 236 17:31 30.03.2021
867 Clouds 16 991 46 10000 0.45 225 16:47 30.03.2021
868 Clouds 17 991 41 10000 1.34 90 16:28 30.03.2021
869 Clouds 17 1012 62 10000 4.85 239 15:39 30.03.2021
870 Clouds 16 1012 62 10000 5.06 241 15:19 30.03.2021
871 Clouds 16 1012 62 10000 5.06 241 14:45 30.03.2021
872 Clouds 16 1012 62 10000 4.73 245 14:21 30.03.2021
873 Clouds 15 1012 62 10000 4.73 245 13:51 30.03.2021
874 Clouds 16 995 43 10000 2.68 126 13:29 30.03.2021
875 Clouds 16 1011 47 10000 4.47 241 12:42 30.03.2021
876 Clouds 16 1011 47 10000 4.47 241 12:42 30.03.2021
877 Clear 15 1011 49 10000 4.46 238 12:22 30.03.2021
878 Clear 14 1011 51 10000 4.46 238 11:48 30.03.2021
879 Clear 13 1011 68 10000 3.65 241 11:20 30.03.2021
880 Clouds 11 1012 87 10000 5.14 210 10:42 30.03.2021
881 Clear 11 1011 84 10000 3.05 241 10:19 30.03.2021
882 Clear 11 990 72 10000 3.05 241 09:43 30.03.2021
883 Clear 10 990 96 10000 2.88 227 09:23 30.03.2021
884 Clear 7 989 96 10000 2.89 227 08:44 30.03.2021
885 Clouds 6 989 99 10000 2.98 200 08:21 30.03.2021
886 Clouds 6 988 99 10000 2.41 196 07:42 30.03.2021
887 Clouds 5 988 99 10000 2.26 193 06:53 30.03.2021
888 Clouds 6 988 96 10000 2.29 190 05:25 30.03.2021
889 Clouds 7 1008 55 10000 2.61 188 01:57 30.03.2021
890 Clouds 8 1007 78 10000 2.42 189 23:55 29.03.2021
891 Clouds 8 1007 78 10000 2.18 199 23:22 29.03.2021
892 Clouds 9 1007 78 10000 2.18 199 22:43 29.03.2021
893 Clouds 9 1007 78 10000 2.51 215 21:57 29.03.2021
894 Clouds 9 1007 78 10000 2.51 215 21:35 29.03.2021
895 Clouds 9 1007 75 10000 2.62 209 20:51 29.03.2021
896 Clouds 10 987 67 10000 3.07 217 20:33 29.03.2021
897 Clouds 10 986 68 10000 0.45 267 19:56 29.03.2021
898 Clouds 9 1005 67 10000 3.07 217 19:32 29.03.2021
899 Clouds 11 985 70 10000 4.16 226 18:57 29.03.2021
900 Clouds 11 984 68 10000 5.09 231 18:38 29.03.2021
901 Clouds 11 984 67 10000 5.1 231 18:19 29.03.2021
902 Clouds 11 1004 82 10000 0.89 92 17:37 29.03.2021
903 Clouds 12 984 61 10000 5.44 227 16:54 29.03.2021
904 Clouds 13 983 63 10000 5.42 227 16:34 29.03.2021
905 Clouds 10 983 80 10000 4.62 221 15:43 29.03.2021
906 Clouds 10 984 80 10000 4.81 209 15:24 29.03.2021
907 Clouds 10 983 78 10000 0.45 178 14:49 29.03.2021
908 Clouds 10 983 83 10000 4.71 207 14:28 29.03.2021
909 Clouds 9 983 84 10000 4.71 207 13:47 29.03.2021
910 Clouds 9 983 90 10000 3.96 203 13:22 29.03.2021
911 Clouds 9 983 94 10000 3.96 203 12:49 29.03.2021
912 Clouds 6 983 99 5694 3.2 205 11:49 29.03.2021
913 Clouds 6 983 99 5694 3.2 205 11:30 29.03.2021
914 Clouds 5 982 99 572 3.16 199 10:52 29.03.2021
915 Clouds 5 982 99 94 3.65 200 10:32 29.03.2021
916 Clouds 5 982 99 79 3.84 197 09:37 29.03.2021
917 Clouds 4 982 97 83 3.85 197 08:51 29.03.2021
918 Clouds 4 982 96 117 4.19 195 08:27 29.03.2021
919 Clouds 4 982 90 10000 4.14 192 07:28 29.03.2021
920 Clouds 4 983 91 9499 2.67 188 06:26 29.03.2021
921 Clouds 4 985 99 10000 1.92 189 03:43 29.03.2021
922 Clouds 4 985 99 10000 1.41 198 01:41 29.03.2021
923 Clouds 4 984 99 10000 1.4 190 00:21 29.03.2021
924 Clouds 4 984 99 10000 1.4 190 23:36 28.03.2021
925 Clouds 4 984 99 10000 1.92 213 23:18 28.03.2021
926 Clouds 4 984 99 10000 1.92 213 22:39 28.03.2021
927 Clouds 4 984 99 10000 2.33 207 22:20 28.03.2021
928 Clouds 4 984 99 10000 2.33 207 21:40 28.03.2021
929 Clouds 4 984 99 242 2.67 195 21:22 28.03.2021
930 Clouds 4 984 99 211 2.68 195 20:47 28.03.2021
931 Clouds 4 984 98 101 3.66 188 20:29 28.03.2021
932 Clouds 5 984 97 101 3.66 188 19:43 28.03.2021
933 Clouds 5 984 96 97 3.8 190 19:22 28.03.2021
934 Clouds 5 984 96 97 3.8 190 18:58 28.03.2021
935 Clouds 5 984 94 158 4.22 187 18:26 28.03.2021
936 Clouds 5 984 92 159 4.23 187 17:47 28.03.2021
937 Rain 5 985 90 10000 4.81 190 17:23 28.03.2021
938 Rain 5 985 85 10000 4.81 190 16:46 28.03.2021
939 Rain 5 985 82 10000 5.1 187 16:23 28.03.2021
940 Rain 6 986 70 10000 4.95 202 15:26 28.03.2021
941 Rain 7 986 55 10000 0.45 90 14:57 28.03.2021
942 Clouds 7 986 52 10000 3.71 207 14:31 28.03.2021
943 Clouds 6 1008 60 10000 3.71 207 13:46 28.03.2021
944 Clouds 6 1008 60 10000 2.93 203 13:21 28.03.2021
945 Clouds 7 1008 60 10000 2.93 203 12:50 28.03.2021
946 Clouds 6 1008 60 10000 2.28 196 12:31 28.03.2021
947 Clouds 5 1008 56 10000 2.28 196 11:43 28.03.2021
948 Clouds 5 1009 64 10000 1.6 192 11:24 28.03.2021
949 Clouds 3 1009 80 10000 1.6 192 10:44 28.03.2021
950 Clouds 2 1009 86 10000 0.82 195 10:24 28.03.2021
951 Clouds 2 1009 88 10000 0.82 195 09:46 28.03.2021
952 Clouds 1 1009 90 10000 0.38 337 09:24 28.03.2021
953 Clouds 0 988 83 10000 0.38 337 08:45 28.03.2021
954 Clear -1 988 84 10000 0.94 332 07:49 28.03.2021
955 Clear -2 988 84 10000 1.37 347 06:30 28.03.2021
956 Clear -1 988 88 10000 1.31 313 03:55 28.03.2021
957 Clear 0 988 90 10000 1.27 318 00:53 28.03.2021
958 Clear 0 988 90 10000 1.49 311 00:20 28.03.2021
959 Clear 1 987 90 10000 1.49 311 23:40 27.03.2021
960 Clear 1 987 90 10000 1.4 318 22:57 27.03.2021
961 Clear 1 987 90 10000 1.4 318 22:36 27.03.2021
962 Clear 2 986 89 10000 1.34 315 21:55 27.03.2021
963 Clear 2 1004 87 10000 1.34 315 21:36 27.03.2021
964 Clear 2 1004 87 10000 1.21 324 21:18 27.03.2021
965 Clear 2 1004 87 10000 1.21 324 20:38 27.03.2021
966 Clear 2 1004 87 10000 1.25 335 20:19 27.03.2021
967 Clear 3 1004 87 10000 1.25 335 19:42 27.03.2021
968 Clouds 3 986 83 10000 1.52 328 19:23 27.03.2021
969 Clouds 3 1004 87 10000 0.89 77 18:48 27.03.2021
970 Clouds 4 985 80 10000 1.02 306 18:27 27.03.2021
971 Clouds 4 1001 94 10000 0.89 123 17:45 27.03.2021
972 Clouds 5 1001 94 10000 0.89 123 17:23 27.03.2021
973 Clouds 5 1001 94 10000 0.89 123 16:48 27.03.2021
974 Clouds 5 1001 94 9800 0.89 123 16:28 27.03.2021
975 Clouds 5 1001 94 9800 0.89 123 15:46 27.03.2021
976 Clouds 5 983 83 1327 1.06 312 15:21 27.03.2021
977 Rain 5 983 87 1327 1.06 312 14:45 27.03.2021
978 Rain 4 983 91 170 1.25 296 13:42 27.03.2021
979 Rain 4 983 92 973 1.02 300 13:22 27.03.2021
980 Rain 4 982 96 973 1.02 300 12:50 27.03.2021
981 Rain 4 982 97 1408 1.16 273 11:59 27.03.2021
982 Rain 5 982 97 1408 1.16 273 11:39 27.03.2021
983 Rain 5 981 97 3527 1.2 218 11:19 27.03.2021
984 Clouds 5 981 97 3527 1.2 218 10:42 27.03.2021
985 Rain 5 981 96 8604 2.54 194 10:22 27.03.2021
986 Clouds 5 981 96 8058 3.25 170 09:22 27.03.2021
987 Clouds 5 981 97 8058 3.25 170 08:42 27.03.2021
988 Clouds 5 981 97 4545 3.43 167 08:18 27.03.2021
989 Clouds 5 981 97 5971 3.92 169 07:31 27.03.2021
990 Clouds 5 981 95 7805 4.07 168 06:43 27.03.2021
991 Clouds 6 981 94 10000 4.7 172 04:42 27.03.2021
992 Clouds 6 981 94 10000 0.45 140 03:29 27.03.2021
993 Clouds 6 982 94 9320 5.29 179 00:48 27.03.2021
994 Clouds 6 982 94 9320 5.29 179 00:48 27.03.2021
995 Clouds 6 982 94 10000 5.21 182 00:26 27.03.2021
996 Clouds 6 983 97 10000 5.21 182 23:43 26.03.2021
997 Clouds 5 983 97 9666 4.96 182 22:45 26.03.2021
998 Clouds 5 983 97 9009 5.28 183 22:25 26.03.2021
999 Clouds 5 983 96 9143 5.34 180 21:25 26.03.2021
1000 Rain 5 984 97 9143 5.34 180 20:58 26.03.2021
1001 Rain 5 984 99 5497 5.28 179 20:32 26.03.2021
1002 Rain 5 984 99 5497 5.28 179 19:53 26.03.2021
1003 Rain 5 984 99 7937 5.2 176 19:35 26.03.2021
1004 Clouds 5 985 99 7937 5.2 176 18:59 26.03.2021
1005 Clouds 5 985 99 7937 5.2 176 18:41 26.03.2021
1006 Clouds 4 985 99 8848 5.13 175 18:18 26.03.2021
1007 Clouds 4 985 99 8889 5.14 175 17:44 26.03.2021
1008 Clouds 4 986 99 8894 4.55 176 16:54 26.03.2021
1009 Clouds 4 986 99 10000 4.52 177 16:31 26.03.2021
1010 Clouds 4 986 99 10000 4.52 178 15:43 26.03.2021
1011 Clouds 4 987 99 10000 4.58 175 14:58 26.03.2021
1012 Clouds 5 987 99 10000 4.21 170 14:23 26.03.2021
1013 Clouds 4 987 99 8994 3.86 173 13:34 26.03.2021
1014 Clouds 4 987 99 8994 3.86 173 12:49 26.03.2021
1015 Clouds 4 987 99 9046 3.43 172 11:50 26.03.2021
1016 Clouds 4 987 99 10000 3.22 183 11:31 26.03.2021
1017 Clouds 4 987 99 10000 3.21 183 11:31 26.03.2021
1018 Clouds 4 988 98 10000 3.21 183 10:46 26.03.2021
1019 Clouds 4 988 97 10000 3.54 196 10:27 26.03.2021
1020 Clouds 4 988 97 10000 3.56 197 09:42 26.03.2021
1021 Clouds 4 988 96 933 3.58 193 09:18 26.03.2021
1022 Clouds 3 988 96 933 3.58 193 08:37 26.03.2021
1023 Clouds 3 988 97 5100 3.01 196 07:59 26.03.2021
1024 Clouds 3 987 97 10000 2.26 198 07:23 26.03.2021
1025 Clouds 2 987 97 10000 2.24 197 06:57 26.03.2021
1026 Clouds 2 987 96 10000 2.15 196 06:27 26.03.2021
1027 Clear 2 987 94 10000 1.89 194 05:26 26.03.2021
1028 Clear 1 988 83 10000 1.74 195 01:57 26.03.2021
1029 Clouds 2 988 83 10000 1.53 190 00:27 26.03.2021
1030 Clouds 2 988 84 10000 1.53 190 23:44 25.03.2021
1031 Clouds 3 988 81 10000 1.71 190 22:56 25.03.2021
1032 Clouds 3 987 80 10000 1.75 183 22:28 25.03.2021
1033 Clouds 3 1007 56 10000 0.45 105 21:51 25.03.2021
1034 Clouds 3 992 1 10000 0.45 205 21:33 25.03.2021
1035 Clouds 4 1007 50 10000 1.61 186 20:45 25.03.2021
1036 Clouds 4 1007 50 10000 1.78 198 20:25 25.03.2021
1037 Clouds 5 1007 46 10000 1.78 198 19:45 25.03.2021
1038 Clouds 6 987 70 10000 2.09 204 19:27 25.03.2021
1039 Clouds 6 1006 42 10000 2.09 204 18:47 25.03.2021
1040 Clouds 7 986 58 10000 3.11 220 18:27 25.03.2021
1041 Clouds 8 1007 54 10000 0.89 124 17:51 25.03.2021
1042 Clouds 8 986 56 10000 3.56 225 17:33 25.03.2021
1043 Clouds 9 986 59 10000 3.56 225 16:51 25.03.2021
1044 Clouds 9 986 59 10000 3.56 225 16:51 25.03.2021
1045 Clouds 9 1007 60 10000 0.89 54 16:30 25.03.2021
1046 Clouds 8 1007 60 10000 0.89 54 15:45 25.03.2021
1047 Clouds 9 986 52 10000 3.98 235 15:21 25.03.2021
1048 Clouds 9 986 50 10000 3.98 235 14:46 25.03.2021
1049 Clouds 8 1007 67 10000 0.89 87 13:52 25.03.2021
1050 Clouds 8 1007 67 10000 0.89 87 13:24 25.03.2021
1051 Clouds 6 1007 73 10000 0.89 87 12:45 25.03.2021
1052 Clouds 6 1007 73 10000 0.89 87 12:21 25.03.2021
1053 Clouds 8 986 62 10000 3.42 231 11:52 25.03.2021
1054 Clouds 7 986 65 10000 3.02 224 11:30 25.03.2021
1055 Clouds 7 986 75 10000 3.02 224 10:55 25.03.2021
1056 Clouds 6 986 83 10000 2.92 220 10:27 25.03.2021
1057 Clouds 5 986 83 10000 2.92 220 09:57 25.03.2021
1058 Clouds 5 986 83 10000 2.92 220 09:38 25.03.2021
1059 Clouds 4 986 80 10000 2.76 210 08:58 25.03.2021
1060 Clouds 3 1006 69 10000 0.45 135 08:29 25.03.2021
1061 Clouds 1 1006 73 10000 1.67 193 07:24 25.03.2021
1062 Clouds 0 1005 71 10000 1.45 212 06:27 25.03.2021
1063 Clouds 0 1006 71 10000 1.46 212 05:49 25.03.2021
1064 Clear 0 989 1 10000 1.07 196 04:33 25.03.2021
1065 Clear 2 1007 86 10000 1.54 110 00:44 25.03.2021
1066 Clear 3 1007 80 10000 1.03 0 00:18 25.03.2021
1067 Clear 3 1005 48 10000 1.59 223 23:33 24.03.2021
1068 Clear 3 1007 87 10000 4.12 190 22:51 24.03.2021
1069 Clouds 4 1005 44 10000 1.5 224 22:32 24.03.2021
1070 Clouds 4 1005 43 10000 1.5 224 21:47 24.03.2021
1071 Clouds 4 989 43 10000 0.45 164 21:47 24.03.2021
1072 Clouds 4 1005 42 10000 1.57 221 21:25 24.03.2021
1073 Clouds 5 1005 40 10000 1.57 221 20:46 24.03.2021
1074 Clouds 5 1004 40 10000 1.57 221 20:46 24.03.2021
1075 Clouds 5 1005 39 10000 1.72 220 20:21 24.03.2021
1076 Clouds 5 1005 36 10000 1.72 220 19:59 24.03.2021
1077 Clouds 6 989 1 10000 1.72 220 19:31 24.03.2021
1078 Clouds 8 1007 29 10000 2.1 222 18:52 24.03.2021
1079 Clouds 8 989 46 10000 0.45 203 18:24 24.03.2021
1080 Clear 9 1007 25 10000 3.6 240 17:53 24.03.2021
1081 Clouds 9 1004 29 10000 0.45 241 17:32 24.03.2021
1082 Clouds 9 1004 29 10000 3.21 228 17:32 24.03.2021
1083 Clouds 10 1004 33 10000 3.21 228 16:54 24.03.2021
1084 Clouds 10 1004 40 10000 3.48 231 16:31 24.03.2021
1085 Clouds 10 1004 45 10000 3.48 231 15:58 24.03.2021
1086 Clouds 10 1006 59 10000 3.93 236 15:33 24.03.2021
1087 Clouds 10 1006 59 10000 3.93 236 14:59 24.03.2021
1088 Clouds 11 1006 59 10000 4.07 241 14:28 24.03.2021
1089 Clouds 11 1006 59 10000 4.07 241 13:58 24.03.2021
1090 Clouds 11 1006 62 10000 3.94 243 13:28 24.03.2021
1091 Clouds 11 986 50 10000 3.94 243 12:49 24.03.2021
1092 Clouds 10 1006 62 10000 3.88 240 12:27 24.03.2021
1093 Clouds 9 1006 62 10000 3.88 240 11:54 24.03.2021
1094 Clouds 10 1006 62 10000 3.88 240 11:35 24.03.2021
1095 Clouds 9 1005 47 10000 3.23 221 10:46 24.03.2021
1096 Clouds 7 990 42 10000 3.13 167 10:26 24.03.2021
1097 Clouds 8 1005 58 10000 2.96 215 09:54 24.03.2021
1098 Clouds 7 1004 71 10000 2.82 215 09:25 24.03.2021
1099 Clouds 5 1005 82 10000 2.8 215 08:57 24.03.2021
1100 Clouds 5 1005 85 10000 2.86 206 08:29 24.03.2021
1101 Clouds 4 985 81 10000 2.86 206 07:42 24.03.2021
1102 Clouds 3 1005 91 10000 2.09 197 07:18 24.03.2021
1103 Clouds 3 985 82 10000 2.09 197 06:41 24.03.2021
1104 Clouds 3 985 92 5852 2.46 195 01:24 24.03.2021
1105 Clouds 3 986 95 4927 2.32 198 00:33 24.03.2021
1106 Clouds 3 986 94 6914 1.62 199 23:43 23.03.2021
1107 Clouds 3 1007 84 5107 0.8 200 23:18 23.03.2021
1108 Clouds 3 1007 83 5107 0.8 200 22:40 23.03.2021
1109 Clouds 2 1008 80 10000 0.75 179 21:59 23.03.2021
1110 Clouds 2 992 1 10000 1.34 138 21:41 23.03.2021
1111 Clouds 2 992 1 10000 1.34 138 21:41 23.03.2021
1112 Clouds 2 992 1 10000 2.24 160 21:20 23.03.2021
1113 Clouds 3 1009 76 10000 1 178 20:43 23.03.2021
1114 Clouds 3 1009 73 10000 1.16 178 20:25 23.03.2021
1115 Clouds 3 1009 67 10000 1.06 183 19:45 23.03.2021
1116 Clouds 4 1008 65 10000 1.61 173 19:25 23.03.2021
1117 Clear 6 1011 57 10000 5.66 190 18:43 23.03.2021
1118 Clouds 6 1008 55 9528 0.45 293 18:22 23.03.2021
1119 Clouds 7 1009 52 9528 1.59 181 17:45 23.03.2021
1120 Clouds 7 1009 49 10000 1.49 180 17:21 23.03.2021
1121 Clouds 7 1009 49 10000 1.49 180 17:21 23.03.2021
1122 Clouds 9 1009 43 10000 1.45 187 16:26 23.03.2021
1123 Clouds 10 1009 40 10000 1.45 187 15:59 23.03.2021
1124 Clouds 10 994 53 10000 1.79 134 15:38 23.03.2021
1125 Clouds 12 994 51 10000 1.79 180 14:52 23.03.2021
1126 Clouds 12 994 51 10000 1.79 180 14:52 23.03.2021
1127 Clouds 12 995 49 10000 2.68 214 14:21 23.03.2021
1128 Clouds 9 1012 32 10000 1.56 214 13:50 23.03.2021
1129 Clear 8 1013 53 10000 5.14 170 13:26 23.03.2021
1130 Clear 8 1013 53 10000 5.14 170 12:59 23.03.2021
1131 Clear 8 1013 53 10000 4.63 160 12:39 23.03.2021
1132 Clear 9 1013 57 10000 3.09 140 12:19 23.03.2021
1133 Clouds 8 1010 32 10000 0.84 205 11:42 23.03.2021
1134 Clouds 8 996 55 10000 0.89 132 10:44 23.03.2021
1135 Clear 7 1014 61 10000 2.57 170 10:23 23.03.2021
1136 Clear 7 1014 61 10000 2.57 170 09:58 23.03.2021
1137 Clouds 6 1013 60 10000 0.13 330 09:36 23.03.2021
1138 Clear 4 1014 70 10000 1.54 170 09:18 23.03.2021
1139 Clouds 4 1013 69 10000 0.56 351 08:39 23.03.2021
1140 Clear 2 1014 80 10000 1.03 0 08:20 23.03.2021
1141 Clouds 1 1013 75 10000 0.98 354 07:28 23.03.2021
1142 Clouds 1 1013 74 10000 0.95 3 06:59 23.03.2021
1143 Clouds 0 1013 71 10000 0.45 96 06:23 23.03.2021
1144 Clouds 2 1011 62 1760 0.98 301 03:21 23.03.2021
1145 Clear 4 1013 65 10000 1.03 0 01:34 23.03.2021
1146 Clear 3 1013 56 10000 2.06 260 23:33 22.03.2021
1147 Clear 4 1012 53 10000 1.54 240 22:46 22.03.2021
1148 Clear 5 1012 53 10000 1.54 240 22:24 22.03.2021
1149 Clear 5 1012 53 10000 1.54 240 21:57 22.03.2021
1150 Clear 4 1012 56 10000 1.54 250 21:36 22.03.2021
1151 Clear 4 1012 53 10000 1.54 290 21:18 22.03.2021
1152 Clear 5 1012 53 10000 1.54 290 20:38 22.03.2021
1153 Clear 6 1011 53 10000 1.54 270 20:19 22.03.2021
1154 Clear 7 1011 49 10000 1.54 270 19:48 22.03.2021
1155 Clear 7 1011 46 10000 2.06 250 19:29 22.03.2021
1156 Clear 8 1011 43 10000 1.03 0 18:46 22.03.2021
1157 Clear 9 1010 40 10000 0.51 0 18:27 22.03.2021
1158 Clear 10 1010 37 10000 1.03 0 17:51 22.03.2021
1159 Clear 10 1010 37 10000 0.29 290 17:24 22.03.2021
1160 Clear 10 1011 40 10000 2.06 270 16:59 22.03.2021
1161 Clear 9 1011 40 10000 2.06 270 16:40 22.03.2021
1162 Clear 10 1011 37 10000 3.09 290 15:58 22.03.2021
1163 Clear 10 1011 37 10000 3.09 290 15:37 22.03.2021
1164 Clear 10 1011 37 10000 3.09 290 15:37 22.03.2021
1165 Clear 10 1011 37 10000 2.06 290 15:18 22.03.2021
1166 Clear 11 1011 37 10000 1.54 0 14:49 22.03.2021
1167 Clear 11 1011 37 10000 1.54 0 14:29 22.03.2021
1168 Clear 9 1011 46 10000 2.06 180 13:39 22.03.2021
1169 Clear 9 1011 46 10000 2.06 180 13:19 22.03.2021
1170 Clear 8 1011 49 10000 3.6 190 12:45 22.03.2021
1171 Clear 7 1011 49 10000 3.6 190 12:22 22.03.2021
1172 Clear 7 1012 52 10000 3.09 190 11:46 22.03.2021
1173 Clear 6 1012 52 10000 3.09 190 11:22 22.03.2021
1174 Clear 5 1011 52 10000 3.6 190 10:43 22.03.2021
1175 Clear 4 1011 60 10000 2.57 180 10:24 22.03.2021
1176 Clear 4 1011 56 10000 3.09 170 09:40 22.03.2021
1177 Clear 3 1011 60 10000 2.06 170 09:21 22.03.2021
1178 Clear 1 1012 60 10000 1.03 0 08:43 22.03.2021
1179 Clear 1 1012 60 10000 1.03 0 08:24 22.03.2021
1180 Clear 0 1012 69 10000 2.57 270 07:44 22.03.2021
1181 Clear -1 1012 64 10000 2.06 280 06:57 22.03.2021
1182 Snow 0 1012 64 10000 1.03 0 06:35 22.03.2021
1183 Clear 1 1013 60 10000 1.03 0 02:33 22.03.2021
1184 Clear 1 1013 48 10000 2.06 320 00:33 22.03.2021
1185 Clear 0 1013 55 10000 0.51 0 23:54 21.03.2021
1186 Clear 1 1013 44 10000 1.03 0 23:19 21.03.2021
1187 Clear 1 1013 44 10000 1.03 0 23:19 21.03.2021
1188 Clear 1 1013 44 10000 1.03 0 23:19 21.03.2021
1189 Clear 1 1013 44 10000 1.54 270 22:56 21.03.2021
1190 Clear 1 1013 44 10000 1.03 0 22:18 21.03.2021
1191 Clear 2 1013 44 10000 2.06 290 21:40 21.03.2021
1192 Clear 3 1013 38 10000 2.06 300 21:22 21.03.2021
1193 Clear 4 1013 38 10000 3.09 330 20:43 21.03.2021
1194 Clear 2 1013 38 10000 3.09 330 20:25 21.03.2021
1195 Clear 4 1013 38 10000 0.51 0 19:53 21.03.2021
1196 Clear 5 1013 38 10000 1.54 0 19:21 21.03.2021
1197 Clear 5 1012 38 10000 2.06 340 18:50 21.03.2021
1198 Clear 4 1012 38 10000 2.06 340 18:27 21.03.2021
1199 Clear 4 1012 38 10000 2.06 340 18:27 21.03.2021
1200 Clear 6 1012 36 10000 4.12 340 17:48 21.03.2021
1201 Clear 5 1012 36 10000 5.14 340 17:21 21.03.2021
1202 Clear 6 1012 36 10000 5.14 340 16:59 21.03.2021
1203 Clear 6 1012 33 10000 4.63 340 16:40 21.03.2021
1204 Clouds 6 994 45 10000 1.21 261 16:21 21.03.2021
1205 Clear 6 1012 36 10000 7.2 350 15:41 21.03.2021
1206 Clear 6 1012 36 10000 5.66 330 15:20 21.03.2021
1207 Clear 6 1012 33 10000 3.6 340 14:46 21.03.2021
1208 Clear 6 1011 33 10000 6.17 350 14:26 21.03.2021
1209 Clear 6 1011 33 10000 7.2 340 13:54 21.03.2021
1210 Clear 5 1011 33 10000 7.2 340 13:25 21.03.2021
1211 Clear 5 1011 30 10000 7.72 320 12:42 21.03.2021
1212 Clear 5 1011 30 10000 7.72 320 12:23 21.03.2021
1213 Clear 5 1011 30 10000 7.72 320 12:23 21.03.2021
1214 Clear 5 1011 30 10000 7.2 340 11:37 21.03.2021
1215 Clear 6 1010 33 10000 6.17 330 11:19 21.03.2021
1216 Clear 6 1010 33 10000 6.17 330 11:19 21.03.2021
1217 Clear 5 1010 33 10000 5.66 320 10:42 21.03.2021
1218 Clear 4 1010 38 10000 5.14 330 10:23 21.03.2021
1219 Clear 4 1010 35 10000 3.6 340 09:46 21.03.2021
1220 Clear 4 1010 35 10000 4.12 340 09:27 21.03.2021
1221 Clear 3 1009 41 10000 3.6 330 08:42 21.03.2021
1222 Clear 2 1009 51 10000 1.03 0 08:21 21.03.2021
1223 Clear 0 1009 51 10000 2.57 320 07:39 21.03.2021
1224 Clear 1 1008 44 10000 3.09 290 06:56 21.03.2021
1225 Clear 1 1008 44 10000 1.03 0 05:54 21.03.2021
1226 Clear 3 1006 44 10000 1.54 0 02:25 21.03.2021
1227 Clear 4 1005 38 10000 8.23 350 00:42 21.03.2021
1228 Clear 4 1005 38 10000 8.23 350 00:22 21.03.2021
1229 Clear 3 1005 52 10000 6.69 360 23:49 20.03.2021
1230 Clear 3 1004 60 10000 4.12 350 23:24 20.03.2021
1231 Clear 3 1004 60 10000 4.12 350 22:56 20.03.2021
1232 Clouds 4 1004 69 10000 1.54 350 22:23 20.03.2021
1233 Clear 4 1003 56 10000 2.06 300 21:47 20.03.2021
1234 Clear 4 1003 60 10000 1.5 307 21:25 20.03.2021
1235 Clear 5 1003 52 10000 1.03 0 20:48 20.03.2021
1236 Clear 6 1003 52 10000 1.03 0 20:23 20.03.2021
1237 Clear 6 1003 45 10000 2.06 250 19:51 20.03.2021
1238 Clear 6 1003 45 10000 2.06 250 19:28 20.03.2021
1239 Clouds 5 1002 55 5135 0.45 285 18:50 20.03.2021
1240 Clouds 5 1002 58 4559 0.85 265 18:28 20.03.2021
1241 Clouds 5 1002 60 4561 0.45 286 17:58 20.03.2021
1242 Clouds 5 1003 56 4553 0.85 264 17:39 20.03.2021
1243 Clouds 5 1003 55 4338 0.83 232 17:19 20.03.2021
1244 Clouds 5 1004 51 4342 0.84 232 16:38 20.03.2021
1245 Clouds 6 1005 49 4291 1.11 206 16:18 20.03.2021
1246 Clouds 6 1004 49 4291 1.11 206 15:40 20.03.2021
1247 Clouds 6 1004 49 4291 1.11 206 15:40 20.03.2021
1248 Clouds 6 1005 49 4434 1.64 202 15:21 20.03.2021
1249 Clouds 5 1006 49 4718 1.85 202 14:31 20.03.2021
1250 Clouds 5 1006 49 4721 1.85 202 14:31 20.03.2021
1251 Clouds 5 1007 43 4718 1.85 202 13:59 20.03.2021
1252 Clouds 6 1008 41 5094 1.73 203 13:30 20.03.2021
1253 Clouds 7 1010 50 6135 1.76 208 12:37 20.03.2021
1254 Clouds 6 1011 50 8443 1.65 208 12:18 20.03.2021
1255 Clouds 6 1010 44 8443 1.65 208 11:41 20.03.2021
1256 Clouds 5 995 41 9064 0.89 124 11:21 20.03.2021
1257 Clouds 4 1012 49 9064 1.23 210 10:39 20.03.2021
1258 Clouds 4 995 29 9173 1.23 210 10:39 20.03.2021
1259 Clouds 3 1013 58 10000 0.79 209 10:21 20.03.2021
1260 Clouds 1 1013 64 10000 0.78 210 09:44 20.03.2021
1261 Clear 1 1014 69 10000 0.32 252 09:22 20.03.2021
1262 Clear 0 1014 72 10000 0.32 252 08:51 20.03.2021
1263 Clear -1 993 79 10000 0.55 313 08:19 20.03.2021
1264 Clear -1 993 79 10000 0.55 313 07:47 20.03.2021
1265 Clouds -3 1015 76 10000 0.56 339 07:29 20.03.2021
1266 Clouds -2 994 78 10000 0.49 348 06:39 20.03.2021
1267 Clouds -2 995 77 10000 0.51 334 05:28 20.03.2021
1268 Clouds -3 1018 71 10000 0.34 306 03:43 20.03.2021
1269 Clouds -2 1002 1 10000 0.81 277 01:31 20.03.2021
1270 Clouds -2 1021 61 10000 0.63 302 23:46 19.03.2021
1271 Clouds -1 1021 60 10000 0.48 305 23:19 19.03.2021
1272 Clouds -1 1021 57 10000 0.48 305 22:43 19.03.2021
1273 Clouds -1 1022 56 10000 0.73 243 22:22 19.03.2021
1274 Clear 0 1023 74 10000 4.63 190 21:42 19.03.2021
1275 Clear 0 1023 69 10000 4.12 200 21:20 19.03.2021
1276 Clear 0 1023 64 10000 4.12 210 20:45 19.03.2021
1277 Clear 0 1023 64 10000 4.12 210 20:26 19.03.2021
1278 Clouds 0 1006 44 10000 1.34 150 19:48 19.03.2021
1279 Clear 1 1024 60 10000 4.12 200 19:22 19.03.2021
1280 Clear 1 1024 55 10000 5.14 210 18:49 19.03.2021
1281 Clouds 1 1006 54 10000 2.68 186 18:30 19.03.2021
1282 Clouds 2 1024 45 10000 1.92 183 17:58 19.03.2021
1283 Clouds 2 1024 38 10000 1.92 183 17:38 19.03.2021
1284 Clouds 2 1024 38 10000 2.32 196 17:18 19.03.2021
1285 Clouds 3 1025 39 10000 2.32 196 16:44 19.03.2021
1286 Clouds 2 1003 43 10000 2.56 206 16:25 19.03.2021
1287 Clouds 2 1008 52 10000 2.24 154 15:34 19.03.2021
1288 Clouds 2 1009 51 10000 1.79 121 14:53 19.03.2021
1289 Clouds 3 1009 50 10000 1.34 125 14:33 19.03.2021
1290 Clouds 2 1010 50 10000 1.34 158 13:53 19.03.2021
1291 Clouds 3 1010 49 10000 0.89 217 13:19 19.03.2021
1292 Clouds 2 1011 50 10000 1.34 153 12:47 19.03.2021
1293 Clouds 2 1029 56 10000 1.88 211 12:18 19.03.2021
1294 Clouds 1 1029 56 10000 1.5 210 11:33 19.03.2021
1295 Clouds 1 1029 56 10000 1.5 210 10:47 19.03.2021
1296 Clouds 1 1012 58 10000 0.89 148 10:23 19.03.2021
1297 Clouds 1 1031 42 10000 1.15 184 09:44 19.03.2021
1298 Clouds 0 1012 59 10000 0.89 217 09:26 19.03.2021
1299 Clouds 0 1012 58 10000 0.52 168 08:52 19.03.2021
1300 Clear -2 1030 63 10000 1.54 180 08:29 19.03.2021
1301 Clear -2 1030 63 10000 1.03 0 07:50 19.03.2021
1302 Clear -2 1030 63 10000 1.03 0 07:31 19.03.2021
1303 Clouds -1 1029 59 10000 2.57 100 05:29 19.03.2021
1304 Snow 2 1027 60 7911 2.14 69 02:36 19.03.2021
1305 Clouds 2 1024 64 10000 3.6 20 23:57 18.03.2021
1306 Clear 1 1024 64 10000 6.17 10 23:29 18.03.2021
1307 Clear 2 1023 69 10000 4.63 360 22:54 18.03.2021
1308 Clear 2 1023 69 10000 4.63 360 22:27 18.03.2021
1309 Clear 3 1022 70 10000 5.14 360 21:55 18.03.2021
1310 Clear 3 1022 70 10000 5.14 360 21:36 18.03.2021
1311 Clear 3 1021 65 10000 3.09 340 20:43 18.03.2021
1312 Clear 3 1021 65 10000 3.6 340 20:23 18.03.2021
1313 Clouds 2 1002 53 10000 2.21 358 19:43 18.03.2021
1314 Clouds 3 1021 65 10000 3.6 350 19:23 18.03.2021
1315 Clear 3 1020 70 10000 5.66 350 18:52 18.03.2021
1316 Clouds 4 1020 56 10000 2.57 360 18:25 18.03.2021
1317 Clouds 5 1020 49 10000 5.14 350 17:43 18.03.2021
1318 Clouds 4 1001 56 7076 0.8 360 17:20 18.03.2021
1319 Clear 5 1020 42 10000 2.57 330 16:41 18.03.2021
1320 Clouds 5 1021 42 8198 0.8 346 16:23 18.03.2021
1321 Clouds 5 1021 42 8198 0.8 346 15:41 18.03.2021
1322 Clouds 5 1022 42 10000 0.86 341 15:21 18.03.2021
1323 Clouds 5 1022 42 10000 0.86 341 14:49 18.03.2021
1324 Clouds 4 1022 46 10000 1.35 304 14:23 18.03.2021
1325 Clouds 4 1022 46 10000 1.35 304 13:43 18.03.2021
1326 Clouds 4 1023 46 10000 1.91 298 13:25 18.03.2021
1327 Clouds 4 1022 46 10000 1.44 285 12:40 18.03.2021
1328 Clear 3 1021 48 10000 1.03 0 12:22 18.03.2021
1329 Clear 3 1021 48 10000 1.03 180 11:46 18.03.2021
1330 Clear 3 1021 48 10000 1.03 180 11:27 18.03.2021
1331 Clouds 2 1004 57 10000 1.19 287 10:44 18.03.2021
1332 Clouds 2 1004 57 10000 1.23 292 10:25 18.03.2021
1333 Clouds 2 1004 57 10000 1.23 292 09:54 18.03.2021
1334 Clear 1 1022 59 10000 1.03 350 09:28 18.03.2021
1335 Clouds 1 1023 50 10000 1.32 303 08:46 18.03.2021
1336 Clear -1 1023 64 10000 1.54 360 08:27 18.03.2021
1337 Clouds 0 1023 54 10000 1.46 317 07:50 18.03.2021
1338 Clouds -3 1023 52 10000 1.65 335 06:54 18.03.2021
1339 Clouds -3 1023 51 10000 1.57 335 06:27 18.03.2021
1340 Clouds -3 1023 50 10000 1.49 329 05:40 18.03.2021
1341 Clouds -2 1006 58 10000 1.47 311 00:57 18.03.2021
1342 Clouds -2 1024 42 10000 1.54 322 23:58 17.03.2021
1343 Clouds -2 1025 45 10000 1.41 297 22:44 17.03.2021
1344 Clouds -2 1025 45 10000 1.55 319 22:25 17.03.2021
1345 Clouds -2 1025 45 10000 0.45 45 21:55 17.03.2021
1346 Clouds -2 1006 57 10000 1.55 319 21:33 17.03.2021
1347 Clouds -1 1025 44 10000 1.63 328 21:33 17.03.2021
1348 Clouds -1 1025 43 10000 1.63 328 20:58 17.03.2021
1349 Clouds -1 1025 41 10000 1.63 328 20:40 17.03.2021
1350 Clear -1 1025 41 10000 1.3 331 20:21 17.03.2021
1351 Clear 0 1025 40 10000 1.3 331 19:43 17.03.2021
1352 Clouds 1 1024 40 10000 1.21 321 19:21 17.03.2021
1353 Clear 2 1025 48 10000 1.54 330 18:52 17.03.2021
1354 Clouds 2 1024 35 10000 1.3 338 18:33 17.03.2021
1355 Clear 3 1024 44 10000 2.06 70 17:46 17.03.2021
1356 Clouds 3 1023 33 10000 0.99 260 17:23 17.03.2021
1357 Clouds 3 1024 31 10000 0.99 260 16:45 17.03.2021
1358 Clouds 4 1024 31 10000 1.11 263 16:24 17.03.2021
1359 Clouds 4 1024 31 10000 0.45 113 15:53 17.03.2021
1360 Clouds 4 1006 48 10000 1.11 263 15:35 17.03.2021
1361 Clouds 4 1006 48 10000 0.45 32 14:45 17.03.2021
1362 Clouds 4 1006 49 10000 0.89 23 14:26 17.03.2021
1363 Clouds 3 1007 51 10000 1.27 308 13:55 17.03.2021
1364 Clouds 4 1006 49 10000 1.32 331 13:27 17.03.2021
1365 Clouds 4 1007 47 10000 0.45 150 12:51 17.03.2021
1366 Clouds 4 1007 49 10000 0.45 128 12:31 17.03.2021
1367 Clear 2 1025 51 10000 4.12 20 11:50 17.03.2021
1368 Clear 2 1025 51 10000 4.12 20 11:23 17.03.2021
1369 Clear 1 1025 47 10000 4.12 10 10:54 17.03.2021
1370 Clear 0 1024 54 10000 4.63 10 10:26 17.03.2021
1371 Clear 1 1025 47 10000 4.12 10 10:26 17.03.2021
1372 Clear 0 1025 54 10000 3.09 340 09:48 17.03.2021
1373 Clouds -1 1024 63 10000 3.09 350 09:25 17.03.2021
1374 Clouds -2 1024 63 10000 3.09 350 08:58 17.03.2021
1375 Clouds -3 1024 68 10000 2.06 340 08:38 17.03.2021
1376 Clear -5 1024 68 10000 1.54 20 07:49 17.03.2021
1377 Clear -5 1024 68 10000 1.54 20 07:30 17.03.2021
1378 Clear -4 1022 47 10000 0.89 103 06:42 17.03.2021
1379 Clear -4 1023 52 10000 1.88 327 04:21 17.03.2021
1380 Clear -3 1004 46 10000 1.85 328 03:24 17.03.2021
1381 Clear -1 1022 59 10000 2.06 200 00:40 17.03.2021
1382 Clear -1 1021 64 10000 3.6 350 23:33 16.03.2021
1383 Clear 1 1020 64 10000 4.12 350 22:51 16.03.2021
1384 Clear 0 1020 64 10000 4.12 340 22:33 16.03.2021
1385 Clear 0 1020 69 10000 2.57 340 21:51 16.03.2021
1386 Clear 0 1020 69 10000 2.06 340 21:32 16.03.2021
1387 Clear 1 1020 55 10000 2.06 330 20:59 16.03.2021
1388 Clear 0 1020 55 10000 2.06 330 20:38 16.03.2021
1389 Clear 1 1019 64 10000 2.57 340 20:18 16.03.2021
1390 Clear 2 1019 60 10000 1.03 0 19:42 16.03.2021
1391 Clear 2 1019 60 10000 1.03 0 19:23 16.03.2021
1392 Clouds 2 1019 60 10000 1.54 350 18:45 16.03.2021
1393 Clouds 3 1000 58 10000 1.09 14 18:27 16.03.2021
1394 Clouds 3 1018 48 10000 3.09 30 17:50 16.03.2021
1395 Clouds 4 1018 48 10000 3.09 30 17:31 16.03.2021
1396 Clouds 5 1017 40 10000 1.02 11 16:53 16.03.2021
1397 Clouds 5 1017 39 10000 1.33 17 16:30 16.03.2021
1398 Clouds 5 999 50 10000 1.33 17 15:47 16.03.2021
1399 Clouds 6 1016 38 10000 1.6 12 15:22 16.03.2021
1400 Clouds 6 999 52 10000 1.6 12 14:59 16.03.2021
1401 Clouds 5 999 54 10000 1.6 12 14:40 16.03.2021
1402 Clouds 5 999 55 10000 1.95 16 14:21 16.03.2021
1403 Clouds 5 1018 43 10000 1.95 16 13:54 16.03.2021
1404 Clouds 5 999 54 10000 2.29 18 13:27 16.03.2021
1405 Clouds 5 999 56 10000 1.96 31 12:54 16.03.2021
1406 Clouds 4 999 57 10000 2.17 31 12:35 16.03.2021
1407 Clouds 4 999 57 10000 2.16 31 11:54 16.03.2021
1408 Clouds 4 999 54 9090 2.37 34 11:28 16.03.2021
1409 Clouds 2 1001 63 9090 2.37 34 10:46 16.03.2021
1410 Clouds 1 1001 63 9010 2.49 33 10:20 16.03.2021
1411 Clouds 2 1001 63 8946 2.5 33 09:40 16.03.2021
1412 Clouds 1 1001 63 10000 2.05 28 09:19 16.03.2021
1413 Clouds 1 1001 63 10000 2.04 27 08:52 16.03.2021
1414 Clouds 1 1014 71 10000 1.42 7 08:33 16.03.2021
1415 Clouds 0 998 1 10000 1.42 7 07:50 16.03.2021
1416 Clouds -1 1015 71 10000 1.46 28 07:24 16.03.2021
1417 Clouds -1 1015 71 10000 1.24 6 06:37 16.03.2021
1418 Clouds -1 997 1 10000 1.49 17 05:36 16.03.2021
1419 Clouds 0 995 22 10000 1.78 337 02:46 16.03.2021
1420 Clear 0 995 16 10000 1.79 334 02:25 16.03.2021
1421 Clouds 1 994 24 10000 1.96 339 00:25 16.03.2021
1422 Clouds 1 994 24 10000 1.96 339 23:53 15.03.2021
1423 Clouds 1 993 19 10000 2.1 337 23:19 15.03.2021
1424 Clouds 2 993 33 10000 2.1 337 22:42 15.03.2021
1425 Clouds 2 993 36 10000 2.13 338 22:24 15.03.2021
1426 Clouds 2 992 42 10000 2.13 338 21:48 15.03.2021
1427 Clear 3 1010 64 10000 2.57 330 21:27 15.03.2021
1428 Clear 3 1010 60 10000 2.06 330 20:47 15.03.2021
1429 Clear 3 1010 60 10000 2.06 330 20:28 15.03.2021
1430 Clear 4 1009 60 10000 1.54 310 19:58 15.03.2021
1431 Clear 4 1009 60 10000 1.54 310 19:39 15.03.2021
1432 Clear 4 1008 56 10000 1.54 340 19:21 15.03.2021
1433 Clear 4 1008 52 10000 2.06 310 18:42 15.03.2021
1434 Clear 5 1008 49 10000 1.54 320 18:22 15.03.2021
1435 Clear 6 1007 52 10000 3.09 340 17:52 15.03.2021
1436 Clear 6 989 56 10000 1.55 309 17:22 15.03.2021
1437 Clear 6 1007 49 10000 5.14 350 16:44 15.03.2021
1438 Clear 6 1006 52 10000 5.14 360 16:18 15.03.2021
1439 Clear 7 1004 51 10000 2.54 337 15:39 15.03.2021
1440 Clear 7 1004 51 10000 2.53 337 15:20 15.03.2021
1441 Clear 7 1003 51 10000 1.79 166 14:41 15.03.2021
1442 Clear 7 1003 51 10000 1.79 166 14:20 15.03.2021
1443 Clear 7 1003 51 10000 1.79 166 13:45 15.03.2021
1444 Clear 7 986 55 10000 0.45 37 13:24 15.03.2021
1445 Clear 6 1001 54 10000 1.79 166 12:46 15.03.2021
1446 Clouds 5 1004 56 10000 3.09 30 12:18 15.03.2021
1447 Clear 5 1001 54 10000 1.79 166 11:46 15.03.2021
1448 Clear 5 1001 54 10000 2.78 345 11:26 15.03.2021
1449 Clear 4 1001 54 10000 2.78 344 10:45 15.03.2021
1450 Clouds 3 1003 60 10000 4.63 360 10:26 15.03.2021
1451 Clouds 2 1003 64 10000 4.12 360 09:48 15.03.2021
1452 Clouds 2 1003 64 10000 4.12 360 09:30 15.03.2021
1453 Clear 1 984 26 10000 2.67 357 08:47 15.03.2021
1454 Clear 0 1002 69 10000 3.09 350 08:27 15.03.2021
1455 Clear -1 1001 80 10000 4.63 360 07:43 15.03.2021
1456 Clear -1 1000 80 10000 4.63 10 07:22 15.03.2021
1457 Clear -1 999 74 10000 7.2 10 06:21 15.03.2021
1458 Clouds -1 995 92 10000 2.54 348 03:59 15.03.2021
1459 Clouds 1 973 80 10000 2.19 2 01:20 15.03.2021
1460 Clouds 2 973 82 10000 2.24 5 23:45 14.03.2021
1461 Clouds 2 972 82 3801 2.14 12 23:19 14.03.2021
1462 Clouds 2 972 81 3749 2.13 12 22:39 14.03.2021
1463 Clouds 2 990 73 61 1.84 19 22:18 14.03.2021
1464 Clouds 2 990 73 61 1.84 19 21:41 14.03.2021
1465 Clouds 2 990 73 131 1.6 22 21:18 14.03.2021
1466 Clouds 2 990 73 130 1.59 22 20:42 14.03.2021
1467 Rain 2 990 77 837 1.31 31 20:24 14.03.2021
1468 Clouds 3 990 77 837 1.31 31 19:42 14.03.2021
1469 Rain 3 971 78 10000 1.03 45 19:20 14.03.2021
1470 Clouds 3 990 77 10000 1.45 19 18:41 14.03.2021
1471 Clouds 3 990 77 10000 1.27 21 17:58 14.03.2021
1472 Clouds 3 990 77 10000 1.27 21 17:38 14.03.2021
1473 Clouds 3 975 1 10000 0.89 140 17:19 14.03.2021
1474 Clouds 4 989 61 10000 0.64 5 16:42 14.03.2021
1475 Clouds 4 988 58 10000 0.15 98 16:23 14.03.2021
1476 Clouds 5 974 40 10000 2.24 173 15:49 14.03.2021
1477 Clouds 5 974 43 10000 1.79 207 15:24 14.03.2021
1478 Clouds 4 974 44 10000 1.79 198 14:40 14.03.2021
1479 Clouds 5 992 65 10000 3.6 150 14:20 14.03.2021
1480 Clouds 5 992 70 10000 2.06 180 13:45 14.03.2021
1481 Clouds 5 992 70 10000 2.06 180 13:26 14.03.2021
1482 Clouds 3 992 81 10000 1.54 220 12:43 14.03.2021
1483 Clouds 3 975 1 10000 1.08 187 12:23 14.03.2021
1484 Clouds 2 974 1 10000 1.34 131 11:41 14.03.2021
1485 Clouds 3 990 81 10000 1.23 195 11:22 14.03.2021
1486 Clouds 3 990 81 10000 1.24 195 10:38 14.03.2021
1487 Clouds 3 990 81 10000 0.69 175 10:20 14.03.2021
1488 Clouds 2 990 81 10000 0.69 175 09:59 14.03.2021
1489 Clouds 2 990 81 10000 0.69 175 09:40 14.03.2021
1490 Clouds 1 974 1 10000 0.51 219 09:20 14.03.2021
1491 Clouds 1 970 90 10000 0.51 219 08:39 14.03.2021
1492 Clouds 0 969 90 10000 0.27 206 07:58 14.03.2021
1493 Clouds -1 988 98 10000 0.14 264 07:28 14.03.2021
1494 Clouds -1 972 1 10000 0.53 293 05:38 14.03.2021
1495 Clouds 0 971 1 10000 0.79 333 01:29 14.03.2021
1496 Clouds 0 971 1 10000 0.74 325 00:42 14.03.2021
1497 Clouds 0 971 1 10000 0.92 322 00:18 14.03.2021
1498 Clouds 0 971 1 10000 0.92 322 23:42 13.03.2021
1499 Clouds 1 966 84 10000 0.6 321 23:19 13.03.2021
1500 Clouds 1 966 83 10000 0.6 321 22:47 13.03.2021
1501 Clouds 1 966 83 10000 0.23 218 22:23 13.03.2021
1502 Clouds 0 985 92 10000 0.23 218 21:36 13.03.2021
1503 Clouds 1 966 82 10000 0.55 175 21:18 13.03.2021
1504 Clouds 1 966 82 10000 0.55 175 20:46 13.03.2021
1505 Clouds 1 966 81 10000 1.12 181 20:25 13.03.2021
1506 Clouds 2 965 80 10000 1.12 181 19:44 13.03.2021
1507 Clouds 2 965 80 9098 1.43 174 19:24 13.03.2021
1508 Clouds 2 965 78 8965 1.17 182 18:42 13.03.2021
1509 Clouds 3 965 77 10000 1.6 174 18:20 13.03.2021
1510 Clouds 3 985 67 10000 1.59 175 17:51 13.03.2021
1511 Clouds 3 985 67 10000 1.6 174 17:32 13.03.2021
1512 Clouds 4 965 73 10000 1.65 169 16:55 13.03.2021
1513 Clouds 4 965 72 10000 1.65 169 16:37 13.03.2021
1514 Clouds 5 965 71 10000 1.73 169 15:56 13.03.2021
1515 Clouds 4 965 71 10000 1.84 180 15:19 13.03.2021
1516 Clouds 5 964 71 10000 1.84 180 14:42 13.03.2021
1517 Clouds 5 964 71 10000 1.7 199 14:21 13.03.2021
1518 Clouds 5 965 72 10000 1.7 199 13:30 13.03.2021
1519 Clear 4 965 71 10000 1.38 193 12:53 13.03.2021
1520 Clear 3 985 50 10000 1.44 205 12:35 13.03.2021
1521 Clouds 2 986 93 10000 2.06 190 11:57 13.03.2021
1522 Clear 4 964 75 10000 1.44 205 11:38 13.03.2021
1523 Clear 3 964 75 10000 1.03 195 11:19 13.03.2021
1524 Clear 3 964 87 10000 1.04 195 10:31 13.03.2021
1525 Clear 1 964 91 10000 0.74 200 09:59 13.03.2021
1526 Clear 0 964 92 10000 0.22 240 09:33 13.03.2021
1527 Clear 0 964 92 10000 0.22 238 08:54 13.03.2021
1528 Clear 0 964 92 10000 0.22 238 08:54 13.03.2021
1529 Clear -1 964 92 10000 0.43 312 08:26 13.03.2021
1530 Clear -2 964 92 10000 0.42 312 07:57 13.03.2021
1531 Clouds -3 968 1 10000 0.34 294 07:33 13.03.2021
1532 Clouds -2 963 90 10000 0.33 226 05:30 13.03.2021
1533 Clouds -2 981 97 10000 0.89 192 02:42 13.03.2021
1534 Clouds 0 963 82 10000 1.49 188 00:36 13.03.2021
1535 Clouds -1 981 95 10000 1.48 188 23:46 12.03.2021
1536 Clouds -1 981 93 10000 1.62 193 23:26 12.03.2021
1537 Clouds 0 981 91 10000 1.62 193 22:41 12.03.2021
1538 Clouds 1 981 93 10000 1.85 202 22:20 12.03.2021
1539 Clouds 1 982 72 10000 1.85 202 21:38 12.03.2021
1540 Clouds 1 963 81 10000 2.16 204 21:19 12.03.2021
1541 Clouds 1 982 72 10000 2.16 205 20:48 12.03.2021
1542 Clouds 2 963 81 10000 2.43 211 20:24 12.03.2021
1543 Clouds 3 962 78 10000 2.44 211 19:45 12.03.2021
1544 Clouds 3 962 77 10000 2.78 212 19:27 12.03.2021
1545 Clouds 3 982 72 10000 2.8 209 18:53 12.03.2021
1546 Clouds 3 962 76 10000 2.7 204 18:29 12.03.2021
1547 Clouds 4 962 79 10000 2.69 204 17:45 12.03.2021
1548 Clouds 4 961 79 10000 2.86 206 17:27 12.03.2021
1549 Clouds 4 961 78 10000 2.86 206 16:49 12.03.2021
1550 Clouds 4 961 76 10000 3.36 207 16:28 12.03.2021
1551 Clouds 3 981 60 10000 1.79 42 15:40 12.03.2021
1552 Clouds 3 981 60 10000 1.79 42 15:18 12.03.2021
1553 Clouds 5 981 60 10000 1.79 42 14:40 12.03.2021
1554 Clouds 5 961 62 10000 0.45 264 14:18 12.03.2021
1555 Clouds 4 981 82 10000 4.25 205 13:40 12.03.2021
1556 Clouds 4 981 82 10000 3.62 203 13:19 12.03.2021
1557 Clouds 4 981 82 10000 3.62 203 12:49 12.03.2021
1558 Clouds 4 982 87 10000 2.06 150 12:28 12.03.2021
1559 Clouds 4 978 88 10000 2.98 200 11:54 12.03.2021
1560 Clouds 2 981 95 10000 1.99 192 11:25 12.03.2021
1561 Clouds 2 981 95 10000 1.99 192 10:57 12.03.2021
1562 Clouds 1 980 95 10000 1.36 197 10:28 12.03.2021
1563 Clouds 1 980 95 10000 1.35 197 09:58 12.03.2021
1564 Clouds 0 980 95 10000 1.01 207 09:28 12.03.2021
1565 Clouds 0 964 1 10000 1.02 207 08:51 12.03.2021
1566 Clouds -1 977 98 10000 1.07 244 08:33 12.03.2021
1567 Clouds -1 959 96 10000 1.07 244 07:41 12.03.2021
1568 Clouds -1 976 98 10000 1.04 270 07:18 12.03.2021
1569 Clouds -1 962 1 10000 1.07 272 06:39 12.03.2021
1570 Clouds 0 956 96 4141 1.43 284 03:29 12.03.2021
1571 Snow 1 955 95 115 1.16 298 00:52 12.03.2021
1572 Snow 1 954 95 137 0.78 317 23:40 11.03.2021
1573 Snow 1 954 95 138 0.62 46 22:58 11.03.2021
1574 Snow 1 954 95 138 0.62 46 22:36 11.03.2021
1575 Snow 1 954 95 133 1.01 66 21:59 11.03.2021
1576 Snow 1 954 95 132 1.01 65 21:41 11.03.2021
1577 Snow 1 954 95 125 1.11 67 21:20 11.03.2021
1578 Snow 1 954 94 125 1.11 67 20:48 11.03.2021
1579 Snow 1 954 95 115 1.21 66 20:21 11.03.2021
1580 Snow 1 954 95 116 1.21 66 19:47 11.03.2021
1581 Snow 1 954 95 102 1.47 72 19:29 11.03.2021
1582 Snow 1 954 95 126 1.52 101 18:49 11.03.2021
1583 Snow 1 954 95 102 2.04 106 18:31 11.03.2021
1584 Snow 1 954 96 102 2.04 106 17:50 11.03.2021
1585 Snow 1 954 96 102 2.04 106 17:30 11.03.2021
1586 Snow 1 955 98 84 2.67 114 16:31 11.03.2021
1587 Snow 1 955 99 84 2.67 114 15:50 11.03.2021
1588 Snow 1 956 99 84 0.45 178 15:31 11.03.2021
1589 Snow 1 956 99 49 3.16 123 14:58 11.03.2021
1590 Snow 1 956 99 48 3.16 123 14:38 11.03.2021
1591 Snow 1 957 99 44 4.3 130 14:18 11.03.2021
1592 Snow 1 957 99 44 4.3 130 13:43 11.03.2021
1593 Snow 1 958 99 43 4.96 135 13:21 11.03.2021
1594 Snow 1 958 99 43 4.96 135 12:49 11.03.2021
1595 Snow 1 959 99 61 4.95 133 12:27 11.03.2021
1596 Snow 1 959 99 61 0.45 136 11:45 11.03.2021
1597 Snow 1 960 99 65 4.64 134 11:27 11.03.2021
1598 Snow 1 960 99 65 0.45 44 10:48 11.03.2021
1599 Snow 1 961 99 82 5.31 127 10:22 11.03.2021
1600 Snow 0 962 99 82 0.45 227 09:45 11.03.2021
1601 Snow 0 962 98 73 0.89 222 09:25 11.03.2021
1602 Snow 0 964 98 73 0.45 227 08:48 11.03.2021
1603 Snow 0 964 97 87 0.45 90 08:20 11.03.2021
1604 Snow -1 965 97 95 2.24 90 07:34 11.03.2021
1605 Snow -1 966 96 106 0.89 0 06:50 11.03.2021
1606 Snow -1 965 96 107 1.34 225 06:50 11.03.2021
1607 Snow -1 966 96 107 1.34 90 06:31 11.03.2021
1608 -273 0 0 0 0 0 04:46 11.03.2021
1609 Snow -1 976 90 110 3.13 270 01:38 11.03.2021
1610 -273 0 0 0 0 0 23:52 10.03.2021
1611 -273 0 0 0 0 0 23:52 10.03.2021
1612 Snow -1 980 83 143 0.89 87 23:22 10.03.2021
1613 Snow -1 982 82 143 2.68 223 22:39 10.03.2021
1614 Snow -1 983 81 213 0.89 90 21:47 10.03.2021
1615 Snow -1 984 80 1660 1.34 94 21:27 10.03.2021
1616 Snow -1 985 75 10000 1.34 222 20:58 10.03.2021
1617 Snow -1 985 72 10000 2.24 90 20:39 10.03.2021
1618 Snow -1 986 68 10000 3.58 90 20:20 10.03.2021
1619 Snow -1 986 67 10000 2.24 137 19:40 10.03.2021
1620 Clouds -1 986 67 10000 2.68 226 19:20 10.03.2021
1621 Clouds -1 987 66 10000 1.79 318 18:38 10.03.2021
1622 Snow -1 988 65 8961 2.68 268 18:19 10.03.2021
1623 Snow -1 988 64 8889 1.79 178 17:42 10.03.2021
1624 Snow -1 989 62 8261 2.24 267 17:20 10.03.2021
1625 Clouds -1 989 61 8318 2.24 90 16:53 10.03.2021
1626 Snow -1 990 60 8818 1.34 135 16:30 10.03.2021
1627 Snow -1 990 61 9364 1.34 92 15:59 10.03.2021
1628 Snow -1 991 61 8906 3.13 93 15:38 10.03.2021
1629 Clouds 0 991 61 9028 1.34 270 15:20 10.03.2021
1630 Clouds 0 992 62 9028 1.79 91 14:38 10.03.2021
1631 Snow -1 992 62 8245 0.89 133 14:19 10.03.2021
1632 Clouds -1 993 63 8245 1.34 177 13:35 10.03.2021
1633 Snow -2 993 62 3548 0.89 90 12:53 10.03.2021
1634 Snow -2 994 62 3548 1.34 93 12:32 10.03.2021
1635 Clouds -2 994 63 1291 1.34 87 11:58 10.03.2021
1636 Snow -2 994 63 1756 0.45 268 11:30 10.03.2021
1637 Snow -3 995 64 1744 0.45 291 10:56 10.03.2021
1638 Snow -3 995 63 1283 0.89 62 10:34 10.03.2021
1639 Snow -3 996 63 1283 0.45 90 09:57 10.03.2021
1640 Snow -3 996 62 1283 0.89 270 09:39 10.03.2021
1641 Snow -3 996 62 6813 0.45 270 09:19 10.03.2021
1642 Snow -3 996 62 6813 0.45 270 08:45 10.03.2021
1643 Snow -3 997 62 2111 0.45 269 08:27 10.03.2021
1644 Snow -3 996 64 2227 0.45 90 07:48 10.03.2021
1645 Snow -3 996 65 6980 0.89 270 07:29 10.03.2021
1646 Snow -3 997 67 6980 0.45 222 06:52 10.03.2021
1647 Snow -2 997 71 892 0.89 89 03:29 10.03.2021
1648 Snow -1 1020 80 10000 4.12 100 00:42 10.03.2021
1649 Snow 0 1020 74 10000 2.06 110 23:47 09.03.2021
1650 Snow 2 1019 74 10000 2.57 120 22:58 09.03.2021
1651 Snow 1 1019 74 10000 2.57 120 22:38 09.03.2021
1652 Snow 1 1019 74 10000 3.09 100 22:18 09.03.2021
1653 Snow 1 1019 80 10000 3.09 90 21:42 09.03.2021
1654 Snow 1 1019 75 10000 3.6 80 21:22 09.03.2021
1655 Snow 1 1019 80 10000 4.12 60 20:56 09.03.2021
1656 Snow 1 1019 80 10000 4.12 60 20:37 09.03.2021
1657 Clouds 1 1018 69 10000 2.06 80 20:19 09.03.2021
1658 Clouds 2 1018 69 10000 2.57 50 19:43 09.03.2021
1659 Clear 2 1018 69 10000 4.12 80 19:25 09.03.2021
1660 Clear 3 1017 60 10000 2.57 80 18:42 09.03.2021
1661 Clear 3 1017 60 10000 2.57 110 18:20 09.03.2021
1662 Clear 4 1016 56 10000 2.06 120 17:47 09.03.2021
1663 Clear 4 1016 56 10000 2.06 120 17:27 09.03.2021
1664 Clear 5 1016 52 10000 0.51 0 16:41 09.03.2021
1665 Clouds 6 998 51 10000 1.38 50 16:22 09.03.2021
1666 Clouds 6 998 50 10000 1.38 50 15:57 09.03.2021
1667 Clouds 6 998 48 10000 1.31 28 15:28 09.03.2021
1668 Clear 5 1016 45 10000 4.12 40 14:52 09.03.2021
1669 Clouds 5 1018 65 10000 1.36 4 14:27 09.03.2021
1670 Clouds 4 1018 65 10000 1.36 4 13:43 09.03.2021
1671 Clouds 4 1017 66 10000 1.52 360 13:21 09.03.2021
1672 Clouds 6 1014 39 10000 1.52 360 12:55 09.03.2021
1673 Clouds 5 1015 39 10000 1.52 360 12:37 09.03.2021
1674 Clouds 3 998 56 10000 1.55 328 11:58 09.03.2021
1675 Clear 2 1015 52 10000 1.54 180 11:39 09.03.2021
1676 Clear 1 1015 60 10000 1.54 200 11:19 09.03.2021
1677 Clouds 2 1015 50 10000 1.88 321 10:41 09.03.2021
1678 Clear 0 1015 69 10000 2.01 323 10:22 09.03.2021
1679 Clouds 1 998 45 10000 2.01 323 09:47 09.03.2021
1680 Clear -1 1015 74 10000 1.03 0 09:28 09.03.2021
1681 Clouds -1 1015 63 10000 1.94 321 08:58 09.03.2021
1682 Clouds -2 998 25 10000 1.94 321 08:34 09.03.2021
1683 Clouds -3 1015 63 10000 1.66 325 07:47 09.03.2021
1684 Clouds -2 993 70 10000 1.72 317 07:28 09.03.2021
1685 Clouds -2 993 70 10000 1.74 317 07:28 09.03.2021
1686 Clouds -2 993 70 10000 1.73 317 06:59 09.03.2021
1687 Clouds -2 993 70 10000 1.76 344 05:53 09.03.2021
1688 Snow -2 994 63 10000 0.45 268 01:48 09.03.2021
1689 Clouds -2 994 54 10000 0.63 284 23:59 08.03.2021
1690 Snow -2 994 54 10000 0.63 283 23:39 08.03.2021
1691 Clouds -2 994 55 10000 0.45 248 23:20 08.03.2021
1692 Clouds -2 995 55 10000 0.45 248 22:41 08.03.2021
1693 Clouds -2 995 54 10000 0.45 248 22:23 08.03.2021
1694 Clouds -2 995 55 10000 0.45 248 21:50 08.03.2021
1695 Clouds -2 995 55 10000 0.45 248 21:50 08.03.2021
1696 Clouds -1 995 55 10000 0.45 248 21:30 08.03.2021
1697 Snow -1 996 53 10000 0.45 90 20:44 08.03.2021
1698 Clouds -1 995 52 10000 0.89 180 20:23 08.03.2021
1699 Clouds -1 996 52 10000 0.45 180 19:53 08.03.2021
1700 Clouds -1 996 52 10000 0.89 233 19:27 08.03.2021
1701 Snow -1 1001 56 10000 2.17 195 18:38 08.03.2021
1702 Clouds 0 1017 43 10000 2.41 195 18:19 08.03.2021
1703 Clouds 1 1018 42 10000 2.41 195 17:46 08.03.2021
1704 Clouds 1 1018 48 10000 0.89 87 17:24 08.03.2021
1705 Clouds 2 1019 38 10000 2.72 193 16:44 08.03.2021
1706 Clouds 3 1018 41 10000 0.89 87 16:25 08.03.2021
1707 Clouds 3 1018 41 10000 0.89 87 15:47 08.03.2021
1708 Clouds 3 1018 41 10000 0.89 87 15:24 08.03.2021
1709 Clouds 4 1020 41 10000 2.71 204 14:22 08.03.2021
1710 Clouds 3 1020 41 10000 2.71 205 13:58 08.03.2021
1711 Clouds 3 1020 41 10000 2.05 207 13:24 08.03.2021
1712 Clouds 3 1020 41 10000 2.05 207 12:59 08.03.2021
1713 Clouds 3 1021 32 10000 2.05 207 12:40 08.03.2021
1714 Clouds 2 1004 51 10000 1.56 208 12:20 08.03.2021
1715 Clouds 1 1022 38 10000 0.96 215 11:37 08.03.2021
1716 Clouds 1 1022 39 10000 0.96 215 11:18 08.03.2021
1717 Clouds 1 1023 40 10000 0.96 215 10:41 08.03.2021
1718 Clouds -1 1023 42 10000 0.41 252 10:19 08.03.2021
1719 Clouds -2 1023 42 10000 0.46 306 09:30 08.03.2021
1720 Clouds -3 1005 58 10000 0.46 306 08:54 08.03.2021
1721 Clouds -4 1023 43 10000 0.82 323 08:27 08.03.2021
1722 Clouds -4 1000 50 10000 0.92 322 07:23 08.03.2021
1723 Clouds -4 1000 50 10000 0.91 322 06:38 08.03.2021
1724 Clouds -3 1021 35 10000 1.67 317 02:59 08.03.2021
1725 Clear -2 999 40 10000 1.88 316 00:43 08.03.2021
1726 Clear -2 1021 32 10000 0.45 89 23:54 07.03.2021
1727 Clear -2 1003 46 10000 1.95 316 23:28 07.03.2021
1728 Clear -2 1021 31 10000 0.45 113 22:59 07.03.2021
1729 Clear -2 1021 31 10000 1.96 316 22:40 07.03.2021
1730 Clear -2 1020 31 10000 1.99 324 22:20 07.03.2021
1731 Clear -2 1019 30 10000 1.99 324 21:42 07.03.2021
1732 Clear -1 1019 30 10000 0.45 270 21:23 07.03.2021
1733 Clear 0 997 31 10000 2.13 328 20:43 07.03.2021
1734 Clear -1 1019 30 10000 0.45 100 20:24 07.03.2021
1735 Clear -1 1019 28 10000 0.45 155 19:56 07.03.2021
1736 Clear -1 1016 41 10000 1.79 274 19:37 07.03.2021
1737 Clear -1 1018 25 10000 0.45 293 19:19 07.03.2021
1738 Clear 0 1018 32 10000 3.6 350 18:40 07.03.2021
1739 Clear 1 1017 22 10000 2.19 325 18:19 07.03.2021
1740 Clear 3 1017 30 10000 5.14 350 17:39 07.03.2021
1741 Clear 3 1017 21 10000 0.89 304 17:20 07.03.2021
1742 Clear 3 1015 30 10000 1.79 223 16:54 07.03.2021
1743 Clear 3 1015 30 10000 1.79 223 16:36 07.03.2021
1744 Clear 3 1015 30 10000 1.79 223 16:36 07.03.2021
1745 Clear 4 1015 30 10000 1.79 223 16:18 07.03.2021
1746 Clear 4 1015 30 10000 1.79 223 15:41 07.03.2021
1747 Clear 4 1015 30 10000 1.79 223 15:20 07.03.2021
1748 Clear 5 1015 26 10000 1.34 102 14:30 07.03.2021
1749 Clear 4 1015 26 10000 1.34 111 13:59 07.03.2021
1750 Clouds 5 1015 25 10000 1.79 50 13:39 07.03.2021
1751 Clouds 4 1014 27 10000 1.79 117 13:18 07.03.2021
1752 Clouds 3 1015 28 10000 1.79 133 12:43 07.03.2021
1753 Clouds 3 998 39 10000 1.79 351 12:24 07.03.2021
1754 Clouds 2 997 42 10000 0.89 39 11:25 07.03.2021
1755 Clouds 2 1014 31 10000 1.34 86 10:59 07.03.2021
1756 Clouds 2 1014 31 10000 1.34 142 10:38 07.03.2021
1757 Clouds 2 1013 34 10000 0.89 125 09:59 07.03.2021
1758 Clouds 1 996 53 10000 0.45 40 09:39 07.03.2021
1759 Clouds 0 1013 35 10000 1.34 123 09:20 07.03.2021
1760 Clouds 1 1013 38 10000 0.45 144 08:45 07.03.2021
1761 Clouds 0 1013 39 10000 1.34 105 08:22 07.03.2021
1762 Clouds 0 1012 40 10000 1.34 138 07:23 07.03.2021
1763 Clouds 0 1009 51 10000 1.31 309 02:40 07.03.2021
1764 Snow 1 1009 44 10000 5.66 350 00:36 07.03.2021
1765 Clouds 4 1006 45 8814 0.45 164 23:41 06.03.2021
1766 Clouds 4 1007 63 10000 1.79 209 23:22 06.03.2021
1767 Clouds 4 1007 63 10000 1.79 209 22:47 06.03.2021
1768 Clouds 4 1007 63 10000 1.79 209 22:25 06.03.2021
1769 Clouds 5 1007 63 10000 1.79 209 21:54 06.03.2021
1770 Clouds 5 985 55 10000 0.45 90 21:21 06.03.2021
1771 Clouds 5 986 53 10000 0.45 182 20:48 06.03.2021
1772 Clouds 6 986 52 10000 0.45 134 20:26 06.03.2021
1773 Clouds 6 986 53 10000 0.45 267 19:41 06.03.2021
1774 Clouds 6 1010 71 10000 2.68 267 19:19 06.03.2021
1775 Clouds 6 1010 50 10000 6.26 231 18:45 06.03.2021
1776 Clouds 6 1010 50 10000 6.26 231 18:23 06.03.2021
1777 Clouds 6 1010 50 10000 6.26 231 17:56 06.03.2021
1778 Clear 6 1008 45 10000 5.14 280 17:37 06.03.2021
1779 Clear 6 1008 45 10000 5.14 290 17:18 06.03.2021
1780 Clear 6 1008 42 10000 5.66 290 16:39 06.03.2021
1781 Clouds 7 1010 50 10000 6.26 231 16:20 06.03.2021
1782 Clouds 7 1010 50 10000 6.26 231 15:41 06.03.2021
1783 Clouds 6 1010 50 10000 6.26 231 15:23 06.03.2021
1784 Clouds 6 1010 50 10000 3.1 220 14:34 06.03.2021
1785 Clouds 5 1012 56 10000 2.97 217 13:57 06.03.2021
1786 Clouds 5 1012 56 10000 2.78 221 13:39 06.03.2021
1787 Clouds 5 990 51 10000 0.89 225 13:19 06.03.2021
1788 Clouds 5 990 51 10000 1.79 268 12:44 06.03.2021
1789 Clouds 4 991 51 10000 0.45 180 12:19 06.03.2021
1790 Clouds 3 991 53 10000 0.45 135 11:48 06.03.2021
1791 Clouds 3 992 54 10000 0.45 135 11:21 06.03.2021
1792 Clouds 4 992 57 10000 0.45 180 10:48 06.03.2021
1793 Clouds 2 992 56 10000 0.45 225 10:18 06.03.2021
1794 Clouds 2 993 60 10000 0.45 140 09:41 06.03.2021
1795 Clouds 1 1015 71 10000 1.34 256 09:19 06.03.2021
1796 Clouds 1 993 62 10000 1.34 256 08:36 06.03.2021
1797 Clouds -1 1015 74 10000 1.26 261 07:57 06.03.2021
1798 Clouds -2 1016 72 10000 0.45 168 07:24 06.03.2021
1799 Clouds -2 1016 70 10000 1.16 259 06:55 06.03.2021
1800 Clouds -2 1017 65 10000 1.19 269 05:34 06.03.2021
1801 Clouds -3 1019 58 10000 1.12 271 02:38 06.03.2021
1802 Clouds -3 1021 55 10000 1.05 276 00:47 06.03.2021
1803 Clouds -2 1021 54 10000 1 273 23:53 05.03.2021
1804 Clouds -2 1021 52 10000 1.06 289 23:29 05.03.2021
1805 Clouds -1 1021 51 10000 1.06 289 22:46 05.03.2021
1806 Clear -2 1022 48 10000 0.98 291 22:23 05.03.2021
1807 Clear -2 1021 46 10000 0.98 291 21:54 05.03.2021
1808 Clear -2 1021 45 10000 1.12 291 21:34 05.03.2021
1809 Clear -1 1004 59 10000 1.11 290 20:55 05.03.2021
1810 Clear -1 1022 43 10000 0.81 284 20:37 05.03.2021
1811 Clear -1 1022 43 10000 0.82 284 20:19 05.03.2021
1812 Clear -1 1022 42 10000 0.83 302 19:36 05.03.2021
1813 Clear -1 1022 41 10000 0.83 302 19:18 05.03.2021
1814 Clear 0 1005 54 10000 0.79 312 18:42 05.03.2021
1815 Clear 0 1005 54 10000 0.79 312 18:42 05.03.2021
1816 Clear 1 1022 38 10000 1.54 240 18:23 05.03.2021
1817 Clear 3 1022 35 10000 2.06 240 17:37 05.03.2021
1818 Clear 3 1022 35 10000 2.06 240 17:37 05.03.2021
1819 Clear 3 1022 31 10000 0.83 259 16:58 05.03.2021
1820 Clear 3 1022 30 10000 0.83 259 16:38 05.03.2021
1821 Clear 4 1021 38 10000 0.89 243 16:20 05.03.2021
1822 Clear 3 1022 38 10000 0.89 206 15:46 05.03.2021
1823 Clear 4 1022 38 10000 0.89 206 15:23 05.03.2021
1824 Clear 4 1022 38 10000 0.89 206 14:39 05.03.2021
1825 Clear 5 1022 43 10000 1.26 246 13:59 05.03.2021
1826 Clear 4 1006 40 10000 0.45 11 13:22 05.03.2021
1827 Clear 4 1023 29 10000 0.89 138 12:56 05.03.2021
1828 Clear 3 1006 44 10000 0.45 66 12:27 05.03.2021
1829 Clear 2 1022 47 10000 1 278 11:37 05.03.2021
1830 Clear 1 1006 48 10000 0.45 53 11:18 05.03.2021
1831 Clear 1 1024 39 10000 0.89 238 10:42 05.03.2021
1832 Clear -1 1022 47 10000 0.89 231 10:23 05.03.2021
1833 Clear 0 1022 47 10000 0.89 231 09:50 05.03.2021
1834 Clear -1 1023 59 10000 3.6 10 09:27 05.03.2021
1835 Clear -1 1023 59 10000 2.57 340 08:46 05.03.2021
1836 Clear -3 1023 59 10000 2.57 340 08:27 05.03.2021
1837 Clouds -2 1023 51 10000 1.93 319 07:55 05.03.2021
1838 Clear -3 1022 54 10000 2.57 310 07:28 05.03.2021
1839 Clear -3 1023 51 10000 2.04 323 06:32 05.03.2021
1840 Clear -3 1004 58 10000 2.06 315 03:34 05.03.2021
1841 Clouds -1 1021 43 10000 0.45 113 00:49 05.03.2021
1842 Clouds -1 1003 59 10000 1.99 322 23:43 04.03.2021
1843 Clouds -1 1003 58 10000 1.86 320 22:55 04.03.2021
1844 Clouds -1 1003 60 10000 1.88 323 22:26 04.03.2021
1845 Clouds 0 1003 58 10000 1.88 323 21:51 04.03.2021
1846 Clouds -1 1002 58 10000 2.08 323 21:29 04.03.2021
1847 Clouds 0 1002 57 10000 2.08 323 20:42 04.03.2021
1848 Clouds 0 1019 35 10000 0.45 139 20:23 04.03.2021
1849 Clouds 1 1002 54 10000 2.2 321 19:58 04.03.2021
1850 Clear 1 1019 33 10000 2.02 311 19:39 04.03.2021
1851 Clear 1 1019 32 10000 1.7 325 19:19 04.03.2021
1852 Clear 2 1019 44 10000 2.57 330 18:45 04.03.2021
1853 Clear 2 1019 31 10000 1.66 324 18:23 04.03.2021
1854 Clear 3 1019 41 10000 2.06 360 17:46 04.03.2021
1855 Clear 3 1019 30 10000 0.89 125 17:27 04.03.2021
1856 Clear 4 1019 29 10000 0.89 155 16:46 04.03.2021
1857 Clear 4 1019 29 10000 0.45 345 16:25 04.03.2021
1858 Clear 4 1019 29 10000 0.89 121 15:50 04.03.2021
1859 Clear 4 1019 29 10000 1.34 117 15:31 04.03.2021
1860 Clear 4 1019 40 10000 2.68 167 14:48 04.03.2021
1861 Clear 4 1019 40 10000 2.68 167 14:26 04.03.2021
1862 Clear 4 1019 40 10000 2.68 167 13:47 04.03.2021
1863 Clear 4 1019 40 10000 2.68 167 13:29 04.03.2021
1864 Clear 4 1019 45 10000 2.68 167 12:49 04.03.2021
1865 Clear 3 1019 45 10000 2.68 167 12:31 04.03.2021
1866 Clear 3 1019 45 10000 2.68 123 11:43 04.03.2021
1867 Clear 2 1019 45 10000 2.68 123 11:23 04.03.2021
1868 Snow 2 1003 49 10000 1.34 5 10:47 04.03.2021
1869 Clear 2 1021 34 10000 1.34 113 10:26 04.03.2021
1870 Clear 1 1003 56 10000 1.79 5 09:37 04.03.2021
1871 Clear 0 1021 39 10000 0.45 120 08:59 04.03.2021
1872 Clear -1 1003 58 10000 1.34 355 08:34 04.03.2021
1873 Clear -2 1003 59 10000 2.59 328 07:53 04.03.2021
1874 Clouds -1 1020 41 10000 1.34 108 07:21 04.03.2021
1875 Clouds -1 1019 41 10000 1.34 132 06:24 04.03.2021
1876 Clouds -1 1019 41 10000 1.34 132 06:24 04.03.2021
1877 Clouds 1 1019 42 10000 1.34 155 03:25 04.03.2021
1878 Snow 1 1001 1 10000 2.85 7 01:40 04.03.2021
1879 Snow -2 1015 87 10000 5.55 45 22:44 03.03.2021
1880 Clouds 0 995 90 10000 0.45 273 22:26 03.03.2021
1881 Snow -1 995 92 10000 0.89 291 21:43 03.03.2021
1882 Clear -2 995 91 10000 2.57 30 21:24 03.03.2021
1883 Clear -1 994 91 10000 2.57 30 20:58 03.03.2021
1884 Clear -1 995 90 10000 2.57 30 20:40 03.03.2021
1885 Clear -1 994 90 10000 0.45 0 19:59 03.03.2021
1886 Snow -1 995 90 10000 1.38 349 19:40 03.03.2021
1887 Clouds -1 995 89 10000 1.31 338 19:21 03.03.2021
1888 Clouds -1 995 89 10000 1.31 339 18:46 03.03.2021
1889 Clouds 0 995 88 10000 1.31 324 18:21 03.03.2021
1890 Clouds 0 995 87 10000 1.31 324 17:43 03.03.2021
1891 Clouds 2 995 86 10000 0.97 309 17:18 03.03.2021
1892 Clouds 2 995 86 10000 0.97 309 17:18 03.03.2021
1893 Rain 1 995 85 10000 0.97 309 16:44 03.03.2021
1894 Clear 2 996 85 10000 0.82 301 16:23 03.03.2021
1895 Clear 2 996 83 10000 0.45 225 15:34 03.03.2021
1896 Clear 3 997 84 10000 0.45 90 14:58 03.03.2021
1897 Clear 3 997 86 10000 0.98 309 14:30 03.03.2021
1898 Clear 2 998 89 10000 0.45 225 13:53 03.03.2021
1899 Clouds 2 998 90 10000 0.45 270 13:33 03.03.2021
1900 Fog 0 1021 93 300 2.57 200 12:46 03.03.2021
1901 Fog 0 1021 93 300 2.57 200 12:46 03.03.2021
1902 Fog 0 1021 93 300 2.57 200 12:28 03.03.2021
1903 Fog 0 1021 100 250 1.54 210 11:48 03.03.2021
1904 Fog -1 1022 100 250 1.54 210 11:28 03.03.2021
1905 Fog -1 1022 100 250 1.54 130 10:53 03.03.2021
1906 Rain 0 1000 93 10000 0.45 270 10:32 03.03.2021
1907 Clouds -1 1000 93 10000 0.69 322 09:53 03.03.2021
1908 Rain -1 1000 93 10000 0.69 322 09:35 03.03.2021
1909 Clouds -1 1001 92 10000 0.45 270 08:46 03.03.2021
1910 Clouds -1 1001 91 10000 0.45 270 08:22 03.03.2021
1911 Clouds -1 1001 91 10000 0.45 273 07:50 03.03.2021
1912 Clear -1 1002 90 10000 0.89 318 06:51 03.03.2021
1913 Clouds -1 1002 88 10000 0.92 317 05:49 03.03.2021
1914 Clouds -1 1003 86 10000 0.85 311 04:59 03.03.2021
1915 Clouds -1 1003 84 10000 0.45 68 04:35 03.03.2021
1916 Clouds -1 1003 82 10000 0.45 356 03:51 03.03.2021
1917 Clear -1 1027 83 10000 1.16 320 00:18 03.03.2021
1918 Clear 1 1028 80 10000 1.12 331 23:31 02.03.2021
1919 Clear 1 1028 78 10000 1.12 331 22:43 02.03.2021
1920 Clear 1 1028 77 10000 0.94 324 22:20 02.03.2021
1921 Clear 2 1028 77 10000 0.94 324 21:41 02.03.2021
1922 Clear 2 1028 76 10000 0.94 312 21:22 02.03.2021
1923 Clear 3 1028 73 10000 0.94 312 20:49 02.03.2021
1924 Clear 3 1029 72 10000 0.86 303 20:23 02.03.2021
1925 Clear 3 1028 71 10000 0.86 303 19:58 02.03.2021
1926 Clear 3 1028 71 10000 0.86 303 19:58 02.03.2021
1927 Clear 3 1010 49 10000 0.87 303 19:39 02.03.2021
1928 Clouds 4 1029 69 10000 0.73 294 19:21 02.03.2021
1929 Clear 5 1028 53 10000 1.54 230 18:41 02.03.2021
1930 Clear 5 1028 57 10000 3.09 200 18:21 02.03.2021
1931 Clear 6 1028 53 10000 2.06 170 17:50 02.03.2021
1932 Clear 6 1028 53 10000 2.06 170 17:30 02.03.2021
1933 Clear 7 1028 57 10000 4.12 190 16:57 02.03.2021
1934 Clear 7 1028 49 10000 3.09 190 16:33 02.03.2021
1935 Clear 7 1029 57 10000 3.09 190 15:51 02.03.2021
1936 Clear 8 1029 57 10000 1.54 200 15:25 02.03.2021
1937 Clear 8 1029 61 10000 1.03 0 14:24 02.03.2021
1938 Clear 8 1029 61 10000 1.03 0 13:57 02.03.2021
1939 Clear 8 1029 57 10000 3.09 160 13:38 02.03.2021
1940 Clear 8 1030 61 10000 3.09 170 13:20 02.03.2021
1941 Clear 8 1030 57 10000 1.54 170 12:30 02.03.2021
1942 Clear 8 1030 57 10000 1.54 190 11:54 02.03.2021
1943 Clouds 7 1028 60 10000 0.13 323 11:36 02.03.2021
1944 Clear 6 1030 61 10000 1.03 200 11:18 02.03.2021
1945 Clear 6 1030 65 10000 1.54 170 10:32 02.03.2021
1946 Clear 4 1029 75 10000 3.09 190 09:59 02.03.2021
1947 Clear 3 1029 70 10000 1.54 140 09:40 02.03.2021
1948 Clear 3 1029 75 10000 0.51 0 09:18 02.03.2021
1949 Clear 1 1028 80 10000 1.03 0 08:38 02.03.2021
1950 Clear 2 1028 74 10000 1.86 328 07:53 02.03.2021
1951 Clouds 2 1028 73 10000 1.59 328 07:26 02.03.2021
1952 Clear 2 1028 70 10000 1.03 0 06:32 02.03.2021
1953 Clear 2 1027 75 10000 1.26 318 05:44 02.03.2021
1954 Clouds 3 1009 48 10000 1.28 312 05:24 02.03.2021
1955 Clear 4 1026 65 10000 2.57 320 01:44 02.03.2021
1956 Clouds 4 1026 68 10000 1.99 289 01:23 02.03.2021
1957 Clear 3 1025 65 10000 1.03 0 23:55 01.03.2021
1958 Clear 3 1025 56 10000 1.54 250 23:22 01.03.2021
1959 Clear 4 1025 56 10000 1.54 250 23:22 01.03.2021
1960 Clouds 3 1026 78 10000 1.68 277 22:40 01.03.2021
1961 Clouds 3 1026 79 10000 1.31 273 22:21 01.03.2021
1962 Clouds 3 1025 78 10000 1.31 273 21:45 01.03.2021
1963 Clouds 4 1026 77 10000 1.04 258 21:23 01.03.2021
1964 Clear 3 1025 70 10000 3.6 210 20:46 01.03.2021
1965 Clear 4 1025 70 10000 3.6 210 20:27 01.03.2021
1966 Clear 4 1025 65 10000 2.57 90 19:51 01.03.2021
1967 Clear 4 1025 65 10000 2.57 90 19:32 01.03.2021
1968 Clear 4 1025 70 10000 4.12 180 18:45 01.03.2021
1969 Clear 3 1025 70 10000 3.6 190 18:24 01.03.2021
1970 Clear 3 1025 70 10000 3.6 180 17:49 01.03.2021
1971 Clear 4 1025 65 10000 5.66 170 17:25 01.03.2021
1972 Clear 4 1025 65 10000 5.66 170 16:57 01.03.2021
1973 Clouds 5 988 67 10000 1.42 273 16:38 01.03.2021
1974 Clouds 5 988 67 10000 1.43 273 16:20 01.03.2021
1975 Clouds 6 988 67 10000 1.43 273 15:38 01.03.2021
1976 Clouds 6 988 67 10000 1.87 278 15:18 01.03.2021
1977 Rain 6 988 67 10000 1.87 278 14:41 01.03.2021
1978 Rain 5 988 67 10000 2.04 276 14:22 01.03.2021
1979 Rain 5 1026 75 10000 2.01 280 13:39 01.03.2021
1980 Rain 5 1026 75 10000 2.21 283 13:20 01.03.2021
1981 Rain 4 1027 73 10000 2.21 283 12:43 01.03.2021
1982 Rain 5 1027 72 10000 2.09 290 12:25 01.03.2021
1983 Rain 5 988 72 10000 2.1 290 11:57 01.03.2021
1984 Clouds 5 988 72 10000 1.84 298 11:29 01.03.2021
1985 Clouds 3 988 81 10000 1.85 298 10:42 01.03.2021
1986 Clouds 2 988 81 10000 1.55 307 10:22 01.03.2021
1987 Clouds 1 1027 97 10000 1.55 307 09:53 01.03.2021
1988 Clouds 0 1027 96 10000 1.56 310 09:34 01.03.2021
1989 Clouds 0 1027 96 10000 1.55 310 08:56 01.03.2021
1990 Clouds -1 1008 1 10000 1.55 310 08:32 01.03.2021
1991 Clouds -2 1008 1 10000 1.35 310 07:33 01.03.2021
1992 Clouds -2 1027 93 10000 1.26 312 06:25 01.03.2021
1993 Clouds -1 1004 80 10000 1.01 297 02:40 01.03.2021
1994 Clouds 1 1006 75 199 1 312 23:49 28.02.2021
1995 Clouds 2 1006 72 209 0.57 257 23:20 28.02.2021
1996 Clouds 1 1010 1 209 0.57 257 22:42 28.02.2021
1997 Clouds 1 1029 78 205 0.45 239 22:20 28.02.2021
1998 Clouds 1 1029 77 205 0.43 247 21:46 28.02.2021
1999 Clouds 1 1029 75 239 0.55 355 21:23 28.02.2021
2000 Clouds 2 1029 73 239 0.55 355 20:46 28.02.2021
2001 Clouds 2 1029 73 750 0.67 329 20:27 28.02.2021
2002 Clouds 3 1029 73 750 0.67 329 19:47 28.02.2021
2003 Clear 4 1028 56 10000 0.52 298 19:27 28.02.2021
2004 Clear 4 1028 49 10000 1.03 0 18:47 28.02.2021
2005 Clear 6 1028 34 10000 1.54 340 18:28 28.02.2021
2006 Clear 6 1028 34 10000 1.54 340 18:28 28.02.2021
2007 Clear 6 1028 34 10000 1.03 0 17:58 28.02.2021
2008 Clear 6 1028 34 10000 1.03 0 17:38 28.02.2021
2009 Clear 6 1028 34 10000 1.03 0 17:38 28.02.2021
2010 Clear 7 1028 35 10000 1.03 0 17:20 28.02.2021
2011 Clear 8 1028 32 10000 2.57 310 16:48 28.02.2021
2012 Clear 8 1028 32 10000 2.57 310 16:29 28.02.2021
2013 Clear 8 1028 30 10000 2.06 310 15:52 28.02.2021
2014 Clear 8 1028 30 10000 2.06 310 15:51 28.02.2021
2015 Clear 8 1028 32 10000 1.03 0 15:28 28.02.2021
2016 Clear 9 1028 32 10000 1.03 0 14:58 28.02.2021
2017 Clear 8 1029 37 10000 1.54 340 14:35 28.02.2021
2018 Clear 8 1029 37 10000 1.03 0 13:59 28.02.2021
2019 Clear 8 1029 43 10000 1.54 0 13:38 28.02.2021
2020 Clear 8 1029 50 10000 1.54 160 13:19 28.02.2021
2021 Clear 8 1030 50 10000 0.51 0 12:53 28.02.2021
2022 Clear 8 1030 50 10000 0.51 0 12:35 28.02.2021
2023 Clear 7 1030 57 10000 1.03 190 11:57 28.02.2021
2024 Clear 6 1030 61 10000 1.03 180 11:39 28.02.2021
2025 Clear 6 998 77 10000 0.61 302 11:19 28.02.2021
2026 Clear 5 998 77 10000 0.61 302 10:40 28.02.2021
2027 Clear 3 999 82 10000 0.89 306 10:20 28.02.2021
2028 Clear 2 999 82 10000 0.88 305 09:40 28.02.2021
2029 Clear 2 999 82 10000 1.15 311 09:20 28.02.2021
2030 Clear 2 1031 97 10000 1.15 311 08:44 28.02.2021
2031 Clear 1 1031 96 10000 1.38 313 08:25 28.02.2021
2032 Clear 0 1031 95 10000 1.14 312 07:46 28.02.2021
2033 Clouds 0 1030 96 10000 1.27 326 07:25 28.02.2021
2034 Clouds 0 1030 95 10000 1.2 317 06:24 28.02.2021
2035 Clouds 1 1011 20 10000 1.17 301 05:20 28.02.2021
2036 Clouds 1 1029 94 10000 0.45 236 02:29 28.02.2021
2037 Clouds 1 1030 93 10000 0.45 257 01:35 28.02.2021
2038 Clouds 1 1030 93 10000 0.89 133 00:42 28.02.2021
2039 Clouds 1 1029 92 10000 0.45 270 23:58 27.02.2021
2040 Clouds 1 1030 92 10000 0.45 268 23:39 27.02.2021
2041 Clouds 1 1029 92 10000 1.35 313 23:18 27.02.2021
2042 Clouds 1 1029 91 10000 0.45 248 22:42 27.02.2021
2043 Clouds 1 1029 90 1830 0.45 138 22:18 27.02.2021
2044 Clouds 1 1029 92 208 0.89 110 21:38 27.02.2021
2045 Clouds 1 1029 89 208 0.45 259 21:18 27.02.2021
2046 Clouds 1 1029 87 208 1.15 303 20:46 27.02.2021
2047 Clouds 1 1029 88 116 0.89 298 20:25 27.02.2021
2048 Clouds 1 1029 86 116 0.45 147 19:43 27.02.2021
2049 Clouds 1 1029 84 108 0.45 293 19:24 27.02.2021
2050 Clouds 3 1010 12 501 1.09 300 18:42 27.02.2021
2051 Clouds 3 1029 79 136 0.45 90 18:21 27.02.2021
2052 Clouds 3 1029 76 136 0.87 282 17:45 27.02.2021
2053 Clouds 3 1029 75 85 0.63 266 17:21 27.02.2021
2054 Clouds 4 1029 74 85 0.63 266 16:59 27.02.2021
2055 Clouds 3 1029 74 85 0.63 266 16:41 27.02.2021
2056 Clouds 4 1024 58 84 0.86 237 16:23 27.02.2021
2057 Clouds 5 1025 58 84 0.86 237 15:39 27.02.2021
2058 Clouds 5 1026 58 138 0.65 228 14:52 27.02.2021
2059 Clouds 4 1026 58 138 0.65 228 14:33 27.02.2021
2060 Clouds 4 1026 58 1906 0.49 238 13:56 27.02.2021
2061 Clouds 4 1026 58 8665 0.83 213 13:33 27.02.2021
2062 Clouds 3 1026 62 8665 0.84 213 12:57 27.02.2021
2063 Clouds 4 1026 62 8665 0.84 213 12:36 27.02.2021
2064 Clouds 4 1026 62 10000 0.75 182 12:18 27.02.2021
2065 Clouds 4 1026 62 10000 0.75 182 11:42 27.02.2021
2066 Clouds 3 1026 62 10000 0.43 237 11:23 27.02.2021
2067 Clouds 3 1027 73 10000 0.43 237 10:46 27.02.2021
2068 Clear 3 1027 73 10000 0.36 272 10:27 27.02.2021
2069 Clear 2 1027 73 10000 0.36 272 09:48 27.02.2021
2070 Clear 1 1027 73 10000 0.19 314 09:26 27.02.2021
2071 Clear 0 1030 88 10000 0.19 314 08:41 27.02.2021
2072 Clear -1 1030 88 10000 0.3 336 08:21 27.02.2021
2073 Clear -2 1030 86 10000 0.3 336 07:42 27.02.2021
2074 Clear -1 1029 81 10000 0.58 247 04:47 27.02.2021
2075 Clear 0 1029 70 10000 0.45 131 00:54 27.02.2021
2076 Clear 1 1028 66 10000 0.45 171 23:54 26.02.2021
2077 Clear 2 1027 65 10000 0.45 113 23:28 26.02.2021
2078 Clear 1 1009 50 10000 0.94 322 22:50 26.02.2021
2079 Clear 3 1026 55 10000 1.03 339 22:29 26.02.2021
2080 Clear 3 1026 56 10000 1.54 320 21:43 26.02.2021
2081 Clear 3 1026 56 10000 1.54 320 21:24 26.02.2021
2082 Clear 4 1025 48 10000 2.57 350 20:44 26.02.2021
2083 Clear 3 1007 59 10000 1.62 344 20:21 26.02.2021
2084 Clear 5 1024 49 10000 3.6 340 19:50 26.02.2021
2085 Clear 5 1023 49 10000 3.6 330 19:25 26.02.2021
2086 Clear 6 1023 45 10000 4.12 340 18:42 26.02.2021
2087 Clear 6 1023 45 10000 4.12 340 18:23 26.02.2021
2088 Clear 8 1022 45 10000 4.63 350 17:42 26.02.2021
2089 Clear 7 1022 45 10000 4.63 350 17:24 26.02.2021
2090 Clear 7 1021 42 10000 3.6 350 16:52 26.02.2021
2091 Clear 7 1021 42 10000 4.63 350 16:32 26.02.2021
2092 Clear 8 1020 42 10000 5.66 350 15:58 26.02.2021
2093 Clear 8 1020 49 10000 5.66 360 15:39 26.02.2021
2094 Clear 8 1019 46 10000 3.6 40 15:20 26.02.2021
2095 Clear 8 1019 49 10000 4.12 350 14:47 26.02.2021
2096 Clear 9 1016 47 10000 1.8 300 14:26 26.02.2021
2097 Clear 8 1016 47 10000 1.8 300 13:46 26.02.2021
2098 Clouds 7 1004 63 10000 2.28 309 13:25 26.02.2021
2099 Clear 7 1017 46 10000 2.57 270 12:40 26.02.2021
2100 Clear 7 1017 46 10000 2.57 300 11:58 26.02.2021
2101 Clouds 7 1004 85 10000 2.34 301 11:38 26.02.2021
2102 Clouds 5 1004 85 10000 2.08 291 10:54 26.02.2021
2103 Clouds 4 997 1 10000 1.85 274 09:59 26.02.2021
2104 Clouds 4 996 1 10000 1.85 274 09:39 26.02.2021
2105 Clouds 4 996 1 10000 0.89 267 09:21 26.02.2021
2106 Clouds 2 1012 98 10000 1.73 254 08:29 26.02.2021
2107 Clouds 2 991 80 10000 0.45 90 07:52 26.02.2021
2108 Clouds 1 990 80 10000 1.53 228 06:43 26.02.2021
2109 Clouds 2 989 81 10000 0.45 272 05:39 26.02.2021
2110 Clear 2 988 83 10000 0.89 178 03:51 26.02.2021
2111 Clear 1 987 83 10000 2.3 210 02:36 26.02.2021
2112 Clouds 2 987 84 10000 2.63 198 00:24 26.02.2021
2113 Clouds 2 986 87 10000 0.89 315 23:30 25.02.2021
2114 Clouds 2 986 92 10000 1.34 90 22:50 25.02.2021
2115 Clouds 2 986 92 10000 0.45 90 22:31 25.02.2021
2116 Clouds 2 986 92 10000 0.45 134 21:47 25.02.2021
2117 Clouds 2 986 92 10000 0.45 180 21:28 25.02.2021
2118 Clouds 2 986 92 10000 0.45 187 20:43 25.02.2021
2119 Clouds 2 987 92 10000 0.45 187 20:24 25.02.2021
2120 Clouds 3 987 92 10000 3 201 19:53 25.02.2021
2121 Clouds 3 987 93 8752 0.89 280 19:22 25.02.2021
2122 Clouds 3 987 93 9098 0.45 270 18:59 25.02.2021
2123 Clouds 3 987 93 4936 0.89 183 18:33 25.02.2021
2124 Clouds 4 986 93 4936 2.52 215 17:51 25.02.2021
2125 Clouds 4 986 93 4185 0.45 90 17:29 25.02.2021
2126 Clouds 4 986 93 4185 0.45 90 16:54 25.02.2021
2127 Clouds 4 986 93 4446 0.45 90 16:31 25.02.2021
2128 Clouds 4 987 93 4313 0.89 312 15:36 25.02.2021
2129 Clouds 5 987 93 4547 1.34 90 15:18 25.02.2021
2130 Clouds 4 987 93 4178 1.34 90 14:29 25.02.2021
2131 Clouds 4 987 93 4233 0.45 90 13:57 25.02.2021
2132 Clouds 4 987 93 4178 0.45 90 13:39 25.02.2021
2133 Fog 4 1008 100 8000 4.63 170 13:18 25.02.2021
2134 Clouds 4 987 93 7718 0.45 90 12:23 25.02.2021
2135 Fog 4 1009 100 400 4.12 190 11:51 25.02.2021
2136 Clouds 3 987 93 4982 0.89 90 11:31 25.02.2021
2137 Clouds 3 987 93 4982 0.45 90 10:47 25.02.2021
2138 Clouds 3 987 93 4647 3.44 201 10:29 25.02.2021
2139 Clouds 3 987 93 4647 0.45 90 09:45 25.02.2021
2140 Clouds 3 987 93 1344 0.45 90 09:19 25.02.2021
2141 Clouds 3 987 93 767 0.45 90 08:28 25.02.2021
2142 Clouds 3 987 93 767 0.45 90 07:58 25.02.2021
2143 Clouds 3 987 93 767 1.34 90 07:37 25.02.2021
2144 Rain 3 987 93 281 0.45 90 06:57 25.02.2021
2145 Clouds 3 989 93 6126 0.45 90 03:23 25.02.2021
2146 Clouds 3 990 93 8799 0.45 90 01:39 25.02.2021
2147 Clouds 3 990 93 8731 0.45 90 00:42 25.02.2021
2148 Clouds 4 990 93 8709 0.89 90 23:56 24.02.2021
2149 Clouds 4 990 93 8695 0.89 180 23:32 24.02.2021
2150 Clouds 4 990 93 6483 0.89 90 22:47 24.02.2021
2151 Clouds 4 990 93 1977 0.45 90 22:29 24.02.2021
2152 Clouds 4 990 93 1977 0.45 90 21:48 24.02.2021
2153 Clouds 4 990 93 426 0.89 90 21:24 24.02.2021
2154 Clouds 4 990 93 426 0.45 90 20:48 24.02.2021
2155 Clouds 4 990 93 2766 0.89 90 20:25 24.02.2021
2156 Clouds 4 990 93 8578 0.45 90 19:40 24.02.2021
2157 Clouds 4 990 93 8324 0.89 90 19:20 24.02.2021
2158 Clouds 4 990 93 8324 0.45 90 18:50 24.02.2021
2159 Clouds 4 990 93 8601 0.89 90 18:50 24.02.2021
2160 Clouds 4 990 93 6466 0.45 90 18:29 24.02.2021
2161 Clouds 5 990 93 6466 0.45 90 17:39 24.02.2021
2162 Clouds 5 990 93 6553 0.45 90 17:21 24.02.2021
2163 Clouds 5 991 93 6553 0.45 90 16:46 24.02.2021
2164 Clouds 5 990 93 8602 0.89 90 16:20 24.02.2021
2165 Clouds 6 990 93 8599 0.89 90 15:49 24.02.2021
2166 Clouds 6 990 93 8516 0.45 90 15:26 24.02.2021
2167 Clouds 5 990 93 8516 0.45 90 14:44 24.02.2021
2168 Clouds 5 990 93 8475 0.45 90 14:25 24.02.2021
2169 Clouds 5 990 93 8475 1.34 90 13:41 24.02.2021
2170 Clouds 5 990 93 6392 0.89 90 13:22 24.02.2021
2171 Clouds 5 990 93 6392 0.45 90 12:53 24.02.2021
2172 Clouds 5 990 93 6392 0.89 90 12:33 24.02.2021
2173 Clouds 5 990 93 6246 0.45 224 11:51 24.02.2021
2174 Clouds 5 990 93 1943 0.45 92 11:29 24.02.2021
2175 Clouds 4 990 93 1943 2.68 92 10:38 24.02.2021
2176 Clouds 4 989 93 1927 0.89 130 10:19 24.02.2021
2177 Clouds 4 989 93 6089 1.34 90 09:22 24.02.2021
2178 Clouds 4 989 93 6089 0.45 90 08:41 24.02.2021
2179 Clouds 4 989 93 6066 0.89 90 08:22 24.02.2021
2180 Clouds 4 990 93 10000 1.34 92 07:21 24.02.2021
2181 Clouds 4 990 93 10000 0.89 90 06:52 24.02.2021
2182 Clouds 4 991 93 10000 2.68 90 04:40 24.02.2021
2183 Clouds 2 995 92 676 1.79 90 00:44 24.02.2021
2184 Clouds 2 996 92 5145 0.45 90 23:32 23.02.2021
2185 Clouds 2 997 92 10000 0.89 90 22:42 23.02.2021
2186 Clouds 2 998 92 10000 0.45 90 22:21 23.02.2021
2187 Clouds 2 998 91 10000 0.89 90 21:47 23.02.2021
2188 Clouds 2 998 92 10000 0.45 90 21:24 23.02.2021
2189 Clouds 2 998 92 10000 2.42 185 20:49 23.02.2021
2190 Clouds 2 998 92 10000 1.34 90 20:30 23.02.2021
2191 Clouds 2 999 92 10000 0.45 90 19:49 23.02.2021
2192 Clouds 2 1000 92 10000 1.22 159 19:29 23.02.2021
2193 Clouds 2 1000 92 10000 0.45 90 18:59 23.02.2021
2194 Clouds 2 1000 92 10000 1.34 90 18:41 23.02.2021
2195 Clouds 2 1000 92 10000 0.45 90 18:20 23.02.2021
2196 Clouds 2 1000 92 10000 0.45 90 17:46 23.02.2021
2197 Clouds 2 999 92 10000 0.62 103 17:18 23.02.2021
2198 Clouds 2 999 92 10000 0.62 103 16:43 23.02.2021
2199 Clouds 2 1000 92 10000 0.67 189 16:20 23.02.2021
2200 Clouds 2 1000 92 10000 0.67 189 15:42 23.02.2021
2201 Clouds 2 1000 92 10000 1.24 215 15:23 23.02.2021
2202 Clouds 3 1000 92 10000 0.45 90 14:46 23.02.2021
2203 Clouds 3 1000 92 10000 0.45 90 14:26 23.02.2021
2204 Clouds 3 999 92 10000 0.44 197 13:55 23.02.2021
2205 Clouds 3 999 92 10000 0.61 358 13:31 23.02.2021
2206 Clouds 3 999 92 10000 0.45 90 12:54 23.02.2021
2207 Clouds 3 999 92 10000 0.45 90 12:22 23.02.2021
2208 Clouds 3 999 92 10000 0.93 345 11:51 23.02.2021
2209 Clouds 2 999 92 10000 0.45 90 11:23 23.02.2021
2210 Clouds 2 998 92 10000 0.45 90 10:53 23.02.2021
2211 Clouds 2 998 92 10000 0.96 21 10:35 23.02.2021
2212 Clouds 1 997 92 10000 0.45 90 09:45 23.02.2021
2213 Clouds 1 997 92 10000 0.41 232 09:26 23.02.2021
2214 Clouds 1 996 92 10000 0.45 90 08:57 23.02.2021
2215 Clouds 2 996 92 10000 0.89 90 08:39 23.02.2021
2216 Clouds 2 995 92 10000 0.45 90 08:20 23.02.2021
2217 Clouds 2 994 92 3764 1.02 227 06:41 23.02.2021
2218 Clouds 2 993 92 2323 1.45 210 05:22 23.02.2021
2219 Rain 2 992 92 1692 0.45 90 02:36 23.02.2021
2220 Rain 2 992 92 610 0.45 90 01:42 23.02.2021
2221 Clouds 3 992 93 1665 0.45 90 00:18 23.02.2021
2222 Clouds 3 992 93 2195 0.45 90 23:24 22.02.2021
2223 Clouds 3 992 93 2195 0.45 90 22:41 22.02.2021
2224 Clouds 3 992 93 2731 0.45 90 22:21 22.02.2021
2225 Clouds 3 992 93 2731 0.45 90 21:46 22.02.2021
2226 Clouds 4 993 93 6488 1.35 150 21:24 22.02.2021
2227 Clouds 4 993 93 6488 1.35 150 20:55 22.02.2021
2228 Clouds 4 993 93 5909 1.43 130 20:31 22.02.2021
2229 Clouds 4 993 93 5909 1.43 130 19:58 22.02.2021
2230 Clouds 4 993 93 5909 0.45 90 19:38 22.02.2021
2231 Clouds 4 993 93 5137 1.49 122 19:18 22.02.2021
2232 Clouds 4 994 93 5137 1.49 122 18:44 22.02.2021
2233 Clouds 4 993 93 5104 1.18 123 18:21 22.02.2021
2234 Clouds 4 994 93 5096 0.45 90 17:36 22.02.2021
2235 Clouds 4 993 93 939 0.45 90 17:18 22.02.2021
2236 Clouds 4 994 93 939 1.17 129 16:42 22.02.2021
2237 Clouds 4 994 93 642 0.45 90 15:56 22.02.2021
2238 Clouds 4 994 93 514 0.45 90 15:29 22.02.2021
2239 Clouds 4 994 93 514 1.18 130 14:48 22.02.2021
2240 Clouds 4 994 93 514 0.45 90 14:30 22.02.2021
2241 Clouds 4 994 93 426 1.25 118 13:48 22.02.2021
2242 Clouds 3 995 92 345 0.45 90 13:19 22.02.2021
2243 Clouds 3 995 92 345 1.22 155 12:42 22.02.2021
2244 Clouds 3 996 92 348 1.17 163 12:20 22.02.2021
2245 Clouds 3 996 92 379 1.17 162 11:45 22.02.2021
2246 Clouds 3 996 92 246 0.68 186 11:25 22.02.2021
2247 Clouds 3 995 92 276 0.68 185 10:50 22.02.2021
2248 Clouds 3 995 92 322 0.77 145 10:28 22.02.2021
2249 Clouds 2 995 92 322 0.77 145 09:49 22.02.2021
2250 Clouds 2 995 92 322 0.77 145 09:49 22.02.2021
2251 Clouds 2 995 92 6815 0.91 120 09:29 22.02.2021
2252 Clouds 2 995 92 7057 0.91 120 08:57 22.02.2021
2253 Clouds 2 995 92 6824 0.91 120 08:38 22.02.2021
2254 Clouds 2 995 92 10000 0.74 126 07:58 22.02.2021
2255 Clouds 2 995 92 10000 0.28 72 07:27 22.02.2021
2256 Clouds 2 995 92 10000 0.18 328 06:46 22.02.2021
2257 Clouds 2 995 92 10000 0.49 269 05:45 22.02.2021
2258 Clouds 2 994 92 8877 0.45 90 03:29 22.02.2021
2259 Clouds 2 994 92 8877 0.45 90 03:29 22.02.2021
2260 Clouds 2 994 92 8877 0.45 90 02:51 22.02.2021
2261 Clouds 2 993 92 10000 0.82 202 00:46 22.02.2021
2262 Clouds 2 993 92 7511 0.71 209 00:23 22.02.2021
2263 Clouds 2 993 92 1956 0.91 204 23:33 21.02.2021
2264 Clouds 2 993 92 1892 0.45 90 22:54 21.02.2021
2265 Clouds 2 992 92 604 1.14 203 22:24 21.02.2021
2266 Clouds 3 992 92 655 0.45 90 21:48 21.02.2021
2267 Clouds 2 992 92 636 1.26 196 21:30 21.02.2021
2268 Clouds 2 992 92 634 0.45 90 20:47 21.02.2021
2269 Clouds 3 991 92 655 1.12 183 20:20 21.02.2021
2270 Clouds 3 991 92 655 1.12 183 19:54 21.02.2021
2271 Clouds 3 991 92 735 1.24 162 19:33 21.02.2021
2272 Clouds 3 991 92 735 0.45 90 18:59 21.02.2021
2273 Clouds 3 990 92 662 0.45 90 18:26 21.02.2021
2274 Clouds 3 990 92 648 1.18 178 17:39 21.02.2021
2275 Clouds 3 990 92 1229 1.53 187 17:18 21.02.2021
2276 Clouds 3 989 92 1231 1.53 187 16:43 21.02.2021
2277 Clouds 3 989 92 4370 0.45 90 16:24 21.02.2021
2278 Clouds 3 989 92 7806 0.45 90 15:25 21.02.2021
2279 Clouds 3 989 92 7827 0.45 90 14:56 21.02.2021
2280 Clouds 3 989 92 7827 2.53 195 14:37 21.02.2021
2281 Clouds 3 988 92 8417 0.45 90 13:54 21.02.2021
2282 Clouds 3 988 92 6226 0.89 90 13:29 21.02.2021
2283 Clouds 3 988 92 762 0.45 90 12:33 21.02.2021
2284 Clouds 3 987 92 772 1.34 90 11:59 21.02.2021
2285 Clouds 3 987 92 772 0.45 90 11:41 21.02.2021
2286 Clouds 3 987 92 814 3.43 171 10:46 21.02.2021
2287 Clouds 2 987 92 199 3.71 183 10:21 21.02.2021
2288 Clouds 3 987 92 199 3.71 183 09:43 21.02.2021
2289 Clouds 3 987 92 166 3.71 186 09:24 21.02.2021
2290 Clouds 2 986 91 316 3.3 158 08:36 21.02.2021
2291 Clouds 2 986 91 313 3.3 158 07:57 21.02.2021
2292 Clouds 2 986 91 304 2.79 178 07:22 21.02.2021
2293 Clouds 2 986 91 381 2.7 173 06:24 21.02.2021
2294 Snow 2 987 91 1632 0.45 90 02:42 21.02.2021
2295 Clouds 2 988 91 4081 2.58 173 01:20 21.02.2021
2296 Clouds 2 988 91 301 0.45 90 00:21 21.02.2021
2297 Rain 2 988 91 301 0.45 90 23:47 20.02.2021
2298 Rain 2 989 91 136 0.89 90 22:57 20.02.2021
2299 Rain 2 989 91 135 0.89 90 22:32 20.02.2021
2300 Rain 2 989 91 135 0.45 90 21:48 20.02.2021
2301 Rain 2 989 91 203 0.89 90 21:29 20.02.2021
2302 Rain 2 989 91 203 0.45 90 20:57 20.02.2021
2303 Rain 2 988 91 203 0.45 90 20:36 20.02.2021
2304 Clouds 2 988 91 236 0.89 90 20:18 20.02.2021
2305 Clouds 2 988 91 236 0.45 90 19:40 20.02.2021
2306 Rain 3 988 91 333 0.89 90 18:54 20.02.2021
2307 Clouds 3 988 91 337 0.45 90 18:31 20.02.2021
2308 Clouds 3 987 91 4984 0.89 90 17:47 20.02.2021
2309 Clouds 3 987 91 1566 0.45 90 17:28 20.02.2021
2310 Clouds 3 987 91 1565 0.45 90 16:48 20.02.2021
2311 Clouds 3 987 91 103 0.45 90 16:23 20.02.2021
2312 Clouds 3 986 91 103 0.45 90 15:41 20.02.2021
2313 Clouds 3 986 91 95 0.89 90 14:52 20.02.2021
2314 Rain 3 986 90 118 1.34 90 14:25 20.02.2021
2315 Clouds 3 986 90 118 0.89 221 13:58 20.02.2021
2316 Clouds 3 986 90 118 0.45 90 13:38 20.02.2021
2317 Clouds 3 986 90 142 0.45 90 13:19 20.02.2021
2318 Clouds 3 986 90 147 0.45 92 12:36 20.02.2021
2319 Clouds 3 986 90 147 0.89 143 11:51 20.02.2021
2320 Clouds 2 986 90 150 0.89 90 11:31 20.02.2021
2321 Clouds 2 986 90 150 0.45 90 10:50 20.02.2021
2322 Clouds 2 986 90 137 0.89 90 10:24 20.02.2021
2323 Rain 2 986 89 137 0.45 90 09:47 20.02.2021
2324 Rain 2 986 89 201 0.45 46 08:56 20.02.2021
2325 Clouds 2 986 89 2167 0.89 90 08:24 20.02.2021
2326 Rain 2 985 88 303 0.89 90 05:45 20.02.2021
2327 Clouds 1 987 85 8384 0.45 90 02:32 20.02.2021
2328 Clouds 1 987 85 4778 1.34 90 01:56 20.02.2021
2329 Clouds 1 987 84 5691 0.45 90 00:59 20.02.2021
2330 Clouds 1 987 84 5691 1.71 183 00:36 20.02.2021
2331 Clouds 1 988 83 10000 0.89 90 23:30 19.02.2021
2332 Clouds 0 988 83 9749 1.4 199 22:47 19.02.2021
2333 Clouds 0 987 83 10000 1.35 195 22:20 19.02.2021
2334 Clouds 0 988 82 10000 0.45 90 21:44 19.02.2021
2335 Clouds 0 988 82 10000 0.45 90 21:23 19.02.2021
2336 Clouds 0 988 81 10000 0.97 187 20:42 19.02.2021
2337 Clouds 0 987 81 10000 0.45 90 20:24 19.02.2021
2338 Clouds 0 988 81 10000 1.23 196 19:47 19.02.2021
2339 Clouds 0 988 81 10000 0.45 90 19:20 19.02.2021
2340 Clouds 0 987 81 10000 0.45 90 18:50 19.02.2021
2341 Clouds 0 987 81 10000 0.45 90 18:26 19.02.2021
2342 Clouds 1 987 81 10000 0.45 90 17:39 19.02.2021
2343 Clouds 1 986 81 10000 1.12 214 16:43 19.02.2021
2344 Clouds 1 986 81 8510 0.62 193 16:22 19.02.2021
2345 Clouds 1 986 81 8510 0.62 193 15:55 19.02.2021
2346 Clouds 2 986 81 2825 0.45 90 15:30 19.02.2021
2347 Clouds 2 986 81 3169 0.45 90 14:52 19.02.2021
2348 Clouds 2 986 81 2825 0.45 90 14:33 19.02.2021
2349 Clouds 2 986 82 1173 0.89 90 13:56 19.02.2021
2350 Clouds 2 985 82 600 0.45 90 13:36 19.02.2021
2351 Clouds 2 985 82 641 0.45 90 12:54 19.02.2021
2352 Clouds 2 985 82 394 0.62 183 12:28 19.02.2021
2353 Clouds 2 984 82 394 0.62 183 11:59 19.02.2021
2354 Clouds 1 984 82 199 0.44 175 11:34 19.02.2021
2355 Snow 1 984 82 220 0.43 177 10:55 19.02.2021
2356 Rain 1 984 82 129 0.45 90 10:34 19.02.2021
2357 Snow 1 983 82 129 0.45 90 09:58 19.02.2021
2358 Snow 1 984 82 160 0.45 90 09:28 19.02.2021
2359 Snow 1 983 82 161 0.45 90 08:55 19.02.2021
2360 Snow 1 983 82 161 0.45 90 08:29 19.02.2021
2361 Snow 1 983 82 161 0.89 90 07:56 19.02.2021
2362 Snow 0 983 82 161 0.45 90 07:37 19.02.2021
2363 Snow 0 982 82 175 0.89 90 07:19 19.02.2021
2364 Snow 0 982 81 175 0.89 90 06:36 19.02.2021
2365 Snow 0 983 80 1554 0.89 90 04:42 19.02.2021
2366 Snow 0 984 80 3226 0.45 90 02:44 19.02.2021
2367 Snow -1 984 79 892 0.89 90 01:26 19.02.2021
2368 Snow -1 985 77 779 0.89 45 00:27 19.02.2021
2369 Snow -1 986 76 779 0.89 90 23:45 18.02.2021
2370 Snow -1 986 75 1590 0.89 182 23:27 18.02.2021
2371 Snow -2 987 75 1590 1.34 266 22:37 18.02.2021
2372 Snow -2 987 75 130 0.45 93 22:18 18.02.2021
2373 Snow -2 987 75 131 0.45 312 21:37 18.02.2021
2374 Snow -2 987 75 110 0.45 269 21:19 18.02.2021
2375 Clouds -2 988 75 110 0.45 270 20:39 18.02.2021
2376 Snow -2 988 75 133 0.45 273 20:20 18.02.2021
2377 Snow -2 988 74 133 0.45 289 19:43 18.02.2021
2378 Snow -2 989 74 125 0.89 90 19:20 18.02.2021
2379 Snow -2 989 74 125 0.45 92 19:20 18.02.2021
2380 Snow -2 989 74 125 0.45 313 18:48 18.02.2021
2381 Snow -2 989 74 528 0.45 90 18:26 18.02.2021
2382 Snow -2 990 74 528 0.89 88 17:46 18.02.2021
2383 Snow -2 990 74 514 1.34 90 17:24 18.02.2021
2384 Snow -2 991 74 514 0.89 90 16:46 18.02.2021
2385 Snow -2 991 74 497 0.89 90 16:28 18.02.2021
2386 Snow -1 991 73 497 1.34 180 15:43 18.02.2021
2387 Snow -1 991 73 275 0.45 90 15:23 18.02.2021
2388 Snow -1 991 73 275 0.45 90 14:53 18.02.2021
2389 Snow -1 992 73 1270 0.45 90 14:32 18.02.2021
2390 Snow -2 992 72 1282 0.45 135 13:50 18.02.2021
2391 Snow -2 992 72 1290 0.45 225 13:50 18.02.2021
2392 Snow -2 993 72 323 1.45 87 13:22 18.02.2021
2393 Snow -2 993 73 323 0.45 90 12:55 18.02.2021
2394 Snow -2 993 73 318 0.45 88 12:31 18.02.2021
2395 Snow -2 993 74 318 1.41 88 11:47 18.02.2021
2396 Snow -2 994 74 395 0.45 268 11:28 18.02.2021
2397 Snow -2 994 74 395 0.45 90 10:58 18.02.2021
2398 Snow -2 994 74 395 0.45 92 10:37 18.02.2021
2399 Snow -3 994 73 282 0.45 314 10:18 18.02.2021
2400 Snow -3 994 73 237 1.19 77 09:31 18.02.2021
2401 Clouds -3 994 72 237 0.45 270 08:50 18.02.2021
2402 Snow -3 995 72 592 1.13 72 08:31 18.02.2021
2403 Clouds -3 999 1 596 1.14 72 07:48 18.02.2021
2404 Clouds -3 999 1 966 1.27 57 07:23 18.02.2021
2405 Clouds -3 1017 93 454 1.19 55 06:18 18.02.2021
2406 Snow -2 995 74 403 1.38 70 00:40 18.02.2021
2407 Snow -2 995 74 196 1.77 74 23:45 17.02.2021
2408 Snow -2 995 73 120 0.45 90 23:18 17.02.2021
2409 Snow -2 995 72 120 0.45 315 22:40 17.02.2021
2410 Snow -2 995 72 132 0.89 225 22:22 17.02.2021
2411 Snow -2 995 71 132 1.64 67 21:45 17.02.2021
2412 Snow -2 995 71 126 0.89 180 21:20 17.02.2021
2413 Snow -2 995 71 126 0.45 90 20:42 17.02.2021
2414 Snow -2 994 71 174 0.45 90 20:23 17.02.2021
2415 Snow -2 1014 75 173 1.98 68 19:38 17.02.2021
2416 Snow -2 995 72 244 2.16 77 18:59 17.02.2021
2417 Snow -2 995 72 275 0.45 133 18:40 17.02.2021
2418 Snow -2 994 73 238 0.45 90 17:59 17.02.2021
2419 Snow -2 994 73 238 0.45 47 17:36 17.02.2021
2420 Snow -1 994 72 128 0.45 314 17:18 17.02.2021
2421 Snow -1 994 72 128 2.24 79 16:42 17.02.2021
2422 Snow -1 994 72 148 2.31 80 16:22 17.02.2021
2423 Snow -1 993 72 148 0.45 313 15:43 17.02.2021
2424 Snow -1 993 71 142 0.45 225 15:22 17.02.2021
2425 Snow -1 993 71 143 2.32 72 14:45 17.02.2021
2426 Snow -1 993 71 158 0.45 225 14:26 17.02.2021
2427 Snow -1 993 71 158 0.45 232 13:45 17.02.2021
2428 Snow -2 993 71 168 0.45 226 13:24 17.02.2021
2429 Snow -2 993 71 178 0.45 312 12:39 17.02.2021
2430 Snow -2 993 71 174 0.45 270 12:20 17.02.2021
2431 Snow -3 992 71 152 0.45 317 11:36 17.02.2021
2432 Snow -3 993 72 152 0.45 313 11:18 17.02.2021
2433 Snow -3 992 72 152 0.45 308 10:44 17.02.2021
2434 Snow -3 992 72 142 0.45 225 10:23 17.02.2021
2435 Snow -3 992 73 142 0.89 311 09:44 17.02.2021
2436 Snow -3 992 73 149 0.45 315 09:25 17.02.2021
2437 Snow -3 991 73 149 0.45 353 08:42 17.02.2021
2438 Snow -3 991 72 145 0.45 0 08:21 17.02.2021
2439 Snow -3 991 72 154 0.45 265 07:26 17.02.2021
2440 Snow -3 990 73 182 0.45 43 05:53 17.02.2021
2441 Snow -2 991 75 135 0.45 315 02:34 17.02.2021
2442 Snow -2 991 75 135 0.45 45 01:55 17.02.2021
2443 Snow -2 1013 90 130 2.94 67 00:33 17.02.2021
2444 Snow -2 991 77 130 0.89 270 23:54 16.02.2021
2445 Snow -1 991 77 124 0.45 90 23:34 16.02.2021
2446 Snow -2 991 76 124 0.45 45 22:43 16.02.2021
2447 Snow -2 991 76 290 0.45 90 22:24 16.02.2021
2448 Snow -2 991 76 290 2.11 58 21:42 16.02.2021
2449 Snow -2 991 76 364 1.81 58 21:22 16.02.2021
2450 Snow -2 991 76 364 1.81 58 20:59 16.02.2021
2451 Snow -2 992 76 364 1.81 58 20:41 16.02.2021
2452 Snow -2 992 76 377 1.69 73 20:20 16.02.2021
2453 Snow -2 992 75 392 0.45 90 19:42 16.02.2021
2454 Snow -2 992 75 357 0.45 90 19:22 16.02.2021
2455 Snow -2 992 74 361 0.45 318 18:40 16.02.2021
2456 Snow -2 992 74 648 0.45 270 18:22 16.02.2021
2457 Snow -2 992 74 641 1.7 55 17:50 16.02.2021
2458 Snow -2 992 74 237 1.36 45 17:26 16.02.2021
2459 Snow -2 992 74 238 1.37 45 16:51 16.02.2021
2460 Clouds -2 993 74 920 1.57 51 16:29 16.02.2021
2461 Clouds -2 993 74 920 0.45 277 15:47 16.02.2021
2462 Clouds -2 993 74 641 0.45 226 15:29 16.02.2021
2463 Clouds -1 993 75 642 0.45 318 14:55 16.02.2021
2464 Clouds -1 993 75 641 0.45 0 14:36 16.02.2021
2465 Clouds -1 994 75 1173 0.45 315 14:18 16.02.2021
2466 Clouds -1 994 77 1173 1.36 55 13:37 16.02.2021
2467 Clouds -1 994 79 10000 1.17 45 12:47 16.02.2021
2468 Clouds -1 994 79 1292 1.02 27 12:26 16.02.2021
2469 Clouds -2 994 79 1292 1.02 27 11:55 16.02.2021
2470 Clouds -2 994 79 1292 1.02 27 11:55 16.02.2021
2471 Clouds -2 994 79 1292 0.45 180 11:37 16.02.2021
2472 Clouds -2 994 78 1405 0.64 15 11:18 16.02.2021
2473 Clouds -3 994 78 1405 0.64 15 10:45 16.02.2021
2474 Clouds -4 1015 85 2285 0.94 15 10:25 16.02.2021
2475 Clouds -3 995 77 2285 0.45 180 09:48 16.02.2021
2476 Clouds -5 999 1 2876 1.61 17 09:26 16.02.2021
2477 Clouds -5 999 1 2835 1.61 17 08:48 16.02.2021
2478 Clouds -5 999 1 2028 1.22 357 08:26 16.02.2021
2479 Clouds -6 999 1 2028 1.22 357 07:32 16.02.2021
2480 Clouds -6 1000 1 3780 1.23 6 06:25 16.02.2021
2481 Snow -4 1019 88 492 0.88 46 02:19 16.02.2021
2482 Snow -4 998 74 358 0.8 81 23:47 15.02.2021
2483 Snow -4 998 73 409 1.31 124 23:26 15.02.2021
2484 Snow -4 998 74 409 1.31 124 22:47 15.02.2021
2485 Snow -4 998 75 374 1.59 132 22:25 15.02.2021
2486 Snow -4 999 74 374 0.45 90 21:42 15.02.2021
2487 Snow -4 998 75 430 0.45 90 21:24 15.02.2021
2488 Snow -4 999 74 430 0.89 317 20:53 15.02.2021
2489 Snow -4 999 75 430 0.89 89 20:35 15.02.2021
2490 Clouds -4 999 75 282 0.45 272 19:50 15.02.2021
2491 Snow -4 999 75 282 0.45 85 19:50 15.02.2021
2492 Snow -4 999 75 282 0.45 85 19:50 15.02.2021
2493 Snow -4 999 74 171 0.45 90 19:25 15.02.2021
2494 Snow -4 999 73 171 1.95 142 18:51 15.02.2021
2495 Snow -4 1000 72 176 0.45 3 18:27 15.02.2021
2496 Snow -4 1000 71 176 0.45 270 17:57 15.02.2021
2497 Snow -4 1000 71 176 0.45 270 17:39 15.02.2021
2498 Snow -4 1000 71 119 0.45 90 17:20 15.02.2021
2499 Snow -4 1000 70 119 0.89 91 16:37 15.02.2021
2500 Snow -4 1001 69 109 0.89 315 16:18 15.02.2021
2501 Snow -4 1001 65 109 0.45 89 15:42 15.02.2021
2502 Snow -5 1001 63 205 0.45 90 15:19 15.02.2021
2503 Snow -5 1002 64 191 0.61 99 14:43 15.02.2021
2504 Snow -5 1002 63 974 0.45 176 14:20 15.02.2021
2505 Snow -5 1002 62 965 0.45 269 13:49 15.02.2021
2506 Snow -5 1003 61 1787 0.45 292 13:20 15.02.2021
2507 Snow -6 1003 61 1787 0.45 272 12:45 15.02.2021
2508 Snow -6 1004 62 10000 0.45 223 12:25 15.02.2021
2509 Snow -6 1004 62 10000 0.45 90 11:51 15.02.2021
2510 Snow -6 1004 62 10000 0.9 50 11:23 15.02.2021
2511 Snow -6 1004 61 10000 0.9 50 10:50 15.02.2021
2512 Snow -6 1004 61 10000 0.45 181 10:28 15.02.2021
2513 Snow -7 1005 61 10000 1.26 52 09:57 15.02.2021
2514 Snow -7 1005 61 10000 1.26 52 09:39 15.02.2021
2515 Snow -7 1005 61 10000 0.45 225 09:21 15.02.2021
2516 Clouds -7 1005 60 10000 1.2 45 08:20 15.02.2021
2517 Clouds -7 1005 60 9753 0.45 315 06:59 15.02.2021
2518 Clouds -8 1006 60 9690 0.45 67 06:40 15.02.2021
2519 Clouds -11 1032 55 10000 0.69 341 02:47 15.02.2021
2520 Clouds -12 1034 55 10000 0.83 350 01:55 15.02.2021
2521 Clouds -11 1034 46 10000 0.63 329 23:59 14.02.2021
2522 Clouds -13 1034 46 10000 0.63 334 23:23 14.02.2021
2523 Clouds -13 1015 49 10000 0.63 334 22:41 14.02.2021
2524 Clouds -13 1034 46 10000 0.45 113 22:22 14.02.2021
2525 Clouds -13 1035 46 10000 0.64 359 21:51 14.02.2021
2526 Clouds -13 1035 46 10000 0.71 10 21:29 14.02.2021
2527 Clouds -12 1035 46 10000 0.72 10 20:52 14.02.2021
2528 Clouds -12 1035 46 10000 0.52 344 20:29 14.02.2021
2529 Clouds -12 1035 46 10000 0.52 344 19:49 14.02.2021
2530 Clear -11 1035 46 10000 0.31 337 18:58 14.02.2021
2531 Clear -11 1035 46 10000 0.38 274 18:37 14.02.2021
2532 Clear -10 1034 45 10000 0.38 274 17:57 14.02.2021
2533 Clear -10 1016 70 10000 0.38 273 17:39 14.02.2021
2534 Clear -8 1035 45 10000 0.55 247 16:55 14.02.2021
2535 Clear -7 1035 45 10000 0.58 229 16:33 14.02.2021
2536 Clear -7 1037 45 10000 0.58 229 15:53 14.02.2021
2537 Clear -7 1017 63 10000 0.58 229 15:35 14.02.2021
2538 Clear -5 1034 57 10000 0.28 245 14:51 14.02.2021
2539 Clear -5 1034 57 10000 1.02 234 14:27 14.02.2021
2540 Clear -6 1035 62 10000 1.03 234 13:54 14.02.2021
2541 Clear -6 1035 62 10000 1.03 234 13:30 14.02.2021
2542 Clear -7 1035 62 10000 0.64 326 12:44 14.02.2021
2543 Clear -6 1035 62 10000 0.98 288 12:20 14.02.2021
2544 Clear -7 1035 64 10000 0.98 288 11:50 14.02.2021
2545 Clear -8 1035 64 10000 0.97 306 11:21 14.02.2021
2546 Clear -11 1035 70 10000 0.97 306 10:39 14.02.2021
2547 Clear -12 1035 70 10000 1.28 310 09:56 14.02.2021
2548 Clear -11 1035 72 10000 1.28 310 09:38 14.02.2021
2549 Clear -12 1035 72 10000 1.49 327 09:19 14.02.2021
2550 Clear -12 1014 56 10000 1.49 327 08:39 14.02.2021
2551 Clear -14 1039 39 10000 1.5 318 07:56 14.02.2021
2552 Clear -14 1039 39 10000 1.54 328 06:49 14.02.2021
2553 Clear -13 1038 39 10000 1.55 309 05:41 14.02.2021
2554 Snow -12 1039 39 10000 1.55 321 03:30 14.02.2021
2555 Clear -12 1039 39 10000 1.6 320 01:54 14.02.2021
2556 Clear -12 1039 39 10000 1.64 322 00:47 14.02.2021
2557 Clear -12 1038 39 10000 1.49 312 00:22 14.02.2021
2558 Snow -13 1019 69 10000 1.49 312 23:40 13.02.2021
2559 Clear -11 1039 39 10000 1.51 310 23:20 13.02.2021
2560 Clear -11 1019 70 10000 1.51 310 22:34 13.02.2021
2561 Clear -11 1039 39 10000 1.49 317 21:59 13.02.2021
2562 Clear -11 1039 39 10000 1.5 317 21:40 13.02.2021
2563 Clear -11 1039 39 10000 1.51 323 20:53 13.02.2021
2564 Clear -11 1039 39 10000 1.47 325 20:28 13.02.2021
2565 Clear -11 1038 39 10000 1.47 325 19:51 13.02.2021
2566 Clear -10 1039 39 10000 1.46 320 19:25 13.02.2021
2567 Clear -10 1039 38 10000 1.49 320 18:54 13.02.2021
2568 Snow -11 1038 39 10000 1.49 320 18:34 13.02.2021
2569 Clear -10 1039 38 10000 1.45 315 17:55 13.02.2021
2570 Snow -10 1038 38 10000 1.45 315 17:36 13.02.2021
2571 Clear -9 1038 39 10000 1.43 310 17:18 13.02.2021
2572 Clear -9 1039 41 10000 1.43 310 16:42 13.02.2021
2573 Clear -8 1037 58 10000 1.03 210 15:58 13.02.2021
2574 Clear -4 1037 76 10000 1.16 299 15:27 13.02.2021
2575 Clear -5 1037 76 10000 1.16 299 14:42 13.02.2021
2576 Clear -4 1037 76 10000 1.31 302 14:24 13.02.2021
2577 Clear -4 1037 76 10000 1.31 302 13:44 13.02.2021
2578 Clear -6 1037 76 10000 1.31 312 13:23 13.02.2021
2579 Clear -6 1037 76 10000 1.35 307 12:38 13.02.2021
2580 Clear -5 1037 76 10000 1.33 307 12:18 13.02.2021
2581 Clear -6 1040 47 10000 1.34 306 11:40 13.02.2021
2582 Clear -7 1040 47 10000 1.39 310 11:18 13.02.2021
2583 Clear -10 1042 38 10000 1.41 310 10:44 13.02.2021
2584 Clear -11 1042 38 10000 1.5 327 10:23 13.02.2021
2585 Clear -10 1042 38 10000 1.5 327 09:50 13.02.2021
2586 Clear -12 1042 38 10000 1.72 347 09:29 13.02.2021
2587 Clear -13 1042 38 10000 1.72 347 08:52 13.02.2021
2588 Clear -13 1042 38 10000 1.66 335 08:26 13.02.2021
2589 Clear -13 1041 38 10000 1.57 332 07:43 13.02.2021
2590 Clear -12 1042 38 10000 1.63 334 06:35 13.02.2021
2591 Clear -12 1042 38 10000 1.6 338 05:18 13.02.2021
2592 Clear -11 1042 38 10000 1.64 330 03:44 13.02.2021
2593 Clear -11 1042 38 10000 1.57 325 01:25 13.02.2021
2594 Clear -10 1042 38 10000 1.55 333 00:19 13.02.2021
2595 Clear -10 1042 38 10000 1.55 333 23:46 12.02.2021
2596 Clear -10 1022 71 10000 1.64 337 23:20 12.02.2021
2597 Clear -10 1042 37 10000 1.71 334 22:37 12.02.2021
2598 Clear -10 1042 37 10000 1.71 334 22:18 12.02.2021
2599 Clear -10 1042 35 10000 1.71 334 21:42 12.02.2021
2600 Clear -11 1042 35 10000 1.73 337 21:22 12.02.2021
2601 Clear -10 1042 33 10000 1.73 337 20:45 12.02.2021
2602 Clear -10 1042 33 10000 1.68 336 20:26 12.02.2021
2603 Clear -9 1042 33 10000 1.68 336 19:55 12.02.2021
2604 Clear -10 1042 30 10000 1.69 330 19:29 12.02.2021
2605 Clear -8 1040 27 10000 1.68 331 18:38 12.02.2021
2606 Clear -7 1040 27 10000 0.89 87 18:18 12.02.2021
2607 Clear -8 1041 27 10000 1.75 327 17:38 12.02.2021
2608 Clear -6 1041 27 10000 1.82 325 16:54 12.02.2021
2609 Clear -5 1041 24 10000 0.45 81 16:18 12.02.2021
2610 Clear -5 1039 58 10000 2.06 50 15:43 12.02.2021
2611 Clear -4 1038 48 10000 1.73 319 15:20 12.02.2021
2612 Clear -4 1038 48 10000 1.74 320 14:37 12.02.2021
2613 Clear -4 1038 48 10000 1.89 320 13:51 12.02.2021
2614 Clear -5 1039 62 10000 0.51 0 13:32 12.02.2021
2615 Clouds -5 1038 48 10000 1.89 323 12:54 12.02.2021
2616 Clouds -5 1038 48 10000 1.89 323 12:36 12.02.2021
2617 Clouds -6 1038 48 10000 1.82 332 11:48 12.02.2021
2618 Clouds -6 1038 48 10000 1.93 331 11:22 12.02.2021
2619 Clouds -6 1038 48 10000 1.93 331 10:51 12.02.2021
2620 Clouds -7 1038 48 10000 1.93 331 10:33 12.02.2021
2621 Clouds -9 1041 38 10000 2.07 322 09:43 12.02.2021
2622 Clouds -10 1040 37 10000 2.13 320 09:24 12.02.2021
2623 Clouds -11 1040 37 10000 0.45 108 08:47 12.02.2021
2624 Clouds -12 1021 71 10000 2.09 321 08:27 12.02.2021
2625 Clouds -14 1021 71 10000 2.09 321 07:52 12.02.2021
2626 Clear -12 1041 42 10000 2.14 322 07:27 12.02.2021
2627 Clear -12 1040 42 10000 2.09 318 06:54 12.02.2021
2628 Clear -11 1016 40 10000 1.97 331 05:39 12.02.2021
2629 Clear -10 1016 41 10000 1.98 315 03:48 12.02.2021
2630 Clear -11 1021 72 10000 2.09 332 00:47 12.02.2021
2631 Clear -11 1021 71 10000 2.05 324 23:39 11.02.2021
2632 Clear -12 1039 44 10000 2.05 323 23:20 11.02.2021
2633 Clear -12 1039 44 10000 2.05 323 22:44 11.02.2021
2634 Clear -10 1039 44 10000 2.1 330 22:23 11.02.2021
2635 Clear -10 1039 43 10000 2.1 330 21:46 11.02.2021
2636 Clear -10 1039 41 10000 2.17 333 21:26 11.02.2021
2637 Clear -10 1039 40 10000 2.17 333 20:58 11.02.2021
2638 Clear -10 1039 39 10000 2.17 333 20:39 11.02.2021
2639 Clear -9 1038 38 10000 2.23 333 20:21 11.02.2021
2640 Clear -11 1039 37 10000 2.24 333 19:47 11.02.2021
2641 Clear -10 1038 36 10000 2.19 335 19:26 11.02.2021
2642 Clear -11 1019 66 10000 2.08 334 18:45 11.02.2021
2643 Clear -10 1019 64 10000 0.45 349 18:24 11.02.2021
2644 Clear -10 1038 35 10000 2.1 332 17:49 11.02.2021
2645 Clear -9 1037 35 10000 2.16 328 17:21 11.02.2021
2646 Clear -9 1035 67 10000 4.12 20 16:47 11.02.2021
2647 Clear -7 1036 34 10000 2.18 327 16:29 11.02.2021
2648 Clear -7 1037 34 10000 2.18 327 15:47 11.02.2021
2649 Clear -6 1037 34 10000 2.48 331 15:26 11.02.2021
2650 Clear -5 1033 52 10000 2.48 331 14:58 11.02.2021
2651 Clear -6 1033 52 10000 2.45 330 14:32 11.02.2021
2652 Clear -6 1033 52 10000 2.45 330 13:44 11.02.2021
2653 Clear -7 1036 34 10000 0.45 122 13:21 11.02.2021
2654 Clear -7 1036 34 10000 2.26 327 12:56 11.02.2021
2655 Clear -8 1036 34 10000 0.45 88 12:35 11.02.2021
2656 Clear -9 1031 67 10000 2.22 328 11:49 11.02.2021
2657 Clear -9 1031 67 10000 2.1 327 11:29 11.02.2021
2658 Clear -9 1031 67 10000 2.1 327 10:57 11.02.2021
2659 Clear -9 1031 67 10000 2.1 327 10:39 11.02.2021
2660 Clear -13 1033 66 10000 1.54 350 10:21 11.02.2021
2661 Clear -10 1035 45 10000 0.45 267 09:38 11.02.2021
2662 Clear -13 1016 68 10000 2.12 331 09:19 11.02.2021
2663 Clear -13 1016 68 10000 2.13 330 09:19 11.02.2021
2664 Clear -13 1035 49 10000 2.13 330 08:46 11.02.2021
2665 Clear -14 1035 49 10000 2.1 332 07:52 11.02.2021
2666 Clear -13 1034 49 10000 1.98 336 06:44 11.02.2021
2667 Clear -13 1033 49 10000 2.09 341 06:20 11.02.2021
2668 Clear -11 1032 49 10000 2.24 349 03:46 11.02.2021
2669 Clear -11 1031 49 10000 2.36 357 02:25 11.02.2021
2670 Clear -10 1030 49 10000 2.53 359 00:24 11.02.2021
2671 Clear -10 1030 49 10000 2.53 359 00:24 11.02.2021
2672 Clear -10 1030 49 10000 2.53 359 23:54 10.02.2021
2673 Clear -9 1029 49 10000 2.5 2 23:20 10.02.2021
2674 Clear -9 1029 48 10000 2.5 2 22:44 10.02.2021
2675 Clear -9 1029 48 10000 2.52 8 22:24 10.02.2021
2676 Clear -9 1027 50 10000 2.52 8 21:40 10.02.2021
2677 Clouds -9 1009 71 10000 2.7 15 21:21 10.02.2021
2678 Clouds -9 1028 49 10000 2.7 15 20:52 10.02.2021
2679 Clouds -8 1027 48 10000 2.92 21 20:29 10.02.2021
2680 Clouds -8 1026 47 10000 2.92 21 19:50 10.02.2021
2681 Clouds -8 1025 46 10000 3.13 23 19:29 10.02.2021
2682 Clouds -8 1025 46 10000 3.2 17 18:49 10.02.2021
2683 Clouds -7 1025 45 10000 3.15 16 18:29 10.02.2021
2684 Clouds -7 1024 45 10000 3.14 16 17:59 10.02.2021
2685 Clouds -7 1024 44 10000 3.15 16 17:40 10.02.2021
2686 Clouds -6 1006 69 10000 0.89 38 17:20 10.02.2021
2687 Clouds -7 1005 68 10000 0.89 344 16:46 10.02.2021
2688 Clouds -6 1023 43 10000 0.45 78 16:25 10.02.2021
2689 Clouds -6 1022 44 10000 4.03 22 15:25 10.02.2021
2690 Clouds -6 1022 44 10000 0.45 303 14:58 10.02.2021
2691 Clouds -5 1019 67 10000 0.89 260 14:39 10.02.2021
2692 Clouds -4 1019 75 10000 4.21 24 13:55 10.02.2021
2693 Clouds -4 1019 75 10000 4.23 28 13:31 10.02.2021
2694 Clouds -4 1019 75 10000 4.23 28 12:56 10.02.2021
2695 Clouds -5 1019 75 10000 4.23 28 12:37 10.02.2021
2696 Clouds -5 1019 76 10000 0.89 231 12:18 10.02.2021
2697 Clouds -5 1019 76 10000 0.89 231 11:41 10.02.2021
2698 Clouds -8 1003 56 10000 1.79 339 11:22 10.02.2021
2699 Clouds -7 998 52 10000 0.45 292 10:37 10.02.2021
2700 Clouds -9 1021 57 10000 2.93 26 10:18 10.02.2021
2701 Clear -11 1020 60 10000 2.17 10 09:37 10.02.2021
2702 Clear -11 1020 60 10000 2.17 10 09:18 10.02.2021
2703 Clear -12 1001 8 10000 2.17 10 08:42 10.02.2021
2704 Clear -11 996 53 10000 1.91 15 07:53 10.02.2021
2705 Clouds -12 1018 49 10000 1.67 3 06:59 10.02.2021
2706 Clouds -11 996 52 10000 1.8 350 03:43 10.02.2021
2707 Clouds -11 1018 49 10000 1.4 324 00:31 10.02.2021
2708 Clouds -11 1002 58 10000 1.47 330 23:35 09.02.2021
2709 Clouds -10 997 49 10000 1.53 339 22:54 09.02.2021
2710 Clouds -10 997 48 10000 1.6 343 22:24 09.02.2021
2711 Clouds -11 1019 49 10000 1.6 343 21:52 09.02.2021
2712 Clouds -9 997 47 10000 1.54 343 21:33 09.02.2021
2713 Clouds -11 1019 47 10000 1.56 343 20:50 09.02.2021
2714 Clouds -10 1020 46 10000 1.66 342 20:27 09.02.2021
2715 Clouds -10 1020 45 10000 1.66 342 19:59 09.02.2021
2716 Clouds -10 1002 71 10000 1.67 342 19:39 09.02.2021
2717 Clear -10 1019 73 10000 1.54 10 19:00 09.02.2021
2718 Clear -9 1019 73 10000 1.54 10 18:39 09.02.2021
2719 Clear -9 1020 67 10000 2.06 360 17:58 09.02.2021
2720 Clear -8 1020 67 10000 2.06 360 17:40 09.02.2021
2721 Clear -8 1020 67 10000 3.6 20 17:21 09.02.2021
2722 Clear -8 1020 62 10000 3.09 20 16:42 09.02.2021
2723 Clear -6 1002 61 10000 0.89 24 16:19 09.02.2021
2724 Clear -7 1020 53 10000 4.63 360 15:50 09.02.2021
2725 Clear -5 1019 36 10000 0.89 96 15:26 09.02.2021
2726 Clear -5 1020 36 10000 0.45 34 14:55 09.02.2021
2727 Clear -5 1020 36 10000 0.45 125 14:28 09.02.2021
2728 Clear -5 1021 36 10000 2.82 20 13:52 09.02.2021
2729 Clear -5 1003 62 10000 0.45 42 13:26 09.02.2021
2730 Clear -6 1003 64 10000 0.89 5 12:54 09.02.2021
2731 Clear -6 1003 63 10000 0.45 25 12:36 09.02.2021
2732 Clear -6 1004 64 10000 1.34 27 11:58 09.02.2021
2733 Clear -7 1004 66 10000 2.7 18 11:39 09.02.2021
2734 Clear -8 1022 67 10000 5.14 10 11:20 09.02.2021
2735 Clouds -7 1004 68 10000 0.89 221 11:20 09.02.2021
2736 Clouds -7 1004 68 10000 0.89 5 10:50 09.02.2021
2737 Clear -8 1022 67 10000 5.14 360 10:19 09.02.2021
2738 Clear -9 1022 67 10000 4.63 360 09:43 09.02.2021
2739 Clear -9 1022 67 10000 5.14 360 09:25 09.02.2021
2740 Clear -9 1022 67 10000 5.14 360 08:47 09.02.2021
2741 Clear -8 1022 67 10000 5.14 360 08:26 09.02.2021
2742 Clear -7 1021 62 10000 4.63 350 06:55 09.02.2021
2743 Clear -7 1021 73 10000 4.63 20 04:53 09.02.2021
2744 Clouds -7 1022 73 10000 3.09 10 03:41 09.02.2021
2745 Snow -6 1022 73 10000 4.63 10 00:44 09.02.2021
2746 Clouds -7 1022 73 10000 5.14 10 23:57 08.02.2021
2747 Clear -6 1023 73 10000 3.09 30 23:22 08.02.2021
2748 Clear -6 1023 79 10000 3.09 30 22:44 08.02.2021
2749 Clear -6 1023 79 10000 3.09 30 22:26 08.02.2021
2750 Clouds -6 1023 79 10000 5.14 10 21:57 08.02.2021
2751 Clouds -6 1023 79 10000 5.14 10 21:36 08.02.2021
2752 Clear -6 1023 79 10000 5.14 10 21:18 08.02.2021
2753 Clear -6 1023 79 10000 5.14 360 20:42 08.02.2021
2754 Clear -6 1023 79 10000 5.66 10 20:21 08.02.2021
2755 Clear -6 1023 79 10000 5.66 20 19:45 08.02.2021
2756 Clear -5 1023 79 10000 5.14 20 19:26 08.02.2021
2757 Clear -5 1023 79 10000 4.12 10 18:49 08.02.2021
2758 Clouds -5 1023 79 10000 4.12 10 18:24 08.02.2021
2759 Clear -5 1023 79 10000 5.14 10 17:47 08.02.2021
2760 Clear -5 1023 79 10000 5.66 10 17:26 08.02.2021
2761 Clouds -5 1023 73 10000 5.66 10 16:47 08.02.2021
2762 Clouds -6 1023 73 10000 6.17 10 16:23 08.02.2021
2763 Clouds -6 1023 73 10000 6.17 20 15:49 08.02.2021
2764 Clear -4 1005 68 10000 0.45 338 15:21 08.02.2021
2765 Clear -5 1005 68 10000 0.45 5 14:59 08.02.2021
2766 Clear -5 1022 73 10000 1.34 108 14:41 08.02.2021
2767 Clear -5 1005 67 10000 0.45 5 14:22 08.02.2021
2768 Clear -4 1023 42 10000 0.89 290 13:42 08.02.2021
2769 Clouds -4 1023 42 10000 0.89 284 13:23 08.02.2021
2770 Clouds -6 1023 69 10000 0.89 72 12:38 08.02.2021
2771 Clear -6 1025 68 10000 5.66 20 11:58 08.02.2021
2772 Clear -7 1025 73 10000 5.66 20 11:26 08.02.2021
2773 Clear -8 1025 73 10000 6.17 20 10:46 08.02.2021
2774 Clear -8 1025 79 10000 6.17 20 10:25 08.02.2021
2775 Clear -9 1025 73 10000 5.14 20 09:55 08.02.2021
2776 Clear -9 1025 73 10000 5.14 20 09:36 08.02.2021
2777 Clear -9 1025 67 10000 2.57 50 08:54 08.02.2021
2778 Clear -8 1025 67 10000 2.57 50 08:24 08.02.2021
2779 Clear -8 1024 67 10000 3.6 20 07:38 08.02.2021
2780 Clear -10 1025 67 10000 5.14 20 06:33 08.02.2021
2781 Clear -10 1025 73 10000 4.63 20 04:54 08.02.2021
2782 Clear -10 1026 62 10000 3.6 360 02:26 08.02.2021
2783 Clear -12 1027 73 10000 4.12 10 00:24 08.02.2021
2784 Clear -11 1027 73 10000 4.12 10 23:53 07.02.2021
2785 Clear -11 1027 73 10000 5.66 20 23:28 07.02.2021
2786 Clear -11 1027 73 10000 4.63 30 22:56 07.02.2021
2787 Clear -11 1028 79 10000 3.09 20 22:37 07.02.2021
2788 Clear -11 1028 78 10000 4.63 20 22:19 07.02.2021
2789 Clear -12 1028 78 10000 5.14 20 21:49 07.02.2021
2790 Clear -11 1028 78 10000 4.63 20 21:22 07.02.2021
2791 Clear -11 1028 78 10000 4.63 10 20:49 07.02.2021
2792 Clear -11 1028 79 10000 4.12 10 20:27 07.02.2021
2793 Clear -11 1028 79 10000 3.6 20 19:45 07.02.2021
2794 Clear -10 1028 85 10000 2.57 20 19:27 07.02.2021
2795 Clear -10 1028 79 10000 3.09 20 18:44 07.02.2021
2796 Clear -9 1028 79 10000 3.09 20 18:26 07.02.2021
2797 Clear -9 1028 73 10000 3.6 20 17:45 07.02.2021
2798 Clear -9 1028 79 10000 3.6 20 17:23 07.02.2021
2799 Clear -9 1028 79 10000 3.6 20 16:59 07.02.2021
2800 Clear -8 1028 73 10000 4.12 10 16:41 07.02.2021
2801 Clear -7 1011 69 10000 0.89 42 16:20 07.02.2021
2802 Clear -7 1011 69 10000 0.89 42 15:44 07.02.2021
2803 Clear -5 1027 70 10000 1.87 15 15:21 07.02.2021
2804 Clear -5 1027 70 10000 1.87 15 14:44 07.02.2021
2805 Clouds -5 1027 70 10000 2.26 20 14:26 07.02.2021
2806 Clouds -6 1028 70 10000 2.26 19 13:45 07.02.2021
2807 Clouds -6 1028 70 10000 2.21 19 13:26 07.02.2021
2808 Clouds -6 1028 70 10000 2.19 20 12:40 07.02.2021
2809 Clouds -8 1028 70 10000 2.23 18 12:21 07.02.2021
2810 Clouds -8 1028 70 10000 2.23 18 11:43 07.02.2021
2811 Clouds -8 1028 70 10000 2.28 16 11:24 07.02.2021
2812 Clouds -8 1030 67 10000 5.14 10 10:31 07.02.2021
2813 Clouds -8 1030 79 10000 4.63 10 09:57 07.02.2021
2814 Clouds -10 1030 79 10000 4.63 10 09:39 07.02.2021
2815 Clouds -11 1030 79 10000 3.6 10 09:20 07.02.2021
2816 Clouds -11 1030 79 10000 5.14 20 08:19 07.02.2021
2817 Clouds -10 1030 79 10000 5.14 20 06:33 07.02.2021
2818 Clouds -9 1030 79 10000 5.66 10 05:56 07.02.2021
2819 Clear -9 1031 55 10000 0.89 121 02:53 07.02.2021
2820 Clear -9 1031 55 10000 2.3 360 00:58 07.02.2021
2821 Clear -9 1031 54 10000 2.26 358 00:28 07.02.2021
2822 Clear -10 1031 53 10000 2.23 353 23:32 06.02.2021
2823 Clear -9 1039 76 10000 2.23 353 22:31 06.02.2021
2824 Clear -9 1039 76 10000 2.22 348 21:39 06.02.2021
2825 Clear -9 1039 76 10000 2.16 345 21:20 06.02.2021
2826 Clear -9 1039 76 10000 2.16 345 20:45 06.02.2021
2827 Clear -8 1039 76 10000 2.14 341 20:23 06.02.2021
2828 Clear -8 1039 76 10000 2.14 341 19:55 06.02.2021
2829 Clear -8 1039 76 10000 2.09 344 19:28 06.02.2021
2830 Clear -10 1031 51 10000 2.09 344 18:46 06.02.2021
2831 Clear -10 1013 70 10000 2.14 343 18:27 06.02.2021
2832 Clear -9 1031 49 10000 2.14 343 17:44 06.02.2021
2833 Clear -8 1013 70 10000 1.94 337 17:22 06.02.2021
2834 Clear -8 1031 46 10000 1.94 337 16:58 06.02.2021
2835 Clear -8 1031 46 10000 1.94 337 16:34 06.02.2021
2836 Clear -6 1032 45 10000 1.58 332 15:57 06.02.2021
2837 Clear -5 1030 62 10000 1.59 339 15:38 06.02.2021
2838 Clear -6 1030 62 10000 1.6 339 15:18 06.02.2021
2839 Clear -6 1030 62 10000 1.59 339 14:44 06.02.2021
2840 Clear -6 1030 62 10000 1.61 344 14:23 06.02.2021
2841 Clear -6 1030 62 10000 1.61 344 13:47 06.02.2021
2842 Clear -6 1031 71 10000 1.44 352 12:56 06.02.2021
2843 Clear -8 1031 71 10000 1.32 360 12:21 06.02.2021
2844 Clear -6 1031 71 10000 1.32 360 11:47 06.02.2021
2845 Clear -7 1031 71 10000 1.4 6 11:22 06.02.2021
2846 Clear -7 1031 71 10000 1.4 6 10:56 06.02.2021
2847 Clear -10 1034 61 10000 1.72 4 10:28 06.02.2021
2848 Clear -10 1034 61 10000 1.72 4 09:56 06.02.2021
2849 Clear -10 1034 61 10000 1.72 4 09:36 06.02.2021
2850 Clear -11 1032 92 10000 1.03 40 09:18 06.02.2021
2851 Clear -11 1034 59 10000 1.89 1 08:33 06.02.2021
2852 Clear -10 1033 58 10000 1.96 0 07:56 06.02.2021
2853 Clear -10 1031 92 10000 4.12 20 05:43 06.02.2021
2854 Clouds -9 1020 67 10000 2.15 8 03:53 06.02.2021
2855 Clouds -8 1013 60 10000 2.18 7 01:38 06.02.2021
2856 Clouds -8 1013 55 10000 2.17 8 00:46 06.02.2021
2857 Clouds -8 1007 52 10000 0.45 268 00:19 06.02.2021
2858 Clouds -8 1012 64 10000 2.08 3 23:42 05.02.2021
2859 Clouds -8 1012 64 10000 1.97 3 23:24 05.02.2021
2860 Clouds -9 1012 57 10000 0.45 315 22:47 05.02.2021
2861 Clouds -10 1012 50 10000 1.94 353 22:20 05.02.2021
2862 Clouds -10 1012 49 10000 1.94 353 21:44 05.02.2021
2863 Clouds -10 1012 50 10000 2.04 350 21:25 05.02.2021
2864 Clouds -9 1012 58 10000 2.03 351 20:43 05.02.2021
2865 Clear -10 1030 56 10000 2.04 352 19:52 05.02.2021
2866 Clear -8 1026 81 10000 2.18 354 19:19 05.02.2021
2867 Clear -8 1026 81 10000 2.18 354 19:19 05.02.2021
2868 Clear -8 1026 81 10000 2.18 354 18:53 05.02.2021
2869 Clear -7 1026 81 10000 2.27 355 18:23 05.02.2021
2870 Clear -7 1030 53 10000 2.27 355 17:44 05.02.2021
2871 Clear -7 1030 52 10000 2.08 354 17:22 05.02.2021
2872 Clear -6 1029 50 10000 2.08 354 16:49 05.02.2021
2873 Clear -6 1029 47 10000 2.03 5 16:24 05.02.2021
2874 Clear -5 1029 46 10000 2.04 4 15:57 05.02.2021
2875 Clear -4 1026 52 10000 2.48 12 15:26 05.02.2021
2876 Clear -5 1027 70 10000 2.48 12 14:41 05.02.2021
2877 Clear -5 1027 70 10000 2.76 12 14:23 05.02.2021
2878 Clear -5 1027 70 10000 2.75 12 13:59 05.02.2021
2879 Clear -5 1027 70 10000 2.75 12 13:37 05.02.2021
2880 Clear -5 1029 45 10000 0.45 147 12:56 05.02.2021
2881 Clear -6 1029 45 10000 0.45 105 12:37 05.02.2021
2882 Clear -7 1030 48 10000 0.45 91 11:42 05.02.2021
2883 Clear -7 1030 53 10000 2.45 13 11:22 05.02.2021
2884 Clear -7 1030 55 10000 2.45 13 10:59 05.02.2021
2885 Clear -8 1030 58 10000 2.41 7 10:27 05.02.2021
2886 Clear -9 1029 56 10000 2.4 7 09:48 05.02.2021
2887 Clear -11 1010 46 10000 2.29 358 09:29 05.02.2021
2888 Clear -10 1005 51 10000 0.89 316 08:58 05.02.2021
2889 Clear -12 1029 56 10000 2.27 354 08:28 05.02.2021
2890 Clear -12 1009 46 10000 0.45 294 07:38 05.02.2021
2891 Clouds -11 1028 57 10000 2.25 350 06:57 05.02.2021
2892 Clouds -12 1027 55 10000 2.28 348 05:38 05.02.2021
2893 Clouds -12 1027 54 10000 2.28 341 03:23 05.02.2021
2894 Clouds -12 1027 55 10000 2.31 342 02:25 05.02.2021
2895 Clear -12 1027 52 10000 2.31 338 00:41 05.02.2021
2896 Clear -12 1027 52 10000 2.23 336 00:21 05.02.2021
2897 Clear -13 1026 52 10000 2.23 336 23:59 04.02.2021
2898 Clear -13 1027 52 10000 2.24 336 23:39 04.02.2021
2899 Clear -13 1026 52 10000 2.19 335 23:20 04.02.2021
2900 Clear -13 1026 52 10000 2.19 335 22:51 04.02.2021
2901 Clear -13 1026 52 10000 2.13 330 22:27 04.02.2021
2902 Clear -13 1025 52 10000 2.13 330 21:42 04.02.2021
2903 Clear -13 1025 53 10000 0.45 266 21:21 04.02.2021
2904 Clear -11 1025 54 10000 0.45 110 20:53 04.02.2021
2905 Clear -11 1007 62 10000 2.08 334 20:34 04.02.2021
2906 Clear -11 1025 52 10000 2.04 335 19:47 04.02.2021
2907 Clear -12 1025 52 10000 2.07 341 18:59 04.02.2021
2908 Clear -12 1025 52 10000 2.07 341 18:36 04.02.2021
2909 Clear -12 1025 52 10000 0.45 44 18:18 04.02.2021
2910 Clear -10 1022 73 10000 2.16 339 17:41 04.02.2021
2911 Clear -9 1022 73 10000 2.02 337 17:20 04.02.2021
2912 Clear -9 1006 71 10000 2.03 337 16:41 04.02.2021
2913 Clear -8 1025 48 10000 1.86 345 16:19 04.02.2021
2914 Clear -7 1022 62 10000 1.86 345 15:40 04.02.2021
2915 Clear -7 1022 62 10000 2.32 356 15:21 04.02.2021
2916 Clear -7 1022 62 10000 2.32 356 14:49 04.02.2021
2917 Clear -7 1022 62 10000 2.56 359 14:21 04.02.2021
2918 Clear -7 1022 73 10000 2.56 359 13:56 04.02.2021
2919 Clear -7 1022 73 10000 2.56 359 13:36 04.02.2021
2920 Clouds -7 1020 82 10000 2.52 4 12:57 04.02.2021
2921 Clouds -7 1020 82 10000 2.45 6 12:20 04.02.2021
2922 Clouds -8 1020 82 10000 2.45 6 11:38 04.02.2021
2923 Clouds -8 1020 82 10000 2.54 2 11:20 04.02.2021
2924 Clouds -8 1020 82 10000 2.54 2 10:43 04.02.2021
2925 Clouds -9 1023 55 10000 0.45 117 09:48 04.02.2021
2926 Clouds -10 1021 72 10000 4.63 10 09:23 04.02.2021
2927 Clouds -10 1022 55 10000 2.34 355 08:59 04.02.2021
2928 Clear -11 1021 79 10000 3.09 360 08:28 04.02.2021
2929 Clouds -10 1021 56 10000 0.45 102 07:59 04.02.2021
2930 Clear -10 1020 56 10000 2.4 353 07:35 04.02.2021
2931 Clear -10 1002 70 10000 2.4 353 06:54 04.02.2021
2932 Clear -10 1002 70 10000 2.4 353 06:35 04.02.2021
2933 Clear -11 1019 55 10000 2.51 356 03:52 04.02.2021
2934 Clear -11 995 51 10000 2.57 5 02:24 04.02.2021
2935 Clear -11 999 71 10000 1.34 351 00:33 04.02.2021
2936 Clear -10 994 53 10000 0.45 291 23:39 03.02.2021
2937 Clear -10 993 53 10000 0.45 272 22:43 03.02.2021
2938 Clear -10 993 53 10000 0.45 315 22:22 03.02.2021
2939 Clear -10 993 54 10000 0.45 292 21:57 03.02.2021
2940 Clear -10 993 54 10000 0.45 272 21:36 03.02.2021
2941 Clear -10 993 54 10000 2.56 13 21:18 03.02.2021
2942 Clear -9 993 54 10000 0.45 272 20:38 03.02.2021
2943 Clear -9 992 54 10000 2.68 12 20:19 03.02.2021
2944 Clear -9 991 54 10000 0.45 272 19:42 03.02.2021
2945 Clear -10 1014 54 10000 2.68 11 19:19 03.02.2021
2946 Clear -9 1013 52 10000 0.45 95 18:48 03.02.2021
2947 Clear -9 991 54 10000 0.45 313 18:20 03.02.2021
2948 Clear -9 1013 50 10000 0.89 25 17:51 03.02.2021
2949 Clear -8 1013 48 10000 0.89 237 17:30 03.02.2021
2950 Clear -8 1012 48 10000 0.45 37 16:53 03.02.2021
2951 Clear -7 1011 48 10000 0.45 333 16:29 03.02.2021
2952 Clear -7 1011 49 10000 2.48 22 15:45 03.02.2021
2953 Clear -6 1010 73 10000 0.89 219 15:25 03.02.2021
2954 Clear -6 1010 73 10000 0.89 219 14:53 03.02.2021
2955 Clear -6 1008 73 10000 0.89 167 14:53 03.02.2021
2956 Clear -6 1008 73 10000 0.89 167 14:26 03.02.2021
2957 Clear -6 1008 73 10000 0.89 167 13:54 03.02.2021
2958 Clouds -6 1008 73 10000 0.89 167 13:28 03.02.2021
2959 Clouds -6 1008 73 10000 0.89 167 12:49 03.02.2021
2960 Clouds -6 1008 73 10000 0.89 167 12:27 03.02.2021
2961 Clouds -7 1011 51 10000 1.34 285 11:54 03.02.2021
2962 Clouds -7 1011 51 10000 1.34 285 11:36 03.02.2021
2963 Clouds -7 1010 64 10000 1.9 23 10:56 03.02.2021
2964 Clouds -7 1011 65 10000 1.79 25 10:22 03.02.2021
2965 Clouds -7 1008 91 10000 1.78 25 09:48 03.02.2021
2966 Clouds -8 1011 92 10000 3.09 30 09:28 03.02.2021
2967 Clouds -7 1011 69 10000 1.63 20 08:53 03.02.2021
2968 Clouds -7 1010 69 10000 1.75 17 08:28 03.02.2021
2969 Clouds -7 1010 69 10000 1.75 17 07:41 03.02.2021
2970 Clouds -7 992 55 10000 1.66 8 06:41 03.02.2021
2971 Clouds -7 1009 67 10000 1.58 8 04:54 03.02.2021
2972 Clouds -7 1009 66 10000 1.58 8 04:31 03.02.2021
2973 Snow -7 991 47 5999 0.45 11 03:39 03.02.2021
2974 Snow -7 991 47 4454 0.45 290 02:37 03.02.2021
2975 Snow -7 991 34 1889 0.89 5 00:46 03.02.2021
2976 Snow -6 1007 68 920 2.48 11 23:59 02.02.2021
2977 Snow -6 990 27 920 0.89 344 23:40 02.02.2021
2978 Snow -6 1006 66 694 2.38 8 23:22 02.02.2021
2979 Snow -6 990 34 694 2.38 8 22:36 02.02.2021
2980 Snow -6 1006 64 755 2.23 7 22:18 02.02.2021
2981 Snow -6 1005 63 755 2.23 7 21:39 02.02.2021
2982 Snow -7 1005 62 1975 2.12 4 21:19 02.02.2021
2983 Snow -7 1005 61 1969 2.12 5 20:44 02.02.2021
2984 Clouds -7 1005 60 3003 2.34 8 20:20 02.02.2021
2985 Snow -7 989 34 2996 0.45 12 19:48 02.02.2021
2986 Snow -6 1005 59 6875 2.3 0 19:29 02.02.2021
2987 Snow -7 1005 59 6875 0.45 101 18:46 02.02.2021
2988 Snow -7 995 74 10000 3.58 2 18:26 02.02.2021
2989 Snow -7 1009 57 10000 2.2 1 17:51 02.02.2021
2990 Snow -7 1004 56 10000 0.89 104 17:24 02.02.2021
2991 Snow -8 1004 56 10000 2.18 3 16:58 02.02.2021
2992 Snow -7 1003 55 10000 2.18 2 16:38 02.02.2021
2993 Clear -6 1004 83 10000 2.05 3 16:18 02.02.2021
2994 Clouds -6 983 60 10000 0.45 269 15:42 02.02.2021
2995 Clouds -6 982 60 10000 0.89 354 15:21 02.02.2021
2996 Clouds -6 982 60 10000 0.45 270 14:41 02.02.2021
2997 Clouds -6 983 59 10000 0.45 336 14:19 02.02.2021
2998 Clouds -6 983 59 10000 0.89 276 13:54 02.02.2021
2999 Clouds -6 982 58 10000 0.45 336 13:36 02.02.2021
3000 Snow -6 983 58 10000 0.45 271 13:18 02.02.2021
3001 Clouds -7 1003 54 10000 1.94 2 12:29 02.02.2021
3002 Clouds -6 982 60 10000 0.89 0 11:43 02.02.2021
3003 Clouds -7 1003 55 10000 0.45 103 11:21 02.02.2021
3004 Clouds -8 1003 56 10000 0.45 143 10:53 02.02.2021
3005 Clouds -8 1003 56 10000 0.45 131 10:27 02.02.2021
3006 Clouds -9 1002 58 10000 0.89 107 09:46 02.02.2021
3007 Clouds -10 993 79 10000 1.93 354 09:25 02.02.2021
3008 Clouds -10 1002 60 10000 0.45 134 08:48 02.02.2021
3009 Clouds -11 993 78 10000 1.8 354 08:22 02.02.2021
3010 Clouds -12 1006 91 10000 1.8 358 07:28 02.02.2021
3011 Clouds -12 992 78 10000 1.72 0 06:42 02.02.2021
3012 Clouds -12 992 78 10000 1.8 1 05:53 02.02.2021
3013 Clouds -12 992 73 10000 1.81 358 04:37 02.02.2021
3014 Clouds -9 1002 73 10000 1.63 2 02:26 02.02.2021
3015 Clouds -9 1002 74 10000 1.63 3 01:46 02.02.2021
3016 Clouds -9 986 1 10000 1.41 1 00:34 02.02.2021
3017 Clouds -10 1002 77 10000 1.35 3 23:19 01.02.2021
3018 Clouds -10 1001 78 10000 1.35 3 22:50 01.02.2021
3019 Clouds -9 980 63 10000 1.4 1 22:32 01.02.2021
3020 Clouds -10 980 62 10000 1.4 0 21:49 01.02.2021
3021 Clouds -10 980 62 10000 1.4 1 21:30 01.02.2021
3022 Clear -10 980 62 10000 1.5 4 21:30 01.02.2021
3023 Clear -10 980 62 10000 1.5 4 20:56 01.02.2021
3024 Clear -10 980 62 10000 1.5 4 20:36 01.02.2021
3025 Clouds -10 980 62 10000 1.42 6 20:18 01.02.2021
3026 Clouds -9 979 61 10000 1.43 6 19:38 01.02.2021
3027 Clouds -9 979 61 10000 0.45 318 19:18 01.02.2021
3028 Clouds -9 979 61 10000 1.47 357 18:46 01.02.2021
3029 Clouds -8 1000 80 10000 1.27 359 18:26 01.02.2021
3030 Clouds -8 1000 80 10000 1.27 359 17:47 01.02.2021
3031 Clouds -8 1000 80 10000 0.87 29 17:23 01.02.2021
3032 Clouds -8 999 70 10000 0.87 29 16:46 01.02.2021
3033 Clouds -8 999 70 10000 0.91 24 16:28 01.02.2021
3034 Clouds -7 999 70 10000 0.91 24 15:42 01.02.2021
3035 Clouds -6 978 59 10000 0.45 272 15:19 01.02.2021
3036 Clouds -5 978 59 10000 0.95 7 14:52 01.02.2021
3037 Clouds -6 978 58 10000 1.1 5 14:27 01.02.2021
3038 Clouds -6 978 55 10000 1.1 5 13:47 01.02.2021
3039 Clouds -7 1000 83 10000 1.14 13 13:26 01.02.2021
3040 Clouds -7 1000 83 10000 1.14 13 13:26 01.02.2021
3041 Clouds -7 1000 83 10000 1.08 9 12:45 01.02.2021
3042 Clouds -7 1000 83 10000 1.08 9 12:45 01.02.2021
3043 Clouds -7 1000 83 10000 1.09 0 12:25 01.02.2021
3044 Clouds -8 998 83 10000 1.09 1 11:51 01.02.2021
3045 Clouds -8 998 83 10000 1.14 358 11:22 01.02.2021
3046 Clouds -9 982 1 10000 1.13 359 10:53 01.02.2021
3047 Clouds -8 976 61 10000 1.25 2 10:27 01.02.2021
3048 Clouds -10 997 88 10000 1.25 2 09:56 01.02.2021
3049 Clouds -9 976 62 10000 0.45 315 09:36 01.02.2021
3050 Clouds -9 976 63 10000 1.26 6 08:56 01.02.2021
3051 Clouds -9 976 63 10000 1.29 5 08:27 01.02.2021
3052 Clouds -9 975 64 10000 1.29 5 07:34 01.02.2021
3053 Clouds -9 975 65 10000 1.6 5 05:27 01.02.2021
3054 Clouds -9 974 64 10000 1.19 358 02:40 01.02.2021
3055 Clouds -9 975 65 10000 1.31 2 00:26 01.02.2021
3056 Clouds -9 975 65 10000 1.13 4 23:28 31.01.2021
3057 Clouds -8 975 66 10000 1.13 4 22:41 31.01.2021
3058 Clear -8 974 66 10000 1.18 358 22:23 31.01.2021
3059 Clear -8 975 67 10000 1.18 359 21:47 31.01.2021
3060 Clear -8 974 67 10000 1.2 357 21:21 31.01.2021
3061 Clear -8 974 68 10000 1.2 357 20:46 31.01.2021
3062 Clear -8 974 68 10000 1.08 343 20:21 31.01.2021
3063 Clear -8 974 67 10000 1.08 343 19:43 31.01.2021
3064 Clear -8 995 72 10000 0.93 319 19:24 31.01.2021
3065 Clear -8 995 72 10000 0.93 319 18:58 31.01.2021
3066 Clear -7 974 63 10000 0.94 319 18:40 31.01.2021
3067 Clear -8 974 60 10000 1.02 324 18:19 31.01.2021
3068 Clear -8 974 60 10000 1.01 324 17:45 31.01.2021
3069 Clear -8 974 57 10000 1.03 337 17:23 31.01.2021
3070 Clear -8 995 72 10000 1.03 337 16:47 31.01.2021
3071 Clear -8 994 86 10000 0.83 316 16:28 31.01.2021
3072 Clear -7 995 86 10000 0.83 316 15:51 31.01.2021
3073 Clear -7 979 45 10000 0.83 316 15:32 31.01.2021
3074 Clear -5 995 70 10000 0.88 291 14:42 31.01.2021
3075 Clear -5 995 70 10000 0.97 291 14:22 31.01.2021
3076 Clear -6 995 70 10000 0.97 292 13:52 31.01.2021
3077 Clear -7 980 1 10000 0.97 292 13:52 31.01.2021
3078 Clear -7 980 1 10000 0.45 142 13:34 31.01.2021
3079 Clear -7 980 1 10000 1.04 290 12:48 31.01.2021
3080 Clear -8 995 84 10000 1.12 298 12:22 31.01.2021
3081 Clear -8 980 1 10000 1.13 298 11:44 31.01.2021
3082 Clear -8 980 1 10000 1.13 298 11:44 31.01.2021
3083 Clear -9 995 76 10000 1.33 319 11:22 31.01.2021
3084 Clear -10 995 76 10000 1.32 318 10:49 31.01.2021
3085 Clear -9 995 76 10000 1.32 318 10:31 31.01.2021
3086 Clear -10 975 66 10000 0.45 90 09:50 31.01.2021
3087 Clear -11 975 65 10000 1.56 321 09:23 31.01.2021
3088 Clear -11 975 64 10000 1.56 321 08:33 31.01.2021
3089 Clouds -10 974 65 10000 1.58 321 06:56 31.01.2021
3090 Snow -10 974 66 10000 1.62 323 05:31 31.01.2021
3091 Clouds -10 975 65 10000 1.54 325 00:46 31.01.2021
3092 Clear -10 976 65 10000 1.37 316 00:21 31.01.2021
3093 Clear -9 976 64 10000 1.37 316 23:30 30.01.2021
3094 Clear -9 976 64 10000 1.33 312 22:56 30.01.2021
3095 Clear -10 976 64 10000 1.25 307 22:29 30.01.2021
3096 Snow -9 976 63 10000 1.26 307 21:40 30.01.2021
3097 Clear -9 976 62 10000 1.35 323 21:21 30.01.2021
3098 Clear -10 976 62 10000 1.35 323 20:46 30.01.2021
3099 Clear -9 976 61 10000 1.35 317 20:27 30.01.2021
3100 Clear -9 976 61 10000 1.35 317 19:44 30.01.2021
3101 Clear -9 976 61 10000 1.07 325 19:25 30.01.2021
3102 Clear -9 976 60 10000 1.18 322 18:42 30.01.2021
3103 Clear -9 976 59 10000 1.43 334 18:22 30.01.2021
3104 Clear -9 976 58 10000 1.44 334 17:59 30.01.2021
3105 Clear -9 976 54 10000 1.34 327 17:20 30.01.2021
3106 Clear -9 998 73 10000 1.34 327 16:47 30.01.2021
3107 Clear -8 976 51 10000 1.12 313 16:25 30.01.2021
3108 Clear -8 976 50 10000 1.12 313 15:57 30.01.2021
3109 Clear -8 998 73 10000 1.12 313 15:39 30.01.2021
3110 Clear -7 998 73 10000 0.96 297 15:20 30.01.2021
3111 Clear -7 998 73 10000 0.96 297 14:50 30.01.2021
3112 Clear -7 998 73 10000 1.04 302 14:22 30.01.2021
3113 Clear -8 998 73 10000 1.04 302 13:33 30.01.2021
3114 Clear -8 982 1 10000 0.45 133 12:49 30.01.2021
3115 Clear -9 998 74 10000 1.02 297 12:29 30.01.2021
3116 Clear -9 998 77 10000 1.02 297 11:59 30.01.2021
3117 Clear -10 982 1 10000 1.02 297 11:31 30.01.2021
3118 Fog -12 999 92 1600 0.51 0 10:48 30.01.2021
3119 Clear -12 977 64 10000 1.22 315 09:52 30.01.2021
3120 Snow -13 977 63 10000 1.22 315 09:30 30.01.2021
3121 Clear -12 977 63 10000 1.2 321 08:47 30.01.2021
3122 Clear -13 977 64 10000 1.19 328 08:25 30.01.2021
3123 Clear -12 978 65 10000 1.11 310 06:53 30.01.2021
3124 Clear -12 978 64 10000 0.45 90 05:59 30.01.2021
3125 Clear -13 979 62 10000 1.11 318 03:35 30.01.2021
3126 Clear -13 979 59 10000 1.06 322 02:25 30.01.2021
3127 Clear -13 979 59 10000 1.05 323 01:30 30.01.2021
3128 Clear -13 980 58 10000 1.19 317 00:39 30.01.2021
3129 Clear -12 980 58 10000 1.18 317 00:20 30.01.2021
3130 Clear -12 980 58 10000 1.18 317 23:45 29.01.2021
3131 Clear -12 980 58 10000 1.11 323 23:21 29.01.2021
3132 Clear -12 980 58 10000 1.11 323 22:44 29.01.2021
3133 Clear -12 981 58 10000 0.96 327 22:20 29.01.2021
3134 Clear -12 980 58 10000 1.08 324 21:29 29.01.2021
3135 Clear -12 980 58 10000 1.1 324 21:29 29.01.2021
3136 Clear -12 980 57 10000 1.08 324 20:59 29.01.2021
3137 Clear -11 981 57 10000 1.1 324 20:40 29.01.2021
3138 Clear -11 980 57 10000 1.04 319 20:18 29.01.2021
3139 Clear -11 980 54 10000 1.22 326 19:38 29.01.2021
3140 Clear -12 980 55 10000 1.1 337 19:18 29.01.2021
3141 Clear -10 980 55 10000 1.09 337 18:30 29.01.2021
3142 Clear -10 980 51 10000 0.7 345 17:40 29.01.2021
3143 Clear -10 980 51 10000 0.69 346 17:21 29.01.2021
3144 Clear -9 980 48 10000 0.45 45 16:46 29.01.2021
3145 Clear -10 1001 67 10000 0.48 355 16:24 29.01.2021
3146 Clear -10 985 26 10000 0.48 355 15:51 29.01.2021
3147 Clear -8 1004 64 10000 0.56 11 15:31 29.01.2021
3148 Clear -8 1004 64 10000 0.55 13 14:47 29.01.2021
3149 Clear -8 1004 64 10000 0.85 18 14:18 29.01.2021
3150 Clear -8 1004 64 10000 0.85 17 13:41 29.01.2021
3151 Clear -8 1005 64 10000 0.83 0 13:22 29.01.2021
3152 Clear -9 1005 75 10000 0.98 359 12:28 29.01.2021
3153 Clear -10 1005 75 10000 0.98 359 11:50 29.01.2021
3154 Clear -11 1005 75 10000 0.97 357 11:20 29.01.2021
3155 Clear -12 1005 75 10000 0.97 357 10:52 29.01.2021
3156 Clear -12 1005 75 10000 0.97 357 10:33 29.01.2021
3157 Clear -12 980 61 10000 1.1 355 09:49 29.01.2021
3158 Clear -12 980 61 10000 1.26 356 09:28 29.01.2021
3159 Clear -12 980 61 10000 1.26 356 08:46 29.01.2021
3160 Clear -12 980 61 10000 1.14 360 08:22 29.01.2021
3161 Clear -12 980 61 10000 1.14 360 07:42 29.01.2021
3162 Clear -12 980 61 10000 1.19 12 07:20 29.01.2021
3163 Clear -12 980 61 10000 1.09 10 05:38 29.01.2021
3164 Clear -11 980 62 10000 1.03 0 03:50 29.01.2021
3165 Clouds -10 981 62 10000 0.92 6 00:45 29.01.2021
3166 Clouds -10 981 62 10000 1 4 00:22 29.01.2021
3167 Clouds -10 982 62 10000 1 4 23:45 28.01.2021
3168 Clouds -10 982 62 10000 0.74 354 23:26 28.01.2021
3169 Clouds -10 981 62 10000 0.74 354 22:50 28.01.2021
3170 Clouds -10 981 62 10000 0.64 5 22:28 28.01.2021
3171 Clouds -10 981 61 10000 0.64 5 21:59 28.01.2021
3172 Clouds -10 981 61 10000 0.64 5 21:40 28.01.2021
3173 Clouds -10 981 60 10000 0.71 3 21:20 28.01.2021
3174 Clouds -10 981 60 10000 0.71 3 20:40 28.01.2021
3175 Clouds -9 981 60 10000 0.78 346 20:18 28.01.2021
3176 Clear -9 981 60 10000 0.6 335 19:47 28.01.2021
3177 Clear -9 981 59 10000 0.95 3 19:24 28.01.2021
3178 Clear -9 982 57 10000 0.95 3 18:48 28.01.2021
3179 Clear -9 981 55 10000 0.64 21 18:28 28.01.2021
3180 Clear -9 1002 62 10000 0.64 21 17:47 28.01.2021
3181 Clear -9 1002 61 10000 0.52 8 17:29 28.01.2021
3182 Clear -8 1002 60 10000 0.52 8 16:46 28.01.2021
3183 Clear -9 1002 62 10000 0.85 338 16:25 28.01.2021
3184 Clear -8 1002 63 10000 0.86 337 15:56 28.01.2021
3185 Clear -6 1002 62 10000 0.73 299 15:23 28.01.2021
3186 Clear -6 1006 73 10000 0.73 299 14:43 28.01.2021
3187 Clear -6 1006 73 10000 0.57 311 14:23 28.01.2021
3188 Clear -7 1006 73 10000 0.57 311 13:49 28.01.2021
3189 Clear -7 1007 73 10000 0.86 319 13:21 28.01.2021
3190 Clear -7 1007 73 10000 1.01 313 12:46 28.01.2021
3191 Clear -7 1007 73 10000 1.06 331 12:21 28.01.2021
3192 Clear -7 1000 70 10000 1.06 331 11:44 28.01.2021
3193 Clear -7 1000 70 10000 1.23 326 11:21 28.01.2021
3194 Clear -8 1000 70 10000 1.23 326 10:56 28.01.2021
3195 Clear -8 1000 70 10000 1.23 326 10:38 28.01.2021
3196 Clear -10 1003 77 10000 1.49 330 10:20 28.01.2021
3197 Clear -10 982 65 10000 1.49 330 09:34 28.01.2021
3198 Clear -10 982 64 10000 1.6 329 08:58 28.01.2021
3199 Clear -10 982 64 10000 1.59 329 08:39 28.01.2021
3200 Clear -10 982 65 10000 1.63 329 07:48 28.01.2021
3201 Clear -10 983 64 10000 1.64 339 06:51 28.01.2021
3202 Clear -10 982 64 10000 1.61 330 06:32 28.01.2021
3203 Clear -9 983 65 10000 1.64 328 04:30 28.01.2021
3204 Clear -8 983 64 10000 1.76 329 01:41 28.01.2021
3205 Clear -8 983 64 10000 1.76 329 01:41 28.01.2021
3206 Clouds -8 984 65 10000 0.45 90 00:27 28.01.2021
3207 Clouds -7 984 65 10000 1.78 333 23:25 27.01.2021
3208 Clouds -7 984 64 10000 1.78 333 22:44 27.01.2021
3209 Clouds -7 984 64 10000 1.82 331 22:25 27.01.2021
3210 Clouds -7 984 64 10000 1.82 331 21:55 27.01.2021
3211 Clouds -7 984 64 10000 1.83 331 21:37 27.01.2021
3212 Clouds -7 984 64 10000 1.86 333 21:19 27.01.2021
3213 Clouds -7 984 64 10000 1.86 333 20:39 27.01.2021
3214 Clear -7 984 62 10000 1.81 335 19:57 27.01.2021
3215 Clear -7 984 62 10000 1.81 335 19:37 27.01.2021
3216 Clear -7 984 62 10000 1.79 339 19:18 27.01.2021
3217 Clear -8 1005 70 10000 1.8 339 18:41 27.01.2021
3218 Clear -8 1004 70 10000 1.73 334 18:22 27.01.2021
3219 Clear -7 984 60 10000 1.74 334 17:44 27.01.2021
3220 Clear -8 1005 68 10000 1.64 329 17:18 27.01.2021
3221 Clear -8 1005 68 10000 1.64 329 17:18 27.01.2021
3222 Clear -7 989 1 10000 1.65 329 16:45 27.01.2021
3223 Clear -7 1005 66 10000 1.46 322 16:27 27.01.2021
3224 Clear -6 1005 65 10000 1.46 322 15:50 27.01.2021
3225 Clear -4 1006 80 10000 1.28 320 15:30 27.01.2021
3226 Clear -3 1006 80 10000 1.27 320 14:42 27.01.2021
3227 Clouds -4 1006 80 10000 1.41 322 14:21 27.01.2021
3228 Clouds -5 1006 85 10000 1.41 322 13:43 27.01.2021
3229 Clear -6 1006 85 10000 1.39 324 12:48 27.01.2021
3230 Clear -6 1006 85 10000 1.33 329 12:26 27.01.2021
3231 Clear -6 1006 85 10000 1.33 329 11:55 27.01.2021
3232 Clear -7 1006 85 10000 1.36 325 11:36 27.01.2021
3233 Clear -7 1006 85 10000 1.34 326 11:18 27.01.2021
3234 Clear -9 1006 85 10000 1.34 326 10:36 27.01.2021
3235 Clear -9 1006 85 10000 1.44 327 10:18 27.01.2021
3236 Clear -10 985 64 10000 1.44 327 09:36 27.01.2021
3237 Clear -11 985 64 10000 1.51 329 08:48 27.01.2021
3238 Clear -11 984 64 10000 1.49 324 07:59 27.01.2021
3239 Clear -11 985 64 10000 1.47 324 07:40 27.01.2021
3240 Clear -10 985 64 10000 1.39 329 06:49 27.01.2021
3241 Clear -10 985 64 10000 1.41 335 05:58 27.01.2021
3242 Clear -10 985 64 10000 1.41 335 05:35 27.01.2021
3243 Clear -10 985 65 10000 1.35 347 02:46 27.01.2021
3244 Clear -9 986 65 10000 1.33 346 02:21 27.01.2021
3245 Clear -9 985 65 10000 1.33 346 01:47 27.01.2021
3246 Clouds -9 985 65 10000 1.11 354 00:30 27.01.2021
3247 Clouds -9 986 64 10000 1.01 355 23:44 26.01.2021
3248 Clear -8 986 64 10000 1.08 354 23:22 26.01.2021
3249 Clear -8 986 64 10000 1.08 354 22:46 26.01.2021
3250 Clear -8 986 63 10000 1.04 343 22:20 26.01.2021
3251 Clear -8 986 63 10000 1.03 343 21:53 26.01.2021
3252 Clear -8 986 63 10000 0.95 344 21:27 26.01.2021
3253 Clear -8 986 63 10000 0.96 344 20:58 26.01.2021
3254 Clear -7 986 63 10000 0.95 344 20:38 26.01.2021
3255 Clear -7 986 63 10000 0.94 360 20:20 26.01.2021
3256 Clear -7 986 62 10000 0.95 359 19:43 26.01.2021
3257 Clear -7 986 61 10000 1.14 337 19:20 26.01.2021
3258 Clear -7 986 61 10000 1.14 337 18:46 26.01.2021
3259 Clear -7 986 61 10000 0.99 326 18:24 26.01.2021
3260 Clear -7 986 61 10000 1.01 326 18:24 26.01.2021
3261 Clear -7 986 60 10000 0.99 326 17:49 26.01.2021
3262 Clear -7 986 58 10000 0.89 325 17:27 26.01.2021
3263 Clear -8 1007 63 10000 0.89 325 16:55 26.01.2021
3264 Clear -6 1006 62 10000 0.81 326 16:37 26.01.2021
3265 Clear -6 1006 62 10000 0.79 327 16:18 26.01.2021
3266 Clear -5 1006 62 10000 0.81 326 15:40 26.01.2021
3267 Clear -5 1006 62 10000 0.76 318 15:19 26.01.2021
3268 Clear -4 1006 62 10000 0.76 318 14:35 26.01.2021
3269 Clear -4 1006 62 10000 0.76 318 14:35 26.01.2021
3270 Clear -4 1006 62 10000 0.72 318 13:59 26.01.2021
3271 Clear -5 1006 62 10000 0.7 318 13:33 26.01.2021
3272 Clear -6 1006 74 10000 0.88 309 12:57 26.01.2021
3273 Clear -6 1006 74 10000 0.91 306 12:38 26.01.2021
3274 Clear -6 1006 74 10000 0.89 305 12:19 26.01.2021
3275 Clear -7 1006 74 10000 0.89 305 11:49 26.01.2021
3276 Clear -7 1006 74 10000 0.97 326 11:19 26.01.2021
3277 Clear -7 1006 78 10000 0.98 325 10:34 26.01.2021
3278 Clear -9 985 68 10000 1.23 324 09:57 26.01.2021
3279 Clear -9 985 68 10000 1.23 324 09:39 26.01.2021
3280 Clear -9 985 68 10000 1.39 319 09:21 26.01.2021
3281 Clear -9 985 68 10000 1.39 319 08:44 26.01.2021
3282 Clear -9 984 68 10000 1.44 318 07:56 26.01.2021
3283 Clear -9 984 68 10000 1.26 317 06:58 26.01.2021
3284 Clear -9 984 68 10000 1.27 326 05:51 26.01.2021
3285 Clear -8 984 68 10000 1.27 326 05:32 26.01.2021
3286 Clear -8 982 68 10000 1.56 321 03:32 26.01.2021
3287 Clouds -8 982 67 10000 1.55 330 00:59 26.01.2021
3288 Clouds -8 982 67 10000 1.46 321 00:24 26.01.2021
3289 Clouds -8 981 67 10000 1.34 320 23:31 25.01.2021
3290 Clouds -7 981 67 10000 1.34 321 22:47 25.01.2021
3291 Clouds -7 981 67 10000 1.2 326 22:29 25.01.2021
3292 Clouds -7 981 67 10000 1.2 325 21:45 25.01.2021
3293 Clouds -7 980 67 10000 1.19 327 21:18 25.01.2021
3294 Clouds -7 980 67 10000 1.19 327 20:41 25.01.2021
3295 Clouds -7 980 67 10000 1.25 318 20:23 25.01.2021
3296 Clouds -7 980 67 10000 1.25 318 19:47 25.01.2021
3297 Clouds -7 980 67 10000 1.25 318 19:47 25.01.2021
3298 Clouds -7 980 67 10000 1.25 318 19:47 25.01.2021
3299 Clouds -6 979 66 10000 1.13 322 19:23 25.01.2021
3300 Clouds -6 980 65 10000 1.06 322 18:45 25.01.2021
3301 Clouds -6 979 65 10000 1.22 329 18:24 25.01.2021
3302 Clouds -7 979 65 10000 1.22 329 17:49 25.01.2021
3303 Clouds -7 979 64 10000 1.25 330 17:25 25.01.2021
3304 Clouds -6 979 63 10000 0.45 312 16:49 25.01.2021
3305 Clouds -6 979 63 10000 1.15 328 16:26 25.01.2021
3306 Clouds -5 979 63 10000 0.45 313 15:55 25.01.2021
3307 Clouds -5 979 63 10000 0.45 272 15:36 25.01.2021
3308 Clouds -5 979 63 10000 1.25 327 14:59 25.01.2021
3309 Clouds -4 979 63 10000 0.45 227 14:38 25.01.2021
3310 Clouds -4 978 62 10000 0.45 270 14:18 25.01.2021
3311 Clouds -4 978 61 10000 0.45 357 13:43 25.01.2021
3312 Clouds -5 978 55 10000 0.45 315 13:20 25.01.2021
3313 Clouds -5 997 65 10000 1.42 338 12:41 25.01.2021
3314 Clouds -5 997 65 10000 1.4 343 12:18 25.01.2021
3315 Clouds -4 997 65 10000 1.51 343 11:29 25.01.2021
3316 Clouds -4 977 63 10000 0.89 90 10:52 25.01.2021
3317 Clouds -4 977 64 10000 0.45 90 10:22 25.01.2021
3318 Clouds -4 977 61 10000 0.45 90 09:53 25.01.2021
3319 Clouds -4 997 65 10000 1.52 340 09:30 25.01.2021
3320 Clouds -5 981 1 10000 1.52 340 08:38 25.01.2021
3321 Clouds -4 976 71 10000 0.45 90 07:58 25.01.2021
3322 Clouds -4 997 59 10000 1.58 331 07:29 25.01.2021
3323 Clouds -4 996 58 10000 0.89 132 06:38 25.01.2021
3324 Clouds -3 980 1 10000 1.52 344 02:32 25.01.2021
3325 Clouds -4 994 65 10000 0.45 140 00:42 25.01.2021
3326 Clouds -2 995 64 1708 0.89 131 23:38 24.01.2021
3327 Clouds -2 995 63 1149 0.89 128 23:18 24.01.2021
3328 Clouds -2 994 78 1149 1.69 336 22:40 24.01.2021
3329 Clouds -1 975 77 528 0.45 90 22:18 24.01.2021
3330 Clouds -1 975 77 1606 1.36 336 21:37 24.01.2021
3331 Clouds -1 975 77 1606 0.45 90 21:18 24.01.2021
3332 Clouds -2 994 78 1606 1.36 336 20:41 24.01.2021
3333 Clouds -1 975 77 696 1.42 340 20:19 24.01.2021
3334 Clouds -1 974 77 696 1.42 340 19:48 24.01.2021
3335 Clouds -1 975 77 1324 1.31 340 19:25 24.01.2021
3336 Clouds -1 974 78 1325 1.31 340 18:56 24.01.2021
3337 Clouds -1 974 78 1325 1.31 340 18:56 24.01.2021
3338 Clouds -1 974 78 1042 1.19 340 18:37 24.01.2021
3339 Clouds -1 974 78 1666 1.02 341 18:18 24.01.2021
3340 Clouds -1 974 79 1666 1.02 341 17:45 24.01.2021
3341 Clouds -1 974 79 10000 1.16 341 17:20 24.01.2021
3342 Clouds -1 974 78 10000 1.15 342 16:42 24.01.2021
3343 Clouds -1 974 79 10000 1.03 337 16:21 24.01.2021
3344 Clouds -1 974 79 10000 1.01 338 15:48 24.01.2021
3345 Clouds -1 974 79 10000 0.91 333 15:21 24.01.2021
3346 Clouds -1 973 79 10000 0.93 334 14:58 24.01.2021
3347 Clouds -1 973 78 10000 0.91 333 14:36 24.01.2021
3348 Clouds 0 973 77 10000 0.74 332 13:40 24.01.2021
3349 Clouds 0 973 74 10000 0.73 334 13:20 24.01.2021
3350 Clouds -1 992 82 10000 0.73 334 12:42 24.01.2021
3351 Clouds -1 992 82 3433 1.01 323 12:19 24.01.2021
3352 Clouds 0 973 80 3433 1.01 323 11:49 24.01.2021
3353 Clouds -1 992 82 10000 1.04 317 11:23 24.01.2021
3354 Clouds -1 992 82 10000 1.04 317 10:42 24.01.2021
3355 Clouds -1 972 81 10000 1.13 325 09:59 24.01.2021
3356 Clouds -1 992 92 5737 1 323 09:22 24.01.2021
3357 Clouds -1 992 92 5737 1 323 08:52 24.01.2021
3358 Clouds -1 971 82 1719 0.72 310 07:41 24.01.2021
3359 Clouds -1 970 81 10000 0.57 282 02:39 24.01.2021
3360 Clouds -1 970 79 10000 0.45 217 01:00 24.01.2021
3361 Clouds -1 970 78 10000 0.68 210 00:24 24.01.2021
3362 Clouds -1 969 76 10000 0.45 90 23:47 23.01.2021
3363 Clouds -2 969 76 10000 0.45 90 23:26 23.01.2021
3364 Clouds -2 969 76 10000 0.45 90 23:26 23.01.2021
3365 Clouds -2 969 77 10000 0.88 213 22:51 23.01.2021
3366 Clouds -2 969 77 10000 0.45 90 22:32 23.01.2021
3367 Clouds -1 969 77 10000 0.45 90 21:51 23.01.2021
3368 Clouds -1 969 77 10000 1.55 182 21:22 23.01.2021
3369 Clouds -1 969 76 10000 0.45 90 20:47 23.01.2021
3370 Clouds -1 969 75 10000 0.45 90 20:24 23.01.2021
3371 Clouds -1 986 88 10000 1.57 184 19:46 23.01.2021
3372 Clouds 0 969 74 10000 0.45 90 19:22 23.01.2021
3373 Clouds 0 968 72 10000 0.89 90 18:49 23.01.2021
3374 Clouds 0 968 70 10000 0.45 90 18:26 23.01.2021
3375 Clouds 0 968 70 10000 2.25 191 17:48 23.01.2021
3376 Clouds 0 968 70 10000 1.34 90 17:27 23.01.2021
3377 Clouds 1 968 68 10000 1.34 90 16:49 23.01.2021
3378 Clouds 1 968 66 10000 0.89 90 16:28 23.01.2021
3379 Clouds 2 971 56 10000 0.45 169 15:41 23.01.2021
3380 Clouds 2 967 62 10000 1.34 269 15:22 23.01.2021
3381 Clear 3 966 62 10000 1.79 88 14:33 23.01.2021
3382 Clear 3 966 62 10000 0.89 181 13:55 23.01.2021
3383 Clear 3 966 62 10000 0.89 180 13:36 23.01.2021
3384 Clouds 3 985 68 10000 5.31 213 12:57 23.01.2021
3385 Clouds 3 985 68 10000 5.33 214 12:29 23.01.2021
3386 Clouds 3 985 68 10000 1.79 143 11:48 23.01.2021
3387 Clouds 3 985 68 10000 1.79 143 11:28 23.01.2021
3388 Clouds 3 981 90 10000 5.29 216 10:52 23.01.2021
3389 Clouds 3 963 71 10000 0.89 226 10:21 23.01.2021
3390 Clouds 2 963 72 10000 1.34 90 09:48 23.01.2021
3391 Clouds 2 961 73 10000 0.89 90 08:56 23.01.2021
3392 Clouds 2 961 72 10000 1.34 161 08:31 23.01.2021
3393 Clouds 3 960 71 10000 0.89 90 07:31 23.01.2021
3394 Clouds 2 956 86 9219 0.45 178 03:41 23.01.2021
3395 Clouds 1 953 85 3505 0.76 248 00:54 23.01.2021
3396 Clouds 2 952 85 7942 0.45 135 23:51 22.01.2021
3397 Clouds 2 952 85 7942 0.85 237 23:30 22.01.2021
3398 Clouds 1 951 85 7572 0.45 183 22:39 22.01.2021
3399 Clouds 1 950 85 5063 0.45 181 21:47 22.01.2021
3400 Clouds 1 950 85 3812 0.45 174 21:29 22.01.2021
3401 Clouds 2 950 85 3812 0.89 319 20:59 22.01.2021
3402 Snow 2 949 85 3076 0.45 180 20:38 22.01.2021
3403 Clouds 2 949 84 3076 0.89 137 19:56 22.01.2021
3404 Clouds 2 948 84 8469 0.89 137 19:26 22.01.2021
3405 Clouds 2 948 83 8469 1.34 269 18:59 22.01.2021
3406 Clouds 2 948 83 8336 0.89 157 18:40 22.01.2021
3407 Clouds 2 948 83 1557 2.24 90 18:21 22.01.2021
3408 Clouds 2 948 82 1557 1.79 183 17:43 22.01.2021
3409 Clouds 2 948 82 50 0.45 90 17:24 22.01.2021
3410 Clouds 2 948 82 50 0.89 90 16:44 22.01.2021
3411 Clouds 2 948 82 44 1.34 90 16:23 22.01.2021
3412 Rain 2 948 81 220 1.34 135 15:29 22.01.2021
3413 Rain 3 949 80 225 1.34 90 14:58 22.01.2021
3414 Rain 3 949 80 2211 1.34 90 14:30 22.01.2021
3415 Clouds 3 949 81 2211 2.68 183 13:47 22.01.2021
3416 Clouds 3 950 81 1196 1.34 270 13:28 22.01.2021
3417 Rain 3 950 81 1196 1.34 90 12:46 22.01.2021
3418 Clouds 3 950 81 6012 1.34 90 12:22 22.01.2021
3419 Clouds 3 950 80 6012 1.79 90 11:46 22.01.2021
3420 Clouds 3 951 80 5524 1.34 184 10:56 22.01.2021
3421 Clouds 3 951 80 9847 1.34 175 10:35 22.01.2021
3422 Clouds 3 950 80 9975 1.79 134 09:59 22.01.2021
3423 Rain 3 951 80 7766 1.34 90 09:29 22.01.2021
3424 Clouds 3 951 79 7766 2.68 90 08:50 22.01.2021
3425 Clouds 4 951 78 5010 2.24 86 08:27 22.01.2021
3426 Clouds 4 951 76 5010 2.24 317 07:34 22.01.2021
3427 Clouds 3 950 82 10000 2.24 315 03:38 22.01.2021
3428 Rain 3 950 82 215 3.13 266 00:39 22.01.2021
3429 Rain 3 950 83 110 1.79 228 23:52 21.01.2021
3430 Rain 3 950 83 110 3.13 225 23:32 21.01.2021
3431 Rain 2 950 82 6694 4.02 271 22:53 21.01.2021
3432 Rain 2 950 82 6694 3.13 135 22:35 21.01.2021
3433 Rain 2 951 82 295 2.68 182 21:44 21.01.2021
3434 Rain 2 951 82 4469 2.68 131 21:22 21.01.2021
3435 Rain 2 951 81 4469 2.24 90 20:51 21.01.2021
3436 Rain 2 951 81 1279 3.13 244 20:31 21.01.2021
3437 Snow 2 952 83 1281 2.68 135 19:52 21.01.2021
3438 Rain 2 952 83 1281 2.24 90 19:30 21.01.2021
3439 Rain 2 952 83 76 1.34 183 18:59 21.01.2021
3440 Rain 2 953 82 76 2.24 134 18:40 21.01.2021
3441 Clouds 2 953 82 452 1.79 90 18:20 21.01.2021
3442 Clouds 2 953 81 458 2.68 88 17:51 21.01.2021
3443 Clouds 3 953 81 583 2.24 89 17:21 21.01.2021
3444 Clouds 3 952 81 583 1.79 90 16:49 21.01.2021
3445 Clouds 3 953 81 169 2.24 47 16:27 21.01.2021
3446 Rain 3 952 82 169 3.13 90 15:59 21.01.2021
3447 Rain 3 952 82 169 3.13 90 15:59 21.01.2021
3448 Clouds 4 952 82 2544 1.79 176 15:35 21.01.2021
3449 Clouds 3 952 84 2490 1.34 87 14:54 21.01.2021
3450 Rain 3 952 82 188 2.24 93 14:35 21.01.2021
3451 Rain 3 953 84 177 2.24 228 13:52 21.01.2021
3452 Rain 3 953 84 177 2.24 48 13:33 21.01.2021
3453 Rain 3 953 85 189 1.79 225 12:58 21.01.2021
3454 Rain 3 954 85 170 1.34 89 12:39 21.01.2021
3455 Rain 3 954 86 170 0.89 90 12:20 21.01.2021
3456 Rain 3 955 86 170 1.34 94 11:48 21.01.2021
3457 Rain 3 956 86 150 2.24 266 11:25 21.01.2021
3458 Rain 3 956 86 150 2.24 290 10:51 21.01.2021
3459 Rain 3 956 86 150 1.34 93 10:30 21.01.2021
3460 Rain 3 957 86 199 1.79 90 09:44 21.01.2021
3461 Rain 3 957 86 205 2.24 226 09:25 21.01.2021
3462 Rain 3 958 86 180 1.34 180 08:44 21.01.2021
3463 Rain 3 958 86 180 2.24 311 08:23 21.01.2021
3464 Rain 3 958 87 175 1.34 265 07:27 21.01.2021
3465 Rain 3 958 88 175 1.34 181 06:53 21.01.2021
3466 Rain 3 959 87 122 1.34 136 05:21 21.01.2021
3467 Rain 1 960 83 299 0.45 223 02:31 21.01.2021
3468 Snow 1 962 82 343 0.45 88 00:51 21.01.2021
3469 Snow 1 962 82 722 0.45 227 23:53 20.01.2021
3470 Snow 1 962 82 722 0.45 272 23:32 20.01.2021
3471 Snow 0 963 82 489 0.45 128 22:58 20.01.2021
3472 Snow 0 963 82 489 0.45 312 22:37 20.01.2021
3473 Clouds 0 963 82 140 0.45 271 21:58 20.01.2021
3474 Clouds 0 963 82 140 0.45 45 21:58 20.01.2021
3475 Clouds 0 963 82 140 0.45 294 21:40 20.01.2021
3476 Clouds 0 963 82 118 0.45 313 21:19 20.01.2021
3477 Clouds 0 964 82 118 1.43 55 20:38 20.01.2021
3478 Rain 0 964 82 87 0.45 270 20:18 20.01.2021
3479 Rain 0 964 82 87 0.89 90 19:42 20.01.2021
3480 Rain 0 964 81 61 0.89 317 19:23 20.01.2021
3481 Rain 0 965 81 64 0.45 291 18:42 20.01.2021
3482 Snow 1 965 81 55 0.45 273 17:57 20.01.2021
3483 Snow 1 965 81 55 0.45 358 17:39 20.01.2021
3484 Snow 1 965 81 105 0.45 45 16:59 20.01.2021
3485 Snow 1 965 81 105 0.45 310 16:41 20.01.2021
3486 Snow 1 966 81 60 0.89 318 15:52 20.01.2021
3487 Snow 1 966 81 58 0.45 335 15:34 20.01.2021
3488 Snow 1 967 81 58 0.89 270 14:51 20.01.2021
3489 Snow 1 968 81 71 0.89 270 14:24 20.01.2021
3490 Snow 1 968 81 71 0.45 358 13:48 20.01.2021
3491 Snow 1 968 81 88 0.45 314 13:26 20.01.2021
3492 Snow 0 969 81 127 1.34 93 12:45 20.01.2021
3493 Snow 0 969 81 118 0.45 3 12:20 20.01.2021
3494 Snow 0 970 81 118 0.89 253 11:39 20.01.2021
3495 Snow 0 971 81 163 0.45 90 10:56 20.01.2021
3496 Snow 0 971 81 163 0.45 270 10:34 20.01.2021
3497 Snow 0 972 81 305 0.45 274 09:55 20.01.2021
3498 Snow 0 972 81 311 0.89 100 09:30 20.01.2021
3499 Snow 0 972 81 312 0.45 291 08:58 20.01.2021
3500 Snow 0 972 81 161 0.45 0 08:33 20.01.2021
3501 Snow 0 973 81 161 0.45 357 07:59 20.01.2021
3502 Snow 0 973 81 159 0.45 270 07:37 20.01.2021
3503 Snow 0 973 81 181 0.45 314 06:39 20.01.2021
3504 Snow 0 975 81 90 2.06 50 03:30 20.01.2021
3505 Snow 0 975 81 77 1.9 53 01:50 20.01.2021
3506 Snow 0 976 81 82 0.45 338 00:47 20.01.2021
3507 Snow 0 976 81 101 0.45 42 23:50 19.01.2021
3508 Snow 0 976 81 126 0.45 270 23:27 19.01.2021
3509 Snow 0 976 81 126 0.45 43 22:57 19.01.2021
3510 Snow 0 976 81 126 0.45 313 22:37 19.01.2021
3511 Snow 0 976 81 228 0.45 90 22:19 19.01.2021
3512 Snow 0 976 81 228 0.45 265 21:51 19.01.2021
3513 Snow 0 976 81 117 0.45 313 21:27 19.01.2021
3514 Snow 0 976 81 117 0.45 223 20:47 19.01.2021
3515 Snow 0 976 81 104 0.45 313 20:24 19.01.2021
3516 Snow 0 976 81 104 0.45 268 19:54 19.01.2021
3517 Snow 0 976 81 94 0.45 315 19:29 19.01.2021
3518 Snow 0 976 80 84 0.45 268 18:49 19.01.2021
3519 Snow 0 976 80 96 0.45 309 18:30 19.01.2021
3520 Snow 0 976 80 97 0.45 293 17:47 19.01.2021
3521 Snow 0 976 80 100 0.45 357 17:29 19.01.2021
3522 Snow 0 977 80 100 0.45 270 16:50 19.01.2021
3523 Snow 0 977 80 96 0.45 318 16:31 19.01.2021
3524 Snow 0 977 79 96 1.81 60 15:59 19.01.2021
3525 Snow 0 977 78 96 0.45 45 15:40 19.01.2021
3526 Snow 0 977 78 103 0.45 92 15:19 19.01.2021
3527 Snow 0 977 78 104 1.61 58 14:41 19.01.2021
3528 Snow 0 977 78 111 1.12 49 14:22 19.01.2021
3529 Snow 0 978 79 111 1.12 49 13:41 19.01.2021
3530 Snow 0 978 79 124 0.45 90 13:21 19.01.2021
3531 Snow 0 978 80 124 0.81 36 12:48 19.01.2021
3532 Snow 0 978 80 111 0.45 90 12:29 19.01.2021
3533 Clouds -1 978 80 111 1.53 10 11:43 19.01.2021
3534 Clouds -1 979 80 650 1.86 358 11:24 19.01.2021
3535 Snow -1 978 80 650 1.86 358 10:51 19.01.2021
3536 Snow -1 979 80 650 1.86 358 10:31 19.01.2021
3537 Clouds -1 979 80 1314 0.45 90 09:53 19.01.2021
3538 Snow -1 979 80 793 0.45 90 09:30 19.01.2021
3539 Snow -1 979 80 762 1.23 353 08:56 19.01.2021
3540 Snow -1 979 80 164 0.45 90 08:24 19.01.2021
3541 Snow -1 979 80 164 1.37 4 07:47 19.01.2021
3542 Snow -2 979 80 200 0.45 270 06:50 19.01.2021
3543 Snow -2 981 80 115 0.45 355 02:31 19.01.2021
3544 Snow -2 983 81 102 0.45 315 00:55 19.01.2021
3545 Snow -2 983 81 116 1.32 45 23:58 18.01.2021
3546 Snow -2 983 81 117 1.07 53 23:32 18.01.2021
3547 Snow -2 983 81 117 0.45 270 22:51 18.01.2021
3548 Snow -2 984 81 114 0.92 56 22:26 18.01.2021
3549 Snow -2 984 81 114 0.45 90 21:55 18.01.2021
3550 Snow -2 984 81 114 0.45 91 21:37 18.01.2021
3551 Snow -2 984 81 119 0.89 180 21:19 18.01.2021
3552 Snow -2 984 81 119 0.45 270 20:42 18.01.2021
3553 Snow -2 984 81 118 0.89 201 20:22 18.01.2021
3554 Snow -2 984 81 118 0.45 137 19:48 18.01.2021
3555 Snow -2 984 81 118 0.45 132 19:30 18.01.2021
3556 Snow -2 984 80 260 1.19 32 18:47 18.01.2021
3557 Clouds -3 1007 74 770 1.17 24 18:22 18.01.2021
3558 Clouds -3 1007 74 791 1.17 25 17:44 18.01.2021
3559 Clouds -4 1005 87 2845 0.83 23 17:21 18.01.2021
3560 Clouds -4 1006 85 2840 0.85 21 16:46 18.01.2021
3561 Clouds -4 1006 85 6221 0.97 42 16:20 18.01.2021
3562 Clouds -4 1007 84 6221 0.97 42 15:45 18.01.2021
3563 Clouds -4 1006 83 2165 0.79 38 15:25 18.01.2021
3564 Clouds -4 1007 80 2148 0.79 39 14:44 18.01.2021
3565 Clouds -4 1006 80 1253 0.51 44 14:26 18.01.2021
3566 Clouds -4 1007 79 1253 0.51 44 13:47 18.01.2021
3567 Clouds -4 1007 79 810 0.66 55 13:27 18.01.2021
3568 Clouds -4 1009 76 810 0.66 55 12:53 18.01.2021
3569 Clouds -6 1009 80 3024 1.02 33 12:21 18.01.2021
3570 Clouds -6 1008 81 3000 1.02 33 11:56 18.01.2021
3571 Fog -8 1010 100 1800 2.06 320 11:37 18.01.2021
3572 Fog -9 1010 100 800 1.54 320 11:19 18.01.2021
3573 Fog -7 1010 100 800 2.06 310 10:42 18.01.2021
3574 Fog -7 1010 93 1200 1.03 340 09:47 18.01.2021
3575 Fog -9 1010 93 1200 1.03 340 09:27 18.01.2021
3576 Fog -8 1010 93 1400 1.54 20 08:52 18.01.2021
3577 Clouds -9 1010 93 6000 2.57 360 08:18 18.01.2021
3578 Clouds -9 1010 93 8000 3.09 10 07:36 18.01.2021
3579 Clouds -9 1011 93 10000 2.06 10 05:35 18.01.2021
3580 Clouds -8 1012 93 9000 2.06 360 04:37 18.01.2021
3581 Clouds -8 1012 93 9000 2.06 360 04:18 18.01.2021
3582 Mist -7 1012 93 4000 1.54 350 03:41 18.01.2021
3583 Fog -7 1012 93 10000 0.51 350 03:20 18.01.2021
3584 Clouds -6 1012 81 10000 1.14 320 02:37 18.01.2021
3585 Clouds -7 1002 87 10000 1.12 314 01:36 18.01.2021
3586 Clouds -6 1002 87 10000 1.04 323 00:32 18.01.2021
3587 Clouds -7 1014 93 10000 1.03 20 23:48 17.01.2021
3588 Clouds -6 997 1 10000 0.97 308 23:21 17.01.2021
3589 Clouds -6 997 1 10000 0.98 308 22:41 17.01.2021
3590 Clouds -5 1014 82 6014 0.83 315 22:22 17.01.2021
3591 Clouds -6 1015 81 4510 0.73 320 21:40 17.01.2021
3592 Clouds -6 1015 81 4510 0.73 320 21:22 17.01.2021
3593 Clouds -6 1015 80 4510 0.73 320 20:49 17.01.2021
3594 Clouds -6 1015 80 2949 0.8 317 20:29 17.01.2021
3595 Clouds -6 998 1 3086 0.8 318 19:43 17.01.2021
3596 Clouds -6 999 1 2947 0.6 306 19:24 17.01.2021
3597 Snow -6 994 72 2615 0.45 90 18:44 17.01.2021
3598 Clouds -7 1016 78 5090 0.56 289 18:26 17.01.2021
3599 Clouds -7 1016 77 4873 0.56 288 17:48 17.01.2021
3600 Clouds -7 999 1 3537 0.62 261 17:26 17.01.2021
3601 Clouds -7 1000 1 3759 0.62 262 16:44 17.01.2021
3602 Clouds -7 1017 74 4502 0.67 245 16:24 17.01.2021
3603 Clouds -7 1000 1 4502 0.67 245 15:43 17.01.2021
3604 Clouds -7 1017 71 6696 0.85 227 15:25 17.01.2021
3605 Clouds -7 1000 1 6696 0.45 88 14:50 17.01.2021
3606 Clouds -6 995 68 6047 0.45 90 14:26 17.01.2021
3607 Clouds -6 995 67 6276 0.88 213 13:47 17.01.2021
3608 Clouds -6 995 67 6606 0.77 232 13:29 17.01.2021
3609 Clouds -6 995 65 6434 0.45 230 12:55 17.01.2021
3610 Clouds -6 996 65 9472 0.81 226 12:32 17.01.2021
3611 Clouds -6 996 63 10000 0.45 315 11:59 17.01.2021
3612 Clouds -6 996 62 8628 0.42 250 11:24 17.01.2021
3613 Clouds -7 996 62 8628 0.42 250 10:49 17.01.2021
3614 Clouds -8 1001 1 5567 0.57 269 10:21 17.01.2021
3615 Clouds -8 1019 81 5567 0.57 269 09:44 17.01.2021
3616 Clouds -8 996 69 3737 0.39 258 08:47 17.01.2021
3617 Clouds -8 995 69 2746 0.28 327 07:46 17.01.2021
3618 Clouds -10 1019 79 6728 0.86 38 04:29 17.01.2021
3619 Clouds -10 1019 79 10000 0.8 27 02:48 17.01.2021
3620 Clouds -11 1020 75 10000 0.84 350 00:51 17.01.2021
3621 Clouds -10 996 64 10000 1.01 40 00:20 17.01.2021
3622 Clouds -10 996 64 10000 1.01 40 23:51 16.01.2021
3623 Clouds -11 996 64 10000 0.79 32 23:20 16.01.2021
3624 Clouds -12 1018 75 10000 0.79 32 22:45 16.01.2021
3625 Clouds -12 1019 75 10000 0.84 28 21:59 16.01.2021
3626 Clouds -12 1018 75 10000 0.84 28 21:38 16.01.2021
3627 Clear -12 1019 75 10000 0.8 20 21:18 16.01.2021
3628 Clear -11 996 63 10000 0.8 20 20:44 16.01.2021
3629 Clear -10 997 63 10000 0.73 27 20:22 16.01.2021
3630 Clear -10 997 63 10000 0.73 27 19:48 16.01.2021
3631 Clear -11 1019 75 10000 0.95 31 19:29 16.01.2021
3632 Clear -11 1019 75 10000 0.95 31 18:43 16.01.2021
3633 Clear -11 1019 75 10000 1.03 359 18:25 16.01.2021
3634 Clear -11 1019 75 10000 1.02 359 17:48 16.01.2021
3635 Clear -11 1019 75 10000 0.75 350 17:29 16.01.2021
3636 Clear -11 1020 75 10000 0.74 350 16:47 16.01.2021
3637 Clear -11 1020 76 10000 0.69 21 16:29 16.01.2021
3638 Clear -11 1020 74 10000 0.68 23 15:54 16.01.2021
3639 Clear -8 1018 73 10000 0.79 31 15:26 16.01.2021
3640 Clear -7 1020 67 10000 0.79 31 14:30 16.01.2021
3641 Clear -7 1020 67 10000 0.74 359 14:30 16.01.2021
3642 Clear -6 1020 67 10000 0.74 359 13:50 16.01.2021
3643 Clear -7 1020 67 10000 0.72 329 13:29 16.01.2021
3644 Clear -8 1021 72 10000 0.78 330 12:46 16.01.2021
3645 Clear -8 1021 72 10000 0.9 352 12:21 16.01.2021
3646 Clear -8 1021 72 10000 0.9 352 11:52 16.01.2021
3647 Clear -10 1021 72 10000 1.02 359 11:25 16.01.2021
3648 Clear -11 1021 72 10000 1.02 359 10:50 16.01.2021
3649 Clear -12 1023 67 10000 1.25 0 10:28 16.01.2021
3650 Snow -11 1000 65 10000 1.25 0 09:40 16.01.2021
3651 Clear -11 1000 64 10000 1.36 358 09:19 16.01.2021
3652 Clear -11 1001 64 10000 1.41 342 07:53 16.01.2021
3653 Clear -11 1001 64 10000 1.21 351 06:44 16.01.2021
3654 Clear -11 1002 64 10000 1.32 336 04:51 16.01.2021
3655 Snow -11 1003 63 10000 1.4 323 02:56 16.01.2021
3656 Clear -11 1003 63 10000 1.4 317 02:21 16.01.2021
3657 Snow -11 1004 63 10000 1.34 320 00:43 16.01.2021
3658 Clear -11 1004 63 10000 1.32 324 00:19 16.01.2021
3659 Clear -10 1004 63 10000 1.38 332 23:25 15.01.2021
3660 Clear -10 1004 63 10000 1.33 336 22:27 15.01.2021
3661 Snow -10 1004 63 10000 1.33 336 21:48 15.01.2021
3662 Clear -10 1005 62 10000 1.49 330 21:25 15.01.2021
3663 Snow -10 1004 62 10000 1.48 330 20:42 15.01.2021
3664 Clear -9 1005 62 10000 1.45 339 20:23 15.01.2021
3665 Clear -10 1004 61 10000 1.44 339 19:43 15.01.2021
3666 Snow -10 1004 61 10000 1.47 334 19:24 15.01.2021
3667 Clear -9 1004 61 10000 1.45 335 18:45 15.01.2021
3668 Clear -9 1004 60 10000 1.37 333 18:20 15.01.2021
3669 Clear -9 1004 60 10000 1.37 333 17:56 15.01.2021
3670 Snow -9 1004 59 10000 1.36 333 17:37 15.01.2021
3671 Snow -9 1005 57 10000 1.26 329 17:19 15.01.2021
3672 Snow -8 1004 55 10000 1.27 329 16:43 15.01.2021
3673 Clear -8 1005 54 10000 1.32 334 16:22 15.01.2021
3674 Snow -8 1026 67 10000 1.31 334 15:40 15.01.2021
3675 Snow -7 1004 51 10000 1.2 337 15:19 15.01.2021
3676 Clear -6 1004 50 10000 1.1 339 14:41 15.01.2021
3677 Clear -6 1005 50 10000 1.1 339 14:22 15.01.2021
3678 Snow -8 1026 72 10000 1.09 340 13:40 15.01.2021
3679 Snow -8 1026 72 10000 1.09 340 13:40 15.01.2021
3680 Snow -8 1026 72 10000 1.19 342 13:20 15.01.2021
3681 Snow -8 1026 72 10000 1.19 342 12:47 15.01.2021
3682 Snow -8 1026 72 10000 1.11 332 12:26 15.01.2021
3683 Clouds -8 1010 16 10000 1.11 332 11:42 15.01.2021
3684 Clouds -11 1026 81 10000 1.32 330 11:21 15.01.2021
3685 Snow -10 1026 81 10000 1.32 330 10:51 15.01.2021
3686 Snow -10 1005 63 10000 1.45 333 10:24 15.01.2021
3687 Snow -11 1004 63 10000 1.45 333 09:50 15.01.2021
3688 Clouds -11 1004 63 10000 1.46 335 09:29 15.01.2021
3689 Clouds -11 1004 63 10000 1.42 334 08:30 15.01.2021
3690 Snow -11 1004 63 10000 1.42 334 07:47 15.01.2021
3691 Clouds -11 1004 63 10000 1.39 336 07:24 15.01.2021
3692 Clouds -11 1004 64 10000 1.4 335 06:52 15.01.2021
3693 Snow -9 1003 64 10000 1.28 339 03:29 15.01.2021
3694 Snow -10 1027 68 10000 1.35 339 00:55 15.01.2021
3695 Snow -9 1027 66 10000 1.41 339 23:47 14.01.2021
3696 Snow -9 1027 65 10000 1.34 338 22:59 14.01.2021
3697 Snow -9 1025 92 10000 2.06 330 22:40 14.01.2021
3698 Clouds -9 1026 93 10000 2.06 340 22:22 14.01.2021
3699 Clouds -8 1025 86 10000 1.54 340 21:42 14.01.2021
3700 Snow -8 1025 93 10000 1.03 0 21:21 14.01.2021
3701 Snow -7 1025 86 10000 1.03 0 20:48 14.01.2021
3702 Clouds -9 1025 86 10000 0.51 0 20:25 14.01.2021
3703 Snow -8 1025 86 10000 1.03 290 19:43 14.01.2021
3704 Snow -8 1025 86 10000 1.03 290 19:25 14.01.2021
3705 Snow -8 1025 93 10000 1.03 350 18:52 14.01.2021
3706 Snow -8 1025 93 10000 1.03 350 18:27 14.01.2021
3707 Snow -7 1025 93 10000 1.54 360 17:46 14.01.2021
3708 Snow -7 1025 93 10000 1.54 360 17:26 14.01.2021
3709 Snow -7 1025 93 10000 2.06 20 16:43 14.01.2021
3710 Snow -6 1025 86 10000 3.6 20 16:18 14.01.2021
3711 Snow -6 1025 79 10000 2.57 30 15:45 14.01.2021
3712 Snow -6 1025 79 10000 3.09 30 14:59 14.01.2021
3713 Snow -5 1025 79 10000 4.12 10 14:38 14.01.2021
3714 Snow -5 1025 79 10000 3.6 10 14:19 14.01.2021
3715 Snow -5 1025 79 10000 3.09 360 13:53 14.01.2021
3716 Snow -5 1025 79 10000 2.57 360 13:21 14.01.2021
3717 Clouds -5 1025 79 10000 4.12 350 12:48 14.01.2021
3718 Clouds -6 1025 86 10000 4.12 10 12:20 14.01.2021
3719 Clouds -6 1025 79 10000 3.6 10 11:43 14.01.2021
3720 Clouds -7 1025 79 10000 3.6 10 11:21 14.01.2021
3721 Snow -7 1025 79 10000 2.06 10 10:52 14.01.2021
3722 Snow -7 1025 79 10000 2.06 10 10:29 14.01.2021
3723 Snow -8 1025 86 10000 1.54 350 09:48 14.01.2021
3724 Clouds -9 1025 86 10000 1.54 350 09:23 14.01.2021
3725 Snow -7 1024 79 10000 2.57 340 08:52 14.01.2021
3726 Snow -7 1024 79 10000 2.57 360 08:28 14.01.2021
3727 Snow -8 1024 79 10000 4.63 360 07:50 14.01.2021
3728 Snow -7 1023 79 10000 4.12 360 06:59 14.01.2021
3729 Snow -6 1024 79 10000 4.12 360 05:56 14.01.2021
3730 Snow -7 1021 79 10000 8.23 10 01:55 14.01.2021
3731 Snow -6 1020 79 10000 5.66 20 23:56 13.01.2021
3732 Snow -6 1020 79 10000 4.12 360 23:23 13.01.2021
3733 Snow -5 1020 73 10000 6.17 350 22:30 13.01.2021
3734 Snow -5 1019 73 10000 5.66 360 21:59 13.01.2021
3735 Snow -5 1019 73 10000 5.66 360 21:59 13.01.2021
3736 Clear -5 1019 73 10000 6.17 10 21:41 13.01.2021
3737 Snow -4 1018 79 10000 5.66 360 21:19 13.01.2021
3738 Snow -4 1018 79 8000 7.72 360 20:38 13.01.2021
3739 Snow -4 1017 80 10000 8.75 10 20:19 13.01.2021
3740 Clouds -4 1017 80 10000 7.72 20 19:42 13.01.2021
3741 Snow -5 1016 80 10000 8.75 20 19:21 13.01.2021
3742 Snow -5 1015 80 10000 9.26 10 18:41 13.01.2021
3743 Clouds -4 1015 80 10000 8.23 10 17:51 13.01.2021
3744 Snow -4 1015 80 10000 8.23 10 17:26 13.01.2021
3745 Snow -4 1014 80 10000 7.72 10 16:59 13.01.2021
3746 Snow -4 1013 80 10000 8.23 10 16:23 13.01.2021
3747 Clouds -3 1013 80 10000 8.23 10 15:59 13.01.2021
3748 Clouds -4 1013 80 10000 8.75 10 15:39 13.01.2021
3749 Snow -4 1013 80 10000 7.72 20 14:52 13.01.2021
3750 Clouds -3 1009 82 10000 2.68 287 14:18 13.01.2021
3751 Clouds -3 1009 82 10000 2.68 287 13:37 13.01.2021
3752 Clouds -3 1009 82 10000 2.68 287 13:18 13.01.2021
3753 Clouds -3 1009 82 10000 2.68 287 13:18 13.01.2021
3754 Clouds -3 1006 88 6618 2.68 221 12:43 13.01.2021
3755 Snow -3 1006 88 3724 2.68 221 12:22 13.01.2021
3756 Snow -3 986 60 3724 1.34 92 11:47 13.01.2021
3757 Snow -4 1006 88 400 2.68 221 11:26 13.01.2021
3758 Snow -3 985 67 400 1.34 226 10:46 13.01.2021
3759 Snow -3 984 67 544 0.45 267 10:25 13.01.2021
3760 Snow -3 983 69 544 1.34 248 09:40 13.01.2021
3761 Snow -4 982 70 1384 0.89 314 08:57 13.01.2021
3762 Snow -4 981 71 1384 1.34 225 08:34 13.01.2021
3763 Snow -4 980 72 4874 0.89 315 07:57 13.01.2021
3764 Snow -4 979 71 4883 1.34 270 07:27 13.01.2021
3765 Snow -6 1000 93 6000 7.72 10 05:27 13.01.2021
3766 Snow -7 998 93 10000 5.66 360 04:18 13.01.2021
3767 Snow -7 998 86 10000 7.2 360 03:41 13.01.2021
3768 Clouds -7 998 86 10000 6.17 10 03:19 13.01.2021
3769 Clouds -6 992 90 10000 0.45 108 00:44 13.01.2021
3770 Snow -7 990 89 10000 0.45 95 23:40 12.01.2021
3771 Snow -6 988 88 10000 1.93 13 22:57 12.01.2021
3772 Clouds -6 988 88 10000 1.66 0 22:36 12.01.2021
3773 Clouds -6 988 88 10000 1.66 0 22:18 12.01.2021
3774 Snow -5 988 88 10000 1.65 1 21:42 12.01.2021
3775 Snow -5 988 88 10000 1.71 9 21:23 12.01.2021
3776 Snow -5 988 88 10000 1.71 9 20:46 12.01.2021
3777 Snow -5 988 88 10000 0.96 325 20:26 12.01.2021
3778 Snow -5 987 76 10000 0.95 325 19:43 12.01.2021
3779 Snow -5 967 68 10000 1.08 291 18:54 12.01.2021
3780 Snow -5 967 63 10000 1.28 284 18:26 12.01.2021
3781 Clouds -5 987 76 10000 1.28 284 17:58 12.01.2021
3782 Snow -5 967 60 10000 0.98 303 17:33 12.01.2021
3783 Snow -6 987 76 10000 0.98 302 16:46 12.01.2021
3784 Snow -6 966 64 10000 0.45 177 16:27 12.01.2021
3785 Snow -6 987 62 10000 1.1 267 15:54 12.01.2021
3786 Clouds -6 987 62 10000 1.15 265 15:27 12.01.2021
3787 Clouds -6 987 62 10000 1.15 265 14:55 12.01.2021
3788 Snow -5 967 57 10000 0.45 180 14:37 12.01.2021
3789 Snow -6 987 62 10000 1.11 267 14:18 12.01.2021
3790 Snow -6 987 62 10000 1.11 267 13:43 12.01.2021
3791 Clouds -7 987 93 10000 1.19 284 12:38 12.01.2021
3792 Clouds -6 967 56 10000 0.45 135 11:53 12.01.2021
3793 Clouds -6 967 56 10000 0.45 135 11:53 12.01.2021
3794 Clouds -7 987 93 10000 1.36 302 11:34 12.01.2021
3795 Clouds -8 967 65 10000 1.36 302 10:44 12.01.2021
3796 Clouds -8 967 65 10000 0.45 90 10:20 12.01.2021
3797 Snow -9 967 65 10000 0.45 90 09:53 12.01.2021
3798 Snow -9 967 64 10000 0.45 90 09:23 12.01.2021
3799 Clouds -9 967 66 10000 0.45 90 08:28 12.01.2021
3800 Clouds -9 967 67 10000 0.45 90 07:57 12.01.2021
3801 Clouds -9 967 67 10000 0.45 90 07:33 12.01.2021
3802 Clouds -11 987 84 10000 0.45 68 05:46 12.01.2021
3803 Snow -11 973 1 10000 1.37 293 03:48 12.01.2021
3804 Clouds -11 973 1 10000 1.53 303 03:23 12.01.2021
3805 Snow -12 989 78 10000 0.45 113 02:18 12.01.2021
3806 Clouds -11 988 78 10000 1.95 315 00:55 12.01.2021
3807 Clouds -10 988 77 10000 2.41 314 23:44 11.01.2021
3808 Clouds -10 988 76 10000 0.45 270 23:20 11.01.2021
3809 Clouds -10 988 76 10000 2.51 314 22:47 11.01.2021
3810 Clouds -10 988 75 10000 0.89 277 22:28 11.01.2021
3811 Clouds -9 988 76 10000 0.89 287 21:47 11.01.2021
3812 Clouds -9 974 1 10000 2.51 325 21:26 11.01.2021
3813 Clouds -8 974 1 10000 2.94 312 20:59 11.01.2021
3814 Clouds -8 974 1 10000 2.94 312 20:39 11.01.2021
3815 Clouds -7 974 1 10000 2.97 319 20:21 11.01.2021
3816 Clouds -6 974 1 10000 2.97 319 19:50 11.01.2021
3817 Clouds -6 990 93 10000 0.89 231 19:23 11.01.2021
3818 Snow -6 989 73 10000 0.45 118 18:44 11.01.2021
3819 Snow -6 989 74 5069 0.45 113 18:24 11.01.2021
3820 Snow -5 988 73 4913 0.45 188 17:42 11.01.2021
3821 Clouds -5 989 74 612 0.89 132 17:24 11.01.2021
3822 Snow -6 975 1 612 3.19 330 16:49 11.01.2021
3823 Clouds -5 990 77 256 0.89 119 16:29 11.01.2021
3824 Snow -5 990 78 265 0.45 160 15:58 11.01.2021
3825 Snow -5 991 79 256 0.45 113 15:37 11.01.2021
3826 Snow -4 992 79 143 0.89 32 14:58 11.01.2021
3827 Clouds -5 992 79 143 0.89 32 14:37 11.01.2021
3828 Snow -5 996 79 115 0.89 65 13:48 11.01.2021
3829 Snow -5 996 79 107 0.89 65 13:23 11.01.2021
3830 Snow -5 997 93 1100 3.6 10 12:45 11.01.2021
3831 Snow -6 997 93 1500 3.09 360 12:26 11.01.2021
3832 Snow -6 998 93 4000 2.57 340 11:48 11.01.2021
3833 Snow -6 999 100 8000 1.03 0 11:21 11.01.2021
3834 Snow -6 999 100 7000 1.03 0 10:42 11.01.2021
3835 Snow -5 999 100 6000 1.54 330 10:23 11.01.2021
3836 Snow -5 1000 100 2500 1.03 0 09:37 11.01.2021
3837 Mist -5 1000 100 2500 1.54 320 09:19 11.01.2021
3838 Mist -7 1000 100 2000 1.03 0 08:43 11.01.2021
3839 Fog -6 1001 100 1000 1.37 20 07:51 11.01.2021
3840 Clouds -6 999 88 10000 0.45 229 07:25 11.01.2021
3841 Clouds -6 1001 88 10000 0.45 119 06:50 11.01.2021
3842 Clouds -7 1002 86 10000 0.45 94 03:22 11.01.2021
3843 Snow -7 1003 85 10000 0.45 77 01:25 11.01.2021
3844 Clouds -7 1005 83 10000 1.37 21 23:53 10.01.2021
3845 Clouds -6 1005 83 10000 1.15 50 23:26 10.01.2021
3846 Clouds -6 989 1 10000 1.15 50 22:47 10.01.2021
3847 Snow -7 989 1 10000 0.98 28 22:20 10.01.2021
3848 Clouds -7 1006 85 10000 0.98 28 21:44 10.01.2021
3849 Clouds -7 1006 82 10000 0.97 42 21:20 10.01.2021
3850 Clouds -7 1007 82 10000 0.97 42 20:50 10.01.2021
3851 Clouds -7 990 1 10000 0.97 42 20:32 10.01.2021
3852 Clouds -5 1007 79 10000 0.56 58 19:43 10.01.2021
3853 Clouds -5 1007 79 10000 0.56 58 19:43 10.01.2021
3854 Clouds -5 1007 79 10000 0.59 87 19:24 10.01.2021
3855 Clouds -5 1007 79 10000 0.59 87 18:47 10.01.2021
3856 Clouds -5 1007 79 10000 0.81 40 18:21 10.01.2021
3857 Clouds -6 1007 74 10000 0.91 15 17:28 10.01.2021
3858 Clouds -4 1007 74 10000 0.91 15 16:58 10.01.2021
3859 Clouds -4 1007 74 10000 0.68 329 16:32 10.01.2021
3860 Clouds -4 1007 74 10000 0.67 330 15:54 10.01.2021
3861 Clear -4 1007 74 10000 0.88 313 15:25 10.01.2021
3862 Clear -4 1007 74 10000 0.88 313 15:25 10.01.2021
3863 Clear -3 1007 74 10000 0.87 313 14:50 10.01.2021
3864 Clear -3 1008 62 10000 1.04 302 14:31 10.01.2021
3865 Clear -3 1008 62 10000 1.04 302 13:54 10.01.2021
3866 Clear -3 1008 62 10000 1.04 302 13:36 10.01.2021
3867 Clear -3 1008 62 10000 1.11 301 13:18 10.01.2021
3868 Clear -3 1008 62 10000 1.07 301 12:42 10.01.2021
3869 Clear -4 1008 62 10000 1.2 305 11:58 10.01.2021
3870 Clear -5 1009 81 10000 1.23 304 11:22 10.01.2021
3871 Clear -5 1009 83 10000 1.23 303 10:58 10.01.2021
3872 Clear -5 1009 85 10000 1.23 310 10:31 10.01.2021
3873 Clear -6 1009 82 10000 1.23 310 09:59 10.01.2021
3874 Clear -6 1009 82 10000 1.37 318 09:27 10.01.2021
3875 Clear -5 1008 87 10000 1.44 311 08:20 10.01.2021
3876 Clouds -5 1007 86 10000 1.6 311 07:29 10.01.2021
3877 Clouds -4 1008 93 10000 1.54 160 06:19 10.01.2021
3878 Clouds -2 1008 93 10000 4.63 220 05:36 10.01.2021
3879 Snow -1 987 83 3480 0.45 90 02:56 10.01.2021
3880 Clouds -2 989 81 4613 0.45 90 00:52 10.01.2021
3881 Snow -5 990 75 4936 0.89 90 23:48 09.01.2021
3882 Snow -5 990 72 3246 1.34 90 23:29 09.01.2021
3883 Snow -6 991 71 3246 0.45 90 22:48 09.01.2021
3884 Clouds -6 991 70 10000 0.45 90 22:19 09.01.2021
3885 Snow -6 992 70 10000 0.45 90 21:57 09.01.2021
3886 Snow -6 992 70 10000 0.45 90 21:38 09.01.2021
3887 Clouds -7 1018 67 10000 1.71 215 21:18 09.01.2021
3888 Clouds -7 1018 67 10000 1.71 215 20:44 09.01.2021
3889 Clouds -7 993 73 10000 0.89 76 19:45 09.01.2021
3890 Clouds -7 994 72 10000 0.45 90 19:22 09.01.2021
3891 Clouds -7 994 73 10000 0.45 90 18:52 09.01.2021
3892 Clouds -7 994 72 10000 0.89 90 18:33 09.01.2021
3893 Clouds -7 995 72 10000 0.45 90 17:48 09.01.2021
3894 Clouds -8 1017 69 10000 1.13 194 17:30 09.01.2021
3895 Clouds -7 1000 18 10000 1 185 16:36 09.01.2021
3896 Clouds -7 1018 62 7251 1.05 179 15:52 09.01.2021
3897 Clouds -7 1001 40 8451 1.08 179 15:33 09.01.2021
3898 Clouds -6 1019 60 8451 1.08 179 14:41 09.01.2021
3899 Clouds -5 1019 60 10000 1.28 188 14:20 09.01.2021
3900 Clouds -6 1019 61 10000 1.28 188 13:49 09.01.2021
3901 Clouds -5 1018 62 10000 0.89 190 13:31 09.01.2021
3902 Clouds -6 1002 60 10000 0.97 192 12:50 09.01.2021
3903 Clouds -6 1021 61 10000 0.6 182 12:25 09.01.2021
3904 Clouds -6 1021 61 10000 0.6 182 11:56 09.01.2021
3905 Clouds -7 1003 59 10000 0.6 182 11:33 09.01.2021
3906 Clouds -6 1003 45 7625 0.18 264 10:55 09.01.2021
3907 Clouds -7 1003 41 7561 0.18 261 10:36 09.01.2021
3908 Clouds -6 1021 61 10000 0.07 337 09:53 09.01.2021
3909 Clouds -7 1003 44 10000 0.24 347 09:29 09.01.2021
3910 Clouds -7 1003 45 10000 0.24 347 08:47 09.01.2021
3911 Clouds -7 1021 58 10000 0.37 360 07:38 09.01.2021
3912 Clouds -8 1021 93 10000 1.54 360 06:40 09.01.2021
3913 Clouds -9 1021 93 10000 2.06 360 04:53 09.01.2021
3914 Clouds -8 1021 93 10000 2.57 30 03:25 09.01.2021
3915 Clouds -8 1021 93 10000 3.09 20 02:32 09.01.2021
3916 Clouds -7 1021 93 10000 2.57 20 01:54 09.01.2021
3917 Clouds -7 1021 86 10000 3.09 20 00:37 09.01.2021
3918 Clouds -6 1021 86 10000 3.09 20 23:59 08.01.2021
3919 Clouds -6 1021 86 10000 2.06 10 23:19 08.01.2021
3920 Clouds -6 1020 93 10000 2.57 10 22:25 08.01.2021
3921 Clouds -6 1020 93 10000 2.57 360 21:46 08.01.2021
3922 Clouds -6 1020 93 10000 3.09 10 20:57 08.01.2021
3923 Clouds -6 1020 93 10000 2.57 360 20:26 08.01.2021
3924 Clouds -6 1020 93 10000 3.09 10 19:55 08.01.2021
3925 Clouds -6 1020 93 10000 3.09 10 19:22 08.01.2021
3926 Clouds -6 1020 86 10000 2.06 10 18:36 08.01.2021
3927 Clouds -6 1019 86 10000 2.06 10 18:18 08.01.2021
3928 Clouds -6 1019 79 10000 2.06 330 17:45 08.01.2021
3929 Clouds -6 1002 49 10000 1.96 345 17:22 08.01.2021
3930 Clouds -6 1019 86 10000 2.06 330 16:35 08.01.2021
3931 Clouds -6 1001 50 10000 0.45 325 15:44 08.01.2021
3932 Clouds -6 1001 50 10000 1.88 343 15:18 08.01.2021
3933 Clouds -5 1016 63 10000 1.88 343 14:35 08.01.2021
3934 Clouds -5 996 62 10000 2.08 347 13:44 08.01.2021
3935 Clouds -5 996 62 10000 0.45 90 13:18 08.01.2021
3936 Snow -5 996 62 10000 0.45 90 12:46 08.01.2021
3937 Clouds -5 996 61 10000 0.45 90 12:19 08.01.2021
3938 Clouds -5 995 61 10000 0.45 90 11:43 08.01.2021
3939 Clouds -6 1000 51 10000 2.11 348 11:25 08.01.2021
3940 Clouds -6 995 62 10000 0.45 90 10:50 08.01.2021
3941 Clouds -7 1013 63 10000 2.25 346 10:26 08.01.2021
3942 Clouds -7 1013 63 10000 2.25 346 09:45 08.01.2021
3943 Clouds -7 1013 92 10000 2.14 347 09:25 08.01.2021
3944 Snow -7 1013 92 10000 2.14 347 08:33 08.01.2021
3945 Clouds -6 1017 61 10000 2.47 343 07:25 08.01.2021
3946 Clouds -6 998 40 5602 2.46 348 05:43 08.01.2021
3947 Snow -6 1015 79 10000 3.09 360 23:46 07.01.2021
3948 Snow -6 1015 79 10000 3.09 360 23:28 07.01.2021
3949 Snow -6 1015 86 10000 2.57 340 22:45 07.01.2021
3950 Clouds -6 1013 83 7046 1.79 231 22:25 07.01.2021
3951 Clouds -6 1013 83 7046 1.79 231 22:25 07.01.2021
3952 Clouds -6 1013 83 7046 1.79 231 21:44 07.01.2021
3953 Clouds -6 1013 83 7985 1.79 231 21:26 07.01.2021
3954 Clouds -6 1013 83 7985 1.79 231 20:47 07.01.2021
3955 Clouds -6 1013 83 8031 1.79 231 20:47 07.01.2021
3956 Clouds -6 1013 83 10000 1.79 231 20:28 07.01.2021
3957 Clouds -7 1013 83 10000 1.79 231 19:44 07.01.2021
3958 Clouds -7 1013 83 10000 1.79 231 19:21 07.01.2021
3959 Clouds -7 1013 83 10000 1.79 231 18:30 07.01.2021
3960 Clouds -7 1013 83 10000 1.79 231 17:56 07.01.2021
3961 Clouds -7 1013 83 8074 1.79 231 17:28 07.01.2021
3962 Clouds -7 1013 80 8074 2.33 351 16:53 07.01.2021
3963 Clouds -7 1013 80 7380 2.31 352 16:28 07.01.2021
3964 Snow -6 1013 80 7317 2.31 352 15:41 07.01.2021
3965 Clouds -6 1013 80 6387 2.33 354 15:22 07.01.2021
3966 Clouds -6 1015 85 7820 2.35 356 14:27 07.01.2021
3967 Clouds -6 1015 85 7820 2.35 356 13:46 07.01.2021
3968 Clouds -6 1015 85 9925 2.4 357 13:18 07.01.2021
3969 Clouds -6 1015 85 9925 2.4 357 12:43 07.01.2021
3970 Clouds -6 1015 88 8785 2.44 355 11:57 07.01.2021
3971 Clouds -6 994 69 8785 0.89 90 11:37 07.01.2021
3972 Clouds -7 1015 88 6441 2.45 355 10:51 07.01.2021
3973 Clouds -7 1015 88 6369 2.45 355 10:32 07.01.2021
3974 Snow -6 1017 92 10000 4.1 360 09:48 07.01.2021
3975 Snow -7 1017 92 10000 4.1 360 09:22 07.01.2021
3976 Snow -6 1017 92 10000 3.6 10 08:30 07.01.2021
3977 Snow -6 1018 85 10000 4.1 20 07:53 07.01.2021
3978 Snow -6 1018 85 10000 4.1 20 07:32 07.01.2021
3979 Snow -7 1018 92 10000 3.6 10 05:44 07.01.2021
3980 Snow -7 1021 92 10000 3.1 360 00:58 07.01.2021
3981 Snow -7 1021 92 10000 3.1 10 23:52 06.01.2021
3982 Snow -7 1021 92 10000 3.6 20 22:50 06.01.2021
3983 Snow -7 1022 92 10000 4.1 20 22:19 06.01.2021
3984 Snow -8 1022 92 10000 3.1 20 21:41 06.01.2021
3985 Snow -9 1022 92 10000 3.1 30 21:22 06.01.2021
3986 Snow -9 1022 92 10000 4.1 20 20:40 06.01.2021
3987 Snow -9 1022 92 10000 4.1 10 20:19 06.01.2021
3988 Clouds -9 1022 92 10000 3.6 10 19:42 06.01.2021
3989 Clouds -9 1021 88 10000 2.1 4 19:24 06.01.2021
3990 Clouds -8 1005 1 10000 0.89 5 18:45 06.01.2021
3991 Clouds -8 1023 81 10000 2.06 5 18:26 06.01.2021
3992 Clouds -8 1000 68 10000 0.45 90 17:43 06.01.2021
3993 Clouds -9 1023 82 10000 1.98 4 17:25 06.01.2021
3994 Clouds -9 1024 82 10000 1.98 4 16:51 06.01.2021
3995 Clouds -9 1001 66 10000 0.45 90 16:20 06.01.2021
3996 Clouds -9 1001 65 10000 0.45 90 15:57 06.01.2021
3997 Clouds -9 1001 65 10000 0.45 90 15:32 06.01.2021
3998 Clear -9 1001 65 10000 0.89 90 14:56 06.01.2021
3999 Clear -9 1002 66 10000 0.45 90 14:30 06.01.2021
4000 Clear -9 1002 65 10000 0.45 90 13:47 06.01.2021
4001 Clear -9 1002 65 10000 0.45 90 13:24 06.01.2021
4002 Clear -9 1003 66 10000 0.45 90 12:53 06.01.2021
4003 Clear -9 1003 66 10000 0.45 90 12:29 06.01.2021
4004 Clear -10 1004 66 10000 0.45 90 11:40 06.01.2021
4005 Clear -10 1004 66 10000 0.45 90 11:21 06.01.2021
4006 Clear -10 1004 65 10000 0.45 90 10:31 06.01.2021
4007 Clear -11 1004 65 10000 0.45 90 09:52 06.01.2021
4008 Clear -11 1004 65 10000 0.45 90 09:22 06.01.2021
4009 Clear -11 1004 65 10000 0.45 90 08:41 06.01.2021
4010 Clear -11 1004 65 10000 1.66 3 08:18 06.01.2021
4011 Clear -11 1003 64 10000 1.65 2 07:27 06.01.2021
4012 Clear -11 1004 65 10000 0.45 90 05:53 06.01.2021
4013 Clear -11 1004 65 10000 1.79 4 04:43 06.01.2021
4014 Clear -10 1005 66 10000 1.79 358 02:47 06.01.2021
4015 Clear -10 1005 66 10000 1.64 2 02:26 06.01.2021
4016 Clear -10 1006 66 10000 1.64 2 01:35 06.01.2021
4017 Clear -10 1006 69 10000 0.45 90 23:39 05.01.2021
4018 Clear -10 1007 69 10000 0.45 90 22:51 05.01.2021
4019 Snow -10 1007 69 10000 0.45 90 22:32 05.01.2021
4020 Snow -10 1007 69 10000 0.45 90 21:58 05.01.2021
4021 Snow -9 1008 69 10000 0.45 90 21:18 05.01.2021
4022 Snow -9 1008 68 10000 0.45 90 20:30 05.01.2021
4023 Clear -9 1008 67 10000 1.69 1 19:45 05.01.2021
4024 Snow -9 1008 67 10000 1.64 1 19:24 05.01.2021
4025 Clear -9 1008 67 10000 0.45 90 18:47 05.01.2021
4026 Clear -9 1007 67 10000 1.81 356 18:28 05.01.2021
4027 Clear -9 1007 67 10000 1.82 356 17:54 05.01.2021
4028 Snow -9 1031 82 10000 1.81 356 17:31 05.01.2021
4029 Clear -8 1008 66 10000 0.45 90 16:54 05.01.2021
4030 Clear -8 1008 66 10000 0.45 90 16:54 05.01.2021
4031 Snow -8 1031 81 10000 1.72 357 16:24 05.01.2021
4032 Snow -8 1032 81 10000 1.72 357 15:59 05.01.2021
4033 Clear -8 1032 81 10000 1.72 357 15:35 05.01.2021
4034 Clear -7 1009 63 10000 0.45 90 14:48 05.01.2021
4035 Clear -6 1009 61 10000 1.56 5 13:57 05.01.2021
4036 Clear -6 1009 61 10000 1.56 5 13:36 05.01.2021
4037 Clear -6 1009 61 10000 1.75 4 13:18 05.01.2021
4038 Clear -7 1034 82 10000 1.75 4 12:46 05.01.2021
4039 Clear -6 1010 60 10000 1.91 0 12:18 05.01.2021
4040 Clouds -7 1034 83 10000 2.01 359 11:31 05.01.2021
4041 Clouds -7 1034 83 10000 2.01 359 11:29 05.01.2021
4042 Clouds -7 1010 67 10000 0.45 90 10:45 05.01.2021
4043 Clouds -7 1010 66 10000 0.45 90 10:19 05.01.2021
4044 Clouds -7 1010 65 10000 0.45 90 09:42 05.01.2021
4045 Clouds -8 1034 80 10000 1.9 2 08:59 05.01.2021
4046 Clouds -8 1033 80 10000 1.87 5 08:19 05.01.2021
4047 Clear -7 1032 92 10000 2.1 20 05:32 05.01.2021
4048 Clear -6 1032 92 10000 3.1 30 03:39 05.01.2021
4049 Clouds -5 1033 92 10000 3.1 40 00:23 05.01.2021
4050 Clouds -5 1033 92 10000 3.1 30 23:42 04.01.2021
4051 Clouds -5 1033 92 10000 2.6 20 23:22 04.01.2021
4052 Clouds -5 1033 92 10000 2.6 20 22:46 04.01.2021
4053 Clouds -5 1033 92 10000 2.6 350 22:19 04.01.2021
4054 Clouds -5 1033 92 10000 2.6 350 21:40 04.01.2021
4055 Clouds -6 1033 92 10000 2.1 20 21:20 04.01.2021
4056 Clear -6 1034 79 10000 2.28 359 20:38 04.01.2021
4057 Clear -6 1034 79 10000 2.28 359 20:19 04.01.2021
4058 Clear -6 1015 1 10000 2.28 359 19:42 04.01.2021
4059 Clear -6 1033 76 10000 2.36 2 19:19 04.01.2021
4060 Clear -6 1033 76 10000 2.26 1 18:44 04.01.2021
4061 Clear -6 1033 77 10000 2.42 1 17:56 04.01.2021
4062 Clear -5 1033 77 10000 2.42 1 17:37 04.01.2021
4063 Clear -6 1014 5 10000 2.37 4 17:18 04.01.2021
4064 Clear -6 1033 74 10000 2.27 3 16:40 04.01.2021
4065 Clear -6 1033 73 10000 2.27 3 16:22 04.01.2021
4066 Clear -6 1032 72 10000 2.27 3 15:47 04.01.2021
4067 Clear -5 1014 20 10000 2.23 4 15:21 04.01.2021
4068 Clear -4 1010 60 10000 0.45 90 13:57 04.01.2021
4069 Clear -4 1030 87 10000 0.89 287 13:36 04.01.2021
4070 Clear -4 1030 87 10000 0.89 287 12:55 04.01.2021
4071 Clear -5 1030 87 10000 0.89 287 12:30 04.01.2021
4072 Clear -4 1030 87 10000 0.89 287 11:41 04.01.2021
4073 Clear -5 1030 87 10000 0.89 287 11:18 04.01.2021
4074 Clear -5 1030 87 10000 0.89 287 10:44 04.01.2021
4075 Clear -6 1029 87 10000 0.89 287 10:22 04.01.2021
4076 Clear -7 1029 87 10000 0.89 287 09:36 04.01.2021
4077 Clear -8 1032 85 10000 3.1 30 09:18 04.01.2021
4078 Clear -8 1032 92 10000 3.1 20 08:23 04.01.2021
4079 Clear -8 1032 92 10000 3.6 20 07:47 04.01.2021
4080 Clouds -7 1032 92 10000 3.1 30 05:42 04.01.2021
4081 Clouds -6 1032 85 10000 3.1 360 05:20 04.01.2021
4082 Clear -6 1014 1 10000 2.07 356 02:26 04.01.2021
4083 Clear -6 1015 1 10000 1.95 358 00:24 04.01.2021
4084 Clear -6 1034 77 10000 1.95 358 23:38 03.01.2021
4085 Clear -6 1034 77 10000 1.92 358 22:58 03.01.2021
4086 Clear -6 1034 78 10000 1.89 359 22:39 03.01.2021
4087 Clear -6 1034 79 10000 1.89 359 22:21 03.01.2021
4088 Clear -6 1033 80 10000 1.89 359 21:41 03.01.2021
4089 Clear -6 1033 80 10000 1.92 355 21:23 03.01.2021
4090 Clear -6 1033 79 10000 1.92 355 20:41 03.01.2021
4091 Clear -5 1033 79 10000 1.92 355 20:19 03.01.2021
4092 Clear -6 1033 78 10000 1.92 355 19:46 03.01.2021
4093 Clear -6 1033 77 10000 2.06 354 19:27 03.01.2021
4094 Clear -5 1032 76 10000 2 351 18:46 03.01.2021
4095 Clear -5 1013 1 10000 1.94 348 18:25 03.01.2021
4096 Clear -5 1013 1 10000 1.94 348 17:53 03.01.2021
4097 Clear -6 1031 92 10000 2.6 10 17:27 03.01.2021
4098 Clear -6 1031 92 10000 2.1 30 16:56 03.01.2021
4099 Clear -6 1031 85 10000 1 350 16:37 03.01.2021
4100 Clear -6 1030 85 10000 2.1 20 16:18 03.01.2021
4101 Clear -4 1012 1 10000 1.73 344 15:40 03.01.2021
4102 Clear -5 1030 92 10000 3.1 360 14:59 03.01.2021
4103 Clear -4 1030 92 10000 4.1 30 14:40 03.01.2021
4104 Clear -3 1030 92 10000 2.1 30 13:54 03.01.2021
4105 Clear -3 1030 92 10000 2.1 30 13:25 03.01.2021
4106 Clear -3 1030 92 10000 2.1 10 12:57 03.01.2021
4107 Clear -3 1029 92 10000 2.1 20 11:44 03.01.2021
4108 Clear -4 1029 100 10000 1.5 340 11:26 03.01.2021
4109 Clear -5 1029 100 10000 1.5 340 10:57 03.01.2021
4110 Fog -5 1029 92 10000 2.1 340 10:32 03.01.2021
4111 Fog -6 1028 92 8000 2.6 360 09:45 03.01.2021
4112 Fog -6 1028 92 8000 2.6 360 09:24 03.01.2021
4113 Fog -5 1027 92 1500 1 350 07:59 03.01.2021
4114 Fog -4 1027 100 1600 1.5 20 06:54 03.01.2021
4115 Clouds -1 1025 100 10000 1.5 30 03:20 03.01.2021
4116 Clouds -1 1024 100 10000 1 40 02:23 03.01.2021
4117 Snow 0 1024 92 10000 1.5 10 00:27 03.01.2021
4118 Snow 0 1023 92 10000 2.1 30 23:46 02.01.2021
4119 Snow 0 1022 92 10000 2.1 30 23:19 02.01.2021
4120 Snow 0 1022 92 10000 2.1 30 22:47 02.01.2021
4121 Snow 0 1022 92 10000 2.1 30 22:28 02.01.2021
4122 Snow 0 1021 92 10000 2.1 360 21:47 02.01.2021
4123 Snow 0 1021 92 10000 2.6 10 21:28 02.01.2021
4124 Snow 0 1021 92 10000 2.1 10 20:45 02.01.2021
4125 Snow 0 1020 92 10000 3.1 10 20:25 02.01.2021
4126 Snow 0 1020 92 10000 3.1 10 19:44 02.01.2021
4127 Snow 0 1019 92 10000 3.1 10 19:20 02.01.2021
4128 Snow 0 1019 92 10000 3.1 10 19:20 02.01.2021
4129 Snow 0 1019 92 10000 3.1 10 18:43 02.01.2021
4130 Snow 0 1019 92 10000 2.1 10 18:25 02.01.2021
4131 Snow 0 1019 92 10000 2.1 10 17:46 02.01.2021
4132 Snow 0 1018 92 10000 2.1 360 17:26 02.01.2021
4133 Snow 0 1018 92 10000 2.6 10 16:41 02.01.2021
4134 Snow 0 1017 92 10000 1.5 10 16:20 02.01.2021
4135 Snow 0 1017 92 10000 1.5 10 15:43 02.01.2021
4136 Snow 0 1017 92 10000 2.6 20 15:25 02.01.2021
4137 Snow 0 1016 92 10000 2.6 20 14:37 02.01.2021
4138 Clouds 0 999 1 10000 1.79 354 14:18 02.01.2021
4139 Clouds 0 998 1 10000 1.79 354 13:39 02.01.2021
4140 Clouds 0 998 1 10000 1.86 352 12:54 02.01.2021
4141 Snow 0 1016 92 10000 2.1 20 12:32 02.01.2021
4142 Snow 0 1015 92 10000 4.6 10 11:57 02.01.2021
4143 Snow 0 1015 92 10000 3.1 30 11:22 02.01.2021
4144 Snow 0 1015 92 10000 3.1 30 10:56 02.01.2021
4145 Snow 0 1015 92 10000 3.1 30 10:31 02.01.2021
4146 Clouds 0 1014 92 10000 2.6 30 09:54 02.01.2021
4147 Clouds 0 1013 92 10000 2.6 360 09:28 02.01.2021
4148 Clouds 0 1013 92 10000 2.6 360 08:51 02.01.2021
4149 Clouds 0 995 1 10000 1.93 348 08:28 02.01.2021
4150 Clouds 0 1012 90 10000 1.93 348 07:53 02.01.2021
4151 Clouds 0 990 80 10000 0.45 90 07:22 02.01.2021
4152 Clouds -1 1012 86 10000 3.6 360 06:52 02.01.2021
4153 Clouds -1 1012 100 10000 2.6 20 05:45 02.01.2021
4154 Snow 0 988 82 648 2.05 357 00:59 02.01.2021
4155 Clouds 0 988 82 590 0.45 357 00:37 02.01.2021
4156 Clouds 0 988 82 556 0.45 270 00:37 02.01.2021
4157 Clouds 0 988 82 590 0.45 357 23:57 01.01.2021
4158 Clouds 0 988 82 2307 0.45 90 23:23 01.01.2021
4159 Clouds 0 987 82 2307 0.45 90 22:48 01.01.2021
4160 Clouds 0 987 82 3094 1.7 348 22:26 01.01.2021
4161 Clouds 0 987 82 3094 1.7 348 21:58 01.01.2021
4162 Clouds 0 987 82 3094 0.45 45 21:39 01.01.2021
4163 Snow 0 987 82 333 0.45 88 21:19 01.01.2021
4164 Snow 0 987 82 333 0.45 90 20:43 01.01.2021
4165 Snow 0 986 82 199 1.72 357 20:18 01.01.2021
4166 Snow 0 986 82 199 1.72 357 19:41 01.01.2021
4167 Clouds 0 986 82 364 0.45 90 19:20 01.01.2021
4168 Clouds 0 1005 80 614 1.79 5 18:42 01.01.2021
4169 Clouds 0 986 81 9988 1.71 8 18:23 01.01.2021
4170 Clouds 0 986 81 9988 1.71 8 17:44 01.01.2021
4171 Snow 0 986 81 1214 1.69 12 17:23 01.01.2021
4172 Snow 0 985 81 1214 1.69 12 16:45 01.01.2021
4173 Snow 0 985 80 302 0.45 90 16:25 01.01.2021
4174 Snow 0 985 80 302 1.61 13 15:39 01.01.2021
4175 Snow 0 984 79 270 1.58 18 14:44 01.01.2021
4176 Snow 0 984 79 281 1.61 22 14:25 01.01.2021
4177 Snow 0 984 79 281 0.45 90 13:38 01.01.2021
4178 Snow 0 984 78 121 1.6 30 12:51 01.01.2021
4179 Snow 0 984 75 148 0.45 86 12:27 01.01.2021
4180 Snow 0 984 72 148 0.45 5 11:42 01.01.2021
4181 Snow -1 1004 82 208 1.73 14 11:19 01.01.2021
4182 Snow 0 984 80 208 0.45 90 10:56 01.01.2021
4183 Clouds 0 983 80 159 0.45 90 10:28 01.01.2021
4184 Snow 0 983 80 156 0.45 90 09:31 01.01.2021
4185 Snow 0 983 80 247 0.89 270 08:30 01.01.2021
4186 Snow 0 982 79 347 0.89 90 07:22 01.01.2021
4187 Clouds 0 981 78 920 0.45 90 04:51 01.01.2021
4188 Clouds 0 981 79 1534 0.45 90 01:58 01.01.2021
4189 Clouds 0 980 79 4395 1.66 2 00:33 01.01.2021
4190 Clouds 0 980 79 6370 0.45 315 23:41 31.12.2020
4191 Snow 0 980 80 991 1.66 357 23:21 31.12.2020
4192 Snow 0 980 80 991 0.45 90 22:42 31.12.2020
4193 Clouds 0 980 80 397 0.45 40 22:24 31.12.2020
4194 Clouds 0 980 80 397 0.45 318 21:57 31.12.2020
4195 Clouds 0 979 80 397 0.45 270 21:39 31.12.2020
4196 Clouds 0 998 91 2071 1.52 9 21:20 31.12.2020
4197 Clouds 0 979 80 10000 0.45 317 20:31 31.12.2020
4198 Clouds 0 979 79 10000 0.45 45 19:52 31.12.2020
4199 Clouds 0 978 79 10000 0.89 42 19:34 31.12.2020
4200 Clouds 0 978 77 10000 0.45 341 18:58 31.12.2020
4201 Clouds 0 978 77 1302 0.45 340 18:26 31.12.2020
4202 Clouds 0 998 91 1302 2.2 355 17:59 31.12.2020
4203 Clouds 0 998 91 1302 2.2 355 17:40 31.12.2020
4204 Clouds 0 998 91 3767 2.12 2 17:21 31.12.2020
4205 Clouds 0 998 93 3767 2.12 2 16:39 31.12.2020
4206 Clouds 0 978 76 3376 0.45 322 16:20 31.12.2020
4207 Clouds 0 978 77 3376 0.45 313 15:43 31.12.2020
4208 Clouds 0 977 76 825 0.45 314 15:20 31.12.2020
4209 Clouds 0 977 74 825 0.45 270 14:43 31.12.2020
4210 Clouds 1 977 73 4671 0.45 226 14:24 31.12.2020
4211 Clouds 1 977 70 4671 0.45 270 13:59 31.12.2020
4212 Clouds 0 982 1 4671 1.93 13 13:38 31.12.2020
4213 Clouds 0 997 95 10000 2.17 5 13:19 31.12.2020
4214 Clouds 0 997 96 10000 2.16 5 12:50 31.12.2020
4215 Clouds 0 997 97 10000 2.55 359 12:32 31.12.2020
4216 Clouds 0 997 98 10000 2.55 359 11:48 31.12.2020
4217 Clouds 0 997 98 3164 2.36 5 11:30 31.12.2020
4218 Clouds 0 982 1 3164 2.36 5 10:46 31.12.2020
4219 Clouds 0 997 98 1897 2.14 5 10:27 31.12.2020
4220 Clouds 0 977 81 1897 0.45 270 09:50 31.12.2020
4221 Clouds 0 977 81 1554 0.45 312 09:26 31.12.2020
4222 Clouds 0 977 81 1554 0.45 315 08:50 31.12.2020
4223 Snow 0 977 81 572 0.45 315 08:31 31.12.2020
4224 Snow 0 977 81 572 0.45 315 07:56 31.12.2020
4225 Snow 0 976 82 369 0.45 315 07:25 31.12.2020
4226 Clouds 0 976 82 655 0.45 228 05:30 31.12.2020
4227 Clouds 0 976 82 435 0.45 227 03:38 31.12.2020
4228 Clouds 1 976 82 430 0.45 226 02:44 31.12.2020
4229 Snow 1 976 82 458 0.45 312 02:25 31.12.2020
4230 Snow 1 976 82 458 0.45 180 01:43 31.12.2020
4231 Snow 1 976 82 356 0.45 228 01:21 31.12.2020
4232 Snow 1 976 82 356 0.45 312 00:43 31.12.2020
4233 Snow 1 976 82 511 0.45 270 23:43 30.12.2020
4234 Snow 1 976 83 506 0.45 315 23:19 30.12.2020
4235 Clouds 1 976 83 506 0.45 270 22:45 30.12.2020
4236 Snow 1 976 83 393 0.45 314 22:27 30.12.2020
4237 Clouds 1 976 83 393 0.45 270 21:39 30.12.2020
4238 Snow 1 975 83 166 0.45 248 21:20 30.12.2020
4239 Snow 1 975 83 166 0.89 315 20:41 30.12.2020
4240 Snow 1 975 82 146 1.23 30 20:20 30.12.2020
4241 Clouds 1 975 82 146 1.23 30 19:39 30.12.2020
4242 Snow 1 975 82 128 0.45 311 19:20 30.12.2020
4243 Snow 1 975 82 128 1.44 34 18:44 30.12.2020
4244 Snow 1 975 82 127 0.45 225 18:24 30.12.2020
4245 Clouds 1 974 82 127 0.45 275 17:50 30.12.2020
4246 Snow 1 975 82 127 0.45 270 17:31 30.12.2020
4247 Clouds 1 974 81 111 0.89 314 16:52 30.12.2020
4248 Clouds 1 974 81 37 0.45 317 16:27 30.12.2020
4249 Clouds 1 974 80 37 0.45 0 15:45 30.12.2020
4250 Clouds 1 974 73 29 0.89 235 15:24 30.12.2020
4251 Clouds 1 994 94 29 1.79 3 14:43 30.12.2020
4252 Snow 2 974 73 33 0.45 355 14:22 30.12.2020
4253 Clouds 2 974 66 40 0.45 273 13:29 30.12.2020
4254 Clouds 2 973 71 43 0.89 0 12:29 30.12.2020
4255 Clouds 2 978 1 43 2.77 54 11:57 30.12.2020
4256 Rain 2 973 80 43 0.89 269 11:36 30.12.2020
4257 Clouds 2 973 75 47 0.89 315 11:18 30.12.2020
4258 Clouds 2 973 84 47 0.45 252 10:40 30.12.2020
4259 Rain 2 973 84 56 0.45 272 10:21 30.12.2020
4260 Clouds 2 973 84 56 0.45 270 09:49 30.12.2020
4261 Clouds 2 972 84 66 0.45 226 09:25 30.12.2020
4262 Clouds 2 972 84 79 0.45 290 08:27 30.12.2020
4263 Snow 2 971 84 87 0.89 3 07:29 30.12.2020
4264 Clouds 2 971 84 225 0.45 271 06:52 30.12.2020
4265 Clouds 2 971 84 2321 0.45 271 06:30 30.12.2020
4266 Snow 2 970 84 2321 0.45 270 05:43 30.12.2020
4267 Clouds 2 970 84 3440 0.45 267 05:24 30.12.2020
4268 Clouds 2 970 84 2742 0.89 270 03:28 30.12.2020
4269 Clouds 2 969 84 2742 0.45 137 02:40 30.12.2020
4270 Rain 2 969 83 3892 0.89 314 01:56 30.12.2020
4271 Clouds 2 969 83 2610 0.89 42 01:33 30.12.2020
4272 Rain 2 969 84 3014 0.45 270 00:50 30.12.2020
4273 Rain 2 969 84 2263 0.45 353 00:30 30.12.2020
4274 Clouds 2 969 84 2263 0.45 228 23:54 29.12.2020
4275 Clouds 2 969 84 2142 1.34 313 23:36 29.12.2020
4276 Clouds 2 969 84 2142 1.34 225 22:58 29.12.2020
4277 Clouds 2 969 84 1907 0.89 314 22:40 29.12.2020
4278 Clouds 2 969 84 1907 0.89 270 22:20 29.12.2020
4279 Clouds 2 969 83 1907 0.45 275 21:46 29.12.2020
4280 Rain 2 969 83 87 0.89 273 21:24 29.12.2020
4281 Snow 2 969 83 87 0.89 269 20:46 29.12.2020
4282 Clouds 1 969 83 53 0.89 290 20:25 29.12.2020
4283 Snow 1 969 83 53 0.45 312 19:49 29.12.2020
4284 Clouds 1 969 82 71 0.89 45 19:23 29.12.2020
4285 Snow 2 969 82 71 0.45 225 18:54 29.12.2020
4286 Clouds 2 969 82 7711 0.89 222 18:32 29.12.2020
4287 Clouds 2 969 81 7711 0.45 292 17:57 29.12.2020
4288 Clouds 2 969 81 4498 0.45 315 17:37 29.12.2020
4289 Clouds 2 969 78 4498 0.45 293 17:18 29.12.2020
4290 Rain 2 969 76 3330 0.89 315 16:35 29.12.2020
4291 Clouds 2 969 74 3330 0.45 273 15:56 29.12.2020
4292 Clouds 2 969 80 3491 1.34 225 15:34 29.12.2020
4293 Clouds 2 968 78 3491 0.45 226 14:58 29.12.2020
4294 Rain 2 969 79 194 0.45 267 14:36 29.12.2020
4295 Rain 2 969 75 194 0.45 270 14:18 29.12.2020
4296 Rain 2 969 75 194 0.45 270 14:18 29.12.2020
4297 Clouds 2 968 69 194 0.89 314 13:39 29.12.2020
4298 Rain 1 989 98 6343 3 55 13:18 29.12.2020
4299 Clouds 2 973 1 4366 0.45 30 12:37 29.12.2020
4300 Clouds 2 973 1 8341 0.45 30 12:19 29.12.2020
4301 Clouds 2 969 82 8341 0.45 272 11:50 29.12.2020
4302 Clouds 2 987 98 8341 3.33 50 11:31 29.12.2020
4303 Rain 2 968 85 63 0.45 273 10:22 29.12.2020
4304 Clouds 2 968 85 63 0.45 270 09:47 29.12.2020
4305 Rain 2 968 85 54 0.45 267 09:19 29.12.2020
4306 Clouds 2 968 85 54 0.45 270 08:50 29.12.2020
4307 Clouds 2 967 85 51 0.45 320 07:58 29.12.2020
4308 Rain 2 967 85 43 0.45 275 07:26 29.12.2020
4309 Clouds 2 967 85 35 0.45 270 06:19 29.12.2020
4310 Rain 2 967 85 40 0.89 270 03:18 29.12.2020
4311 Clouds 2 967 84 70 0.45 226 00:44 29.12.2020
4312 Clouds 2 967 84 38 0.45 228 23:55 28.12.2020
4313 Snow 2 967 84 41 0.45 225 23:33 28.12.2020
4314 Snow 1 967 83 31 1.34 270 22:24 28.12.2020
4315 Snow 1 966 83 31 0.45 271 21:44 28.12.2020
4316 Snow 1 966 83 30 0.45 270 21:24 28.12.2020
4317 Snow 1 967 82 30 0.45 136 20:40 28.12.2020
4318 Snow 1 966 82 33 0.45 275 20:22 28.12.2020
4319 Snow 1 966 81 33 0.45 140 19:47 28.12.2020
4320 Snow 1 966 80 27 0.45 249 19:24 28.12.2020
4321 Snow 1 966 72 27 0.89 272 18:51 28.12.2020
4322 Snow 1 966 71 28 0.89 291 18:28 28.12.2020
4323 Snow 1 985 96 28 2.52 79 17:45 28.12.2020
4324 Snow 0 985 96 27 1.79 56 17:25 28.12.2020
4325 Snow 0 985 96 27 1.79 56 16:45 28.12.2020
4326 Snow 1 965 70 27 0.89 230 16:24 28.12.2020
4327 Snow 0 985 96 27 1.79 56 15:50 28.12.2020
4328 Snow 0 985 96 26 1.79 56 14:58 28.12.2020
4329 Snow 0 983 98 35 2.36 78 14:23 28.12.2020
4330 Snow 0 965 83 35 0.45 228 13:35 28.12.2020
4331 Snow 0 965 82 58 0.45 92 12:57 28.12.2020
4332 Snow 0 985 96 87 3.47 89 12:24 28.12.2020
4333 Snow 1 964 81 87 0.45 245 11:47 28.12.2020
4334 Snow 1 965 77 104 0.45 267 11:26 28.12.2020
4335 Snow 0 969 1 104 3.09 95 10:52 28.12.2020
4336 Snow 1 964 83 116 0.45 272 10:28 28.12.2020
4337 Snow 0 964 85 116 0.45 270 09:49 28.12.2020
4338 Snow 0 964 84 112 2.93 105 09:21 28.12.2020
4339 Snow 0 964 84 112 0.45 269 08:55 28.12.2020
4340 Snow 1 963 84 127 0.45 138 06:51 28.12.2020
4341 Snow 1 962 84 104 1.79 176 04:44 28.12.2020
4342 Snow 1 961 84 76 1.34 137 02:59 28.12.2020
4343 Snow 1 960 84 38 1.79 155 01:46 28.12.2020
4344 Snow 1 959 84 50 2.68 226 23:50 27.12.2020
4345 Snow 1 959 83 63 1.34 91 23:20 27.12.2020
4346 Clouds 1 958 83 72 3.13 88 21:59 27.12.2020
4347 Snow 1 957 83 75 2.68 270 21:27 27.12.2020
4348 Clouds 1 957 84 75 2.68 180 20:53 27.12.2020
4349 Snow 1 957 84 68 2.68 163 19:49 27.12.2020
4350 Snow 1 957 84 59 2.68 223 19:23 27.12.2020
4351 Snow 1 956 84 48 2.24 245 18:47 27.12.2020
4352 Snow 1 956 84 49 2.68 245 18:20 27.12.2020
4353 Snow 2 956 83 49 1.79 183 17:52 27.12.2020
4354 Snow 2 956 83 49 2.24 313 17:34 27.12.2020
4355 Snow 2 956 83 70 2.24 93 16:54 27.12.2020
4356 Rain 2 956 82 65 3.13 45 16:21 27.12.2020
4357 Rain 2 956 83 80 1.34 48 15:22 27.12.2020
4358 Snow 2 956 84 80 2.24 223 14:45 27.12.2020
4359 Snow 2 956 84 163 2.68 180 14:27 27.12.2020
4360 Rain 2 956 83 438 2.68 310 13:23 27.12.2020
4361 Snow 2 956 80 438 2.68 268 12:51 27.12.2020
4362 Rain 2 956 73 1412 2.68 134 12:22 27.12.2020
4363 Rain 2 956 83 1412 1.34 179 11:40 27.12.2020
4364 Rain 3 956 83 2991 2.68 267 10:53 27.12.2020
4365 Rain 3 957 80 3577 2.68 315 10:26 27.12.2020
4366 Rain 5 956 73 3577 4.47 0 09:58 27.12.2020
4367 Rain 4 957 85 3912 2.68 222 08:50 27.12.2020
4368 Rain 4 956 84 4318 2.68 42 08:26 27.12.2020
4369 Rain 4 957 85 4223 1.34 223 07:28 27.12.2020
4370 Rain 5 958 85 2696 3.58 248 05:46 27.12.2020
4371 Rain 5 959 86 2766 2.68 225 04:58 27.12.2020
4372 Rain 4 961 87 4019 1.79 223 03:22 27.12.2020
4373 Rain 4 963 87 2638 1.34 137 01:35 27.12.2020
4374 Rain 3 965 86 3478 1.34 315 00:25 27.12.2020
4375 Rain 3 966 87 1433 3.13 315 23:41 26.12.2020
4376 Rain 3 966 87 1433 1.79 94 23:21 26.12.2020
4377 Rain 3 967 88 1433 1.34 90 22:38 26.12.2020
4378 Rain 3 968 88 540 2.68 182 22:18 26.12.2020
4379 Rain 3 968 88 540 2.68 182 22:18 26.12.2020
4380 Rain 3 968 88 540 1.34 92 21:52 26.12.2020
4381 Clouds 3 969 88 2101 0.89 90 21:24 26.12.2020
4382 Rain 3 969 88 2101 1.34 90 20:43 26.12.2020
4383 Rain 3 970 88 1212 2.24 222 20:20 26.12.2020
4384 Rain 3 971 88 6355 2.24 180 19:30 26.12.2020
4385 Rain 2 972 88 4273 2.24 0 18:54 26.12.2020
4386 Rain 2 972 88 6811 2.68 90 18:32 26.12.2020
4387 Rain 2 973 88 6811 2.24 90 17:46 26.12.2020
4388 Snow 2 974 88 1653 1.79 247 17:27 26.12.2020
4389 Snow 1 975 87 1653 2.24 247 16:38 26.12.2020
4390 Snow 1 976 85 1149 1.34 133 15:57 26.12.2020
4391 Snow 1 977 84 1287 1.34 266 15:20 26.12.2020
4392 Snow 0 978 80 388 0.89 90 14:30 26.12.2020
4393 Snow 0 979 70 388 15.65 90 13:56 26.12.2020
4394 Snow 0 979 70 388 15.65 90 13:56 26.12.2020
4395 Snow -1 1001 95 225 1.26 163 13:36 26.12.2020
4396 Snow -1 1001 95 225 1.26 163 12:53 26.12.2020
4397 Snow -1 1001 95 284 0.61 145 12:35 26.12.2020
4398 Snow -1 1002 89 332 0.47 167 11:59 26.12.2020
4399 Snow -1 1003 88 332 0.47 167 11:41 26.12.2020
4400 Snow -1 983 83 120 1.34 312 11:19 26.12.2020
4401 Snow -1 983 83 120 0.45 90 10:43 26.12.2020
4402 Snow -1 984 82 1137 0.89 90 10:23 26.12.2020
4403 Clouds -1 984 81 6522 0.45 90 09:41 26.12.2020
4404 Clouds -2 985 81 6522 0.45 90 08:54 26.12.2020
4405 Snow -2 985 80 10000 0.45 90 08:18 26.12.2020
4406 Clouds -2 986 78 10000 0.89 90 07:21 26.12.2020
4407 Snow -2 988 63 10000 0.45 90 04:39 26.12.2020
4408 Snow -3 990 61 10000 0.45 90 02:34 26.12.2020
4409 Clouds -3 991 61 10000 1.15 193 00:34 26.12.2020
4410 Clouds -3 992 61 10000 0.74 179 23:49 25.12.2020
4411 Clouds -3 992 61 10000 0.58 252 23:28 25.12.2020
4412 Clouds -3 993 60 10000 0.58 252 22:51 25.12.2020
4413 Clouds -3 993 60 10000 0.44 286 22:26 25.12.2020
4414 Clouds -3 994 60 10000 0.72 327 21:42 25.12.2020
4415 Clouds -3 994 60 10000 0.72 327 21:24 25.12.2020
4416 Clouds -3 994 60 10000 0.72 327 20:44 25.12.2020
4417 Clouds -3 994 58 10000 0.99 318 20:26 25.12.2020
4418 Clouds -3 994 57 10000 0.99 318 19:42 25.12.2020
4419 Clouds -3 995 55 10000 1.25 309 18:47 25.12.2020
4420 Clouds -3 995 54 10000 1.37 314 18:29 25.12.2020
4421 Clouds -2 995 54 10000 1.37 314 17:35 25.12.2020
4422 Clear -2 995 53 10000 1.56 318 16:51 25.12.2020
4423 Clear -2 995 51 10000 1.74 316 16:24 25.12.2020
4424 Clear -2 1016 70 10000 2.68 243 15:50 25.12.2020
4425 Clear -2 1000 70 10000 1.88 320 15:31 25.12.2020
4426 Clear -1 1017 41 10000 2.2 317 14:32 25.12.2020
4427 Clear 0 1017 42 10000 2.2 317 13:57 25.12.2020
4428 Snow 0 1017 73 10000 2.2 317 13:37 25.12.2020
4429 Clear 0 1017 73 10000 2.35 314 13:18 25.12.2020
4430 Clear -1 1018 45 10000 2.32 313 12:27 25.12.2020
4431 Clear -1 1017 44 10000 2.32 313 11:48 25.12.2020
4432 Clear -1 1001 67 10000 2.25 313 11:24 25.12.2020
4433 Clear -1 1001 67 10000 2.25 313 11:24 25.12.2020
4434 Clear -2 1018 50 10000 2.25 313 10:47 25.12.2020
4435 Clear -1 996 50 10000 2.28 318 10:19 25.12.2020
4436 Clear -1 996 50 10000 2.36 314 09:26 25.12.2020
4437 Snow -2 1018 46 10000 2.36 314 08:40 25.12.2020
4438 Clear -1 1000 69 10000 2.24 313 07:35 25.12.2020
4439 Clouds -1 999 68 10000 2.24 319 06:44 25.12.2020
4440 Clouds -1 998 68 10000 0.45 323 02:36 25.12.2020
4441 Clear -1 993 53 10000 2.77 322 00:35 25.12.2020
4442 Clear -2 993 52 10000 2.6 317 23:32 24.12.2020
4443 Clear -2 993 53 10000 2.6 317 22:56 24.12.2020
4444 Clear -2 993 53 10000 2.32 312 22:26 24.12.2020
4445 Clear -2 993 53 10000 2.32 312 21:53 24.12.2020
4446 Clear -2 1011 76 10000 2.68 287 21:25 24.12.2020
4447 Clear -1 992 54 10000 0.45 270 20:18 24.12.2020
4448 Clear -1 1011 76 10000 2.68 287 18:22 24.12.2020
4449 Clear 0 991 56 10000 2.2 319 17:45 24.12.2020
4450 Clear 0 991 55 10000 2.21 317 17:26 24.12.2020
4451 Clear 0 990 55 10000 0.45 270 16:27 24.12.2020
4452 Clear 0 990 54 10000 0.45 90 15:49 24.12.2020
4453 Clear 0 990 54 10000 2.06 314 15:29 24.12.2020
4454 Clear 1 989 53 10000 0.45 90 14:58 24.12.2020
4455 Snow 1 1011 53 10000 2.06 314 14:40 24.12.2020
4456 Clear 1 989 52 10000 0.45 90 14:22 24.12.2020
4457 Clear 1 1009 72 10000 2.08 322 13:39 24.12.2020
4458 Clear 1 989 51 10000 2.15 330 13:19 24.12.2020
4459 Snow 1 1008 77 10000 1.79 302 12:41 24.12.2020
4460 Clear 1 1008 77 10000 1.79 302 12:19 24.12.2020
4461 Clear 1 1008 77 10000 1.79 302 11:39 24.12.2020
4462 Clear 1 1008 77 10000 1.79 302 11:20 24.12.2020
4463 Snow -1 1008 77 10000 1.79 321 10:46 24.12.2020
4464 Clear 0 989 62 10000 2.51 334 10:28 24.12.2020
4465 Clear -1 988 63 10000 0.45 90 09:51 24.12.2020
4466 Clear 0 988 60 10000 2.46 328 09:23 24.12.2020
4467 Clear -1 987 66 10000 0.45 90 07:57 24.12.2020
4468 Clear -1 987 66 10000 0.45 90 07:37 24.12.2020
4469 Clouds -1 986 69 10000 0.45 90 06:52 24.12.2020
4470 Clouds 0 986 70 10000 2.03 334 04:24 24.12.2020
4471 Clear -1 985 80 10000 1.74 327 01:53 24.12.2020
4472 Clouds -1 985 80 10000 1.71 330 01:30 24.12.2020
4473 Clouds -1 985 80 10000 2 347 00:55 24.12.2020
4474 Clouds -1 985 80 10000 1.72 354 00:19 24.12.2020
4475 Clouds -1 985 80 10000 1.62 2 23:40 23.12.2020
4476 Clouds 0 985 80 10000 1.62 2 23:21 23.12.2020
4477 Clouds 0 985 80 10000 1.62 2 22:50 23.12.2020
4478 Clouds 0 985 81 10000 1.5 7 22:29 23.12.2020
4479 Snow 0 985 83 10000 1.5 7 21:49 23.12.2020
4480 Clouds -1 985 83 10000 1.03 337 21:23 23.12.2020
4481 Clouds -1 984 82 10000 1.03 337 20:47 23.12.2020
4482 Clouds -1 984 82 10000 1.24 333 20:28 23.12.2020
4483 Clouds -1 984 82 10000 1.24 333 19:59 23.12.2020
4484 Clouds -1 984 82 10000 1.24 333 19:38 23.12.2020
4485 Clouds -1 984 82 10000 1.36 350 19:19 23.12.2020
4486 Clouds 0 984 81 10000 1.47 360 18:46 23.12.2020
4487 Clouds 0 984 81 10000 1.52 8 18:20 23.12.2020
4488 Clouds 0 983 80 10000 1.46 352 17:36 23.12.2020
4489 Clouds 0 983 80 10000 1.46 352 17:18 23.12.2020
4490 Clouds 0 983 80 10000 1.46 352 16:40 23.12.2020
4491 Clouds 0 983 77 10000 1.4 346 16:22 23.12.2020
4492 Clouds 1 983 75 10000 1.4 346 15:50 23.12.2020
4493 Clouds 2 983 75 10000 1.14 330 15:27 23.12.2020
4494 Clouds 2 982 75 10000 1.14 330 14:58 23.12.2020
4495 Clouds 1 1002 95 10000 1.14 330 14:37 23.12.2020
4496 Clouds 2 982 73 10000 1.24 326 14:19 23.12.2020
4497 Clouds 0 1002 83 10000 1.24 326 13:43 23.12.2020
4498 Clear 0 1002 83 10000 1.53 335 13:19 23.12.2020
4499 Clear 0 1002 83 10000 1.55 331 12:47 23.12.2020
4500 Clear 0 1002 83 10000 1.68 335 12:24 23.12.2020
4501 Clear 0 1002 83 10000 1.68 335 11:46 23.12.2020
4502 Clear 0 1002 83 10000 1.53 314 11:19 23.12.2020
4503 Clear 0 1002 83 10000 1.53 314 10:42 23.12.2020
4504 Clear 0 982 82 10000 1.18 289 10:24 23.12.2020
4505 Clear 0 981 86 10000 1.18 289 09:33 23.12.2020
4506 Clear 0 981 86 10000 1.13 290 08:45 23.12.2020
4507 Clear 0 980 86 10000 0.98 285 08:20 23.12.2020
4508 Clear 0 980 86 10000 0.94 297 07:27 23.12.2020
4509 Clear 1 979 87 10000 0.78 313 06:41 23.12.2020
4510 Clear 1 978 86 10000 0.45 90 05:39 23.12.2020
4511 Clear 1 978 86 10000 0.9 268 04:57 23.12.2020
4512 Clouds 1 976 86 10000 0.45 90 00:34 23.12.2020
4513 Clouds 2 977 87 10000 0.45 90 23:58 22.12.2020
4514 Clouds 2 976 87 10000 0.45 90 23:33 22.12.2020
4515 Clouds 2 976 87 10000 0.45 90 22:44 22.12.2020
4516 Clouds 2 976 87 8932 0.45 90 22:25 22.12.2020
4517 Clouds 2 976 87 8932 0.45 90 21:59 22.12.2020
4518 Clouds 3 976 88 8932 0.45 90 21:41 22.12.2020
4519 Clouds 3 976 88 8821 0.45 90 21:19 22.12.2020
4520 Clouds 3 976 88 8821 0.45 90 20:48 22.12.2020
4521 Clouds 3 976 88 6474 0.89 90 20:21 22.12.2020
4522 Clouds 3 976 88 6474 0.45 90 19:44 22.12.2020
4523 Clouds 3 976 88 685 0.45 90 19:22 22.12.2020
4524 Clouds 3 976 87 685 0.45 90 18:55 22.12.2020
4525 Clouds 4 976 87 10000 0.45 90 18:30 22.12.2020
4526 Clouds 4 976 86 10000 0.45 90 17:59 22.12.2020
4527 Clouds 4 976 83 10000 0.45 90 17:26 22.12.2020
4528 Clouds 4 976 81 10000 0.45 90 16:56 22.12.2020
4529 Clouds 4 976 79 10000 0.45 90 16:37 22.12.2020
4530 Clouds 3 997 62 10000 0.89 86 16:19 22.12.2020
4531 Clouds 3 997 62 10000 0.89 86 15:43 22.12.2020
4532 Clouds 4 997 97 10000 1.79 86 15:23 22.12.2020
4533 Clouds 4 976 82 10000 1.16 111 14:45 22.12.2020
4534 Clouds 4 976 80 6551 0.45 324 14:27 22.12.2020
4535 Rain 4 976 78 6551 0.45 90 13:50 22.12.2020
4536 Rain 4 976 73 10000 0.39 48 13:20 22.12.2020
4537 Rain 4 997 97 7753 1.79 132 12:58 22.12.2020
4538 Rain 4 976 85 5144 0.89 90 12:39 22.12.2020
4539 Rain 4 977 85 5144 0.45 90 12:19 22.12.2020
4540 Rain 4 977 86 5144 0.45 90 11:42 22.12.2020
4541 Rain 4 977 86 5087 2.08 105 11:22 22.12.2020
4542 Rain 4 977 85 5087 0.45 90 10:55 22.12.2020
4543 Clouds 4 977 85 4565 0.89 92 10:27 22.12.2020
4544 Clouds 4 977 85 4565 0.89 90 09:58 22.12.2020
4545 Rain 4 978 84 300 1.34 176 09:30 22.12.2020
4546 Rain 4 978 84 300 0.89 90 08:58 22.12.2020
4547 Rain 4 978 84 300 1.79 294 08:39 22.12.2020
4548 Rain 4 978 84 137 1.34 180 08:19 22.12.2020
4549 Rain 4 979 85 3123 1.34 223 07:27 22.12.2020
4550 Rain 4 979 85 3123 1.34 90 06:34 22.12.2020
4551 Rain 4 980 86 9119 0.89 90 05:33 22.12.2020
4552 Clouds 4 983 86 10000 0.89 90 02:31 22.12.2020
4553 Clouds 4 984 89 9397 1.34 90 00:30 22.12.2020
4554 Clouds 4 985 89 9397 0.89 90 23:51 21.12.2020
4555 Rain 4 985 89 9548 0.45 90 23:22 21.12.2020
4556 Clouds 4 985 89 9548 0.45 90 22:37 21.12.2020
4557 Clouds 3 985 89 10000 0.45 90 22:19 21.12.2020
4558 Clouds 3 986 88 10000 0.45 90 21:48 21.12.2020
4559 Clouds 3 986 88 10000 0.45 90 21:30 21.12.2020
4560 Clouds 3 986 88 10000 0.45 90 20:45 21.12.2020
4561 Clouds 2 986 87 10000 0.45 90 20:21 21.12.2020
4562 Clouds 2 986 87 10000 0.45 90 19:54 21.12.2020
4563 Clouds 2 986 87 10000 0.45 90 19:36 21.12.2020
4564 Clouds 2 986 87 10000 0.45 90 19:18 21.12.2020
4565 Clouds 3 986 87 10000 0.45 90 18:44 21.12.2020
4566 Clouds 3 986 87 10000 2.77 196 18:25 21.12.2020
4567 Clouds 3 986 87 10000 0.45 90 17:42 21.12.2020
4568 Clear 3 986 86 10000 0.89 96 17:23 21.12.2020
4569 Clear 3 986 85 10000 2.59 190 16:45 21.12.2020
4570 Clear 3 986 85 10000 0.45 90 16:21 21.12.2020
4571 Clear 4 986 84 10000 0.45 90 15:43 21.12.2020
4572 Clouds 4 986 83 10000 1.34 90 14:58 21.12.2020
4573 Clouds 5 986 83 10000 0.89 90 14:36 21.12.2020
4574 Clouds 5 986 83 10000 2.57 191 14:18 21.12.2020
4575 Clouds 5 986 84 10000 0.45 90 13:41 21.12.2020
4576 Clouds 5 986 85 10000 0.89 90 13:22 21.12.2020
4577 Clouds 6 986 80 10000 0.89 98 12:42 21.12.2020
4578 Clouds 6 986 68 10000 0.45 90 12:22 21.12.2020
4579 Clouds 5 1006 98 10000 3.79 195 11:43 21.12.2020
4580 Clouds 5 986 88 10000 0.45 90 11:22 21.12.2020
4581 Clouds 5 986 88 10000 0.89 90 10:58 21.12.2020
4582 Clouds 5 986 88 10000 0.45 90 10:39 21.12.2020
4583 Clouds 5 986 88 6773 0.45 90 09:58 21.12.2020
4584 Clouds 5 986 88 6773 0.45 90 09:40 21.12.2020
4585 Clouds 5 986 88 8209 0.45 90 09:40 21.12.2020
4586 Clouds 5 986 88 8209 0.45 90 09:22 21.12.2020
4587 Clouds 5 986 88 9462 0.45 90 08:29 21.12.2020
4588 Clouds 5 986 88 10000 0.45 90 07:27 21.12.2020
4589 Clouds 5 987 86 10000 0.89 90 05:40 21.12.2020
4590 Clouds 5 987 86 10000 1.34 223 04:31 21.12.2020
4591 Clouds 6 987 88 10000 0.89 90 00:37 21.12.2020
4592 Clouds 6 988 86 10000 0.89 90 23:51 20.12.2020
4593 Clouds 6 988 86 10000 0.89 90 23:21 20.12.2020
4594 Clouds 6 987 85 10000 0.89 98 22:45 20.12.2020
4595 Clouds 6 988 85 10000 0.89 90 22:26 20.12.2020
4596 Clouds 6 987 85 10000 1.34 182 21:58 20.12.2020
4597 Clouds 6 987 88 10000 0.89 96 21:38 20.12.2020
4598 Clouds 6 987 88 10000 0.89 90 21:18 20.12.2020
4599 Clouds 7 987 84 10000 1.34 86 20:44 20.12.2020
4600 Clouds 7 987 83 10000 0.89 92 20:21 20.12.2020
4601 Clouds 7 987 85 10000 1.34 155 19:43 20.12.2020
4602 Clouds 7 987 86 10000 1.34 177 19:22 20.12.2020
4603 Clouds 7 987 86 10000 0.89 219 18:54 20.12.2020
4604 Clouds 7 987 87 10000 1.34 90 18:36 20.12.2020
4605 Clouds 7 987 86 10000 0.89 221 17:48 20.12.2020
4606 Clouds 7 987 81 10000 1.34 224 17:29 20.12.2020
4607 Clouds 7 987 81 10000 2.68 275 16:57 20.12.2020
4608 Clouds 7 987 86 10000 0.45 90 16:38 20.12.2020
4609 Clouds 7 987 85 10000 1.34 270 16:19 20.12.2020
4610 Clouds 7 987 77 10000 1.34 313 15:37 20.12.2020
4611 Clouds 7 987 74 10000 1.34 90 15:18 20.12.2020
4612 Clouds 7 987 72 10000 22.8 90 14:38 20.12.2020
4613 Clouds 6 1007 97 10000 5.09 193 14:19 20.12.2020
4614 Rain 7 987 75 10000 7.15 183 13:41 20.12.2020
4615 Clouds 7 987 72 10000 0.45 90 13:21 20.12.2020
4616 Clouds 7 1007 97 10000 5.03 192 12:49 20.12.2020
4617 Clouds 6 1007 97 10000 5.1 192 12:22 20.12.2020
4618 Rain 7 987 85 10000 1.34 93 11:49 20.12.2020
4619 Clouds 7 987 85 10000 2.24 227 11:26 20.12.2020
4620 Clouds 7 987 85 10000 1.79 95 10:49 20.12.2020
4621 Rain 6 987 90 10000 0.89 178 10:21 20.12.2020
4622 Clouds 7 987 91 10000 1.34 92 09:55 20.12.2020
4623 Clouds 7 987 91 10000 0.89 90 09:36 20.12.2020
4624 Clouds 7 987 91 10000 1.34 90 09:18 20.12.2020
4625 Clouds 7 987 91 10000 0.45 223 08:44 20.12.2020
4626 Clouds 7 986 92 10000 2.24 90 08:25 20.12.2020
4627 Rain 7 986 89 10000 1.34 246 07:21 20.12.2020
4628 Clouds 6 986 92 10000 2.24 184 02:47 20.12.2020
4629 Clouds 6 986 92 10000 1.34 94 01:25 20.12.2020
4630 Clouds 6 986 92 10000 1.34 180 23:41 19.12.2020
4631 Clouds 6 987 92 10000 2.24 88 23:18 19.12.2020
4632 Clouds 6 986 92 10000 2.24 139 23:18 19.12.2020
4633 Clouds 6 986 92 10000 2.24 139 23:18 19.12.2020
4634 Clouds 6 986 92 10000 1.34 134 22:44 19.12.2020
4635 Clouds 6 986 92 10000 1.34 313 22:24 19.12.2020
4636 Clouds 6 987 92 10000 1.34 180 21:58 19.12.2020
4637 Clouds 5 987 91 10000 1.34 179 21:38 19.12.2020
4638 Clouds 5 987 91 10000 0.45 90 21:20 19.12.2020
4639 Clouds 6 987 91 10000 0.89 90 20:37 19.12.2020
4640 Clouds 6 987 91 10000 2.24 90 20:18 19.12.2020
4641 Clouds 6 987 91 10000 0.45 90 19:46 19.12.2020
4642 Clouds 6 987 91 10000 1.34 90 19:24 19.12.2020
4643 Clouds 6 987 91 10000 0.45 90 18:34 19.12.2020
4644 Clouds 6 987 91 10000 1.34 269 17:58 19.12.2020
4645 Clouds 6 987 91 10000 1.34 90 17:37 19.12.2020
4646 Clouds 6 987 91 10000 1.34 90 17:19 19.12.2020
4647 Clouds 6 987 91 10000 1.34 90 16:40 19.12.2020
4648 Clouds 6 987 90 10000 1.34 90 16:22 19.12.2020
4649 Clouds 6 987 89 10000 0.89 90 15:54 19.12.2020
4650 Clouds 6 987 82 10000 0.89 90 15:26 19.12.2020
4651 Clouds 6 987 90 10000 0.89 90 14:39 19.12.2020
4652 Clouds 6 987 82 10000 0.89 90 13:59 19.12.2020
4653 Clouds 6 1008 97 10000 1.79 76 13:40 19.12.2020
4654 Clouds 6 1008 97 9081 4.4 181 13:18 19.12.2020
4655 Clouds 6 1008 97 9081 4.4 181 12:42 19.12.2020
4656 Clouds 7 988 92 8760 11.62 79 12:24 19.12.2020
4657 Clouds 6 988 96 8760 0.89 271 11:56 19.12.2020
4658 Clouds 6 988 96 8760 2.24 178 11:35 19.12.2020
4659 Clouds 6 988 96 9712 1.34 90 10:42 19.12.2020
4660 Clouds 6 988 97 8945 0.89 90 10:21 19.12.2020
4661 Rain 7 988 97 8945 0.89 90 09:42 19.12.2020
4662 Rain 7 988 97 5155 1.34 86 08:59 19.12.2020
4663 Clouds 7 988 96 5031 0.45 90 08:25 19.12.2020
4664 Clouds 7 987 96 9282 0.89 90 07:24 19.12.2020
4665 Clouds 7 987 96 8283 0.89 96 06:51 19.12.2020
4666 Clouds 7 987 96 785 0.89 90 06:18 19.12.2020
4667 Clouds 7 987 96 785 0.89 90 06:18 19.12.2020
4668 Clouds 7 987 96 9282 1.34 178 05:18 19.12.2020
4669 Fog 6 1009 92 900 1 0 01:36 19.12.2020
4670 Fog 5 1009 92 1400 1 360 00:36 19.12.2020
4671 Mist 5 1009 91 2400 1 30 00:18 19.12.2020
4672 Mist 5 1009 91 2500 0.5 0 23:44 18.12.2020
4673 Mist 4 1009 92 2500 0.5 0 23:22 18.12.2020
4674 Drizzle 5 1009 92 2700 1 0 22:45 18.12.2020
4675 Mist 3 1009 91 4400 2.63 191 22:21 18.12.2020
4676 Mist 3 1009 91 4500 2.63 191 21:47 18.12.2020
4677 Mist 3 1009 91 4500 2.98 192 21:28 18.12.2020
4678 Drizzle 3 1009 91 4500 1 0 20:40 18.12.2020
4679 Clouds 4 987 94 664 0.89 90 20:20 18.12.2020
4680 Clouds 4 987 94 664 0.45 90 19:42 18.12.2020
4681 Clouds 4 987 94 4475 0.89 90 19:20 18.12.2020
4682 Clouds 3 1009 91 6000 0.5 0 18:41 18.12.2020
4683 Clouds 4 987 93 5218 0.45 158 18:23 18.12.2020
4684 Clouds 4 987 92 3619 1.34 90 17:24 18.12.2020
4685 Clouds 4 987 92 3619 0.45 90 16:53 18.12.2020
4686 Rain 3 987 92 421 0.45 90 16:28 18.12.2020
4687 Rain 3 987 91 421 0.89 90 16:00 18.12.2020
4688 Rain 3 987 91 421 0.89 90 15:41 18.12.2020
4689 Rain 3 987 91 3280 0.89 90 15:22 18.12.2020
4690 Rain 3 987 91 3280 0.45 90 14:55 18.12.2020
4691 Snow 1 988 90 10000 0.83 88 14:22 18.12.2020
4692 Snow 1 988 90 10000 0.83 88 13:50 18.12.2020
4693 Snow 1 989 90 10000 0.83 88 13:31 18.12.2020
4694 Snow 1 989 90 10000 0.78 117 12:50 18.12.2020
4695 Snow 0 989 89 10000 0.45 152 12:22 18.12.2020
4696 Clouds 0 989 89 10000 0.57 186 11:23 18.12.2020
4697 Clouds 0 989 89 10000 0.57 186 10:40 18.12.2020
4698 Clouds 0 989 89 10000 0.4 128 10:20 18.12.2020
4699 Clouds 0 989 89 10000 0.4 128 09:40 18.12.2020
4700 Clouds 0 988 89 10000 0.07 203 09:22 18.12.2020
4701 Clouds 0 988 89 10000 0.07 203 08:55 18.12.2020
4702 Clouds 0 989 89 10000 0.58 242 08:30 18.12.2020
4703 Clouds 0 989 89 10000 0.58 242 07:46 18.12.2020
4704 Clouds 1 988 89 10000 0.45 90 07:18 18.12.2020
4705 Clouds 1 988 89 10000 0.45 90 06:51 18.12.2020
4706 Clouds 1 988 89 10000 0.4 242 05:42 18.12.2020
4707 Clouds 1 988 88 10000 0.45 90 04:51 18.12.2020
4708 Clouds 1 987 88 10000 0.45 90 02:24 18.12.2020
4709 Clouds 1 987 89 10000 0.45 90 01:40 18.12.2020
4710 Clouds 2 986 89 10000 0.45 90 00:27 18.12.2020
4711 Clouds 2 986 89 10000 0.83 301 23:50 17.12.2020
4712 Clouds 3 986 90 10000 0.77 347 23:19 17.12.2020
4713 Clouds 3 985 90 10000 0.77 347 22:47 17.12.2020
4714 Clouds 3 985 90 8940 1.08 358 22:26 17.12.2020
4715 Rain 4 985 90 8940 1.08 358 21:43 17.12.2020
4716 Rain 4 985 90 4617 1.22 11 21:20 17.12.2020
4717 Rain 4 985 90 4617 1.22 11 20:43 17.12.2020
4718 Rain 4 985 90 1884 1.25 27 20:19 17.12.2020
4719 Rain 4 985 90 1884 1.25 27 19:49 17.12.2020
4720 Rain 4 985 90 1571 1.24 36 19:25 17.12.2020
4721 Rain 4 985 90 1378 1.21 44 18:47 17.12.2020
4722 Rain 4 985 91 1443 0.45 90 18:27 17.12.2020
4723 Rain 4 985 90 1443 0.89 90 17:58 17.12.2020
4724 Rain 4 985 90 1443 0.45 90 17:36 17.12.2020
4725 Rain 4 985 90 1506 0.89 90 17:18 17.12.2020
4726 Rain 4 985 89 1506 0.45 90 16:37 17.12.2020
4727 Rain 4 985 89 1802 2.24 180 16:18 17.12.2020
4728 Rain 4 985 89 1802 1.34 90 15:41 17.12.2020
4729 Rain 4 986 89 3034 0.89 90 15:20 17.12.2020
4730 Rain 4 986 89 3034 0.89 142 14:47 17.12.2020
4731 Rain 4 986 89 3955 1.34 90 14:20 17.12.2020
4732 Clouds 4 987 90 3955 1.34 89 13:42 17.12.2020
4733 Clouds 4 987 91 4635 1.34 90 13:18 17.12.2020
4734 Rain 4 988 91 5186 0.89 90 12:39 17.12.2020
4735 Rain 4 988 91 5186 0.89 90 12:21 17.12.2020
4736 Rain 4 989 92 5186 0.89 90 11:41 17.12.2020
4737 Rain 4 989 92 5490 0.89 90 11:20 17.12.2020
4738 Rain 3 989 91 5490 0.45 90 10:40 17.12.2020
4739 Rain 3 989 91 3611 0.89 90 09:37 17.12.2020
4740 Rain 3 989 91 3483 0.45 90 08:50 17.12.2020
4741 Clouds 2 990 91 6684 0.45 90 07:42 17.12.2020
4742 Rain 2 990 91 8288 0.45 90 07:21 17.12.2020
4743 Snow 1 990 91 5802 0.45 90 06:47 17.12.2020
4744 Clouds 1 991 91 6319 0.45 90 06:29 17.12.2020
4745 Clouds 1 992 90 10000 0.85 75 03:30 17.12.2020
4746 Clouds 0 993 90 10000 1.18 37 00:27 17.12.2020
4747 Clouds 0 993 90 10000 1.18 37 23:42 16.12.2020
4748 Clouds 0 993 90 10000 0.58 13 23:18 16.12.2020
4749 Clouds 0 993 90 10000 0.58 13 22:48 16.12.2020
4750 Clouds -1 993 90 10000 0.66 44 22:30 16.12.2020
4751 Clouds -1 993 90 10000 0.66 44 21:44 16.12.2020
4752 Clouds -1 993 90 10000 0.71 51 21:23 16.12.2020
4753 Clouds -1 993 90 10000 0.71 51 20:52 16.12.2020
4754 Clouds -1 993 90 10000 0.26 65 20:20 16.12.2020
4755 Clouds 0 993 90 10000 0.26 65 19:38 16.12.2020
4756 Clouds -1 992 90 10000 0.78 19 19:18 16.12.2020
4757 Clouds -1 992 90 10000 0.64 22 18:49 16.12.2020
4758 Clouds -1 992 90 10000 0.45 90 18:25 16.12.2020
4759 Clouds -1 992 90 10000 0.43 351 17:38 16.12.2020
4760 Clouds -1 992 90 10000 0.73 359 16:56 16.12.2020
4761 Clouds -1 992 90 10000 0.73 359 16:36 16.12.2020
4762 Clear -1 992 90 10000 0.91 7 16:18 16.12.2020
4763 Clear 0 992 90 10000 0.91 7 15:46 16.12.2020
4764 Clear 0 992 90 10000 0.63 322 15:18 16.12.2020
4765 Clear 0 991 90 10000 0.63 322 14:44 16.12.2020
4766 Clear 0 991 90 10000 0.45 90 14:26 16.12.2020
4767 Clear 0 991 90 10000 0.54 333 13:41 16.12.2020
4768 Clear 0 991 90 10000 0.45 90 13:20 16.12.2020
4769 Clear 0 991 90 10000 0.45 90 12:43 16.12.2020
4770 Clear 0 990 90 10000 0.32 268 11:51 16.12.2020
4771 Clear 0 990 90 10000 0.45 90 11:32 16.12.2020
4772 Clear 0 990 90 10000 0.95 8 10:56 16.12.2020
4773 Clear 0 989 89 10000 0.45 90 10:36 16.12.2020
4774 Clear 0 989 90 10000 0.45 90 09:56 16.12.2020
4775 Clear 0 989 90 10000 0.83 344 09:32 16.12.2020
4776 Clear 0 988 90 10000 0.79 342 08:23 16.12.2020
4777 Clear 0 987 90 10000 0.79 342 07:45 16.12.2020
4778 Clear 0 987 90 10000 0.84 326 07:20 16.12.2020
4779 Clear 1 986 90 10000 0.89 90 03:37 16.12.2020
4780 Clear 1 985 90 10000 0.71 275 01:59 16.12.2020
4781 Clouds 1 985 90 10000 0.45 90 23:50 15.12.2020
4782 Clouds 1 984 90 10000 0.61 265 23:32 15.12.2020
4783 Clouds 1 984 90 10000 0.61 265 22:42 15.12.2020
4784 Clouds 1 984 90 10000 0.63 303 22:22 15.12.2020
4785 Clouds 1 984 90 10000 0.63 303 21:48 15.12.2020
4786 Clouds 1 983 90 10000 0.45 90 21:24 15.12.2020
4787 Clouds 1 983 90 10000 0.78 299 20:46 15.12.2020
4788 Clouds 1 983 90 10000 0.8 304 20:27 15.12.2020
4789 Clouds 2 983 90 10000 0.8 304 19:55 15.12.2020
4790 Clouds 2 983 90 10000 0.8 304 19:34 15.12.2020
4791 Clouds 3 983 90 10000 1.02 306 18:44 15.12.2020
4792 Clouds 3 982 90 1326 0.92 304 18:24 15.12.2020
4793 Clouds 3 982 91 1326 0.45 90 17:59 15.12.2020
4794 Clouds 3 982 91 1326 0.92 304 17:41 15.12.2020
4795 Clouds 3 982 91 239 0.77 256 17:20 15.12.2020
4796 Clouds 3 982 91 239 0.77 256 17:20 15.12.2020
4797 Clouds 3 982 91 239 0.77 256 16:33 15.12.2020
4798 Clouds 3 981 91 356 0.7 208 15:55 15.12.2020
4799 Rain 3 981 91 356 0.7 208 15:32 15.12.2020
4800 Rain 4 982 90 709 0.45 90 14:49 15.12.2020
4801 Rain 4 982 91 1897 2.05 188 14:23 15.12.2020
4802 Rain 4 982 91 1897 2.05 188 13:52 15.12.2020
4803 Rain 3 982 91 1897 2.05 188 13:33 15.12.2020
4804 Rain 4 1005 100 6000 1.5 350 12:47 15.12.2020
4805 Mist 3 1005 91 3800 1 0 12:22 15.12.2020
4806 Rain 4 1005 91 3800 1 0 11:57 15.12.2020
4807 Mist 4 1005 92 3800 1 0 11:39 15.12.2020
4808 Rain 4 1005 92 1000 2.29 165 11:20 15.12.2020
4809 Rain 4 1005 92 1000 2.29 165 10:39 15.12.2020
4810 Mist 4 1005 91 3100 1 0 09:53 15.12.2020
4811 Mist 4 1005 92 3100 1 0 09:32 15.12.2020
4812 Mist 3 1004 92 1900 2.11 181 08:58 15.12.2020
4813 Rain 3 1004 92 2800 0.5 350 08:30 15.12.2020
4814 Rain 3 1004 92 2100 2.3 194 08:30 15.12.2020
4815 Rain 3 1004 92 2800 0.5 350 07:54 15.12.2020
4816 Mist 3 1004 92 1800 1 10 07:33 15.12.2020
4817 Mist 3 1004 92 1300 1 0 06:37 15.12.2020
4818 Clouds 2 981 86 156 1.2 224 04:20 15.12.2020
4819 Clouds 1 980 85 1463 1.02 126 00:36 15.12.2020
4820 Rain 2 981 84 1763 0.45 90 23:28 14.12.2020
4821 Clouds 1 981 84 1763 0.89 6 22:59 14.12.2020
4822 Clouds 1 981 84 1763 1.34 90 22:37 14.12.2020
4823 Snow 1 981 84 285 0.89 90 21:54 14.12.2020
4824 Snow 1 981 84 285 0.89 90 21:35 14.12.2020
4825 Snow 1 982 84 50 1.34 130 20:52 14.12.2020
4826 Snow 1 982 84 50 0.89 90 20:30 14.12.2020
4827 Clouds 1 983 84 50 1.34 176 19:55 14.12.2020
4828 Snow 2 983 84 54 1.34 134 19:30 14.12.2020
4829 Snow 2 983 84 60 0.89 111 18:53 14.12.2020
4830 Rain 2 983 84 54 0.89 90 18:32 14.12.2020
4831 Clouds 2 984 84 54 1.34 133 17:53 14.12.2020
4832 Clouds 2 984 84 39 1.34 135 17:32 14.12.2020
4833 Rain 2 984 84 39 0.89 90 16:53 14.12.2020
4834 Rain 2 985 83 40 0.89 90 16:29 14.12.2020
4835 Rain 2 985 83 40 0.89 90 15:50 14.12.2020
4836 Rain 3 985 83 37 0.89 100 15:25 14.12.2020
4837 Rain 3 986 83 37 1.34 90 14:45 14.12.2020
4838 Clouds 3 986 83 37 0.89 90 14:26 14.12.2020
4839 Clouds 3 987 83 37 0.45 90 13:47 14.12.2020
4840 Rain 3 987 83 81 0.45 90 13:24 14.12.2020
4841 Rain 3 987 84 81 1.34 90 12:53 14.12.2020
4842 Clouds 3 987 84 218 0.89 134 12:29 14.12.2020
4843 Rain 3 988 84 343 0.89 90 11:36 14.12.2020
4844 Clouds 3 988 84 343 1.34 90 10:48 14.12.2020
4845 Rain 3 988 84 3823 0.89 90 10:27 14.12.2020
4846 Clouds 3 988 84 3823 1.34 90 09:44 14.12.2020
4847 Clouds 3 988 84 9104 0.89 90 08:49 14.12.2020
4848 Clouds 3 988 83 8914 0.89 90 08:30 14.12.2020
4849 Clouds 3 988 83 8914 1.34 90 07:49 14.12.2020
4850 Clouds 2 988 83 4867 1.34 179 06:55 14.12.2020
4851 Clouds 3 988 80 166 1.34 90 05:51 14.12.2020
4852 Clouds 3 989 84 9262 0.45 90 03:29 14.12.2020
4853 Clouds 3 989 87 8459 0.45 90 00:57 14.12.2020
4854 Clouds 3 990 87 8335 0.45 90 00:34 14.12.2020
4855 Clouds 3 989 87 8335 0.45 90 23:58 13.12.2020
4856 Clouds 3 990 87 8335 0.45 90 23:40 13.12.2020
4857 Clouds 3 989 86 7055 1.12 119 22:51 13.12.2020
4858 Clouds 3 990 86 8377 0.45 90 22:21 13.12.2020
4859 Clouds 3 990 86 8377 1.25 125 21:50 13.12.2020
4860 Clouds 3 990 86 7238 0.45 90 21:29 13.12.2020
4861 Clouds 2 990 86 7238 0.45 90 20:42 13.12.2020
4862 Clouds 2 990 86 5638 1.26 105 20:23 13.12.2020
4863 Clouds 2 990 85 5638 1.26 105 19:43 13.12.2020
4864 Clouds 2 989 85 5108 0.45 90 19:22 13.12.2020
4865 Clouds 2 989 85 5108 0.45 90 19:22 13.12.2020
4866 Clouds 2 990 85 7174 0.74 69 18:44 13.12.2020
4867 Clouds 2 989 85 7987 0.45 90 18:21 13.12.2020
4868 Clouds 2 989 84 7987 0.45 90 17:59 13.12.2020
4869 Clouds 2 990 84 7987 0.45 90 17:41 13.12.2020
4870 Clouds 2 990 83 8080 0.71 31 17:18 13.12.2020
4871 Clouds 2 990 83 8080 0.71 31 16:39 13.12.2020
4872 Clouds 2 990 83 8322 0.45 90 16:21 13.12.2020
4873 Clouds 2 989 82 8322 1 31 15:45 13.12.2020
4874 Clouds 2 989 82 8513 1.1 23 15:24 13.12.2020
4875 Clouds 2 989 81 8513 1.1 23 14:45 13.12.2020
4876 Clouds 2 989 79 8781 0.45 90 14:27 13.12.2020
4877 Rain 3 990 70 8781 1.05 21 13:45 13.12.2020
4878 Clouds 3 1014 87 8782 0.89 41 13:27 13.12.2020
4879 Clouds 3 1014 87 8782 0.89 41 12:55 13.12.2020
4880 Clouds 2 1014 96 10000 0.89 66 12:24 13.12.2020
4881 Clouds 2 1014 96 10000 0.89 66 11:51 13.12.2020
4882 Clouds 2 989 83 10000 0.45 90 11:28 13.12.2020
4883 Clouds 2 989 82 10000 0.45 90 10:42 13.12.2020
4884 Clouds 2 989 81 10000 0.45 90 10:18 13.12.2020
4885 Clouds 2 989 81 10000 0.45 90 09:31 13.12.2020
4886 Clouds 2 989 82 10000 0.45 90 08:47 13.12.2020
4887 Clouds 2 989 82 10000 0.45 90 08:23 13.12.2020
4888 Clouds 2 989 82 9924 0.45 90 05:50 13.12.2020
4889 Clouds 2 989 82 1540 0.45 90 02:43 13.12.2020
4890 Clouds 2 989 83 8127 0.89 90 01:59 13.12.2020
4891 Clouds 2 989 83 72 0.89 90 01:33 13.12.2020
4892 Clouds 2 989 83 1485 0.89 90 00:33 13.12.2020
4893 Clouds 2 989 83 170 0.45 90 23:33 12.12.2020
4894 Clouds 2 989 83 253 0.45 90 22:59 12.12.2020
4895 Rain 2 989 83 3221 0.45 90 22:28 12.12.2020
4896 Clouds 2 989 83 3221 1.97 36 21:46 12.12.2020
4897 Rain 2 988 83 140 0.89 90 21:19 12.12.2020
4898 Clouds 2 988 83 140 0.45 90 20:44 12.12.2020
4899 Snow 2 988 83 75 1.34 90 20:21 12.12.2020
4900 Clouds 2 988 83 75 0.45 90 19:51 12.12.2020
4901 Clouds 2 988 83 75 0.89 90 19:33 12.12.2020
4902 Clouds 2 988 83 196 0.45 90 18:55 12.12.2020
4903 Clouds 2 988 83 196 0.45 90 18:36 12.12.2020
4904 Rain 2 988 83 130 0.45 90 18:18 12.12.2020
4905 Clouds 1 988 83 130 0.45 90 17:40 12.12.2020
4906 Clouds 1 987 83 130 0.89 270 16:42 12.12.2020
4907 Clouds 2 987 82 134 0.89 90 15:57 12.12.2020
4908 Clouds 2 987 82 134 0.45 90 15:39 12.12.2020
4909 Clouds 2 987 80 97 1.34 90 14:54 12.12.2020
4910 Snow 2 1012 98 136 1.79 65 14:21 12.12.2020
4911 Clouds 2 987 68 136 0.45 90 13:41 12.12.2020
4912 Clouds 2 987 66 116 0.45 90 13:22 12.12.2020
4913 Snow 2 1007 88 258 2.72 358 12:33 12.12.2020
4914 Clouds 1 987 84 619 0.89 90 11:19 12.12.2020
4915 Clouds 1 987 83 619 0.89 90 10:45 12.12.2020
4916 Clouds 1 986 83 2129 0.89 90 09:24 12.12.2020
4917 Clouds 1 1007 82 1101 2.03 12 07:42 12.12.2020
4918 Clouds 1 985 84 790 0.45 90 01:39 12.12.2020
4919 Snow 1 985 84 3732 0.45 90 23:21 11.12.2020
4920 Snow 1 986 84 227 0.45 90 20:57 11.12.2020
4921 Snow 1 985 84 293 0.45 90 19:42 11.12.2020
4922 Clouds 1 985 84 63 0.45 90 16:52 11.12.2020
4923 Snow 1 985 84 93 0.45 90 14:37 11.12.2020
4924 Snow 1 985 84 93 0.45 90 13:45 11.12.2020
4925 Snow 0 986 83 289 0.45 90 12:23 11.12.2020
4926 Snow 0 986 83 289 0.45 90 11:54 11.12.2020
4927 Snow 0 986 83 289 0.45 90 11:35 11.12.2020
4928 Snow 0 986 83 138 0.45 90 10:40 11.12.2020
4929 Snow 1 986 83 155 0.45 90 07:42 11.12.2020
4930 Snow 1 987 83 174 0.45 90 05:36 11.12.2020
4931 Snow 1 987 83 83 0.89 90 04:47 11.12.2020
4932 Clouds 2 989 84 120 0.45 90 00:48 11.12.2020
4933 Snow 2 990 84 78 0.45 90 23:27 10.12.2020
4934 Clouds 2 991 85 4267 0.45 90 21:37 10.12.2020
4935 Clouds 2 991 85 4267 0.45 90 20:51 10.12.2020
4936 Clouds 2 991 85 9192 0.89 90 20:29 10.12.2020
4937 Clouds 3 991 85 10000 2.67 99 19:29 10.12.2020
4938 Clouds 3 991 84 10000 2.94 103 18:48 10.12.2020
4939 Clouds 3 991 85 8772 0.45 90 17:29 10.12.2020
4940 Clouds 2 991 87 4935 2.38 117 15:59 10.12.2020
4941 Clouds 2 991 87 107 0.45 90 15:22 10.12.2020
4942 Clouds 2 991 87 107 0.45 90 14:46 10.12.2020
4943 Clouds 2 992 87 71 0.45 90 13:42 10.12.2020
4944 Rain 2 991 86 1201 0.45 90 12:23 10.12.2020
4945 Snow 1 992 86 1908 0.45 90 10:54 10.12.2020
4946 Snow 2 991 86 190 0.45 90 08:27 10.12.2020
4947 Snow 2 991 86 166 0.45 90 07:28 10.12.2020
4948 Snow 2 991 86 2614 0.45 90 05:51 10.12.2020
4949 Clouds 2 991 86 131 0.45 90 02:40 10.12.2020
4950 Rain 2 991 87 87 0.45 90 01:33 10.12.2020
4951 Clouds 2 992 88 109 0.45 90 23:44 09.12.2020
4952 Rain 2 993 88 616 0.45 90 20:39 09.12.2020
4953 Clouds 2 993 88 5275 0.45 90 19:46 09.12.2020
4954 Clouds 2 993 87 3172 0.45 90 18:39 09.12.2020
4955 Clouds 2 993 87 500 1.52 46 17:29 09.12.2020
4956 Clouds 2 993 87 500 0.45 90 16:40 09.12.2020
4957 Clouds 2 993 86 8812 0.45 90 16:20 09.12.2020
4958 Clouds 2 993 86 8031 0.45 90 14:51 09.12.2020
4959 Clouds 3 993 86 8531 1.1 58 14:27 09.12.2020
4960 Clouds 2 994 87 8531 0.45 90 13:37 09.12.2020
4961 Clouds 3 993 87 4669 1.15 59 13:18 09.12.2020
4962 Clouds 2 993 87 7637 1.16 83 12:31 09.12.2020
4963 Clouds 2 994 87 8825 0.77 67 11:37 09.12.2020
4964 Clouds 2 993 86 4425 0.59 4 09:52 09.12.2020
4965 Clouds 2 993 86 2009 0.45 90 08:41 09.12.2020
4966 Clouds 2 992 86 4330 0.45 90 06:50 09.12.2020
4967 Rain 2 992 86 605 0.45 90 05:28 09.12.2020
4968 Clouds 2 991 86 168 0.45 90 02:41 09.12.2020
4969 Clouds 2 991 86 214 0.45 90 00:42 09.12.2020
4970 Clouds 2 991 86 99 0.45 90 23:35 08.12.2020
4971 Clouds 2 990 86 41 0.45 90 22:26 08.12.2020
4972 Rain 2 990 87 32 2.04 50 20:47 08.12.2020
4973 Rain 2 990 87 35 2.16 64 19:31 08.12.2020
4974 Clouds 2 989 86 5919 0.45 90 18:36 08.12.2020
4975 Clouds 2 989 86 6300 0.45 90 17:18 08.12.2020
4976 Rain 2 989 85 4144 0.45 90 15:22 08.12.2020
4977 Rain 3 989 85 5046 0.89 90 13:49 08.12.2020
4978 Rain 3 989 86 5179 0.45 90 12:41 08.12.2020
4979 Rain 4 989 87 8846 0.45 90 11:55 08.12.2020
4980 Rain 4 989 88 8088 0.45 90 10:57 08.12.2020
4981 Rain 4 989 88 8088 0.45 90 10:39 08.12.2020
4982 Clouds 4 989 88 7817 1.65 54 09:38 08.12.2020
4983 Clouds 4 989 88 10000 0.45 90 07:38 08.12.2020
4984 Clouds 4 988 87 9692 1.43 57 05:35 08.12.2020
4985 Clouds 4 987 87 7958 0.45 90 02:29 08.12.2020
4986 Clouds 4 987 87 8061 2.35 80 00:44 08.12.2020
4987 Clouds 5 987 86 8566 0.45 90 23:25 07.12.2020
4988 Clouds 4 986 87 10000 0.45 90 22:21 07.12.2020
4989 Clouds 4 986 87 10000 0.89 90 21:38 07.12.2020
4990 Clouds 4 985 88 10000 0.45 90 19:27 07.12.2020
4991 Clouds 4 985 88 10000 0.45 90 17:57 07.12.2020
4992 Clouds 4 985 88 10000 3.94 63 17:20 07.12.2020
4993 Clouds 4 985 89 10000 0.45 90 16:38 07.12.2020
4994 Clouds 4 985 90 10000 0.45 90 15:24 07.12.2020
4995 Clouds 5 985 90 10000 0.45 90 14:31 07.12.2020
4996 Clouds 5 985 90 10000 0.45 90 13:36 07.12.2020
4997 Clouds 4 985 90 9128 2.84 66 12:30 07.12.2020
4998 Clouds 4 985 90 9128 0.45 90 11:42 07.12.2020
4999 Rain 4 985 90 8884 2.62 73 10:36 07.12.2020
5000 Clouds 4 985 90 7539 0.45 90 09:23 07.12.2020
5001 Clouds 4 985 89 6439 2.83 65 07:38 07.12.2020
5002 Clouds 4 985 88 3891 0.45 90 05:27 07.12.2020
5003 Clouds 3 985 88 5538 0.45 90 03:53 07.12.2020
5004 Clouds 3 986 87 10000 0.45 90 00:49 07.12.2020
5005 Rain 3 987 87 5998 0.45 90 22:52 06.12.2020
5006 Rain 3 987 87 3459 0.45 90 21:44 06.12.2020
5007 Rain 3 987 88 4247 0.45 90 20:43 06.12.2020
5008 Rain 3 988 88 10000 0.45 90 20:22 06.12.2020
5009 Rain 3 988 88 10000 0.89 90 19:26 06.12.2020
5010 Clouds 3 988 87 10000 0.45 90 17:31 06.12.2020
5011 Clouds 3 989 86 10000 0.45 90 16:33 06.12.2020
5012 Clouds 3 988 84 10000 0.45 90 14:49 06.12.2020
5013 Clouds 3 1007 94 10000 1.79 65 12:59 06.12.2020
5014 Clouds 3 1007 94 10000 1.79 65 12:30 06.12.2020
5015 Clouds 3 988 89 10000 0.62 67 11:41 06.12.2020
5016 Clouds 3 988 89 10000 0.45 90 11:41 06.12.2020
5017 Clouds 3 988 89 10000 0.56 107 11:22 06.12.2020
5018 Clouds 3 988 89 10000 0.56 107 10:34 06.12.2020
5019 Clouds 3 987 88 10000 0.31 140 08:59 06.12.2020
5020 Clouds 4 986 89 10000 0.45 90 07:26 06.12.2020
5021 Clouds 4 984 89 10000 0.45 90 04:41 06.12.2020
5022 Clouds 3 983 87 3480 0.45 90 00:45 06.12.2020
5023 Clouds 3 983 87 2711 0.45 90 00:26 06.12.2020
5024 Clouds 3 983 87 2711 0.89 90 23:55 05.12.2020
5025 Clouds 3 983 86 3748 0.89 90 22:24 05.12.2020
5026 Clouds 3 983 86 3748 0.45 90 21:54 05.12.2020
5027 Snow 2 983 86 5366 0.45 90 21:28 05.12.2020
5028 Clouds 1 982 87 3121 1.34 270 19:54 05.12.2020
5029 Rain 1 983 87 103 0.45 90 18:46 05.12.2020
5030 Clouds 2 984 87 10000 2.04 28 17:39 05.12.2020
5031 Clouds 2 982 87 10000 0.45 90 16:45 05.12.2020
5032 Clouds 2 982 87 10000 0.45 90 16:24 05.12.2020
5033 Clouds 2 982 88 10000 0.45 90 14:30 05.12.2020
5034 Clouds 2 984 88 9899 0.4 67 12:35 05.12.2020
5035 Clouds 2 982 87 10000 1.46 17 11:50 05.12.2020
5036 Clouds 2 982 87 8125 1.58 4 10:34 05.12.2020
5037 Clouds 2 982 87 1801 1.32 359 08:27 05.12.2020
5038 Clouds 2 981 87 1801 1.32 359 07:47 05.12.2020
5039 Clouds 2 980 87 2055 0.45 90 05:30 05.12.2020
5040 Clouds 2 979 85 4329 0.45 90 23:57 04.12.2020
5041 Clouds 2 979 85 627 0.89 90 23:20 04.12.2020
5042 Clouds 1 979 85 10000 0.45 90 20:39 04.12.2020
5043 Clouds 1 979 85 6805 2.42 39 18:54 04.12.2020
5044 Clouds 2 979 85 10000 0.45 90 18:28 04.12.2020
5045 Clouds 2 979 85 10000 2.42 50 17:41 04.12.2020
5046 Snow 2 978 85 79 3.04 67 16:29 04.12.2020
5047 Snow 1 978 84 38 0.45 90 15:21 04.12.2020
5048 Clouds 1 978 85 447 0.45 90 13:36 04.12.2020
5049 Clouds 1 978 85 447 0.45 90 13:18 04.12.2020
5050 Clouds 1 978 85 5629 2.31 65 12:19 04.12.2020
5051 Snow 1 978 85 304 1.96 69 10:35 04.12.2020
5052 Snow 1 977 85 228 0.45 90 08:29 04.12.2020
5053 Snow 1 976 84 192 1.69 48 06:40 04.12.2020
5054 Snow 0 976 84 469 0.45 90 04:52 04.12.2020
5055 Snow 1 977 83 135 0.89 90 01:20 04.12.2020
5056 Snow 1 978 82 178 3.04 82 22:47 03.12.2020
5057 Snow 1 978 80 199 2.2 75 21:23 03.12.2020
5058 Snow 1 979 80 199 0.45 90 20:46 03.12.2020
5059 Snow 1 979 81 37 0.45 90 19:23 03.12.2020
5060 Snow 1 979 82 66 0.45 90 18:41 03.12.2020
5061 Snow 1 980 82 3025 0.45 90 17:21 03.12.2020
5062 Clouds 1 980 84 10000 0.89 90 15:59 03.12.2020
5063 Clouds 1 980 83 10000 0.89 90 15:32 03.12.2020
5064 Clouds 1 979 83 10000 2.24 90 14:49 03.12.2020
5065 Clouds 1 979 84 4002 1.34 90 13:55 03.12.2020
5066 Snow 1 980 84 3324 1.34 90 12:46 03.12.2020
5067 Snow 1 980 85 64 1.34 135 12:23 03.12.2020
5068 Clouds 2 980 86 53 2.68 269 10:54 03.12.2020
5069 Clouds 2 980 85 57 1.79 221 08:41 03.12.2020
5070 Snow 2 982 86 40 1.34 93 04:21 03.12.2020
5071 Snow 2 984 84 54 0.45 90 01:54 03.12.2020
5072 Snow 1 985 82 36 0.89 137 00:28 03.12.2020
5073 Snow 2 987 82 48 2.24 247 22:46 02.12.2020
5074 Snow 1 988 85 55 2.24 88 21:50 02.12.2020
5075 Clouds 1 989 89 214 1.34 90 20:51 02.12.2020
5076 Clouds 1 989 89 7324 1.79 181 20:33 02.12.2020
5077 Clouds 1 989 89 7324 1.79 268 19:50 02.12.2020
5078 Clouds 2 990 90 362 1.79 181 17:51 02.12.2020
5079 Rain 2 991 90 900 1.34 313 17:31 02.12.2020
5080 Clouds 2 991 90 900 1.34 224 16:49 02.12.2020
5081 Clouds 2 993 91 6560 0.89 90 14:33 02.12.2020
5082 Rain 1 996 90 8526 0.45 90 11:33 02.12.2020
5083 Clouds 1 997 90 7995 0.45 90 10:26 02.12.2020
5084 Clouds 0 998 89 7592 2.98 183 07:51 02.12.2020
5085 Clouds -1 1002 82 10000 1.16 164 00:50 02.12.2020
5086 Clouds -1 1002 80 10000 0.87 133 22:21 01.12.2020
5087 Clouds 0 1001 79 10000 0.45 32 19:57 01.12.2020
5088 Clouds 0 1001 78 10000 0.45 32 19:33 01.12.2020
5089 Clouds 1 1000 79 10000 0.45 90 17:27 01.12.2020
5090 Clouds 2 999 74 10000 1.37 331 15:24 01.12.2020
5091 Clouds 3 998 69 10000 1.04 348 13:37 01.12.2020
5092 Clear 1 1017 80 10000 1.43 340 11:44 01.12.2020
5093 Clear 1 1017 80 10000 1.54 344 11:26 01.12.2020
5094 Clear 1 1001 1 10000 1.54 344 10:32 01.12.2020
5095 Clear 1 994 91 10000 1.62 347 08:18 01.12.2020
5096 Clouds 1 992 92 10000 1.94 351 06:46 01.12.2020
5097 Clouds 3 987 95 1469 2.74 7 01:51 01.12.2020
5098 Clouds 3 987 95 1469 2.74 7 01:51 01.12.2020
5099 Clouds 4 987 96 1260 0.45 90 00:52 01.12.2020
5100 Clouds 4 986 96 772 1.34 90 23:21 30.11.2020
5101 Rain 3 985 96 772 0.89 90 22:42 30.11.2020
5102 Rain 3 985 96 1159 0.89 90 22:23 30.11.2020
5103 Rain 3 985 97 972 1.34 90 20:47 30.11.2020
5104 Rain 2 985 95 1712 1.34 270 19:42 30.11.2020
5105 Rain 3 985 97 2460 0.45 90 18:23 30.11.2020
5106 Rain 3 985 96 2460 1.34 90 17:47 30.11.2020
5107 Rain 2 985 96 2143 0.45 90 16:54 30.11.2020
5108 Rain 2 986 95 2898 0.45 90 15:46 30.11.2020
5109 Rain 0 1009 93 7933 1.11 205 14:24 30.11.2020
5110 Rain 0 1009 93 7933 1.11 205 13:42 30.11.2020
5111 Clouds 1 1010 96 10000 0.82 186 12:26 30.11.2020
5112 Clouds 0 1011 96 10000 0.82 186 11:57 30.11.2020
5113 Clouds -1 1012 95 10000 0.34 222 10:26 30.11.2020
5114 Clouds -1 992 91 10000 0.45 90 09:43 30.11.2020
5115 Clouds -1 993 89 10000 0.45 90 07:18 30.11.2020
5116 Clouds -3 1000 84 10000 0.45 90 23:39 29.11.2020
5117 Clear -3 1001 84 10000 0.45 90 21:49 29.11.2020
5118 Clear -3 1001 84 10000 0.45 90 21:28 29.11.2020
5119 Clear -3 1002 83 10000 0.08 95 19:49 29.11.2020
5120 Clear -3 1003 81 10000 0.89 90 17:47 29.11.2020
5121 Clear -2 1004 81 10000 0.22 90 14:54 29.11.2020
5122 Clear -2 1005 80 10000 0.07 116 12:58 29.11.2020
5123 Clear -2 1005 80 10000 0.08 318 11:41 29.11.2020
5124 Clear -3 1029 82 10000 0.59 317 09:26 29.11.2020
5125 Clear -3 1006 84 10000 0.59 317 08:37 29.11.2020
5126 Clouds -2 1007 85 10000 0.86 353 04:40 29.11.2020
5127 Clouds -1 1008 83 10000 0.45 90 23:19 28.11.2020
5128 Clouds -1 1007 83 10000 0.65 350 22:55 28.11.2020
5129 Clouds -2 1007 81 10000 0.15 279 20:44 28.11.2020
5130 Clouds -2 1007 81 10000 0.18 185 19:38 28.11.2020
5131 Clouds -2 1007 80 10000 0.29 187 19:19 28.11.2020
5132 Clouds -2 1007 79 10000 0.45 270 18:27 28.11.2020
5133 Clouds -2 1006 72 10000 0.45 90 17:40 28.11.2020
5134 Clouds -1 1026 83 10000 0.2 210 16:40 28.11.2020
5135 Clouds -1 1024 89 10000 0.67 180 14:31 28.11.2020
5136 Clouds 0 1006 75 10000 0.39 153 11:29 28.11.2020
5137 Clouds -2 1005 81 10000 0.41 131 09:38 28.11.2020
5138 Clouds -2 1002 81 10000 0.41 27 03:56 28.11.2020
5139 Clouds -2 1003 81 10000 0.76 36 03:26 28.11.2020
5140 Clouds -3 1002 81 10000 0.5 3 00:49 28.11.2020
5141 Clouds -3 1002 80 10000 0.56 22 22:55 27.11.2020
5142 Clouds -3 1001 80 10000 0.92 20 21:27 27.11.2020
5143 Clouds -2 1001 81 10000 0.72 18 20:30 27.11.2020
5144 Clouds -3 1000 80 10000 0.67 15 19:25 27.11.2020
5145 Clouds -2 1000 79 10000 0.91 7 18:28 27.11.2020
5146 Clouds 0 999 70 10000 0.12 346 14:46 27.11.2020
5147 Clouds 1 998 60 10000 0.35 7 13:25 27.11.2020
5148 Clouds 0 1019 80 10000 0.35 7 12:47 27.11.2020
5149 Clouds -1 1019 93 10000 0.16 56 11:35 27.11.2020
5150 Clouds -2 1019 93 10000 0.16 56 10:50 27.11.2020
5151 Clouds -2 998 81 10000 0.51 11 09:57 27.11.2020
5152 Clear -2 997 80 10000 0.15 319 07:26 27.11.2020
5153 Clear 0 995 68 10000 1.29 325 22:28 26.11.2020
5154 Clear 0 994 66 10000 1.29 325 21:56 26.11.2020
5155 Clear 1 994 63 10000 1.39 324 20:52 26.11.2020
5156 Clear 2 993 64 10000 1.54 335 18:59 26.11.2020
5157 Clear 2 993 63 10000 1.62 338 17:52 26.11.2020
5158 Clear 4 1011 45 10000 0.45 67 14:57 26.11.2020
5159 Clear 6 1011 46 10000 0.45 68 13:42 26.11.2020
5160 Clear 4 1008 78 10000 1.75 335 12:42 26.11.2020
5161 Clear 3 1008 78 10000 1.72 341 11:44 26.11.2020
5162 Clear 2 1008 89 10000 1.75 334 10:35 26.11.2020
5163 Clear 1 989 74 10000 1.75 334 09:48 26.11.2020
5164 Clear 1 988 75 10000 1.82 325 09:29 26.11.2020
5165 Clear 1 988 76 10000 1.82 325 08:39 26.11.2020
5166 Clouds 2 987 75 10000 2.07 332 06:50 26.11.2020
5167 Clouds 7 985 70 10000 1.16 269 23:54 25.11.2020
5168 Clouds 8 984 83 10000 1.46 246 20:46 25.11.2020
5169 Clouds 8 984 83 10000 2.16 227 19:55 25.11.2020
5170 Clouds 8 983 84 10000 0.45 90 18:28 25.11.2020
5171 Clouds 8 983 82 10000 0.89 90 17:23 25.11.2020
5172 Clouds 9 982 82 10000 1.79 86 15:41 25.11.2020
5173 Clouds 9 982 82 10000 2.24 179 13:58 25.11.2020
5174 Clouds 10 982 82 10000 1.79 91 13:38 25.11.2020
5175 Clouds 9 1002 82 10000 6.35 205 12:26 25.11.2020
5176 Clouds 9 982 76 10000 1.79 179 11:20 25.11.2020
5177 Clouds 9 983 79 10000 1.34 180 09:19 25.11.2020
5178 Clouds 9 983 80 10000 1.34 47 08:47 25.11.2020
5179 Clouds 8 983 81 10000 2.24 95 05:18 25.11.2020
5180 Clouds 9 984 85 10000 2.24 182 02:53 25.11.2020
5181 Clouds 8 984 92 9501 1.34 180 00:28 25.11.2020
5182 Clouds 8 984 92 9501 0.89 90 23:55 24.11.2020
5183 Clouds 7 984 91 10000 0.89 223 23:34 24.11.2020
5184 Clouds 5 985 92 10000 0.45 90 21:52 24.11.2020
5185 Rain 5 985 92 10000 1.27 204 21:31 24.11.2020
5186 Clouds 5 1005 92 10000 0.74 188 20:45 24.11.2020
5187 Clouds 5 985 91 10000 0.45 90 19:21 24.11.2020
5188 Clouds 5 1004 87 10000 0.44 313 17:31 24.11.2020
5189 Clouds 5 985 88 10000 0.44 313 16:56 24.11.2020
5190 Clouds 5 985 88 10000 0.44 313 16:36 24.11.2020
5191 Clouds 5 985 88 10000 0.75 272 15:55 24.11.2020
5192 Clouds 5 984 87 10000 0.45 90 15:19 24.11.2020
5193 Clouds 5 984 86 10000 0.99 289 14:43 24.11.2020
5194 Clouds 5 984 86 10000 1.06 301 12:55 24.11.2020
5195 Clouds 5 984 87 10000 0.45 90 12:22 24.11.2020
5196 Clouds 5 984 87 10000 1.25 283 11:58 24.11.2020
5197 Clouds 5 984 86 10000 1.24 257 10:49 24.11.2020
5198 Clouds 5 983 86 10000 1.36 245 10:25 24.11.2020
5199 Clouds 5 984 87 10000 0.45 90 09:36 24.11.2020
5200 Clouds 6 983 88 10000 0.45 90 08:27 24.11.2020
5201 Clouds 4 985 83 10000 0.89 159 04:49 24.11.2020
5202 Clouds 4 985 83 10000 0.89 159 04:49 24.11.2020
5203 Rain 4 989 70 10000 0.45 90 23:32 23.11.2020
5204 Clouds 4 989 61 10000 0.45 180 21:46 23.11.2020
5205 Clouds 4 990 61 10000 1.51 223 20:58 23.11.2020
5206 Clouds 4 990 61 10000 0.45 270 20:28 23.11.2020
5207 Clouds 4 990 61 10000 1.8 257 19:36 23.11.2020
5208 Clouds 4 989 60 10000 1.64 258 17:28 23.11.2020
5209 Clouds 4 1008 79 10000 1.64 258 16:54 23.11.2020
5210 Clear 5 1007 70 10000 2.05 261 14:50 23.11.2020
5211 Clear 6 988 51 10000 2.06 266 13:55 23.11.2020
5212 Clouds 6 1005 78 10000 1.95 269 12:40 23.11.2020
5213 Clouds 6 1005 78 10000 1.82 261 11:56 23.11.2020
5214 Clouds 6 1005 78 10000 1.82 261 11:37 23.11.2020
5215 Clouds 5 985 56 10000 2.23 256 09:47 23.11.2020
5216 Clouds 4 985 59 10000 2.37 254 08:51 23.11.2020
5217 Clouds 4 984 59 10000 0.45 270 07:56 23.11.2020
5218 Clouds 4 982 59 10000 4.14 265 02:39 23.11.2020
5219 Clouds 5 981 51 10000 1.34 225 23:48 22.11.2020
5220 Clouds 5 980 51 10000 0.45 225 22:23 22.11.2020
5221 Clouds 5 980 50 10000 1.34 266 21:24 22.11.2020
5222 Clouds 6 979 51 10000 0.45 248 20:20 22.11.2020
5223 Clouds 6 979 51 10000 0.45 135 19:23 22.11.2020
5224 Clouds 6 978 50 10000 0.89 225 18:23 22.11.2020
5225 Clouds 6 977 56 10000 0.89 222 16:26 22.11.2020
5226 Clouds 6 976 70 10000 2.24 225 15:25 22.11.2020
5227 Clouds 5 975 71 10000 0.89 224 13:27 22.11.2020
5228 Clouds 5 975 71 10000 1.34 313 12:43 22.11.2020
5229 Clouds 5 974 70 10000 1.34 90 11:54 22.11.2020
5230 Clouds 4 974 68 10000 1.79 227 10:51 22.11.2020
5231 Clouds 4 975 68 10000 1.34 86 10:33 22.11.2020
5232 Clear 4 975 68 10000 0.45 268 04:39 22.11.2020
5233 Clear 4 977 63 10000 0.89 90 23:56 21.11.2020
5234 Clear 4 978 64 10000 0.45 90 22:41 21.11.2020
5235 Clear 5 978 67 10000 0.89 90 21:31 21.11.2020
5236 Clear 5 978 70 10000 0.89 90 20:49 21.11.2020
5237 Clear 5 977 70 10000 2.24 228 20:20 21.11.2020
5238 Clear 5 982 9 10000 2.24 213 19:42 21.11.2020
5239 Clouds 5 977 70 10000 1.34 311 18:55 21.11.2020
5240 Clouds 5 977 65 10000 0.89 90 17:31 21.11.2020
5241 Rain 6 977 68 10000 0.45 90 16:45 21.11.2020
5242 Clouds 6 978 66 10000 0.45 90 15:41 21.11.2020
5243 Clouds 7 977 64 10000 2.24 316 15:20 21.11.2020
5244 Clouds 7 978 70 10000 0.89 90 14:42 21.11.2020
5245 Clouds 7 978 81 10000 4.92 90 12:44 21.11.2020
5246 Clouds 8 978 93 10000 0.89 224 12:22 21.11.2020
5247 Clouds 7 978 95 10000 1.34 220 11:49 21.11.2020
5248 Clouds 7 980 96 10000 1.34 178 10:28 21.11.2020
5249 Clouds 7 981 96 10000 0.89 315 08:52 21.11.2020
5250 Clouds 7 982 95 10000 2.24 90 08:19 21.11.2020
5251 Clouds 6 985 96 10000 1.34 199 05:42 21.11.2020
5252 Snow 0 991 86 3785 0.45 266 02:52 21.11.2020
5253 Clouds 1 995 68 10000 1.34 90 00:22 21.11.2020
5254 Clouds 0 998 61 10000 0.45 183 22:45 20.11.2020
5255 Clouds 0 999 57 10000 0.45 225 21:45 20.11.2020
5256 Clouds 0 999 54 10000 0.89 225 21:21 20.11.2020
5257 Clouds 0 999 54 10000 0.89 225 21:21 20.11.2020
5258 Clouds 0 1000 54 10000 0.89 270 19:55 20.11.2020
5259 Clouds 0 1000 55 10000 0.45 270 18:54 20.11.2020
5260 Clear 0 1000 55 10000 0.45 270 18:27 20.11.2020
5261 Clear 0 1000 56 10000 0.45 270 17:30 20.11.2020
5262 Clear 0 1001 56 10000 1.05 178 16:47 20.11.2020
5263 Clear 1 1001 51 10000 0.8 208 15:59 20.11.2020
5264 Clear 1 1020 59 10000 1.79 208 15:39 20.11.2020
5265 Clear 3 1000 42 10000 0.45 270 13:51 20.11.2020
5266 Clear 3 998 41 10000 0.45 270 13:19 20.11.2020
5267 Clear 2 1020 65 10000 0.89 302 12:41 20.11.2020
5268 Clear 2 1020 65 10000 0.89 302 11:50 20.11.2020
5269 Clear 2 1021 45 10000 1.78 285 11:21 20.11.2020
5270 Clear 1 998 51 10000 2.23 284 09:47 20.11.2020
5271 Clear 0 997 50 10000 3 280 08:29 20.11.2020
5272 Clear 0 996 50 10000 3 280 07:47 20.11.2020
5273 Rain 2 992 52 10000 0.45 270 03:45 20.11.2020
5274 Rain 1 988 54 10000 2.73 278 23:38 19.11.2020
5275 Clouds 1 987 52 10000 3.37 289 22:30 19.11.2020
5276 Rain 1 986 53 10000 3.37 289 21:52 19.11.2020
5277 Rain 0 985 53 10000 2.41 294 20:53 19.11.2020
5278 Clear 1 984 53 10000 3.36 317 20:19 19.11.2020
5279 Clouds 1 983 59 10000 4.09 324 19:26 19.11.2020
5280 Clouds 2 981 54 10000 0.45 270 18:47 19.11.2020
5281 Clear 3 978 53 10000 1.34 270 17:21 19.11.2020
5282 Rain 3 976 50 10000 0.89 267 16:26 19.11.2020
5283 Rain 3 974 42 10000 1.34 90 15:29 19.11.2020
5284 Rain 3 974 43 10000 0.89 90 13:49 19.11.2020
5285 Clouds 3 974 43 10000 0.45 90 13:30 19.11.2020
5286 Clouds 3 974 44 10000 0.45 90 12:51 19.11.2020
5287 Clouds 3 992 63 10000 1.79 310 12:28 19.11.2020
5288 Clouds 2 992 63 10000 1.79 310 11:40 19.11.2020
5289 Clouds 2 992 63 10000 1.79 310 11:20 19.11.2020
5290 Clouds 3 971 66 10000 0.45 90 10:29 19.11.2020
5291 Clouds 2 970 72 10000 0.45 90 09:47 19.11.2020
5292 Clouds 2 969 73 10000 0.45 90 09:27 19.11.2020
5293 Clouds 3 965 80 10000 0.45 90 08:21 19.11.2020
5294 Rain 5 963 73 10000 0.89 90 07:30 19.11.2020
5295 Clouds 11 962 92 10000 1.34 139 01:46 19.11.2020
5296 Clouds 11 964 93 10000 2.24 266 00:32 19.11.2020
5297 Rain 11 966 94 10000 1.79 269 23:31 18.11.2020
5298 Rain 11 967 93 10000 2.24 46 22:58 18.11.2020
5299 Rain 11 968 92 10000 1.34 86 22:27 18.11.2020
5300 Clouds 11 969 90 10000 0.89 223 21:43 18.11.2020
5301 Clouds 11 970 90 10000 0.89 90 21:24 18.11.2020
5302 Clouds 11 971 90 10000 1.79 135 20:32 18.11.2020
5303 Clouds 11 972 86 10000 2.24 270 19:42 18.11.2020
5304 Clouds 11 973 85 10000 2.24 319 19:21 18.11.2020
5305 Clouds 10 978 1 10000 4.47 137 18:40 18.11.2020
5306 Clouds 11 975 91 10000 2.68 90 17:44 18.11.2020
5307 Clouds 10 976 90 10000 2.24 272 16:27 18.11.2020
5308 Clouds 10 977 89 10000 1.79 224 15:58 18.11.2020
5309 Clouds 11 977 86 10000 2.24 249 14:41 18.11.2020
5310 Clouds 11 979 85 10000 2.68 90 13:47 18.11.2020
5311 Clouds 12 978 86 10000 2.68 247 13:21 18.11.2020
5312 Clouds 12 979 88 10000 2.24 205 12:42 18.11.2020
5313 Clouds 12 980 90 10000 2.68 269 11:42 18.11.2020
5314 Clouds 12 980 90 10000 2.68 269 11:42 18.11.2020
5315 Clouds 11 980 93 10000 1.34 295 10:54 18.11.2020
5316 Clouds 11 980 97 10000 1.34 90 10:27 18.11.2020
5317 Clouds 10 981 96 10000 0.89 90 08:33 18.11.2020
5318 Clouds 8 983 95 10000 0.89 90 06:40 18.11.2020
5319 Clouds 7 983 96 10000 0.45 90 02:51 18.11.2020
5320 Clouds 8 982 96 10000 0.45 90 00:18 18.11.2020
5321 Clouds 9 981 96 10000 0.89 90 23:23 17.11.2020
5322 Clouds 9 981 97 10000 0.45 90 22:41 17.11.2020
5323 Clouds 9 980 97 10000 0.45 90 22:22 17.11.2020
5324 Clouds 9 980 97 10000 0.89 134 21:46 17.11.2020
5325 Clouds 9 979 99 10000 1.34 270 20:58 17.11.2020
5326 Clouds 9 979 99 10000 0.89 90 20:40 17.11.2020
5327 Clouds 9 979 99 10000 0.89 270 20:22 17.11.2020
5328 Clouds 9 978 99 10000 1.34 270 18:36 17.11.2020
5329 Clouds 9 978 99 10000 1.34 95 17:47 17.11.2020
5330 Clouds 9 978 99 10000 0.89 90 16:59 17.11.2020
5331 Clouds 9 978 99 6449 1.34 90 16:29 17.11.2020
5332 Clouds 9 979 99 6449 0.89 81 15:51 17.11.2020
5333 Clouds 9 979 98 1431 0.89 1 15:33 17.11.2020
5334 Clouds 9 978 97 1431 1.34 221 14:57 17.11.2020
5335 Rain 7 979 97 579 1.79 180 14:28 17.11.2020
5336 Rain 7 980 94 10000 1.79 135 13:38 17.11.2020
5337 Rain 7 981 93 10000 0.45 90 13:19 17.11.2020
5338 Rain 6 982 96 10000 0.45 90 12:40 17.11.2020
5339 Rain 6 983 93 10000 0.89 90 11:44 17.11.2020
5340 Rain 6 983 88 10000 0.89 90 10:50 17.11.2020
5341 Rain 6 983 86 10000 0.89 90 10:29 17.11.2020
5342 Rain 6 983 85 10000 0.89 90 09:51 17.11.2020
5343 Clouds 6 983 86 10000 0.89 90 09:29 17.11.2020
5344 Clouds 5 983 90 10000 0.45 90 08:23 17.11.2020
5345 Clouds 5 982 91 10000 0.89 90 07:44 17.11.2020
5346 Clouds 5 982 94 10000 0.45 90 06:40 17.11.2020
5347 Clouds 6 981 93 10000 0.45 90 03:48 17.11.2020
5348 Clouds 6 981 93 10000 1.34 181 02:53 17.11.2020
5349 Clouds 7 980 93 10000 1.79 90 01:25 17.11.2020
5350 Clouds 6 980 92 10000 0.45 90 00:55 17.11.2020
5351 Clouds 7 979 90 10000 1.34 90 23:49 16.11.2020
5352 Clouds 7 979 90 10000 0.45 225 23:29 16.11.2020
5353 Clouds 7 979 90 10000 1.34 90 22:47 16.11.2020
5354 Clouds 8 978 90 10000 1.34 90 22:20 16.11.2020
5355 Clouds 8 978 91 10000 1.34 90 21:46 16.11.2020
5356 Clouds 8 978 91 10000 0.89 223 21:24 16.11.2020
5357 Clouds 8 977 91 10000 0.45 90 20:38 16.11.2020
5358 Clouds 8 977 91 10000 1.34 90 20:20 16.11.2020
5359 Rain 8 977 91 10000 0.89 90 19:38 16.11.2020
5360 Rain 8 976 91 10000 0.89 90 19:19 16.11.2020
5361 Clouds 8 975 91 10000 0.89 90 18:39 16.11.2020
5362 Clouds 8 974 91 10000 1.34 290 17:50 16.11.2020
5363 Rain 8 974 93 10000 1.79 90 17:21 16.11.2020
5364 Clouds 8 974 92 10000 2.68 222 16:53 16.11.2020
5365 Rain 8 974 90 10000 2.24 223 16:28 16.11.2020
5366 Rain 8 974 89 10000 2.68 184 15:52 16.11.2020
5367 Rain 8 974 89 10000 2.24 270 15:29 16.11.2020
5368 Rain 8 974 89 10000 1.79 90 14:57 16.11.2020
5369 Rain 8 975 89 10000 2.24 180 14:28 16.11.2020
5370 Rain 8 975 90 10000 2.24 95 13:31 16.11.2020
5371 Rain 8 975 88 10000 0.89 90 12:33 16.11.2020
5372 Rain 8 974 82 10000 1.34 177 11:44 16.11.2020
5373 Rain 8 974 85 10000 1.34 90 11:24 16.11.2020
5374 Rain 9 975 87 10000 0.89 90 10:47 16.11.2020
5375 Clouds 9 975 88 10000 1.79 90 10:26 16.11.2020
5376 Clouds 9 975 88 10000 1.79 90 10:26 16.11.2020
5377 Clouds 8 975 90 10000 1.34 180 09:53 16.11.2020
5378 Clouds 8 974 91 10000 2.24 223 09:35 16.11.2020
5379 Clouds 8 974 91 10000 1.34 90 08:49 16.11.2020
5380 Rain 8 974 88 10000 0.89 90 08:22 16.11.2020
5381 Clouds 8 973 90 10000 0.89 90 07:36 16.11.2020
5382 Rain 9 973 88 10000 1.34 157 06:47 16.11.2020
5383 Rain 10 972 92 10000 2.24 94 05:50 16.11.2020
5384 Rain 10 972 93 10000 1.34 334 03:58 16.11.2020
5385 Rain 10 974 90 10000 1.34 227 01:46 16.11.2020
5386 Clouds 10 975 91 10000 1.79 93 00:53 16.11.2020
5387 Rain 10 976 91 6374 1.34 90 23:33 15.11.2020
5388 Clouds 11 976 91 10000 2.68 270 22:58 15.11.2020
5389 Rain 10 977 91 9996 1.79 0 22:27 15.11.2020
5390 Clouds 11 977 92 9996 2.68 138 22:00 15.11.2020
5391 Clouds 10 977 92 9996 1.79 223 21:36 15.11.2020
5392 Clouds 10 977 92 10000 1.34 266 21:18 15.11.2020
5393 Rain 10 978 92 10000 1.79 224 20:40 15.11.2020
5394 Clouds 10 978 94 9497 2.24 137 19:57 15.11.2020
5395 Clouds 10 978 94 9497 2.24 137 19:57 15.11.2020
5396 Clouds 10 978 95 9497 1.79 95 19:39 15.11.2020
5397 Clouds 10 978 95 9497 1.79 95 19:39 15.11.2020
5398 Rain 10 978 95 5566 1.34 93 19:20 15.11.2020
5399 Clouds 10 978 96 4577 1.34 178 18:45 15.11.2020
5400 Clouds 10 978 96 8967 1.34 96 18:25 15.11.2020
5401 Rain 10 979 96 8967 1.79 90 17:58 15.11.2020
5402 Rain 10 979 96 8967 1.34 91 17:39 15.11.2020
5403 Clouds 10 979 96 9375 2.24 159 17:20 15.11.2020
5404 Rain 10 980 97 9375 1.79 0 16:41 15.11.2020
5405 Clouds 9 980 96 9327 1.34 180 16:19 15.11.2020
5406 Rain 9 980 97 9327 1.34 2 15:43 15.11.2020
5407 Rain 10 980 98 8917 1.79 266 15:24 15.11.2020
5408 Clouds 10 981 99 8917 1.34 17 14:53 15.11.2020
5409 Rain 10 980 99 8339 1.34 267 14:26 15.11.2020
5410 Clouds 9 980 98 8339 1.34 315 13:43 15.11.2020
5411 Rain 9 980 98 8310 2.68 182 13:21 15.11.2020
5412 Rain 9 980 99 9339 2.68 93 12:46 15.11.2020
5413 Rain 9 980 99 9339 2.68 93 12:46 15.11.2020
5414 Rain 9 1001 99 8799 1.79 110 12:19 15.11.2020
5415 Rain 9 980 99 8799 7.15 91 11:44 15.11.2020
5416 Rain 8 981 98 8783 2.24 90 11:18 15.11.2020
5417 Rain 8 981 97 8783 2.24 0 10:51 15.11.2020
5418 Rain 8 981 96 2459 1.79 270 10:30 15.11.2020
5419 Clouds 8 981 94 2459 2.24 86 09:52 15.11.2020
5420 Rain 8 981 94 1867 1.79 94 09:32 15.11.2020
5421 Rain 8 981 93 1867 0.89 90 08:55 15.11.2020
5422 Rain 7 982 93 1867 1.79 210 08:32 15.11.2020
5423 Rain 7 982 96 4323 2.24 223 07:44 15.11.2020
5424 Rain 7 982 94 5360 2.24 267 06:42 15.11.2020
5425 Clouds 7 983 93 7474 0.45 94 04:53 15.11.2020
5426 Rain 7 986 92 10000 1.34 43 01:54 15.11.2020
5427 Rain 7 986 94 10000 1.34 250 00:30 15.11.2020
5428 Clouds 7 987 96 10000 0.89 220 23:49 14.11.2020
5429 Clouds 6 987 99 10000 0.45 90 22:55 14.11.2020
5430 Clouds 6 987 99 10000 0.45 90 22:55 14.11.2020
5431 Rain 6 987 99 10000 0.45 90 22:37 14.11.2020
5432 Rain 5 987 99 10000 1.34 225 22:18 14.11.2020
5433 Rain 5 987 98 10000 0.89 90 21:39 14.11.2020
5434 Rain 5 987 97 10000 0.45 90 21:20 14.11.2020
5435 Clouds 5 988 96 10000 1.17 175 20:42 14.11.2020
5436 Clouds 5 988 96 10000 0.89 90 20:23 14.11.2020
5437 Clouds 4 988 94 10000 1.57 194 19:36 14.11.2020
5438 Clouds 4 987 93 10000 1.88 189 18:58 14.11.2020
5439 Clouds 4 988 92 10000 0.45 90 18:39 14.11.2020
5440 Clouds 4 988 92 10000 2.08 190 18:21 14.11.2020
5441 Clouds 5 987 92 10000 2.08 190 17:44 14.11.2020
5442 Clouds 5 987 92 10000 0.45 90 17:25 14.11.2020
5443 Clouds 5 987 90 10000 0.45 90 16:52 14.11.2020
5444 Clouds 5 988 88 10000 2.14 194 16:31 14.11.2020
5445 Clouds 5 988 85 10000 0.45 90 15:53 14.11.2020
5446 Clouds 6 988 83 10000 2.33 196 15:31 14.11.2020
5447 Clouds 6 988 82 10000 0.45 90 14:56 14.11.2020
5448 Clouds 7 988 74 10000 0.89 90 14:29 14.11.2020
5449 Clouds 8 987 71 10000 0.45 270 13:52 14.11.2020
5450 Clouds 7 1006 92 10000 2.42 191 13:30 14.11.2020
5451 Clouds 7 1006 92 10000 2.42 191 12:52 14.11.2020
5452 Clouds 7 1006 92 10000 2 197 12:33 14.11.2020
5453 Clouds 7 987 82 10000 0.45 90 11:56 14.11.2020
5454 Clouds 7 1006 92 10000 1.79 199 11:37 14.11.2020
5455 Clouds 7 987 99 10000 1.79 199 10:59 14.11.2020
5456 Clouds 7 987 97 9000 0.45 90 10:38 14.11.2020
5457 Clouds 7 987 97 9000 0.89 90 10:20 14.11.2020
5458 Clouds 7 986 97 9000 0.45 90 09:43 14.11.2020
5459 Clouds 7 986 96 9359 0.45 90 09:23 14.11.2020
5460 Clouds 7 986 96 9359 0.45 90 08:40 14.11.2020
5461 Clouds 8 986 96 9284 1.11 166 08:21 14.11.2020
5462 Clouds 8 985 95 9284 0.45 90 07:41 14.11.2020
5463 Clouds 8 985 95 10000 0.45 90 06:51 14.11.2020
5464 Clouds 8 985 94 9502 0.45 90 06:20 14.11.2020
5465 Clouds 7 985 99 9016 0.89 91 04:53 14.11.2020
5466 Rain 7 986 96 6761 1.34 92 01:48 14.11.2020
5467 Rain 7 987 98 7075 2.24 183 00:25 14.11.2020
5468 Rain 7 986 98 7075 0.89 270 23:35 13.11.2020
5469 Rain 7 987 98 9830 1.79 267 22:58 13.11.2020
5470 Rain 7 987 98 9830 2.24 245 22:40 13.11.2020
5471 Rain 7 987 98 10000 2.24 267 22:21 13.11.2020
5472 Rain 6 987 98 10000 1.79 268 21:49 13.11.2020
5473 Rain 6 987 99 10000 1.34 183 21:25 13.11.2020
5474 Rain 6 987 99 10000 1.79 266 20:51 13.11.2020
5475 Rain 6 988 99 8439 1.79 138 20:32 13.11.2020
5476 Rain 5 988 99 8439 1.34 90 19:55 13.11.2020
5477 Clouds 5 988 99 8439 0.89 180 19:36 13.11.2020
5478 Clouds 5 988 99 8439 0.89 180 19:36 13.11.2020
5479 Rain 5 988 99 10000 1.34 93 19:18 13.11.2020
5480 Rain 5 988 99 10000 1.34 270 18:32 13.11.2020
5481 Rain 5 989 98 10000 0.89 90 17:44 13.11.2020
5482 Rain 5 989 97 10000 1.34 93 17:21 13.11.2020
5483 Clouds 5 989 95 10000 0.45 90 16:57 13.11.2020
5484 Clouds 5 990 95 10000 1.14 87 16:38 13.11.2020
5485 Clouds 5 990 95 10000 0.45 90 16:18 13.11.2020
5486 Clouds 5 990 94 10000 0.45 90 15:39 13.11.2020
5487 Rain 5 991 93 10000 1.1 80 15:21 13.11.2020
5488 Clouds 5 991 92 10000 0.45 90 14:37 13.11.2020
5489 Clouds 5 991 92 10000 1.15 87 14:18 13.11.2020
5490 Clouds 5 991 92 10000 1 97 13:32 13.11.2020
5491 Clouds 5 992 92 10000 0.45 90 12:57 13.11.2020
5492 Clouds 5 992 92 10000 1.07 108 12:39 13.11.2020
5493 Clouds 5 992 92 10000 0.45 90 12:20 13.11.2020
5494 Clouds 5 993 92 10000 1.03 111 11:46 13.11.2020
5495 Clouds 5 993 92 10000 0.45 90 11:21 13.11.2020
5496 Clouds 5 993 92 10000 1.03 104 10:50 13.11.2020
5497 Clouds 5 993 92 10000 0.45 90 10:32 13.11.2020
5498 Clouds 4 993 92 10000 1.24 85 09:48 13.11.2020
5499 Clouds 4 994 92 10000 0.45 90 09:29 13.11.2020
5500 Clouds 4 994 91 10000 0.45 90 08:53 13.11.2020
5501 Clouds 4 994 91 10000 1.15 75 08:27 13.11.2020
5502 Clouds 5 994 91 10000 0.45 90 07:50 13.11.2020
5503 Clouds 5 994 91 10000 0.69 72 07:27 13.11.2020
5504 Clouds 5 994 92 10000 0.91 86 06:55 13.11.2020
5505 Clouds 5 994 91 10000 0.45 90 06:36 13.11.2020
5506 Clouds 5 994 91 10000 0.89 154 05:41 13.11.2020
5507 Clouds 5 994 91 10000 0.45 90 03:41 13.11.2020
5508 Clouds 5 995 90 10000 1.34 222 01:42 13.11.2020
5509 Clouds 5 995 90 10000 0.82 70 00:36 13.11.2020
5510 Clouds 5 996 90 10000 0.45 90 23:50 12.11.2020
5511 Clouds 5 996 90 10000 0.98 57 23:21 12.11.2020
5512 Clouds 4 996 90 10000 0.45 135 22:55 12.11.2020
5513 Clouds 4 996 90 10000 0.45 90 22:37 12.11.2020
5514 Clouds 4 996 89 10000 0.45 90 21:59 12.11.2020
5515 Clouds 5 996 88 10000 0.45 90 21:40 12.11.2020
5516 Clouds 5 996 88 10000 0.87 54 21:22 12.11.2020
5517 Clouds 5 996 88 10000 0.87 54 20:42 12.11.2020
5518 Clouds 5 996 88 10000 1 69 20:23 12.11.2020
5519 Clouds 5 996 88 10000 1 69 19:53 12.11.2020
5520 Clouds 5 996 89 10000 1.12 81 19:34 12.11.2020
5521 Clouds 5 996 89 10000 1.12 81 18:59 12.11.2020
5522 Clouds 5 996 89 10000 1.1 102 18:41 12.11.2020
5523 Clouds 5 996 89 10000 0.45 90 18:20 12.11.2020
5524 Clouds 5 996 89 10000 0.45 90 17:40 12.11.2020
5525 Clouds 5 996 89 10000 1.13 108 17:22 12.11.2020
5526 Clouds 6 996 88 10000 1.13 108 16:45 12.11.2020
5527 Clouds 6 996 88 10000 1.19 106 16:23 12.11.2020
5528 Clouds 6 996 88 10000 1.19 106 15:52 12.11.2020
5529 Clouds 6 996 88 10000 0.45 90 15:28 12.11.2020
5530 Clouds 6 996 87 10000 1.1 117 14:56 12.11.2020
5531 Clouds 6 996 87 10000 1.1 117 14:37 12.11.2020
5532 Clouds 6 996 87 10000 1.32 122 14:18 12.11.2020
5533 Clouds 6 996 87 10000 0.45 90 13:43 12.11.2020
5534 Clouds 6 996 87 10000 0.45 90 13:19 12.11.2020
5535 Clouds 5 997 85 10000 0.45 90 12:47 12.11.2020
5536 Clouds 5 997 84 10000 1.6 136 12:25 12.11.2020
5537 Clouds 6 997 83 10000 0.45 90 11:53 12.11.2020
5538 Clouds 6 997 83 10000 1.6 136 11:53 12.11.2020
5539 Clouds 6 997 81 10000 0.45 90 11:34 12.11.2020
5540 Clouds 6 997 80 10000 1.34 270 10:50 12.11.2020
5541 Clouds 6 997 82 10000 1.34 91 10:32 12.11.2020
5542 Clouds 5 997 91 10000 1.34 94 09:52 12.11.2020
5543 Clouds 5 997 92 10000 1.79 177 09:27 12.11.2020
5544 Clouds 5 997 94 10000 0.45 90 08:58 12.11.2020
5545 Clouds 5 997 95 10000 1.34 93 08:40 12.11.2020
5546 Clouds 5 997 95 10000 1.34 93 08:40 12.11.2020
5547 Clouds 5 997 95 10000 1.34 248 08:20 12.11.2020
5548 Clouds 5 997 95 10000 0.89 230 07:54 12.11.2020
5549 Clouds 5 997 95 10000 0.89 92 07:31 12.11.2020
5550 Clouds 5 997 96 10000 0.89 177 06:51 12.11.2020
5551 Clouds 5 997 97 10000 1.34 90 06:25 12.11.2020
5552 Clouds 6 998 98 10000 0.89 100 03:45 12.11.2020
5553 Clouds 6 998 98 10000 0.89 90 03:19 12.11.2020
5554 Clouds 6 999 99 10000 0.89 225 00:32 12.11.2020
5555 Clouds 6 999 99 10000 1.34 311 23:43 11.11.2020
5556 Clouds 6 999 99 10000 0.89 177 23:24 11.11.2020
5557 Clouds 6 999 99 10000 0.89 90 23:24 11.11.2020
5558 Clouds 6 999 99 10000 0.89 90 22:47 11.11.2020
5559 Clouds 6 999 99 10000 0.89 90 22:22 11.11.2020
5560 Clouds 6 1000 99 10000 0.45 90 21:57 11.11.2020
5561 Clouds 6 1000 99 10000 0.89 90 21:38 11.11.2020
5562 Clouds 6 1000 99 10000 0.45 90 21:19 11.11.2020
5563 Clouds 6 1000 99 10000 0.45 90 20:42 11.11.2020
5564 Clouds 6 1000 99 10000 0.45 90 20:22 11.11.2020
5565 Clouds 6 1000 99 10000 0.89 90 19:55 11.11.2020
5566 Clouds 6 1000 99 10000 0.45 90 19:37 11.11.2020
5567 Clouds 6 1000 99 10000 0.45 90 19:18 11.11.2020
5568 Clouds 6 1000 99 10000 0.45 90 19:18 11.11.2020
5569 Clouds 6 1001 99 9969 0.89 90 18:41 11.11.2020
5570 Clouds 6 1000 99 10000 1.34 90 18:21 11.11.2020
5571 Clouds 6 1000 99 10000 0.89 90 17:37 11.11.2020
5572 Clouds 7 1001 99 10000 0.89 90 17:19 11.11.2020
5573 Clouds 7 1001 99 10000 0.45 90 16:39 11.11.2020
5574 Clouds 7 1001 99 10000 0.45 90 16:39 11.11.2020
5575 Clouds 7 1001 99 10000 0.45 90 16:21 11.11.2020
5576 Clouds 7 1001 99 10000 0.89 137 15:41 11.11.2020
5577 Clouds 7 1001 99 10000 0.45 90 15:23 11.11.2020
5578 Clouds 7 1001 99 10000 0.45 225 15:23 11.11.2020
5579 Clouds 7 1001 99 10000 0.45 92 14:47 11.11.2020
5580 Clouds 7 1001 99 10000 0.45 90 14:28 11.11.2020
5581 Clouds 6 1002 99 10000 0.89 204 13:49 11.11.2020
5582 Clouds 6 1002 99 10000 0.89 90 13:24 11.11.2020
5583 Clouds 6 1002 99 10000 2.59 198 12:22 11.11.2020
5584 Clouds 6 1002 99 10000 0.45 90 11:58 11.11.2020
5585 Clouds 5 1002 99 8921 2.52 193 11:40 11.11.2020
5586 Clouds 5 1002 99 8921 2.52 193 11:20 11.11.2020
5587 Clouds 5 1003 99 8843 1.93 189 10:39 11.11.2020
5588 Clouds 5 1003 99 8843 1.93 189 10:19 11.11.2020
5589 Clouds 4 1003 98 8843 1.93 189 09:43 11.11.2020
5590 Clouds 4 1003 98 8823 1.7 194 09:24 11.11.2020
5591 Clouds 4 1003 98 8823 1.7 194 08:45 11.11.2020
5592 Clouds 4 1003 98 5985 1.75 186 08:25 11.11.2020
5593 Clouds 5 1003 97 5985 1.75 186 07:49 11.11.2020
5594 Clouds 5 1004 97 8878 2.17 178 06:33 11.11.2020
5595 Clouds 5 1004 96 7279 1.81 174 05:52 11.11.2020
5596 Clouds 4 1005 96 10000 1.31 164 02:29 11.11.2020
5597 Clouds 4 1006 96 10000 1.67 169 00:58 11.11.2020
5598 Clouds 5 1006 96 10000 1.5 167 00:25 11.11.2020
5599 Clouds 4 1006 97 10000 1.36 154 23:42 10.11.2020
5600 Clouds 4 1006 97 10000 1.36 154 23:23 10.11.2020
5601 Clouds 4 1006 96 10000 1.36 154 22:51 10.11.2020
5602 Clouds 4 1006 96 10000 1.31 152 22:26 10.11.2020
5603 Clouds 4 1007 96 10000 0.45 90 21:42 10.11.2020
5604 Clouds 5 1006 96 10000 1.16 155 21:24 10.11.2020
5605 Clouds 4 1007 96 10000 0.45 90 20:58 10.11.2020
5606 Clouds 4 1007 96 10000 1.16 155 20:40 10.11.2020
5607 Clouds 4 1007 96 10000 1.14 156 20:22 10.11.2020
5608 Clouds 4 1007 95 10000 0.45 90 19:46 10.11.2020
5609 Clouds 4 1007 95 10000 1.05 158 19:25 10.11.2020
5610 Clouds 4 1007 95 10000 1.05 158 18:56 10.11.2020
5611 Clouds 4 1007 95 10000 1.24 166 18:37 10.11.2020
5612 Clouds 4 1007 95 10000 1.23 168 18:18 10.11.2020
5613 Clouds 4 1007 95 10000 1.23 168 17:42 10.11.2020
5614 Clouds 4 1007 95 10000 1.2 165 17:24 10.11.2020
5615 Clouds 5 1007 95 10000 1.2 165 16:42 10.11.2020
5616 Clouds 5 1007 95 10000 1.05 162 16:23 10.11.2020
5617 Clouds 5 1007 95 10000 0.45 90 15:55 10.11.2020
5618 Clouds 5 1007 95 10000 0.45 90 15:37 10.11.2020
5619 Clouds 5 1007 95 10000 0.45 90 15:18 10.11.2020
5620 Clouds 5 1007 95 10000 0.45 90 14:40 10.11.2020
5621 Clouds 5 1007 95 10000 0.77 154 14:19 10.11.2020
5622 Clouds 5 1008 95 10000 0.77 154 13:40 10.11.2020
5623 Clouds 5 1008 95 10000 0.52 150 13:21 10.11.2020
5624 Clouds 4 1008 95 10000 0.52 150 12:56 10.11.2020
5625 Clouds 4 1008 95 10000 0.57 163 12:37 10.11.2020
5626 Clouds 4 1008 95 10000 0.47 171 12:18 10.11.2020
5627 Clouds 4 1008 95 10000 0.47 171 11:36 10.11.2020
5628 Clouds 4 1008 95 10000 0.3 164 11:18 10.11.2020
5629 Clouds 4 1008 95 10000 0.3 164 10:42 10.11.2020
5630 Clouds 4 1008 95 10000 0.16 112 10:22 10.11.2020
5631 Clouds 4 1008 95 10000 0.16 112 09:46 10.11.2020
5632 Clouds 4 1008 94 10000 0.19 73 09:26 10.11.2020
5633 Clouds 4 1008 94 10000 0.19 73 08:57 10.11.2020
5634 Clouds 4 1008 94 10000 0.2 52 08:29 10.11.2020
5635 Clouds 3 1007 94 10000 0.2 52 07:46 10.11.2020
5636 Clouds 3 1007 93 10000 0.2 64 07:25 10.11.2020
5637 Clouds 3 1008 94 10000 0.06 25 06:41 10.11.2020
5638 Clouds 3 1008 94 10000 0.09 53 05:56 10.11.2020
5639 Clouds 3 1007 95 10000 0.05 300 05:24 10.11.2020
5640 Clouds 3 1007 96 10000 0.28 315 02:48 10.11.2020
5641 Clouds 3 1008 96 10000 0.39 307 01:32 10.11.2020
5642 Clouds 4 1008 95 10000 0.43 285 00:23 10.11.2020
5643 Clouds 3 1008 95 10000 0.43 285 23:38 09.11.2020
5644 Clouds 3 1008 95 10000 0.37 306 22:54 09.11.2020
5645 Clouds 3 1008 95 10000 0.39 314 22:36 09.11.2020
5646 Clouds 3 1007 95 10000 0.39 314 22:18 09.11.2020
5647 Clouds 3 1007 95 10000 0.39 314 21:39 09.11.2020
5648 Clouds 3 1008 95 10000 0.36 327 21:19 09.11.2020
5649 Clouds 3 1007 95 10000 0.36 327 20:39 09.11.2020
5650 Clouds 3 1007 94 10000 0.45 357 20:21 09.11.2020
5651 Clouds 3 1007 94 10000 0.45 357 19:42 09.11.2020
5652 Clouds 3 1007 94 10000 0.5 5 19:22 09.11.2020
5653 Clouds 3 1007 94 10000 0.46 344 18:46 09.11.2020
5654 Clouds 3 1007 94 10000 0.46 344 18:46 09.11.2020
5655 Clouds 3 1007 93 10000 0.52 357 18:21 09.11.2020
5656 Clouds 3 1007 93 10000 0.52 357 17:58 09.11.2020
5657 Clouds 3 1007 93 10000 0.56 14 17:39 09.11.2020
5658 Clouds 3 1007 92 10000 0.45 90 17:21 09.11.2020
5659 Clouds 3 1007 92 10000 0.43 44 16:38 09.11.2020
5660 Clouds 3 1007 92 10000 0.43 44 16:19 09.11.2020
5661 Clouds 3 1007 91 10000 0.43 44 15:42 09.11.2020
5662 Clouds 3 1007 91 10000 0.48 72 15:23 09.11.2020
5663 Clouds 3 1007 91 10000 0.48 72 14:44 09.11.2020
5664 Clouds 3 1006 91 10000 0.64 75 14:26 09.11.2020
5665 Clouds 3 1006 91 10000 0.64 75 13:51 09.11.2020
5666 Clouds 3 1007 91 10000 0.78 65 13:21 09.11.2020
5667 Clouds 3 1006 92 10000 0.89 60 12:47 09.11.2020
5668 Clouds 2 1007 92 10000 0.93 50 12:26 09.11.2020
5669 Clouds 2 1007 92 10000 0.93 50 11:57 09.11.2020
5670 Clouds 2 1007 92 10000 0.93 50 11:38 09.11.2020
5671 Clouds 2 1006 93 10000 0.69 44 11:19 09.11.2020
5672 Clouds 2 1006 92 10000 0.69 44 10:42 09.11.2020
5673 Clouds 1 1006 92 10000 0.73 46 10:23 09.11.2020
5674 Clouds 1 1006 92 10000 0.73 46 09:45 09.11.2020
5675 Clouds 1 1006 92 10000 0.64 52 09:23 09.11.2020
5676 Clouds 0 1005 91 10000 0.55 47 08:39 09.11.2020
5677 Clouds 0 1005 91 10000 0.55 47 08:19 09.11.2020
5678 Clouds 1 1005 91 10000 0.71 44 07:40 09.11.2020
5679 Clouds 1 1005 91 10000 0.71 44 07:19 09.11.2020
5680 Clouds 1 1004 91 10000 0.83 42 06:31 09.11.2020
5681 Clouds 1 1004 91 10000 0.42 10 03:22 09.11.2020
5682 Clouds 1 1004 91 10000 0.56 25 01:43 09.11.2020
5683 Clouds 1 1004 91 10000 0.76 33 00:58 09.11.2020
5684 Clouds 2 1003 91 10000 0.95 23 23:53 08.11.2020
5685 Clouds 2 1003 91 10000 1.03 14 23:30 08.11.2020
5686 Clouds 2 1003 91 10000 1.03 14 22:46 08.11.2020
5687 Clouds 2 1003 90 10000 1.07 6 22:23 08.11.2020
5688 Clouds 2 1003 90 10000 1.07 6 21:56 08.11.2020
5689 Clouds 2 1003 90 10000 1.07 6 21:56 08.11.2020
5690 Clouds 2 1003 90 10000 1.07 6 21:37 08.11.2020
5691 Clouds 2 1003 90 10000 1.11 6 21:18 08.11.2020
5692 Clouds 2 1003 89 10000 1.11 6 20:39 08.11.2020
5693 Clouds 2 1003 89 10000 1.11 6 20:39 08.11.2020
5694 Clouds 2 1003 89 10000 1.11 6 20:39 08.11.2020
5695 Clouds 2 1003 89 10000 1.07 0 20:21 08.11.2020
5696 Clouds 2 1003 89 10000 1.07 0 20:21 08.11.2020
5697 Clouds 2 1002 87 10000 1.07 0 19:56 08.11.2020
5698 Clouds 2 1002 87 10000 1.07 0 19:37 08.11.2020
5699 Clear 1 1002 87 10000 0.77 354 19:19 08.11.2020
5700 Clear 2 1002 86 10000 0.93 355 18:45 08.11.2020
5701 Clear 2 1002 85 10000 0.37 323 18:21 08.11.2020
5702 Clear 2 1002 84 10000 0.37 323 17:57 08.11.2020
5703 Clear 2 1002 82 10000 0.29 4 17:37 08.11.2020
5704 Clear 2 1002 82 10000 0.45 271 17:19 08.11.2020
5705 Clear 3 1001 80 10000 0.29 4 16:47 08.11.2020
5706 Clear 3 1001 78 10000 0.46 25 16:21 08.11.2020
5707 Clear 4 1001 74 10000 0.46 25 15:56 08.11.2020
5708 Clear 4 1001 71 10000 0.46 25 15:38 08.11.2020
5709 Clear 5 1001 66 10000 0.04 175 15:19 08.11.2020
5710 Clear 3 1021 72 10000 0.04 175 14:38 08.11.2020
5711 Fog 4 1024 100 350 1 0 14:20 08.11.2020
5712 Fog 3 1024 100 350 0.07 132 13:44 08.11.2020
5713 Fog 3 1024 100 300 1 0 13:21 08.11.2020
5714 Fog 3 1024 100 300 0.16 47 12:42 08.11.2020
5715 Fog 3 1024 100 300 0.33 64 12:24 08.11.2020
5716 Fog 4 1024 100 350 1.5 260 11:57 08.11.2020
5717 Fog 3 1024 100 350 1.5 260 11:38 08.11.2020
5718 Fog 3 1024 100 350 1.5 260 11:38 08.11.2020
5719 Fog 3 1023 100 350 1.5 280 11:20 08.11.2020
5720 Fog 2 1023 100 400 1 0 10:49 08.11.2020
5721 Clouds 2 1023 83 10000 0.44 39 10:18 08.11.2020
5722 Clouds 4 1001 92 10000 0.44 39 09:42 08.11.2020
5723 Clouds 2 1000 93 10000 0.45 90 09:24 08.11.2020
5724 Clouds 1 1000 92 10000 0.09 10 08:55 08.11.2020
5725 Clouds 1 1000 92 10000 0.09 10 08:36 08.11.2020
5726 Clouds 1 999 91 10000 0.45 90 07:58 08.11.2020
5727 Clouds 1 999 91 10000 0.42 86 07:39 08.11.2020
5728 Clouds 1 999 92 10000 0.49 14 07:18 08.11.2020
5729 Clouds 2 998 92 10000 0.45 1 05:55 08.11.2020
5730 Clouds 2 998 92 10000 0.29 355 05:29 08.11.2020
5731 Clouds 2 998 91 10000 0.45 90 03:56 08.11.2020
5732 Clouds 2 997 91 10000 0.45 334 01:49 08.11.2020
5733 Rain 2 997 91 10000 0.27 8 01:18 08.11.2020
5734 Clouds 4 997 90 10000 0.96 359 00:26 08.11.2020
5735 Clouds 4 997 90 10000 0.96 359 23:46 07.11.2020
5736 Clouds 3 997 90 10000 1.31 9 23:28 07.11.2020
5737 Clouds 3 996 88 10000 1.31 9 22:42 07.11.2020
5738 Clouds 4 996 88 10000 1.37 347 22:23 07.11.2020
5739 Clouds 4 996 89 10000 1.37 347 21:45 07.11.2020
5740 Clouds 3 995 87 10000 1.63 345 21:22 07.11.2020
5741 Clouds 4 995 86 10000 1.63 345 20:50 07.11.2020
5742 Clouds 4 995 85 10000 1.58 355 20:32 07.11.2020
5743 Clouds 4 995 84 10000 1.58 355 19:59 07.11.2020
5744 Clouds 4 995 83 10000 1.58 355 19:39 07.11.2020
5745 Clear 5 994 81 10000 1.51 345 19:19 07.11.2020
5746 Clear 4 1015 88 10000 1.79 132 18:39 07.11.2020
5747 Clear 5 1015 83 10000 1.79 119 18:20 07.11.2020
5748 Clear 5 1015 83 10000 1.79 119 17:45 07.11.2020
5749 Rain 5 1015 83 10000 1.79 119 17:25 07.11.2020
5750 Clear 6 1015 83 10000 1.79 119 16:43 07.11.2020
5751 Clear 6 1015 83 10000 1.79 119 16:24 07.11.2020
5752 Clear 6 1015 83 10000 1.79 119 15:47 07.11.2020
5753 Clear 7 994 63 10000 0.76 326 15:24 07.11.2020
5754 Clear 7 1015 83 10000 1.79 119 14:56 07.11.2020
5755 Clear 7 1015 83 10000 1.79 119 14:38 07.11.2020
5756 Clear 6 1017 94 10000 0.89 132 14:19 07.11.2020
5757 Clear 6 1017 94 10000 0.89 132 13:39 07.11.2020
5758 Clear 6 1017 94 10000 0.89 132 13:21 07.11.2020
5759 Clear 6 1017 94 10000 0.89 132 12:33 07.11.2020
5760 Clear 6 996 90 10000 0.45 273 11:45 07.11.2020
5761 Clear 6 996 91 10000 0.45 90 11:25 07.11.2020
5762 Clear 5 996 91 10000 0.45 90 10:56 07.11.2020
5763 Clear 5 996 92 10000 0.45 90 10:38 07.11.2020
5764 Clear 5 997 96 10000 0.45 138 10:20 07.11.2020
5765 Clear 5 996 98 10000 0.45 90 09:47 07.11.2020
5766 Clear 5 996 99 10000 0.45 90 09:21 07.11.2020
5767 Clear 5 996 99 10000 0.89 87 08:43 07.11.2020
5768 Clear 5 997 99 10000 0.89 90 08:22 07.11.2020
5769 Clear 4 1001 1 10000 0.45 171 07:37 07.11.2020
5770 Clouds 4 1019 91 10000 0.28 137 06:48 07.11.2020
5771 Clouds 4 1019 91 10000 0.35 179 05:40 07.11.2020
5772 Clouds 5 999 81 10000 0.5 205 03:25 07.11.2020
5773 Clear 5 999 74 10000 0.14 271 02:28 07.11.2020
5774 Clear 5 1000 71 10000 0.26 262 01:26 07.11.2020
5775 Clear 6 1000 70 10000 0.76 306 00:29 07.11.2020
5776 Clear 6 1000 63 10000 0.45 90 23:32 06.11.2020
5777 Clear 7 1000 62 10000 0.45 90 22:57 06.11.2020
5778 Clear 7 1001 61 10000 0.89 325 22:38 06.11.2020
5779 Clear 7 1001 61 10000 1.06 339 22:18 06.11.2020
5780 Clear 7 1001 61 10000 1.06 339 21:41 06.11.2020
5781 Clear 8 1001 60 10000 1.18 337 21:20 06.11.2020
5782 Clear 8 1001 60 10000 1.18 337 20:44 06.11.2020
5783 Clear 8 1022 51 10000 0.8 316 20:20 06.11.2020
5784 Clear 9 1023 50 10000 0.8 316 19:45 06.11.2020
5785 Clear 9 1005 22 10000 0.9 325 19:27 06.11.2020
5786 Clear 9 1005 11 10000 0.81 306 18:55 06.11.2020
5787 Clear 9 1005 11 10000 0.81 306 18:55 06.11.2020
5788 Clear 9 1005 8 10000 0.81 306 18:37 06.11.2020
5789 Clear 9 1022 43 10000 1.32 337 18:18 06.11.2020
5790 Clear 10 1022 53 10000 2.1 280 17:41 06.11.2020
5791 Clear 10 1005 1 10000 1.45 328 17:23 06.11.2020
5792 Clear 11 1023 47 10000 1 0 16:39 06.11.2020
5793 Clear 11 1004 1 10000 1.65 324 16:20 06.11.2020
5794 Clear 12 1023 47 10000 2.1 290 15:41 06.11.2020
5795 Clear 12 1004 35 10000 2.08 322 15:22 06.11.2020
5796 Clear 12 1020 60 10000 2.68 98 14:41 06.11.2020
5797 Clear 13 1020 60 10000 2.68 98 14:18 06.11.2020
5798 Clear 12 1020 60 10000 2.68 98 14:18 06.11.2020
5799 Clear 13 1020 60 10000 2.68 98 13:42 06.11.2020
5800 Clouds 13 1020 60 10000 1.67 298 13:19 06.11.2020
5801 Clouds 13 1015 63 10000 1.67 298 12:42 06.11.2020
5802 Clouds 13 1015 63 10000 1.49 283 12:22 06.11.2020
5803 Clouds 12 1001 65 10000 0.45 90 11:38 06.11.2020
5804 Clouds 11 1001 71 10000 0.45 90 10:59 06.11.2020
5805 Clouds 11 1001 71 10000 0.45 90 10:36 06.11.2020
5806 Clouds 11 1000 71 10000 1.66 237 09:58 06.11.2020
5807 Clouds 11 1000 71 10000 0.45 183 09:38 06.11.2020
5808 Clouds 10 1020 75 10000 1.92 217 09:20 06.11.2020
5809 Clouds 11 1000 70 10000 0.45 90 08:47 06.11.2020
5810 Clouds 11 1000 70 10000 0.45 90 08:28 06.11.2020
5811 Clouds 11 1000 72 10000 0.45 90 07:44 06.11.2020
5812 Clouds 11 1000 71 10000 0.89 90 07:21 06.11.2020
5813 Clouds 11 999 70 10000 0.45 90 06:41 06.11.2020
5814 Clouds 12 999 67 10000 2.39 228 05:39 06.11.2020
5815 Clear 13 1019 71 10000 1.5 0 02:52 06.11.2020
5816 Clouds 14 996 59 10000 0.45 270 00:34 06.11.2020
5817 Clouds 14 996 60 10000 0.45 180 23:56 05.11.2020
5818 Clouds 14 996 58 10000 0.45 226 23:26 05.11.2020
5819 Clouds 13 995 59 10000 0.45 90 22:48 05.11.2020
5820 Clouds 13 995 60 10000 0.89 135 22:26 05.11.2020
5821 Clouds 13 995 59 10000 0.45 90 22:26 05.11.2020
5822 Clouds 11 995 63 10000 0.89 227 21:58 05.11.2020
5823 Clouds 11 995 62 10000 0.45 270 21:40 05.11.2020
5824 Clouds 11 995 63 10000 0.45 90 21:19 05.11.2020
5825 Clouds 11 995 63 10000 0.45 90 20:44 05.11.2020
5826 Clouds 10 996 62 10000 0.45 90 20:24 05.11.2020
5827 Clouds 10 995 61 10000 0.45 90 19:57 05.11.2020
5828 Clouds 10 995 61 10000 0.45 269 19:38 05.11.2020
5829 Clouds 10 995 62 10000 0.45 222 19:19 05.11.2020
5830 Clouds 10 995 64 10000 0.45 270 18:41 05.11.2020
5831 Clouds 10 995 64 10000 0.89 226 18:22 05.11.2020
5832 Clouds 10 995 65 10000 0.45 180 17:47 05.11.2020
5833 Clouds 11 995 63 10000 2.46 239 17:26 05.11.2020
5834 Clouds 11 995 62 10000 0.45 223 16:49 05.11.2020
5835 Clouds 11 995 58 10000 0.45 223 16:29 05.11.2020
5836 Clouds 11 994 56 10000 0.45 270 15:55 05.11.2020
5837 Clouds 11 994 55 10000 0.45 225 15:37 05.11.2020
5838 Clouds 12 994 54 10000 4.01 250 15:18 05.11.2020
5839 Clouds 12 994 52 10000 0.89 248 14:44 05.11.2020
5840 Clouds 12 994 52 10000 1.34 276 14:24 05.11.2020
5841 Clouds 11 994 55 10000 0.45 269 13:41 05.11.2020
5842 Clouds 12 994 57 10000 0.45 180 13:18 05.11.2020
5843 Clouds 12 994 55 10000 1.34 185 12:42 05.11.2020
5844 Clouds 12 993 56 10000 0.89 177 12:23 05.11.2020
5845 Clouds 12 994 54 10000 2.24 268 11:43 05.11.2020
5846 Clouds 11 993 52 10000 0.89 90 11:23 05.11.2020
5847 Clouds 10 993 60 10000 2.24 203 10:49 05.11.2020
5848 Clouds 10 992 62 10000 1.34 189 10:28 05.11.2020
5849 Clouds 10 992 62 10000 1.34 189 10:28 05.11.2020
5850 Clouds 9 992 67 10000 1.34 181 09:50 05.11.2020
5851 Clouds 9 993 70 10000 1.34 135 09:25 05.11.2020
5852 Clouds 8 992 72 10000 0.89 224 08:55 05.11.2020
5853 Clouds 7 992 72 10000 0.89 92 08:36 05.11.2020
5854 Clouds 6 992 73 10000 0.89 290 08:18 05.11.2020
5855 Clouds 7 991 80 10000 0.89 134 07:28 05.11.2020
5856 Clouds 6 991 77 10000 1.34 93 06:50 05.11.2020
5857 Clouds 6 991 76 10000 0.89 270 06:32 05.11.2020
5858 Clouds 6 992 71 10000 1.34 176 03:45 05.11.2020
5859 Clear 5 1015 78 10000 5.1 190 00:38 05.11.2020
5860 Clear 5 1016 69 10000 3.6 190 00:18 05.11.2020
5861 Clear 4 1016 74 10000 3.6 180 23:36 04.11.2020
5862 Clear 5 1016 69 10000 3.6 170 23:18 04.11.2020
5863 Clear 5 1016 74 10000 1 0 22:41 04.11.2020
5864 Clear 5 1016 76 10000 1 0 22:21 04.11.2020
5865 Clouds 5 1016 66 10000 0.45 169 21:47 04.11.2020
5866 Clouds 5 1016 66 10000 0.45 169 21:47 04.11.2020
5867 Clouds 5 1016 68 10000 1.44 267 21:27 04.11.2020
5868 Clouds 5 1015 68 10000 0.45 45 20:54 04.11.2020
5869 Clouds 6 1015 66 10000 1.44 267 20:35 04.11.2020
5870 Clouds 5 1014 67 10000 1.46 252 19:59 04.11.2020
5871 Clouds 6 1015 66 10000 1.46 252 19:40 04.11.2020
5872 Clouds 6 1015 65 10000 1.71 214 19:22 04.11.2020
5873 Clear 6 998 40 10000 0.45 276 18:41 04.11.2020
5874 Clear 6 998 38 10000 1.85 254 18:22 04.11.2020
5875 Clear 6 998 38 10000 0.45 255 17:47 04.11.2020
5876 Clear 6 997 33 10000 1.76 234 17:27 04.11.2020
5877 Clear 6 1013 65 10000 1.76 234 16:56 04.11.2020
5878 Clear 7 1000 66 10000 0.89 32 16:36 04.11.2020
5879 Clear 7 1000 66 10000 0.89 32 16:18 04.11.2020
5880 Clear 7 1000 66 10000 0.89 32 15:41 04.11.2020
5881 Clear 8 992 59 10000 0.45 135 15:23 04.11.2020
5882 Clear 8 1000 66 10000 0.89 32 14:45 04.11.2020
5883 Clear 8 1000 66 10000 0.89 32 14:24 04.11.2020
5884 Clear 8 1011 74 10000 0.45 45 13:51 04.11.2020
5885 Clouds 8 995 45 10000 1.34 216 13:22 04.11.2020
5886 Clouds 7 1011 83 10000 1.8 234 12:58 04.11.2020
5887 Clouds 7 1011 84 10000 1.92 225 12:40 04.11.2020
5888 Clear 7 995 31 10000 2.24 244 12:22 04.11.2020
5889 Clear 7 1010 93 10000 1.78 240 11:45 04.11.2020
5890 Clouds 5 1011 94 10000 1.58 208 11:22 04.11.2020
5891 Clouds 5 994 1 10000 1.58 208 10:49 04.11.2020
5892 Clear 4 1010 95 10000 1.31 212 10:24 04.11.2020
5893 Clear 4 994 1 10000 0.45 138 09:56 04.11.2020
5894 Clear 2 1010 96 10000 1.05 225 09:28 04.11.2020
5895 Clear 3 989 90 10000 1.05 225 08:50 04.11.2020
5896 Clear 2 989 89 10000 0.45 90 08:23 04.11.2020
5897 Clear 2 989 87 10000 1.22 225 07:57 04.11.2020
5898 Clear 2 989 87 10000 0.45 90 07:37 04.11.2020
5899 Clear 3 989 87 10000 1.42 206 07:18 04.11.2020
5900 Clear 3 988 86 10000 0.45 90 06:39 04.11.2020
5901 Clear 3 988 81 10000 2.12 182 04:59 04.11.2020
5902 Clear 5 989 71 10000 0.45 313 02:31 04.11.2020
5903 Clear 5 988 70 10000 0.45 90 01:38 04.11.2020
5904 Clouds 5 988 75 10000 1.79 137 23:59 03.11.2020
5905 Clouds 5 988 76 10000 0.45 263 23:26 03.11.2020
5906 Clouds 6 988 79 10000 1.34 294 22:55 03.11.2020
5907 Clouds 6 988 80 10000 0.89 90 22:37 03.11.2020
5908 Clouds 6 988 81 10000 0.45 90 22:18 03.11.2020
5909 Clouds 6 988 83 10000 0.89 90 21:41 03.11.2020
5910 Clouds 6 988 83 10000 0.89 225 21:23 03.11.2020
5911 Clouds 7 987 79 10000 0.45 90 20:48 03.11.2020
5912 Clouds 7 987 78 10000 0.89 158 20:27 03.11.2020
5913 Clouds 7 987 77 10000 0.45 136 19:55 03.11.2020
5914 Clouds 7 987 81 10000 0.45 90 19:37 03.11.2020
5915 Clouds 7 987 73 10000 0.89 142 19:18 03.11.2020
5916 Clouds 7 987 72 10000 1.34 180 18:40 03.11.2020
5917 Clear 7 987 79 10000 0.45 90 18:19 03.11.2020
5918 Clear 7 987 78 10000 0.89 185 17:45 03.11.2020
5919 Clouds 7 987 77 10000 0.45 227 17:27 03.11.2020
5920 Clouds 7 986 68 10000 0.89 222 16:51 03.11.2020
5921 Clouds 7 986 67 10000 1.34 311 16:30 03.11.2020
5922 Clouds 8 1007 65 10000 0.89 54 15:53 03.11.2020
5923 Clouds 8 1005 85 10000 1.61 214 15:30 03.11.2020
5924 Clouds 9 1005 85 10000 1.61 214 14:57 03.11.2020
5925 Clouds 9 1005 85 10000 1.61 214 14:38 03.11.2020
5926 Clouds 9 1005 85 10000 1.94 228 14:19 03.11.2020
5927 Clouds 9 1005 85 10000 1.94 228 13:41 03.11.2020
5928 Clouds 9 1005 85 10000 2.09 225 13:21 03.11.2020
5929 Clouds 9 1005 86 10000 2.09 225 12:44 03.11.2020
5930 Clouds 8 1001 74 10000 1.94 228 12:21 03.11.2020
5931 Clouds 8 1001 74 10000 1.94 228 11:46 03.11.2020
5932 Clouds 8 1001 74 10000 1.91 229 11:23 03.11.2020
5933 Clouds 8 1001 74 10000 1.91 229 10:55 03.11.2020
5934 Clouds 7 1000 87 10000 1.91 229 10:37 03.11.2020
5935 Clouds 6 1000 87 10000 1.99 224 10:18 03.11.2020
5936 Clouds 6 1000 87 10000 1.99 224 09:44 03.11.2020
5937 Clouds 6 1000 87 10000 1.95 217 09:22 03.11.2020
5938 Clouds 6 980 84 10000 0.45 227 08:48 03.11.2020
5939 Clouds 5 979 85 10000 0.89 90 08:29 03.11.2020
5940 Clouds 5 979 87 10000 0.45 90 07:41 03.11.2020
5941 Clouds 5 978 88 10000 0.45 90 07:19 03.11.2020
5942 Clouds 5 977 83 10000 0.45 90 06:21 03.11.2020
5943 Clouds 7 975 84 10000 0.45 90 04:34 03.11.2020
5944 Clouds 7 973 84 10000 0.45 90 00:44 03.11.2020
5945 Clouds 8 972 84 10000 0.45 90 00:20 03.11.2020
5946 Clouds 8 972 84 10000 0.45 90 23:43 02.11.2020
5947 Clouds 8 971 85 10000 1.91 210 23:20 02.11.2020
5948 Rain 8 970 84 10000 0.45 90 22:43 02.11.2020
5949 Clouds 8 970 84 10000 0.45 90 22:24 02.11.2020
5950 Clouds 8 969 88 10000 0.45 90 21:39 02.11.2020
5951 Clouds 8 969 88 10000 0.89 90 21:21 02.11.2020
5952 Clouds 8 968 87 10000 0.45 312 20:55 02.11.2020
5953 Clouds 8 968 87 10000 0.45 179 20:37 02.11.2020
5954 Clouds 8 968 86 10000 0.45 90 20:18 02.11.2020
5955 Clouds 8 967 87 10000 1.34 178 19:43 02.11.2020
5956 Clouds 8 967 87 10000 0.45 135 19:25 02.11.2020
5957 Clouds 8 967 87 10000 0.89 90 18:43 02.11.2020
5958 Clouds 8 966 86 10000 0.89 176 18:21 02.11.2020
5959 Clouds 9 966 86 10000 0.45 90 17:58 02.11.2020
5960 Clouds 9 965 85 10000 0.45 90 17:40 02.11.2020
5961 Clouds 9 965 84 10000 0.89 94 17:20 02.11.2020
5962 Clouds 10 964 84 10000 1.34 183 16:42 02.11.2020
5963 Clouds 11 964 81 10000 1.34 90 16:23 02.11.2020
5964 Clouds 12 963 79 10000 1.34 178 15:42 02.11.2020
5965 Clouds 12 963 80 10000 0.89 224 15:24 02.11.2020
5966 Clouds 12 963 76 10000 0.45 90 14:57 02.11.2020
5967 Clouds 12 963 73 10000 0.45 177 14:21 02.11.2020
5968 Rain 12 963 73 10000 0.45 90 13:58 02.11.2020
5969 Rain 12 962 78 10000 4.02 218 13:40 02.11.2020
5970 Rain 13 962 80 10000 0.45 90 13:21 02.11.2020
5971 Clouds 13 961 73 10000 1.34 90 12:40 02.11.2020
5972 Clouds 13 961 85 10000 1.34 90 12:20 02.11.2020
5973 Rain 14 960 86 10000 1.34 135 11:39 02.11.2020
5974 Rain 15 960 84 10000 1.34 90 11:19 02.11.2020
5975 Clouds 15 959 88 10000 2.68 267 10:43 02.11.2020
5976 Rain 13 958 90 10000 2.68 178 10:22 02.11.2020
5977 Clouds 13 958 93 10000 2.24 315 09:51 02.11.2020
5978 Rain 13 957 94 10000 2.24 315 09:24 02.11.2020
5979 Clouds 13 957 96 10000 3.13 90 08:46 02.11.2020
5980 Rain 13 956 96 10000 2.68 91 08:27 02.11.2020
5981 Rain 13 956 95 10000 3.58 313 07:54 02.11.2020
5982 Rain 13 957 96 10000 4.02 175 07:25 02.11.2020
5983 Rain 13 958 97 10000 4.02 136 06:36 02.11.2020
5984 Rain 9 964 95 6601 1.34 135 03:55 02.11.2020
5985 Rain 10 968 95 7405 1.34 136 01:25 02.11.2020
5986 Rain 11 968 96 10000 2.68 268 00:36 02.11.2020
5987 Rain 11 969 97 10000 2.24 140 23:45 01.11.2020
5988 Rain 10 969 97 10000 2.24 180 23:25 01.11.2020
5989 Clouds 10 970 96 10000 3.13 141 22:48 01.11.2020
5990 Rain 10 970 95 10000 2.24 244 22:27 01.11.2020
5991 Rain 9 971 95 10000 1.34 178 22:27 01.11.2020
5992 Clouds 9 970 94 10000 2.24 158 21:59 01.11.2020
5993 Rain 9 971 93 10000 2.24 175 21:41 01.11.2020
5994 Rain 9 972 93 10000 3.13 135 21:23 01.11.2020
5995 Rain 9 972 90 10000 2.68 229 20:43 01.11.2020
5996 Rain 9 973 87 10000 2.68 182 20:25 01.11.2020
5997 Clouds 9 973 87 10000 2.68 313 19:45 01.11.2020
5998 Rain 9 973 87 10000 2.24 315 19:26 01.11.2020
5999 Rain 9 974 87 10000 3.13 182 18:57 01.11.2020
6000 Rain 9 975 87 10000 2.24 250 18:37 01.11.2020
6001 Rain 9 975 86 10000 2.68 246 18:18 01.11.2020
6002 Rain 9 975 87 10000 2.24 268 17:43 01.11.2020
6003 Rain 9 976 87 10000 2.68 222 17:25 01.11.2020
6004 Rain 9 976 90 10000 2.68 228 16:42 01.11.2020
6005 Rain 9 976 90 10000 1.79 313 16:24 01.11.2020
6006 Rain 9 976 90 10000 1.34 272 15:55 01.11.2020
6007 Rain 9 977 90 10000 1.34 180 15:37 01.11.2020
6008 Rain 9 977 88 10000 1.34 248 15:18 01.11.2020
6009 Rain 9 978 86 10000 1.34 311 14:45 01.11.2020
6010 Clouds 9 978 86 10000 1.34 222 14:22 01.11.2020
6011 Clouds 10 978 84 10000 1.34 315 13:50 01.11.2020
6012 Clouds 10 979 84 10000 0.45 274 13:32 01.11.2020
6013 Clouds 10 979 88 10000 1.34 223 12:58 01.11.2020
6014 Clouds 10 979 89 10000 1.34 94 12:38 01.11.2020
6015 Clouds 10 979 90 10000 1.34 270 12:18 01.11.2020
6016 Clouds 10 979 92 10000 0.89 228 11:46 01.11.2020
6017 Clouds 10 979 91 10000 2.24 259 11:18 01.11.2020
6018 Clouds 10 979 95 10000 1.34 316 10:42 01.11.2020
6019 Rain 10 979 99 10000 1.34 180 10:23 01.11.2020
6020 Rain 10 979 99 10000 1.34 227 09:48 01.11.2020
6021 Rain 10 980 98 7184 1.34 225 08:55 01.11.2020
6022 Rain 10 980 98 7184 1.79 267 08:36 01.11.2020
6023 Rain 11 980 97 3423 1.34 225 07:50 01.11.2020
6024 Rain 11 981 97 6594 1.34 140 06:48 01.11.2020
6025 Rain 9 984 97 4808 2.68 268 02:22 01.11.2020
6026 Rain 9 984 96 4808 2.68 180 01:31 01.11.2020
6027 Rain 8 986 93 7407 2.24 86 23:51 31.10.2020
6028 Clouds 7 987 92 10000 1.34 135 23:23 31.10.2020
6029 Clouds 7 988 92 10000 0.89 90 22:45 31.10.2020
6030 Clouds 7 988 92 10000 0.89 90 22:45 31.10.2020
6031 Clouds 6 988 96 10000 0.45 90 22:24 31.10.2020
6032 Clouds 6 989 96 10000 0.89 90 21:46 31.10.2020
6033 Clouds 6 990 95 10000 0.89 90 21:22 31.10.2020
6034 Clouds 6 990 95 10000 0.45 90 20:43 31.10.2020
6035 Clouds 6 991 97 10000 0.45 90 20:20 31.10.2020
6036 Clouds 6 991 97 10000 0.45 90 19:44 31.10.2020
6037 Clouds 6 991 97 10000 0.45 90 19:25 31.10.2020
6038 Clouds 6 991 97 10000 0.45 45 18:59 31.10.2020
6039 Clouds 6 991 96 10000 0.45 90 18:41 31.10.2020
6040 Clouds 6 992 95 9986 0.45 90 17:47 31.10.2020
6041 Clouds 7 992 94 10000 1.29 162 17:27 31.10.2020
6042 Clouds 7 992 93 10000 1.29 162 16:56 31.10.2020
6043 Clouds 7 993 93 10000 1.29 162 16:37 31.10.2020
6044 Clouds 7 993 93 10000 1.1 156 15:56 31.10.2020
6045 Clouds 7 993 93 10000 0.74 139 15:26 31.10.2020
6046 Clouds 7 993 93 10000 0.74 139 14:58 31.10.2020
6047 Clouds 7 993 93 10000 0.45 90 14:37 31.10.2020
6048 Clouds 7 993 93 10000 0.74 96 14:18 31.10.2020
6049 Clouds 7 993 93 10000 0.45 270 13:43 31.10.2020
6050 Clouds 7 994 93 10000 0.45 90 13:20 31.10.2020
6051 Clouds 7 994 96 10000 0.45 270 12:27 31.10.2020
6052 Clouds 7 994 98 10000 1.26 6 11:47 31.10.2020
6053 Clouds 7 994 98 10000 1.25 354 11:28 31.10.2020
6054 Clouds 7 994 99 10000 1.25 354 10:54 31.10.2020
6055 Clouds 6 994 99 10000 1.37 2 10:33 31.10.2020
6056 Clouds 6 993 99 10000 0.45 270 09:42 31.10.2020
6057 Clouds 6 993 99 10000 0.45 270 09:20 31.10.2020
6058 Clouds 6 993 99 10000 0.45 270 08:30 31.10.2020
6059 Clouds 6 992 98 10000 1.48 351 07:49 31.10.2020
6060 Clouds 6 993 98 10000 0.45 270 07:26 31.10.2020
6061 Clouds 7 992 98 10000 0.89 269 06:38 31.10.2020
6062 Clouds 7 991 98 8793 1.47 19 03:50 31.10.2020
6063 Rain 7 991 99 7752 1.46 40 03:21 31.10.2020
6064 Rain 7 991 99 3448 0.45 90 01:29 31.10.2020
6065 Rain 7 991 99 9372 1.51 100 00:46 31.10.2020
6066 Clouds 7 991 99 5177 0.89 90 23:50 30.10.2020
6067 Rain 6 991 99 5379 0.89 90 23:24 30.10.2020
6068 Rain 6 991 99 5379 0.89 90 22:45 30.10.2020
6069 Rain 6 991 99 6543 1.34 199 22:24 30.10.2020
6070 Rain 6 991 99 6543 0.89 90 21:55 30.10.2020
6071 Rain 6 991 99 6543 0.89 90 21:37 30.10.2020
6072 Rain 6 991 99 9579 0.45 90 21:18 30.10.2020
6073 Rain 6 991 99 9579 0.89 90 20:39 30.10.2020
6074 Clouds 6 991 99 9616 0.89 90 20:20 30.10.2020
6075 Clouds 5 991 98 9616 0.45 90 19:46 30.10.2020
6076 Clouds 5 990 97 10000 0.89 90 19:19 30.10.2020
6077 Rain 5 990 95 10000 1.34 90 18:50 30.10.2020
6078 Clouds 4 990 94 10000 0.45 90 18:28 30.10.2020
6079 Clouds 5 990 93 10000 0.45 90 17:49 30.10.2020
6080 Clouds 5 990 93 10000 0.64 113 17:24 30.10.2020
6081 Clouds 4 990 93 10000 0.64 113 16:57 30.10.2020
6082 Clouds 4 990 92 10000 0.64 113 16:37 30.10.2020
6083 Clouds 4 990 92 10000 0.62 101 16:19 30.10.2020
6084 Clouds 4 990 91 10000 0.62 101 15:40 30.10.2020
6085 Clouds 4 990 91 10000 0.6 99 15:20 30.10.2020
6086 Clouds 4 989 90 10000 0.6 99 14:44 30.10.2020
6087 Clouds 4 989 90 10000 0.83 95 14:25 30.10.2020
6088 Rain 4 989 89 10000 0.83 95 13:47 30.10.2020
6089 Clouds 4 989 89 10000 0.45 90 13:22 30.10.2020
6090 Clouds 4 989 89 10000 0.81 85 12:55 30.10.2020
6091 Clouds 4 989 90 10000 0.81 80 12:23 30.10.2020
6092 Clouds 4 989 91 10000 0.81 80 11:56 30.10.2020
6093 Clouds 4 989 93 10000 0.98 58 11:23 30.10.2020
6094 Clouds 4 989 93 10000 0.45 90 10:58 30.10.2020
6095 Clouds 4 989 94 10000 0.98 58 10:39 30.10.2020
6096 Clouds 4 988 94 10000 0.45 90 10:21 30.10.2020
6097 Clouds 3 988 94 10000 0.94 42 09:43 30.10.2020
6098 Clear 3 989 94 10000 0.64 19 09:20 30.10.2020
6099 Clear 3 988 94 10000 0.62 14 08:39 30.10.2020
6100 Clear 3 988 94 10000 1.03 43 08:20 30.10.2020
6101 Clear 2 987 94 10000 1.03 43 07:46 30.10.2020
6102 Clear 2 987 93 10000 1.17 32 07:27 30.10.2020
6103 Clear 2 987 93 10000 0.45 90 06:21 30.10.2020
6104 Clear 1 986 92 10000 0.91 360 04:28 30.10.2020
6105 Clear 3 985 92 10000 1.21 22 01:43 30.10.2020
6106 Clear 3 985 91 10000 1.47 21 00:38 30.10.2020
6107 Clear 3 985 91 10000 1.31 15 23:48 29.10.2020
6108 Clear 3 985 90 10000 1.2 19 23:30 29.10.2020
6109 Clear 3 984 90 10000 1.2 19 22:49 29.10.2020
6110 Clear 4 984 90 10000 1.27 19 22:27 29.10.2020
6111 Clear 4 984 89 10000 1.27 19 21:51 29.10.2020
6112 Clear 4 984 88 10000 1.27 13 21:28 29.10.2020
6113 Clear 4 984 87 10000 1.27 13 20:59 29.10.2020
6114 Clear 4 984 86 10000 1.27 13 20:40 29.10.2020
6115 Clear 4 983 86 10000 1.27 13 20:40 29.10.2020
6116 Clear 4 983 85 10000 1.17 5 20:18 29.10.2020
6117 Clear 5 983 85 10000 1.17 5 19:39 29.10.2020
6118 Clouds 5 982 84 10000 0.45 90 19:21 29.10.2020
6119 Clouds 6 982 83 10000 0.45 268 18:47 29.10.2020
6120 Clouds 6 982 82 10000 0.95 333 18:27 29.10.2020
6121 Clouds 6 982 81 10000 0.45 270 17:43 29.10.2020
6122 Clouds 6 982 81 10000 0.45 182 17:24 29.10.2020
6123 Clouds 6 1001 98 10000 0.46 309 16:58 29.10.2020
6124 Clouds 8 981 71 10000 0.45 225 16:37 29.10.2020
6125 Clouds 7 1001 98 10000 0.54 231 16:18 29.10.2020
6126 Clouds 7 985 1 10000 0.54 231 15:41 29.10.2020
6127 Clouds 8 999 98 10000 1.24 218 15:22 29.10.2020
6128 Clouds 8 999 98 10000 1.24 218 14:59 29.10.2020
6129 Clouds 8 985 1 10000 0.45 165 14:59 29.10.2020
6130 Clouds 8 999 98 10000 1.24 218 14:59 29.10.2020
6131 Clouds 9 999 98 10000 1.24 218 14:40 29.10.2020
6132 Clouds 8 998 88 10000 1.79 129 14:20 29.10.2020
6133 Clouds 8 998 88 10000 1.79 129 13:45 29.10.2020
6134 Clear 8 998 88 10000 1.79 129 13:26 29.10.2020
6135 Clouds 8 998 88 10000 1.79 129 12:43 29.10.2020
6136 Clouds 8 998 88 10000 1.79 129 12:19 29.10.2020
6137 Clouds 8 998 88 10000 1.79 129 11:49 29.10.2020
6138 Clouds 8 998 88 10000 1.79 129 11:26 29.10.2020
6139 Clouds 6 998 67 10000 1.79 129 10:58 29.10.2020
6140 Clouds 6 982 1 10000 0.89 159 10:36 29.10.2020
6141 Clouds 5 982 1 10000 1.95 192 10:18 29.10.2020
6142 Clouds 6 978 94 10000 0.45 90 09:46 29.10.2020
6143 Clouds 5 978 99 10000 0.89 90 09:20 29.10.2020
6144 Clouds 5 977 98 10000 1.35 195 08:40 29.10.2020
6145 Clouds 5 977 98 10000 1.35 195 08:19 29.10.2020
6146 Clouds 5 977 98 10000 1.35 195 07:48 29.10.2020
6147 Clouds 5 976 98 10000 1.98 190 06:58 29.10.2020
6148 Clouds 5 976 97 10000 0.45 312 06:24 29.10.2020
6149 Clouds 5 975 96 10000 0.45 90 04:47 29.10.2020
6150 Clouds 6 974 92 10000 0.89 90 02:18 29.10.2020
6151 Clouds 6 974 90 10000 1.34 180 00:38 29.10.2020
6152 Clouds 6 974 88 10000 1.34 246 00:18 29.10.2020
6153 Clouds 7 973 83 10000 0.89 90 23:23 28.10.2020
6154 Clouds 7 974 85 10000 1.34 137 22:59 28.10.2020
6155 Clouds 7 974 87 10000 1.34 93 22:41 28.10.2020
6156 Clouds 7 974 92 10000 1.34 222 22:22 28.10.2020
6157 Clouds 7 973 91 10000 1.34 228 21:44 28.10.2020
6158 Clouds 7 973 86 10000 1.79 268 21:25 28.10.2020
6159 Clouds 7 973 81 10000 0.89 177 20:43 28.10.2020
6160 Clouds 7 973 81 10000 1.34 223 20:23 28.10.2020
6161 Clouds 8 973 80 10000 0.89 90 19:53 28.10.2020
6162 Clouds 8 973 80 10000 1.79 184 19:31 28.10.2020
6163 Clouds 8 973 81 10000 0.89 90 18:52 28.10.2020
6164 Clouds 8 972 81 10000 1.34 90 18:22 28.10.2020
6165 Clouds 8 972 81 10000 1.34 222 17:59 28.10.2020
6166 Clouds 8 972 79 10000 1.34 111 17:41 28.10.2020
6167 Clouds 8 972 78 10000 1.34 174 17:21 28.10.2020
6168 Clouds 8 972 74 10000 1.34 182 16:47 28.10.2020
6169 Clouds 9 972 74 10000 2.68 135 16:28 28.10.2020
6170 Clouds 9 972 74 10000 0.89 90 15:42 28.10.2020
6171 Rain 10 972 71 10000 1.34 0 15:19 28.10.2020
6172 Clouds 10 972 66 10000 1.34 313 14:46 28.10.2020
6173 Clear 10 972 64 10000 1.34 90 14:27 28.10.2020
6174 Clouds 10 972 71 10000 1.34 182 12:59 28.10.2020
6175 Clouds 10 971 70 10000 0.89 90 12:36 28.10.2020
6176 Clouds 9 989 98 10000 4.47 176 12:18 28.10.2020
6177 Clouds 10 989 98 10000 4.47 176 11:42 28.10.2020
6178 Clouds 10 989 98 10000 4.47 176 11:21 28.10.2020
6179 Clouds 9 970 85 10000 1.34 270 10:53 28.10.2020
6180 Clouds 9 970 88 10000 1.79 345 10:33 28.10.2020
6181 Clouds 9 969 92 10000 1.79 92 09:56 28.10.2020
6182 Rain 9 969 92 10000 2.68 302 09:37 28.10.2020
6183 Rain 8 969 92 9521 2.24 182 09:19 28.10.2020
6184 Rain 8 969 93 9521 2.24 224 08:43 28.10.2020
6185 Rain 8 970 94 2978 1.34 270 08:23 28.10.2020
6186 Rain 8 970 95 2978 0.89 90 07:44 28.10.2020
6187 Rain 8 970 95 4071 0.89 90 07:26 28.10.2020
6188 Rain 7 970 95 5562 0.45 90 06:40 28.10.2020
6189 Rain 7 971 94 10000 0.89 90 05:48 28.10.2020
6190 Clouds 7 972 99 10000 0.89 90 04:52 28.10.2020
6191 Clouds 7 972 99 10000 0.89 90 04:24 28.10.2020
6192 Clouds 7 972 95 10000 0.45 90 02:25 28.10.2020
6193 Clouds 7 972 96 10000 0.89 90 00:51 28.10.2020
6194 Clouds 7 971 96 10000 0.89 90 23:51 27.10.2020
6195 Clouds 7 971 96 10000 0.89 4 23:23 27.10.2020
6196 Clouds 7 971 96 10000 0.45 90 22:55 27.10.2020
6197 Clouds 7 971 96 10000 0.89 90 22:37 27.10.2020
6198 Rain 7 971 95 10000 0.45 90 22:18 27.10.2020
6199 Clouds 7 971 95 10000 0.89 270 21:54 27.10.2020
6200 Clouds 7 971 95 10000 1.34 178 21:36 27.10.2020
6201 Clouds 7 971 95 10000 1.34 90 21:18 27.10.2020
6202 Clouds 7 971 94 10000 1.34 90 20:39 27.10.2020
6203 Rain 7 971 93 10000 1.34 221 20:20 27.10.2020
6204 Rain 7 970 92 10000 1.34 180 19:39 27.10.2020
6205 Rain 7 970 91 10000 0.89 184 19:20 27.10.2020
6206 Rain 7 970 90 10000 1.34 226 18:58 27.10.2020
6207 Rain 7 970 90 10000 1.34 226 18:58 27.10.2020
6208 Rain 7 970 90 10000 1.34 172 18:39 27.10.2020
6209 Rain 8 970 90 6068 1.34 315 18:18 27.10.2020
6210 Rain 8 970 91 6068 2.24 268 17:43 27.10.2020
6211 Rain 8 971 90 6943 1.34 227 17:21 27.10.2020
6212 Rain 8 971 90 6943 0.89 179 17:21 27.10.2020
6213 Rain 8 971 90 6943 0.89 179 17:21 27.10.2020
6214 Rain 8 971 90 6943 0.89 179 17:21 27.10.2020
6215 Rain 8 971 90 6943 0.89 2 16:48 27.10.2020
6216 Rain 8 971 89 10000 2.24 180 16:27 27.10.2020
6217 Clouds 8 972 89 10000 0.89 94 15:49 27.10.2020
6218 Rain 8 972 89 10000 1.34 180 15:30 27.10.2020
6219 Rain 8 972 88 10000 1.34 90 14:57 27.10.2020
6220 Rain 8 972 87 10000 0.89 90 14:39 27.10.2020
6221 Rain 8 972 89 10000 2.24 225 14:20 27.10.2020
6222 Rain 9 973 88 10000 0.89 90 13:33 27.10.2020
6223 Clouds 9 973 92 10000 1.34 90 12:59 27.10.2020
6224 Clouds 9 973 92 10000 1.34 319 12:39 27.10.2020
6225 Rain 8 973 92 10000 1.34 90 12:20 27.10.2020
6226 Rain 8 973 90 10000 1.79 180 11:42 27.10.2020
6227 Rain 8 973 90 10000 2.24 180 11:22 27.10.2020
6228 Rain 8 973 90 10000 2.24 227 10:47 27.10.2020
6229 Rain 8 973 90 10000 2.24 91 10:26 27.10.2020
6230 Rain 9 973 91 10000 1.34 224 09:46 27.10.2020
6231 Clouds 8 973 93 10000 1.34 178 09:25 27.10.2020
6232 Rain 8 974 93 10000 1.34 92 08:39 27.10.2020
6233 Rain 8 973 92 10000 0.89 90 08:19 27.10.2020
6234 Rain 8 973 93 10000 0.89 90 07:45 27.10.2020
6235 Rain 8 973 93 10000 0.89 90 07:45 27.10.2020
6236 Rain 8 973 93 10000 1.34 93 07:26 27.10.2020
6237 Rain 8 973 93 8098 0.89 90 06:22 27.10.2020
6238 Rain 8 973 93 8098 0.89 90 06:22 27.10.2020
6239 Rain 8 973 93 8098 0.89 90 06:22 27.10.2020
6240 Rain 8 973 93 8098 0.89 42 05:52 27.10.2020
6241 Rain 8 973 93 8098 0.89 90 05:34 27.10.2020
6242 Clouds 8 973 94 8630 0.45 90 04:44 27.10.2020
6243 Rain 8 974 93 10000 1.79 151 02:33 27.10.2020
6244 Clouds 8 974 94 10000 0.45 90 00:57 27.10.2020
6245 Rain 8 974 94 9344 1.34 180 23:46 26.10.2020
6246 Rain 8 974 93 10000 0.89 90 23:26 26.10.2020
6247 Rain 8 974 92 10000 0.45 182 22:49 26.10.2020
6248 Rain 8 974 92 10000 0.45 90 22:27 26.10.2020
6249 Rain 8 975 92 10000 1.88 139 21:50 26.10.2020
6250 Rain 8 975 91 10000 0.89 90 21:21 26.10.2020
6251 Rain 8 975 91 10000 0.89 90 20:58 26.10.2020
6252 Rain 8 975 91 10000 0.45 90 20:39 26.10.2020
6253 Rain 8 975 91 9907 1.51 123 20:19 26.10.2020
6254 Rain 8 975 93 9907 2.24 133 19:47 26.10.2020
6255 Rain 8 975 93 6535 0.89 90 19:24 26.10.2020
6256 Rain 8 975 92 10000 0.45 90 18:45 26.10.2020
6257 Rain 8 975 91 10000 0.45 90 18:25 26.10.2020
6258 Rain 8 975 90 10000 0.45 90 17:59 26.10.2020
6259 Rain 8 975 89 10000 1.39 116 17:39 26.10.2020
6260 Rain 8 975 88 10000 1.39 116 17:21 26.10.2020
6261 Rain 8 975 87 10000 1.39 116 16:43 26.10.2020
6262 Rain 9 975 88 10000 1.06 108 16:21 26.10.2020
6263 Rain 9 975 88 10000 0.45 90 15:43 26.10.2020
6264 Rain 9 975 88 10000 1.32 142 15:25 26.10.2020
6265 Rain 9 976 84 10000 0.45 90 14:53 26.10.2020
6266 Rain 10 976 81 10000 0.45 90 14:34 26.10.2020
6267 Clouds 10 976 75 10000 0.45 90 13:46 26.10.2020
6268 Clouds 11 975 75 10000 0.45 90 13:27 26.10.2020
6269 Clouds 9 980 1 10000 0.53 123 12:57 26.10.2020
6270 Clouds 9 980 1 10000 0.53 123 12:36 26.10.2020
6271 Clouds 9 980 1 10000 0.76 92 12:18 26.10.2020
6272 Clouds 9 976 80 10000 0.45 90 11:45 26.10.2020
6273 Rain 9 976 85 10000 0.94 51 11:23 26.10.2020
6274 Clouds 9 976 89 10000 0.45 90 10:57 26.10.2020
6275 Rain 9 976 90 10000 0.78 72 10:38 26.10.2020
6276 Rain 8 976 91 10000 0.78 72 10:18 26.10.2020
6277 Rain 7 975 93 5963 0.45 90 09:31 26.10.2020
6278 Clouds 7 975 93 5963 0.45 90 08:55 26.10.2020
6279 Rain 7 975 97 4506 1.29 168 08:25 26.10.2020
6280 Clouds 7 975 97 4506 0.45 90 07:48 26.10.2020
6281 Rain 7 974 97 4664 0.45 90 07:28 26.10.2020
6282 Rain 7 974 94 8178 0.45 90 05:46 26.10.2020
6283 Rain 7 974 95 8998 0.45 90 04:20 26.10.2020
6284 Clouds 7 974 99 9161 0.45 90 03:21 26.10.2020
6285 Clouds 7 974 99 9161 1.24 143 03:21 26.10.2020
6286 Clouds 7 974 99 9161 0.45 90 03:21 26.10.2020
6287 Clouds 6 974 99 10000 1.37 165 01:34 26.10.2020
6288 Clouds 6 974 99 10000 1.72 178 00:39 26.10.2020
6289 Clouds 6 974 94 10000 1.72 178 00:20 26.10.2020
6290 Clouds 7 974 93 10000 0.45 90 23:37 25.10.2020
6291 Clouds 7 974 93 10000 0.89 90 22:59 25.10.2020
6292 Clouds 7 974 92 10000 0.89 90 22:39 25.10.2020
6293 Clouds 7 974 92 10000 0.45 90 22:19 25.10.2020
6294 Clouds 7 974 92 10000 0.45 90 21:39 25.10.2020
6295 Clouds 7 974 92 10000 1.34 90 21:19 25.10.2020
6296 Clouds 8 974 92 10000 0.89 226 20:44 25.10.2020
6297 Clouds 8 974 92 10000 1.34 90 20:25 25.10.2020
6298 Clouds 9 973 91 10000 0.89 90 19:57 25.10.2020
6299 Clouds 9 973 90 10000 0.89 90 19:38 25.10.2020
6300 Clouds 9 973 90 10000 0.45 90 19:19 25.10.2020
6301 Clouds 9 973 90 10000 0.89 182 18:41 25.10.2020
6302 Clouds 9 973 90 10000 0.89 90 18:22 25.10.2020
6303 Clouds 9 973 90 10000 1.34 94 17:57 25.10.2020
6304 Clouds 10 973 90 10000 1.79 231 17:38 25.10.2020
6305 Clouds 10 972 89 10000 1.34 180 17:19 25.10.2020
6306 Clouds 10 972 86 10000 1.34 173 16:46 25.10.2020
6307 Clouds 10 972 84 10000 2.24 182 16:28 25.10.2020
6308 Clouds 10 972 82 10000 1.34 92 15:50 25.10.2020
6309 Clouds 10 971 81 10000 1.34 0 15:29 25.10.2020
6310 Clouds 11 970 87 10000 1.34 182 14:55 25.10.2020
6311 Clouds 11 970 93 10000 1.34 223 14:31 25.10.2020
6312 Rain 11 970 93 10000 0.89 272 13:55 25.10.2020
6313 Rain 11 970 94 10000 1.34 271 13:37 25.10.2020
6314 Rain 11 970 94 10000 0.89 246 13:18 25.10.2020
6315 Rain 11 970 96 10000 1.34 92 12:40 25.10.2020
6316 Rain 11 969 96 10000 1.34 134 12:22 25.10.2020
6317 Rain 11 969 95 10000 1.34 161 11:43 25.10.2020
6318 Rain 11 969 95 10000 1.34 90 11:21 25.10.2020
6319 Rain 12 969 96 10000 2.24 270 10:48 25.10.2020
6320 Rain 12 969 96 4531 4.47 224 10:26 25.10.2020
6321 Rain 12 969 96 4531 2.68 222 09:55 25.10.2020
6322 Rain 12 969 97 4704 2.68 222 09:37 25.10.2020
6323 Rain 12 969 97 4704 2.24 0 09:19 25.10.2020
6324 Rain 12 969 99 4704 4.02 133 08:40 25.10.2020
6325 Rain 12 969 99 4343 2.68 312 08:22 25.10.2020
6326 Rain 11 970 99 4343 2.68 183 07:46 25.10.2020
6327 Rain 11 969 99 7071 2.68 3 07:24 25.10.2020
6328 Clouds 11 970 97 5074 3.13 138 06:36 25.10.2020
6329 Rain 10 971 96 4490 3.13 181 05:34 25.10.2020
6330 Clouds 10 972 94 4349 2.24 176 04:51 25.10.2020
6331 Rain 9 975 94 3341 1.79 90 02:45 25.10.2020
6332 Rain 8 977 92 6285 1.79 90 01:32 25.10.2020
6333 Clouds 8 977 93 10000 1.34 315 00:48 25.10.2020
6334 Clouds 8 978 92 10000 1.34 176 00:20 25.10.2020
6335 Rain 8 978 91 10000 1.79 311 23:53 24.10.2020
6336 Clouds 7 978 91 10000 0.89 178 23:26 24.10.2020
6337 Clouds 6 978 91 10000 1.34 180 22:55 24.10.2020
6338 Clouds 6 979 96 9364 2.68 204 22:37 24.10.2020
6339 Clouds 6 979 96 9364 1.34 90 22:18 24.10.2020
6340 Clouds 6 979 96 9364 0.45 90 21:41 24.10.2020
6341 Clouds 6 979 95 10000 0.89 90 21:20 24.10.2020
6342 Clouds 6 980 94 10000 0.45 90 20:47 24.10.2020
6343 Clouds 6 980 94 10000 0.45 90 20:23 24.10.2020
6344 Clouds 6 980 94 10000 0.45 90 19:48 24.10.2020
6345 Clouds 6 980 93 10000 0.45 90 19:28 24.10.2020
6346 Clouds 6 980 93 10000 0.89 90 18:57 24.10.2020
6347 Clouds 6 980 92 10000 0.45 90 18:39 24.10.2020
6348 Clouds 6 980 92 10000 0.45 182 18:20 24.10.2020
6349 Clouds 6 980 91 10000 1.02 134 17:39 24.10.2020
6350 Clouds 6 980 91 10000 0.45 90 17:20 24.10.2020
6351 Clouds 6 980 91 10000 0.45 90 16:45 24.10.2020
6352 Clouds 6 980 91 10000 0.45 90 16:22 24.10.2020
6353 Clouds 6 980 91 10000 0.45 90 15:40 24.10.2020
6354 Clouds 6 980 90 10000 1.09 180 15:19 24.10.2020
6355 Clouds 6 980 91 10000 0.45 90 14:50 24.10.2020
6356 Clouds 6 980 91 10000 0.45 90 14:28 24.10.2020
6357 Clouds 6 980 89 10000 0.77 212 13:46 24.10.2020
6358 Clouds 6 980 88 10000 1.16 209 13:24 24.10.2020
6359 Clouds 6 980 86 10000 0.45 90 12:48 24.10.2020
6360 Clouds 6 979 90 10000 0.45 290 12:21 24.10.2020
6361 Clouds 5 979 91 10000 0.93 222 11:53 24.10.2020
6362 Clouds 5 979 92 10000 0.45 270 11:35 24.10.2020
6363 Clouds 4 979 92 10000 0.12 202 10:54 24.10.2020
6364 Clouds 4 979 92 10000 0.34 264 10:34 24.10.2020
6365 Clouds 3 979 92 10000 0.34 264 09:56 24.10.2020
6366 Clouds 3 978 92 10000 0.34 264 09:38 24.10.2020
6367 Clouds 3 978 92 10000 0.26 319 09:19 24.10.2020
6368 Clouds 3 978 92 10000 0.59 356 08:20 24.10.2020
6369 Clouds 4 978 92 10000 0.45 90 07:55 24.10.2020
6370 Clouds 4 978 92 10000 0.73 7 07:37 24.10.2020
6371 Clouds 4 978 92 10000 0.73 7 07:18 24.10.2020
6372 Rain 4 978 92 10000 0.45 90 06:23 24.10.2020
6373 Rain 4 978 91 10000 0.45 90 03:51 24.10.2020
6374 Clouds 4 979 91 10000 0.63 66 02:20 24.10.2020
6375 Rain 4 981 90 10000 0.45 90 00:43 24.10.2020
6376 Clouds 4 981 89 10000 0.45 90 00:22 24.10.2020
6377 Clouds 4 981 88 10000 0.5 87 23:56 23.10.2020
6378 Clouds 4 981 88 10000 0.45 90 23:36 23.10.2020
6379 Clouds 4 981 87 10000 0.45 90 23:18 23.10.2020
6380 Clouds 5 981 87 10000 0.45 90 22:42 23.10.2020
6381 Clouds 5 981 87 10000 0.45 90 22:21 23.10.2020
6382 Clouds 5 981 87 10000 0.45 90 21:52 23.10.2020
6383 Clouds 5 982 87 10000 0.45 90 21:28 23.10.2020
6384 Clouds 5 982 86 10000 0.45 90 20:44 23.10.2020
6385 Clouds 5 982 85 10000 0.45 90 20:25 23.10.2020
6386 Clouds 5 982 85 10000 0.45 90 19:59 23.10.2020
6387 Clouds 5 982 85 10000 0.45 90 19:37 23.10.2020
6388 Clouds 5 982 83 10000 0.44 138 19:18 23.10.2020
6389 Clouds 5 982 82 10000 0.89 257 18:39 23.10.2020
6390 Clouds 5 982 82 10000 0.45 90 18:20 23.10.2020
6391 Clouds 5 982 81 10000 0.42 132 17:44 23.10.2020
6392 Rain 5 982 80 10000 0.63 119 17:21 23.10.2020
6393 Clouds 5 982 80 10000 0.63 119 17:21 23.10.2020
6394 Clouds 6 982 76 10000 0.45 90 16:47 23.10.2020
6395 Clouds 6 982 74 10000 0.76 129 16:26 23.10.2020
6396 Clouds 6 982 72 10000 0.45 226 15:47 23.10.2020
6397 Clouds 7 982 70 10000 0.45 228 15:25 23.10.2020
6398 Clouds 7 982 65 10000 0.45 135 14:58 23.10.2020
6399 Clouds 7 986 1 10000 0.63 140 14:39 23.10.2020
6400 Clouds 7 986 1 10000 0.59 104 14:21 23.10.2020
6401 Clouds 7 986 1 10000 0.89 96 13:39 23.10.2020
6402 Clouds 6 1001 66 10000 0.77 83 13:20 23.10.2020
6403 Clouds 7 1001 68 10000 0.77 83 12:48 23.10.2020
6404 Clouds 6 1001 68 10000 0.62 79 12:28 23.10.2020
6405 Clouds 6 981 80 10000 0.62 79 11:48 23.10.2020
6406 Clouds 5 981 80 10000 0.45 90 11:22 23.10.2020
6407 Clouds 5 981 82 10000 0.45 90 10:47 23.10.2020
6408 Clouds 5 980 81 10000 0.45 90 10:25 23.10.2020
6409 Clouds 5 980 82 10000 1.16 59 09:47 23.10.2020
6410 Clouds 5 980 83 10000 0.45 90 09:27 23.10.2020
6411 Clouds 4 979 83 10000 0.45 90 08:53 23.10.2020
6412 Clouds 4 979 84 10000 0.45 90 08:35 23.10.2020
6413 Clouds 4 978 84 10000 0.45 90 07:47 23.10.2020
6414 Clouds 5 978 84 10000 0.45 90 07:23 23.10.2020
6415 Clouds 5 977 85 10000 0.45 90 06:40 23.10.2020
6416 Clouds 5 977 86 10000 0.45 90 05:58 23.10.2020
6417 Clouds 6 974 91 10000 0.45 90 02:54 23.10.2020
6418 Clouds 6 973 92 10000 0.45 90 02:25 23.10.2020
6419 Rain 6 973 93 10000 0.45 90 00:48 23.10.2020
6420 Rain 7 972 94 10000 0.89 90 23:54 22.10.2020
6421 Rain 7 972 94 10000 0.89 90 23:31 22.10.2020
6422 Rain 7 972 94 10000 0.45 90 22:56 22.10.2020
6423 Rain 7 972 95 10000 0.45 90 22:38 22.10.2020
6424 Rain 7 972 95 10000 0.45 90 22:19 22.10.2020
6425 Rain 7 972 95 10000 0.89 90 21:43 22.10.2020
6426 Rain 7 972 95 10000 0.45 90 21:23 22.10.2020
6427 Rain 7 972 95 10000 0.45 90 20:57 22.10.2020
6428 Rain 7 972 95 10000 0.45 90 20:39 22.10.2020
6429 Rain 7 972 95 10000 0.45 90 20:18 22.10.2020
6430 Rain 7 972 91 10000 0.45 90 19:40 22.10.2020
6431 Rain 7 972 91 10000 0.45 90 19:19 22.10.2020
6432 Rain 7 972 92 10000 0.33 85 18:43 22.10.2020
6433 Rain 7 972 92 10000 0.28 102 18:20 22.10.2020
6434 Rain 8 972 92 10000 0.28 102 17:46 22.10.2020
6435 Rain 7 972 92 10000 0.06 261 17:26 22.10.2020
6436 Clouds 8 972 93 10000 0.45 90 16:56 22.10.2020
6437 Rain 8 972 93 10000 0.06 261 16:37 22.10.2020
6438 Clouds 9 972 93 10000 0.41 184 16:19 22.10.2020
6439 Rain 9 973 94 10000 0.41 184 15:43 22.10.2020
6440 Clouds 9 973 94 10000 0.42 346 15:22 22.10.2020
6441 Clouds 9 973 95 10000 0.42 346 14:47 22.10.2020
6442 Rain 9 973 95 10000 0.45 90 14:24 22.10.2020
6443 Rain 9 973 96 10000 0.24 304 13:48 22.10.2020
6444 Clouds 8 974 96 10000 0.5 193 13:24 22.10.2020
6445 Clouds 8 973 96 10000 0.5 193 13:24 22.10.2020
6446 Clouds 9 973 96 10000 0.5 193 12:47 22.10.2020
6447 Clouds 7 974 99 10000 0.4 187 12:23 22.10.2020
6448 Rain 8 973 99 10000 0.45 90 11:50 22.10.2020
6449 Clouds 7 974 99 10000 0.45 90 11:20 22.10.2020
6450 Clouds 7 973 99 10000 0.41 228 10:51 22.10.2020
6451 Clouds 7 973 99 10000 0.45 90 10:28 22.10.2020
6452 Clouds 7 973 99 10000 0.73 268 09:52 22.10.2020
6453 Clouds 7 972 99 10000 1.07 274 09:33 22.10.2020
6454 Clouds 6 971 99 10000 1.07 274 08:51 22.10.2020
6455 Rain 6 972 99 10000 1.04 299 08:31 22.10.2020
6456 Rain 7 971 98 10000 1.04 299 07:58 22.10.2020
6457 Clouds 8 971 98 10000 1.37 312 07:36 22.10.2020
6458 Clouds 8 971 99 10000 1.37 312 06:58 22.10.2020
6459 Clouds 8 970 99 10000 1.76 325 06:27 22.10.2020
6460 Clouds 8 970 99 10000 1.76 325 05:41 22.10.2020
6461 Rain 8 970 99 5691 1.92 335 05:18 22.10.2020
6462 Rain 8 995 100 8000 2.6 20 01:46 22.10.2020
6463 Rain 8 996 93 8000 3.1 20 00:26 22.10.2020
6464 Rain 8 996 93 10000 3.1 20 23:51 21.10.2020
6465 Rain 8 996 93 10000 3.1 20 23:32 21.10.2020
6466 Rain 8 997 100 8000 2.6 20 22:43 21.10.2020
6467 Clouds 9 997 100 8000 2.6 10 22:19 21.10.2020
6468 Rain 9 997 100 8000 2.1 10 21:56 21.10.2020
6469 Rain 9 997 100 8000 2.1 10 21:38 21.10.2020
6470 Rain 9 974 99 254 0.45 90 21:18 21.10.2020
6471 Rain 9 974 99 254 0.89 90 20:48 21.10.2020
6472 Rain 9 975 99 734 0.45 90 20:19 21.10.2020
6473 Rain 9 975 99 734 0.45 90 19:47 21.10.2020
6474 Rain 8 975 99 10000 0.45 90 19:26 21.10.2020
6475 Rain 8 976 99 10000 0.57 153 18:54 21.10.2020
6476 Rain 8 976 99 10000 0.69 178 18:36 21.10.2020
6477 Clouds 8 976 99 10000 0.69 178 18:18 21.10.2020
6478 Rain 8 976 99 10000 0.69 178 17:41 21.10.2020
6479 Rain 8 1000 93 8000 1.5 140 17:19 21.10.2020
6480 Fog 8 1000 93 6000 2.1 160 16:41 21.10.2020
6481 Fog 8 1000 93 6000 2.1 160 16:21 21.10.2020
6482 Fog 7 1000 100 2500 1.5 190 15:55 21.10.2020
6483 Fog 7 1000 100 2100 3.1 190 15:36 21.10.2020
6484 Fog 8 1000 100 2100 3.1 190 15:18 21.10.2020
6485 Fog 8 1000 100 2600 2.6 170 14:42 21.10.2020
6486 Fog 7 1000 100 900 3.1 190 14:23 21.10.2020
6487 Fog 8 1001 93 650 3.6 170 13:42 21.10.2020
6488 Fog 7 1000 100 550 2.6 190 13:23 21.10.2020
6489 Fog 7 1000 100 800 4.1 200 12:46 21.10.2020
6490 Fog 7 1000 100 550 3.6 190 12:24 21.10.2020
6491 Fog 7 1000 93 650 3.6 180 11:59 21.10.2020
6492 Fog 6 1000 100 800 2.6 200 11:39 21.10.2020
6493 Clouds 7 979 99 9136 1.61 209 11:19 21.10.2020
6494 Fog 6 1000 100 800 1 0 10:41 21.10.2020
6495 Clouds 7 978 99 5023 0.45 90 10:21 21.10.2020
6496 Fog 6 1000 100 600 2.1 200 09:51 21.10.2020
6497 Clouds 5 978 99 4970 0.45 90 09:28 21.10.2020
6498 Clouds 7 978 99 4970 0.45 90 08:42 21.10.2020
6499 Clouds 5 977 99 1051 1.48 196 08:24 21.10.2020
6500 Clouds 5 977 99 592 1.17 204 07:56 21.10.2020
6501 Clouds 5 977 99 5423 1.27 154 07:24 21.10.2020
6502 Clouds 5 977 99 5423 1.27 154 06:47 21.10.2020
6503 Clouds 5 977 99 6863 1.3 178 06:25 21.10.2020
6504 Clouds 6 977 99 8996 1.41 153 03:48 21.10.2020
6505 Rain 5 979 98 10000 0.45 90 00:50 21.10.2020
6506 Rain 5 980 98 10000 0.45 90 23:37 20.10.2020
6507 Rain 4 1003 100 4000 1 10 22:49 20.10.2020
6508 Rain 4 1003 100 3000 1 0 22:25 20.10.2020
6509 Rain 5 1004 100 5000 2.1 20 21:48 20.10.2020
6510 Rain 5 1004 100 4500 1.5 20 21:20 20.10.2020
6511 Rain 5 1004 100 7000 1.5 30 20:44 20.10.2020
6512 Rain 5 1005 100 7000 1 0 20:25 20.10.2020
6513 Rain 5 1005 100 3500 1 360 19:57 20.10.2020
6514 Rain 5 1005 100 3500 1 360 19:39 20.10.2020
6515 Rain 5 1005 100 7000 1 0 19:20 20.10.2020
6516 Rain 5 1005 100 7000 1 0 18:45 20.10.2020
6517 Rain 5 1006 100 7000 3.04 177 18:26 20.10.2020
6518 Rain 5 1006 100 8000 1.5 340 17:42 20.10.2020
6519 Rain 3 1006 100 8000 1.5 340 17:23 20.10.2020
6520 Rain 3 1007 91 8000 1.5 20 16:47 20.10.2020
6521 Rain 4 984 96 3401 0.45 90 16:26 20.10.2020
6522 Rain 4 1008 91 9000 2.1 360 15:50 20.10.2020
6523 Rain 3 1008 91 10000 1.5 360 15:31 20.10.2020
6524 Rain 4 985 94 1747 1.44 160 14:55 20.10.2020
6525 Rain 4 985 93 1747 0.45 90 14:37 20.10.2020
6526 Rain 3 986 91 486 0.44 56 14:19 20.10.2020
6527 Rain 3 986 91 486 0.44 56 13:42 20.10.2020
6528 Rain 3 986 91 539 0.45 90 13:21 20.10.2020
6529 Rain 3 986 91 539 0.45 90 12:54 20.10.2020
6530 Rain 3 986 90 773 0.45 90 12:31 20.10.2020
6531 Rain 2 987 89 773 0.89 90 11:49 20.10.2020
6532 Rain 2 987 89 773 0.45 90 11:49 20.10.2020
6533 Rain 2 987 88 1000 0.45 90 11:31 20.10.2020
6534 Rain 2 988 88 1000 0.45 90 10:58 20.10.2020
6535 Rain 2 988 87 1336 0.45 90 10:28 20.10.2020
6536 Rain 1 988 86 1336 0.45 90 09:50 20.10.2020
6537 Rain 1 989 86 290 0.45 90 09:20 20.10.2020
6538 Rain 1 989 85 290 0.45 90 08:57 20.10.2020
6539 Rain 1 989 85 114 0.45 90 08:30 20.10.2020
6540 Rain 1 990 85 182 0.45 90 07:50 20.10.2020
6541 Rain 1 990 84 82 0.45 270 07:25 20.10.2020
6542 Rain 1 991 83 58 0.45 90 06:25 20.10.2020
6543 Rain 2 992 83 58 2.15 68 05:22 20.10.2020
6544 Rain 3 994 76 77 0.45 90 02:44 20.10.2020
6545 Rain 3 998 1 3843 0.45 217 02:18 20.10.2020
6546 Rain 4 998 1 10000 0.63 179 00:57 20.10.2020
6547 Rain 3 998 1 10000 0.39 100 00:39 20.10.2020
6548 Rain 3 1014 64 10000 0.39 100 00:19 20.10.2020
6549 Clouds 3 1014 63 10000 0.39 100 23:40 19.10.2020
6550 Clouds 3 998 1 10000 0.46 84 23:19 19.10.2020
6551 Clouds 3 1014 59 10000 0.46 84 22:42 19.10.2020
6552 Clouds 3 1013 66 10000 1.79 42 22:20 19.10.2020
6553 Clouds 3 1013 66 10000 1.79 42 21:42 19.10.2020
6554 Clouds 3 1013 66 10000 1.79 42 21:20 19.10.2020
6555 Clouds 3 1013 66 10000 1.79 42 20:45 19.10.2020
6556 Clouds 3 993 60 10000 0.42 178 20:27 19.10.2020
6557 Clouds 3 1013 66 10000 1.79 42 19:47 19.10.2020
6558 Clouds 3 1013 66 10000 1.79 42 19:22 19.10.2020
6559 Clouds 4 1013 62 10000 3.58 65 18:53 19.10.2020
6560 Clouds 4 1013 62 10000 3.58 65 18:33 19.10.2020
6561 Clouds 4 1013 62 10000 3.58 65 17:57 19.10.2020
6562 Clouds 5 1013 58 10000 1.79 65 17:39 19.10.2020
6563 Clouds 5 1013 58 10000 1.79 65 17:20 19.10.2020
6564 Clouds 7 1012 51 10000 1.79 75 16:42 19.10.2020
6565 Clouds 7 1012 51 10000 1.79 75 16:21 19.10.2020
6566 Clouds 7 996 41 10000 0.38 192 15:40 19.10.2020
6567 Clouds 7 1013 52 10000 0.59 228 15:22 19.10.2020
6568 Clouds 7 1013 49 10000 0.59 228 14:51 19.10.2020
6569 Clouds 7 1013 50 10000 0.34 266 14:24 19.10.2020
6570 Clouds 7 997 36 10000 0.45 126 13:52 19.10.2020
6571 Clouds 7 997 29 10000 0.62 297 13:31 19.10.2020
6572 Clouds 5 1013 51 10000 0.62 297 12:50 19.10.2020
6573 Clouds 5 1013 52 10000 0.69 297 12:32 19.10.2020
6574 Clouds 6 992 60 10000 0.69 297 11:51 19.10.2020
6575 Clouds 4 992 60 10000 0.45 90 11:25 19.10.2020
6576 Clouds 4 992 60 10000 0.45 90 10:56 19.10.2020
6577 Clouds 3 992 62 10000 0.83 304 10:37 19.10.2020
6578 Clouds 3 991 63 10000 0.98 309 10:18 19.10.2020
6579 Clouds 2 991 66 10000 0.98 309 09:42 19.10.2020
6580 Clouds 1 991 67 10000 1.06 311 09:19 19.10.2020
6581 Clouds 1 991 67 10000 1.06 311 08:47 19.10.2020
6582 Clouds 0 990 65 10000 1.05 313 08:22 19.10.2020
6583 Clouds 1 990 64 10000 1.05 313 07:37 19.10.2020
6584 Clouds 1 990 64 10000 0.98 301 07:18 19.10.2020
6585 Clouds 1 990 62 10000 1.04 296 06:18 19.10.2020
6586 Clouds 1 989 60 10000 1.24 296 03:48 19.10.2020
6587 Clouds 2 990 57 10000 1.43 305 02:23 19.10.2020
6588 Clouds 2 1010 50 10000 1.48 292 00:49 19.10.2020
6589 Clouds 2 1010 49 10000 1.62 293 00:20 19.10.2020
6590 Clouds 2 989 55 10000 1.62 293 23:45 18.10.2020
6591 Clouds 2 989 54 10000 1.6 298 23:24 18.10.2020
6592 Rain 2 989 53 10000 1.6 298 22:48 18.10.2020
6593 Clear 3 989 53 10000 1.7 298 22:22 18.10.2020
6594 Rain 3 989 53 10000 1.7 298 21:53 18.10.2020
6595 Clouds 3 989 52 10000 1.88 300 21:30 18.10.2020
6596 Clouds 4 988 50 10000 1.88 300 20:58 18.10.2020
6597 Rain 4 988 49 10000 1.88 300 20:39 18.10.2020
6598 Clear 5 1009 39 10000 2.12 298 20:19 18.10.2020
6599 Clear 5 1009 38 10000 2.12 298 19:42 18.10.2020
6600 Clear 5 1008 65 10000 4.47 240 19:20 18.10.2020
6601 Clear 6 1008 65 10000 4.47 240 18:48 18.10.2020
6602 Clear 7 1008 65 10000 4.47 240 18:25 18.10.2020
6603 Rain 8 1009 33 10000 3.1 350 17:43 18.10.2020
6604 Clear 8 1008 61 10000 4.47 220 17:24 18.10.2020
6605 Rain 8 1008 61 10000 4.47 220 16:45 18.10.2020
6606 Clear 8 1008 61 10000 4.47 220 16:26 18.10.2020
6607 Rain 8 1008 54 10000 3.58 218 15:57 18.10.2020
6608 Rain 8 1008 54 10000 3.58 218 15:39 18.10.2020
6609 Clear 8 1008 54 10000 3.58 218 15:18 18.10.2020
6610 Clear 8 1008 54 10000 3.58 218 14:50 18.10.2020
6611 Clear 8 1008 54 10000 3.58 218 14:27 18.10.2020
6612 Clear 8 1008 54 10000 0.89 197 13:55 18.10.2020
6613 Rain 8 1008 54 10000 0.89 197 13:36 18.10.2020
6614 Clear 8 1008 60 10000 4.23 323 13:18 18.10.2020
6615 Clear 8 1008 60 10000 4.23 323 12:41 18.10.2020
6616 Clear 7 1008 60 10000 4.51 320 12:20 18.10.2020
6617 Rain 6 1008 60 10000 4.51 320 11:41 18.10.2020
6618 Clear 6 1008 60 10000 3.76 300 11:22 18.10.2020
6619 Clear 5 1008 60 10000 3.76 300 10:40 18.10.2020
6620 Clear 5 1008 60 10000 3.76 300 10:40 18.10.2020
6621 Clear 6 1007 38 10000 0.89 319 10:20 18.10.2020
6622 Clear 5 1008 40 10000 2.36 287 09:50 18.10.2020
6623 Clear 4 1009 55 10000 2.1 230 09:23 18.10.2020
6624 Clear 3 987 62 10000 2.16 287 08:57 18.10.2020
6625 Clear 3 987 62 10000 2.16 287 08:37 18.10.2020
6626 Clear 3 987 60 10000 0.45 90 08:19 18.10.2020
6627 Clear 2 987 56 10000 1.98 295 06:57 18.10.2020
6628 Rain 3 987 55 10000 0.89 90 04:44 18.10.2020
6629 Clear 3 988 53 10000 0.45 90 02:56 18.10.2020
6630 Clouds 3 988 56 10000 2.39 324 01:39 18.10.2020
6631 Clouds 3 988 54 10000 2.18 305 00:50 18.10.2020
6632 Clouds 4 988 54 10000 1.87 310 00:32 18.10.2020
6633 Clouds 5 988 53 10000 1.87 310 23:45 17.10.2020
6634 Clouds 5 988 54 10000 1.51 312 23:22 17.10.2020
6635 Clouds 5 988 52 10000 1.51 312 22:59 17.10.2020
6636 Rain 5 987 52 10000 1.51 312 22:40 17.10.2020
6637 Clouds 6 988 52 10000 1.58 315 22:19 17.10.2020
6638 Rain 5 1008 85 10000 1.58 315 21:44 17.10.2020
6639 Clouds 6 988 61 10000 2.48 1 21:23 17.10.2020
6640 Clouds 6 988 68 10000 2.48 1 20:49 17.10.2020
6641 Clouds 5 988 75 10000 2.47 347 20:21 17.10.2020
6642 Clouds 5 988 75 10000 0.45 90 19:59 17.10.2020
6643 Rain 5 987 80 10000 2.47 347 19:40 17.10.2020
6644 Clouds 5 988 76 10000 1.56 348 19:18 17.10.2020
6645 Clouds 5 988 72 10000 1.56 348 18:41 17.10.2020
6646 Clouds 5 1010 70 10000 0.89 72 18:19 17.10.2020
6647 Rain 6 1010 70 10000 0.89 72 17:42 17.10.2020
6648 Clouds 7 1011 87 10000 1.5 320 17:21 17.10.2020
6649 Clouds 8 1011 87 10000 1.5 10 16:48 17.10.2020
6650 Clouds 8 1011 87 10000 1.5 10 16:23 17.10.2020
6651 Fog 7 1012 93 10000 1 0 15:55 17.10.2020
6652 Fog 7 1012 93 10000 1 0 15:36 17.10.2020
6653 Clouds 7 1014 77 10000 0.89 82 15:18 17.10.2020
6654 Clouds 7 1014 77 10000 0.89 82 14:39 17.10.2020
6655 Fog 6 1013 100 400 2.1 180 14:20 17.10.2020
6656 Fog 7 1013 100 400 1.5 180 13:48 17.10.2020
6657 Fog 7 1013 100 400 1.5 180 13:30 17.10.2020
6658 Fog 7 1014 100 600 1 0 13:00 17.10.2020
6659 Fog 7 1014 100 400 0.5 0 12:39 17.10.2020
6660 Fog 6 1015 67 400 1 0 12:19 17.10.2020
6661 Fog 5 1015 67 400 1.5 190 11:51 17.10.2020
6662 Fog 5 1015 72 400 1.5 190 11:28 17.10.2020
6663 Fog 2 1016 100 250 0.5 0 10:33 17.10.2020
6664 Clouds 3 994 95 10000 0.6 249 09:55 17.10.2020
6665 Clouds 3 994 95 10000 0.45 90 09:34 17.10.2020
6666 Clouds 2 994 95 10000 0.45 90 08:59 17.10.2020
6667 Clear 3 994 94 10000 0.68 219 08:28 17.10.2020
6668 Clear 3 995 93 10000 0.45 90 07:53 17.10.2020
6669 Clear 3 995 92 10000 0.45 90 07:27 17.10.2020
6670 Clear 2 996 90 10000 0.45 90 06:22 17.10.2020
6671 Clear 3 998 82 10000 1.13 187 03:48 17.10.2020
6672 Clear 3 1000 83 10000 0.57 233 02:28 17.10.2020
6673 Clear 4 1001 80 10000 0.45 262 00:53 17.10.2020
6674 Clear 4 1001 80 10000 0.6 289 00:30 17.10.2020
6675 Clear 5 1002 77 10000 0.73 297 23:27 16.10.2020
6676 Clear 4 1002 75 10000 0.73 297 22:59 16.10.2020
6677 Clear 5 1002 75 10000 0.73 297 22:41 16.10.2020
6678 Clear 5 1002 75 10000 0.88 305 22:22 16.10.2020
6679 Clear 6 1002 73 10000 0.88 305 21:46 16.10.2020
6680 Clear 6 1002 72 10000 0.91 310 21:24 16.10.2020
6681 Clear 6 1002 70 10000 0.91 310 20:44 16.10.2020
6682 Clear 6 1002 68 10000 1.07 309 20:25 16.10.2020
6683 Clear 7 1023 68 10000 1.79 87 19:47 16.10.2020
6684 Clear 7 1023 68 10000 1.79 87 19:28 16.10.2020
6685 Clear 7 1023 62 10000 0.91 312 18:57 16.10.2020
6686 Clear 8 1023 62 10000 0.91 312 18:34 16.10.2020
6687 Clear 10 1023 55 10000 1.79 36 17:51 16.10.2020
6688 Clear 10 1023 55 10000 1.79 36 17:33 16.10.2020
6689 Clear 12 1025 45 10000 0.82 28 16:57 16.10.2020
6690 Clear 11 1023 60 10000 1.79 36 16:38 16.10.2020
6691 Clouds 12 1023 60 10000 1.79 36 16:19 16.10.2020
6692 Clouds 12 1023 60 10000 1.79 36 15:24 16.10.2020
6693 Clouds 12 1023 60 10000 1.79 36 14:58 16.10.2020
6694 Clouds 12 1023 60 10000 1.79 36 14:58 16.10.2020
6695 Clouds 13 1023 62 10000 2.02 27 14:39 16.10.2020
6696 Clouds 13 1023 62 10000 1.39 357 14:18 16.10.2020
6697 Clouds 13 1023 62 10000 2.15 24 14:18 16.10.2020
6698 Clouds 12 1023 62 10000 1.39 357 13:42 16.10.2020
6699 Clouds 12 1023 62 10000 1.79 67 13:24 16.10.2020
6700 Clouds 12 1023 62 10000 1.79 67 12:57 16.10.2020
6701 Clouds 11 1023 64 10000 1.79 67 12:26 16.10.2020
6702 Clouds 11 1023 64 10000 1.79 67 11:57 16.10.2020
6703 Clouds 10 1023 64 10000 1.79 67 11:39 16.10.2020
6704 Clouds 9 1023 67 10000 1.79 29 11:18 16.10.2020
6705 Clouds 8 1023 67 10000 1.79 29 10:46 16.10.2020
6706 Clouds 7 1023 67 10000 1.79 29 10:26 16.10.2020
6707 Clouds 7 1023 67 10000 1.79 29 09:40 16.10.2020
6708 Clouds 6 1023 67 10000 1.79 29 09:40 16.10.2020
6709 Clouds 6 1023 67 10000 1.79 29 09:22 16.10.2020
6710 Clouds 5 1023 63 10000 2.68 129 08:46 16.10.2020
6711 Clouds 5